﻿<?xml version="1.0" encoding="utf-8"?><gpx creator="Garmin Desktop App" version="1.1" xsi:schemaLocation="http://www.topografix.com/GPX/1/1 http://www.topografix.com/GPX/1/1/gpx.xsd http://www.garmin.com/xmlschemas/WaypointExtension/v1 http://www8.garmin.com/xmlschemas/WaypointExtensionv1.xsd http://www.garmin.com/xmlschemas/TrackPointExtension/v1 http://www.garmin.com/xmlschemas/TrackPointExtensionv1.xsd http://www.garmin.com/xmlschemas/GpxExtensions/v3 http://www8.garmin.com/xmlschemas/GpxExtensionsv3.xsd http://www.garmin.com/xmlschemas/ActivityExtension/v1 http://www8.garmin.com/xmlschemas/ActivityExtensionv1.xsd http://www.garmin.com/xmlschemas/AdventuresExtensions/v1 http://www8.garmin.com/xmlschemas/AdventuresExtensionv1.xsd http://www.garmin.com/xmlschemas/PressureExtension/v1 http://www.garmin.com/xmlschemas/PressureExtensionv1.xsd http://www.garmin.com/xmlschemas/TripExtensions/v1 http://www.garmin.com/xmlschemas/TripExtensionsv1.xsd http://www.garmin.com/xmlschemas/TripMetaDataExtensions/v1 http://www.garmin.com/xmlschemas/TripMetaDataExtensionsv1.xsd http://www.garmin.com/xmlschemas/ViaPointTransportationModeExtensions/v1 http://www.garmin.com/xmlschemas/ViaPointTransportationModeExtensionsv1.xsd http://www.garmin.com/xmlschemas/CreationTimeExtension/v1 http://www.garmin.com/xmlschemas/CreationTimeExtensionsv1.xsd http://www.garmin.com/xmlschemas/AccelerationExtension/v1 http://www.garmin.com/xmlschemas/AccelerationExtensionv1.xsd http://www.garmin.com/xmlschemas/PowerExtension/v1 http://www.garmin.com/xmlschemas/PowerExtensionv1.xsd http://www.garmin.com/xmlschemas/VideoExtension/v1 http://www.garmin.com/xmlschemas/VideoExtensionv1.xsd" xmlns="http://www.topografix.com/GPX/1/1" xmlns:xsi="http://www.w3.org/2001/XMLSchema-instance" xmlns:wptx1="http://www.garmin.com/xmlschemas/WaypointExtension/v1" xmlns:gpxtrx="http://www.garmin.com/xmlschemas/GpxExtensions/v3" xmlns:gpxtpx="http://www.garmin.com/xmlschemas/TrackPointExtension/v1" xmlns:gpxx="http://www.garmin.com/xmlschemas/GpxExtensions/v3" xmlns:trp="http://www.garmin.com/xmlschemas/TripExtensions/v1" xmlns:adv="http://www.garmin.com/xmlschemas/AdventuresExtensions/v1" xmlns:prs="http://www.garmin.com/xmlschemas/PressureExtension/v1" xmlns:tmd="http://www.garmin.com/xmlschemas/TripMetaDataExtensions/v1" xmlns:vptm="http://www.garmin.com/xmlschemas/ViaPointTransportationModeExtensions/v1" xmlns:ctx="http://www.garmin.com/xmlschemas/CreationTimeExtension/v1" xmlns:gpxacc="http://www.garmin.com/xmlschemas/AccelerationExtension/v1" xmlns:gpxpx="http://www.garmin.com/xmlschemas/PowerExtension/v1" xmlns:vidx1="http://www.garmin.com/xmlschemas/VideoExtension/v1">

  <metadata>
    <link href="http://www.garmin.com">
      <text>Garmin International</text>
    </link>
    <time>2026-07-08T17:22:35Z</time>
    <bounds maxlat="54.495551995933056" maxlon="-5.435889009386301" minlat="53.336306037381291" minlon="-6.791293965652585" />
  </metadata>

  <trk>
    <name>Track vom: 2026-07-08 08:18</name>
    <extensions>
      <gpxx:TrackExtension>
        <gpxx:DisplayColor>DarkGray</gpxx:DisplayColor>
      </gpxx:TrackExtension>
    </extensions>
    <trkseg>
      <trkpt lat="54.495536992326379" lon="-5.460874959826469">
        <ele>3.5</ele>
        <time>2026-07-08T07:18:43Z</time>
      </trkpt>
      <trkpt lat="54.495551995933056" lon="-5.46061503700912">
        <ele>13.6</ele>
        <time>2026-07-08T07:19:43Z</time>
      </trkpt>
      <trkpt lat="54.495545960962772" lon="-5.460550999268889">
        <ele>10.710000000000001</ele>
        <time>2026-07-08T07:20:31Z</time>
      </trkpt>
      <trkpt lat="54.495546966791153" lon="-5.460546975955367">
        <ele>10.710000000000001</ele>
        <time>2026-07-08T07:21:00Z</time>
      </trkpt>
      <trkpt lat="54.495500028133392" lon="-5.460566002875567">
        <ele>10.23</ele>
        <time>2026-07-08T07:21:03Z</time>
      </trkpt>
      <trkpt lat="54.495482007041574" lon="-5.460523003712297">
        <ele>9.75</ele>
        <time>2026-07-08T07:21:04Z</time>
      </trkpt>
      <trkpt lat="54.495456023141742" lon="-5.460457960143685">
        <ele>9.75</ele>
        <time>2026-07-08T07:21:05Z</time>
      </trkpt>
      <trkpt lat="54.495449988171458" lon="-5.460441028699279">
        <ele>9.75</ele>
        <time>2026-07-08T07:21:06Z</time>
      </trkpt>
      <trkpt lat="54.495379999279976" lon="-5.460307002067566">
        <ele>9.27</ele>
        <time>2026-07-08T07:21:07Z</time>
      </trkpt>
      <trkpt lat="54.495316967368126" lon="-5.460222009569407">
        <ele>9.27</ele>
        <time>2026-07-08T07:21:08Z</time>
      </trkpt>
      <trkpt lat="54.495257036760449" lon="-5.460109021514654">
        <ele>9.27</ele>
        <time>2026-07-08T07:21:09Z</time>
      </trkpt>
      <trkpt lat="54.494621017947793" lon="-5.458888029679656">
        <ele>10.710000000000001</ele>
        <time>2026-07-08T07:21:17Z</time>
      </trkpt>
      <trkpt lat="54.494187003001571" lon="-5.458041960373521">
        <ele>10.23</ele>
        <time>2026-07-08T07:21:25Z</time>
      </trkpt>
      <trkpt lat="54.49409999884665" lon="-5.457870969548821">
        <ele>9.75</ele>
        <time>2026-07-08T07:21:27Z</time>
      </trkpt>
      <trkpt lat="54.494058005511761" lon="-5.457790000364184">
        <ele>9.75</ele>
        <time>2026-07-08T07:21:28Z</time>
      </trkpt>
      <trkpt lat="54.493417041376233" lon="-5.456475969403982">
        <ele>10.23</ele>
        <time>2026-07-08T07:21:42Z</time>
      </trkpt>
      <trkpt lat="54.492980008944869" lon="-5.455352962017059">
        <ele>10.710000000000001</ele>
        <time>2026-07-08T07:21:50Z</time>
      </trkpt>
      <trkpt lat="54.492684965953231" lon="-5.454499013721943">
        <ele>12.15</ele>
        <time>2026-07-08T07:21:59Z</time>
      </trkpt>
      <trkpt lat="54.492312977090478" lon="-5.45330903492868">
        <ele>12.15</ele>
        <time>2026-07-08T07:22:05Z</time>
      </trkpt>
      <trkpt lat="54.491533041000366" lon="-5.45071299187839">
        <ele>13.6</ele>
        <time>2026-07-08T07:22:15Z</time>
      </trkpt>
      <trkpt lat="54.490997018292546" lon="-5.448687002062798">
        <ele>14.08</ele>
        <time>2026-07-08T07:22:25Z</time>
      </trkpt>
      <trkpt lat="54.49072896502912" lon="-5.447330977767706">
        <ele>13.6</ele>
        <time>2026-07-08T07:22:32Z</time>
      </trkpt>
      <trkpt lat="54.4906419608742" lon="-5.447121011093259">
        <ele>13.6</ele>
        <time>2026-07-08T07:22:33Z</time>
      </trkpt>
      <trkpt lat="54.490550011396408" lon="-5.446896962821484">
        <ele>13.6</ele>
        <time>2026-07-08T07:22:34Z</time>
      </trkpt>
      <trkpt lat="54.490453032776713" lon="-5.446678027510643">
        <ele>13.119999999999999</ele>
        <time>2026-07-08T07:22:35Z</time>
      </trkpt>
      <trkpt lat="54.490329986438155" lon="-5.446483986452222">
        <ele>13.119999999999999</ele>
        <time>2026-07-08T07:22:36Z</time>
      </trkpt>
      <trkpt lat="54.490205012261868" lon="-5.446288017556071">
        <ele>13.119999999999999</ele>
        <time>2026-07-08T07:22:37Z</time>
      </trkpt>
      <trkpt lat="54.489852972328663" lon="-5.445657027885318">
        <ele>12.15</ele>
        <time>2026-07-08T07:22:40Z</time>
      </trkpt>
      <trkpt lat="54.489745013415813" lon="-5.44542602263391">
        <ele>12.15</ele>
        <time>2026-07-08T07:22:41Z</time>
      </trkpt>
      <trkpt lat="54.489664966240525" lon="-5.44516802765429">
        <ele>12.15</ele>
        <time>2026-07-08T07:22:42Z</time>
      </trkpt>
      <trkpt lat="54.489122992381454" lon="-5.442814975976944">
        <ele>11.67</ele>
        <time>2026-07-08T07:22:51Z</time>
      </trkpt>
      <trkpt lat="54.488995000720024" lon="-5.442073009908199">
        <ele>12.15</ele>
        <time>2026-07-08T07:22:54Z</time>
      </trkpt>
      <trkpt lat="54.488996006548405" lon="-5.441829012706876">
        <ele>12.15</ele>
        <time>2026-07-08T07:22:55Z</time>
      </trkpt>
      <trkpt lat="54.489002041518688" lon="-5.441569006070495">
        <ele>12.15</ele>
        <time>2026-07-08T07:22:56Z</time>
      </trkpt>
      <trkpt lat="54.48900799266994" lon="-5.441314028576016">
        <ele>12.15</ele>
        <time>2026-07-08T07:22:57Z</time>
      </trkpt>
      <trkpt lat="54.489016039296985" lon="-5.441076988354325">
        <ele>12.15</ele>
        <time>2026-07-08T07:22:58Z</time>
      </trkpt>
      <trkpt lat="54.489044034853578" lon="-5.440632998943329">
        <ele>12.630000000000001</ele>
        <time>2026-07-08T07:23:00Z</time>
      </trkpt>
      <trkpt lat="54.489049986004829" lon="-5.440422026440501">
        <ele>12.630000000000001</ele>
        <time>2026-07-08T07:23:01Z</time>
      </trkpt>
      <trkpt lat="54.489024002104998" lon="-5.440210970118642">
        <ele>12.630000000000001</ele>
        <time>2026-07-08T07:23:02Z</time>
      </trkpt>
      <trkpt lat="54.488975973799825" lon="-5.440017012879252">
        <ele>12.630000000000001</ele>
        <time>2026-07-08T07:23:03Z</time>
      </trkpt>
      <trkpt lat="54.488904979079962" lon="-5.439816014841199">
        <ele>13.119999999999999</ele>
        <time>2026-07-08T07:23:04Z</time>
      </trkpt>
      <trkpt lat="54.488818980753422" lon="-5.439627002924681">
        <ele>13.6</ele>
        <time>2026-07-08T07:23:05Z</time>
      </trkpt>
      <trkpt lat="54.488719990476966" lon="-5.439429022371769">
        <ele>14.56</ele>
        <time>2026-07-08T07:23:06Z</time>
      </trkpt>
      <trkpt lat="54.487406965345144" lon="-5.437216032296419">
        <ele>22.73</ele>
        <time>2026-07-08T07:23:18Z</time>
      </trkpt>
      <trkpt lat="54.486054964363575" lon="-5.435996968299151">
        <ele>20.32</ele>
        <time>2026-07-08T07:23:28Z</time>
      </trkpt>
      <trkpt lat="54.48496900498867" lon="-5.435889009386301">
        <ele>16.960000000000001</ele>
        <time>2026-07-08T07:23:35Z</time>
      </trkpt>
      <trkpt lat="54.483852032572031" lon="-5.436593005433679">
        <ele>12.15</ele>
        <time>2026-07-08T07:23:42Z</time>
      </trkpt>
      <trkpt lat="54.481307035312057" lon="-5.438801972195506">
        <ele>11.19</ele>
        <time>2026-07-08T07:23:58Z</time>
      </trkpt>
      <trkpt lat="54.479904994368553" lon="-5.439460035413504">
        <ele>12.15</ele>
        <time>2026-07-08T07:24:06Z</time>
      </trkpt>
      <trkpt lat="54.478471018373966" lon="-5.440765013918281">
        <ele>12.630000000000001</ele>
        <time>2026-07-08T07:24:15Z</time>
      </trkpt>
      <trkpt lat="54.477092027664185" lon="-5.442303009331226">
        <ele>12.15</ele>
        <time>2026-07-08T07:24:24Z</time>
      </trkpt>
      <trkpt lat="54.475813033059239" lon="-5.442781029269099">
        <ele>13.119999999999999</ele>
        <time>2026-07-08T07:24:31Z</time>
      </trkpt>
      <trkpt lat="54.473076006397605" lon="-5.442951014265418">
        <ele>13.119999999999999</ele>
        <time>2026-07-08T07:24:45Z</time>
      </trkpt>
      <trkpt lat="54.471586961299181" lon="-5.442217011004686">
        <ele>16.48</ele>
        <time>2026-07-08T07:24:53Z</time>
      </trkpt>
      <trkpt lat="54.469823995605111" lon="-5.440332004800439">
        <ele>20.32</ele>
        <time>2026-07-08T07:25:04Z</time>
      </trkpt>
      <trkpt lat="54.468881031498313" lon="-5.439599007368088">
        <ele>19.359999999999999</ele>
        <time>2026-07-08T07:25:11Z</time>
      </trkpt>
      <trkpt lat="54.468191033229232" lon="-5.439155017957091">
        <ele>19.84</ele>
        <time>2026-07-08T07:25:19Z</time>
      </trkpt>
      <trkpt lat="54.468157002702355" lon="-5.43913297355175">
        <ele>19.84</ele>
        <time>2026-07-08T07:25:20Z</time>
      </trkpt>
      <trkpt lat="54.468077961355448" lon="-5.439136996865273">
        <ele>19.84</ele>
        <time>2026-07-08T07:25:21Z</time>
      </trkpt>
      <trkpt lat="54.468060024082661" lon="-5.439200028777123">
        <ele>19.359999999999999</ele>
        <time>2026-07-08T07:25:22Z</time>
      </trkpt>
      <trkpt lat="54.468034040182829" lon="-5.439290972426534">
        <ele>19.359999999999999</ele>
        <time>2026-07-08T07:25:23Z</time>
      </trkpt>
      <trkpt lat="54.468002021312714" lon="-5.439402032643557">
        <ele>19.359999999999999</ele>
        <time>2026-07-08T07:25:24Z</time>
      </trkpt>
      <trkpt lat="54.467964973300695" lon="-5.439531030133367">
        <ele>19.359999999999999</ele>
        <time>2026-07-08T07:25:25Z</time>
      </trkpt>
      <trkpt lat="54.467612011358142" lon="-5.440821005031467">
        <ele>21.77</ele>
        <time>2026-07-08T07:25:32Z</time>
      </trkpt>
      <trkpt lat="54.467591978609562" lon="-5.441061984747648">
        <ele>21.77</ele>
        <time>2026-07-08T07:25:33Z</time>
      </trkpt>
      <trkpt lat="54.467571023851633" lon="-5.441305981948972">
        <ele>21.289999999999999</ele>
        <time>2026-07-08T07:25:34Z</time>
      </trkpt>
      <trkpt lat="54.467530958354473" lon="-5.443031983450055">
        <ele>20.809999999999999</ele>
        <time>2026-07-08T07:25:41Z</time>
      </trkpt>
      <trkpt lat="54.46756599470973" lon="-5.443287966772914">
        <ele>21.289999999999999</ele>
        <time>2026-07-08T07:25:42Z</time>
      </trkpt>
      <trkpt lat="54.467876041308045" lon="-5.445779990404844">
        <ele>20.32</ele>
        <time>2026-07-08T07:25:52Z</time>
      </trkpt>
      <trkpt lat="54.467962039634585" lon="-5.446536960080266">
        <ele>21.77</ele>
        <time>2026-07-08T07:25:55Z</time>
      </trkpt>
      <trkpt lat="54.467947036027908" lon="-5.446771988645196">
        <ele>22.25</ele>
        <time>2026-07-08T07:25:56Z</time>
      </trkpt>
      <trkpt lat="54.467804962769151" lon="-5.448866961523891">
        <ele>22.73</ele>
        <time>2026-07-08T07:26:05Z</time>
      </trkpt>
      <trkpt lat="54.467713013291359" lon="-5.449308017268777">
        <ele>21.289999999999999</ele>
        <time>2026-07-08T07:26:11Z</time>
      </trkpt>
      <trkpt lat="54.467674037441611" lon="-5.449296031147242">
        <ele>20.809999999999999</ele>
        <time>2026-07-08T07:26:12Z</time>
      </trkpt>
      <trkpt lat="54.467613017186522" lon="-5.449277004227042">
        <ele>20.32</ele>
        <time>2026-07-08T07:26:13Z</time>
      </trkpt>
      <trkpt lat="54.467537999153137" lon="-5.449253031983972">
        <ele>19.84</ele>
        <time>2026-07-08T07:26:14Z</time>
      </trkpt>
      <trkpt lat="54.466838026419282" lon="-5.449010962620378">
        <ele>18.879999999999999</ele>
        <time>2026-07-08T07:26:20Z</time>
      </trkpt>
      <trkpt lat="54.465569006279111" lon="-5.448454990983009">
        <ele>17.920000000000002</ele>
        <time>2026-07-08T07:26:29Z</time>
      </trkpt>
      <trkpt lat="54.46415196172893" lon="-5.447847973555327">
        <ele>21.77</ele>
        <time>2026-07-08T07:26:41Z</time>
      </trkpt>
      <trkpt lat="54.462718991562724" lon="-5.447498029097915">
        <ele>19.359999999999999</ele>
        <time>2026-07-08T07:26:53Z</time>
      </trkpt>
      <trkpt lat="54.461314016953111" lon="-5.447325026616454">
        <ele>17.920000000000002</ele>
        <time>2026-07-08T07:27:04Z</time>
      </trkpt>
      <trkpt lat="54.460757961496711" lon="-5.447357967495918">
        <ele>16.960000000000001</ele>
        <time>2026-07-08T07:27:09Z</time>
      </trkpt>
      <trkpt lat="54.45968197658658" lon="-5.447837999090552">
        <ele>16</ele>
        <time>2026-07-08T07:27:19Z</time>
      </trkpt>
      <trkpt lat="54.458711016923189" lon="-5.448448034003377">
        <ele>17.440000000000001</ele>
        <time>2026-07-08T07:27:28Z</time>
      </trkpt>
      <trkpt lat="54.458599034696817" lon="-5.448511987924576">
        <ele>17.440000000000001</ele>
        <time>2026-07-08T07:27:29Z</time>
      </trkpt>
      <trkpt lat="54.457244016230106" lon="-5.448940973728895">
        <ele>18.399999999999999</ele>
        <time>2026-07-08T07:27:41Z</time>
      </trkpt>
      <trkpt lat="54.455750025808811" lon="-5.449168039485812">
        <ele>18.399999999999999</ele>
        <time>2026-07-08T07:27:54Z</time>
      </trkpt>
      <trkpt lat="54.454146986827254" lon="-5.449507003650069">
        <ele>15.039999999999999</ele>
        <time>2026-07-08T07:28:08Z</time>
      </trkpt>
      <trkpt lat="54.454035004600883" lon="-5.449562994763255">
        <ele>15.039999999999999</ele>
        <time>2026-07-08T07:28:09Z</time>
      </trkpt>
      <trkpt lat="54.453923022374511" lon="-5.449618985876441">
        <ele>15.039999999999999</ele>
        <time>2026-07-08T07:28:10Z</time>
      </trkpt>
      <trkpt lat="54.452642016112804" lon="-5.450505958870053">
        <ele>14.08</ele>
        <time>2026-07-08T07:28:22Z</time>
      </trkpt>
      <trkpt lat="54.451491013169289" lon="-5.450913989916444">
        <ele>14.08</ele>
        <time>2026-07-08T07:28:32Z</time>
      </trkpt>
      <trkpt lat="54.450317965820432" lon="-5.451175002381206">
        <ele>12.630000000000001</ele>
        <time>2026-07-08T07:28:40Z</time>
      </trkpt>
      <trkpt lat="54.449355974793434" lon="-5.451493011787534">
        <ele>13.119999999999999</ele>
        <time>2026-07-08T07:28:46Z</time>
      </trkpt>
      <trkpt lat="54.449190013110638" lon="-5.451493011787534">
        <ele>13.119999999999999</ele>
        <time>2026-07-08T07:28:47Z</time>
      </trkpt>
      <trkpt lat="54.449014998972416" lon="-5.451493011787534">
        <ele>13.119999999999999</ele>
        <time>2026-07-08T07:28:48Z</time>
      </trkpt>
      <trkpt lat="54.448530022054911" lon="-5.451448000967503">
        <ele>13.119999999999999</ele>
        <time>2026-07-08T07:28:51Z</time>
      </trkpt>
      <trkpt lat="54.448370011523366" lon="-5.451432997360826">
        <ele>13.119999999999999</ele>
        <time>2026-07-08T07:28:52Z</time>
      </trkpt>
      <trkpt lat="54.448219975456595" lon="-5.451502986252308">
        <ele>13.6</ele>
        <time>2026-07-08T07:28:53Z</time>
      </trkpt>
      <trkpt lat="54.448076980188489" lon="-5.451598959043622">
        <ele>14.08</ele>
        <time>2026-07-08T07:28:54Z</time>
      </trkpt>
      <trkpt lat="54.447930967435241" lon="-5.451697027310729">
        <ele>14.56</ele>
        <time>2026-07-08T07:28:55Z</time>
      </trkpt>
      <trkpt lat="54.447784032672644" lon="-5.451797023415566">
        <ele>14.56</ele>
        <time>2026-07-08T07:28:56Z</time>
      </trkpt>
      <trkpt lat="54.447483038529754" lon="-5.45197899453342">
        <ele>14.56</ele>
        <time>2026-07-08T07:28:58Z</time>
      </trkpt>
      <trkpt lat="54.447319004684687" lon="-5.452020987868309">
        <ele>14.08</ele>
        <time>2026-07-08T07:28:59Z</time>
      </trkpt>
      <trkpt lat="54.446197003126144" lon="-5.452359030023217">
        <ele>13.6</ele>
        <time>2026-07-08T07:29:06Z</time>
      </trkpt>
      <trkpt lat="54.446050990372896" lon="-5.452471012249589">
        <ele>13.6</ele>
        <time>2026-07-08T07:29:07Z</time>
      </trkpt>
      <trkpt lat="54.445915035903454" lon="-5.452617025002837">
        <ele>13.6</ele>
        <time>2026-07-08T07:29:08Z</time>
      </trkpt>
      <trkpt lat="54.444486005231738" lon="-5.454456014558673">
        <ele>13.6</ele>
        <time>2026-07-08T07:29:20Z</time>
      </trkpt>
      <trkpt lat="54.443859038874507" lon="-5.455928966403008">
        <ele>14.08</ele>
        <time>2026-07-08T07:29:29Z</time>
      </trkpt>
      <trkpt lat="54.443134004250169" lon="-5.457871975377202">
        <ele>13.6</ele>
        <time>2026-07-08T07:29:40Z</time>
      </trkpt>
      <trkpt lat="54.442502008751035" lon="-5.460064010694623">
        <ele>14.08</ele>
        <time>2026-07-08T07:29:51Z</time>
      </trkpt>
      <trkpt lat="54.44167697802186" lon="-5.462328968569636">
        <ele>15.039999999999999</ele>
        <time>2026-07-08T07:30:03Z</time>
      </trkpt>
      <trkpt lat="54.440484987571836" lon="-5.465347962453961">
        <ele>16.960000000000001</ele>
        <time>2026-07-08T07:30:19Z</time>
      </trkpt>
      <trkpt lat="54.439454013481736" lon="-5.467547038570046">
        <ele>14.56</ele>
        <time>2026-07-08T07:30:31Z</time>
      </trkpt>
      <trkpt lat="54.437985001131892" lon="-5.470169987529516">
        <ele>13.119999999999999</ele>
        <time>2026-07-08T07:30:45Z</time>
      </trkpt>
      <trkpt lat="54.43654197268188" lon="-5.472446009516716">
        <ele>12.630000000000001</ele>
        <time>2026-07-08T07:30:58Z</time>
      </trkpt>
      <trkpt lat="54.435264989733696" lon="-5.474422965198755">
        <ele>14.08</ele>
        <time>2026-07-08T07:31:12Z</time>
      </trkpt>
      <trkpt lat="54.434154974296689" lon="-5.476141003891826">
        <ele>10.23</ele>
        <time>2026-07-08T07:31:24Z</time>
      </trkpt>
      <trkpt lat="54.433227013796568" lon="-5.477189999073744">
        <ele>11.67</ele>
        <time>2026-07-08T07:31:33Z</time>
      </trkpt>
      <trkpt lat="54.431596985086799" lon="-5.478759007528424">
        <ele>13.6</ele>
        <time>2026-07-08T07:31:48Z</time>
      </trkpt>
      <trkpt lat="54.430422009900212" lon="-5.479467026889324">
        <ele>14.56</ele>
        <time>2026-07-08T07:31:58Z</time>
      </trkpt>
      <trkpt lat="54.428991973400116" lon="-5.480328015983105">
        <ele>14.08</ele>
        <time>2026-07-08T07:32:10Z</time>
      </trkpt>
      <trkpt lat="54.428575979545712" lon="-5.480764964595437">
        <ele>13.6</ele>
        <time>2026-07-08T07:32:14Z</time>
      </trkpt>
      <trkpt lat="54.428477995097637" lon="-5.480887005105615">
        <ele>14.08</ele>
        <time>2026-07-08T07:32:15Z</time>
      </trkpt>
      <trkpt lat="54.428387973457575" lon="-5.481000998988748">
        <ele>14.08</ele>
        <time>2026-07-08T07:32:16Z</time>
      </trkpt>
      <trkpt lat="54.428370036184788" lon="-5.481062019243836">
        <ele>14.08</ele>
        <time>2026-07-08T07:32:17Z</time>
      </trkpt>
      <trkpt lat="54.428359977900982" lon="-5.481204008683562">
        <ele>14.08</ele>
        <time>2026-07-08T07:32:18Z</time>
      </trkpt>
      <trkpt lat="54.428347991779447" lon="-5.481356978416443">
        <ele>14.56</ele>
        <time>2026-07-08T07:32:19Z</time>
      </trkpt>
      <trkpt lat="54.428338017314672" lon="-5.481501985341311">
        <ele>15.039999999999999</ele>
        <time>2026-07-08T07:32:20Z</time>
      </trkpt>
      <trkpt lat="54.428327037021518" lon="-5.481652021408081">
        <ele>15.52</ele>
        <time>2026-07-08T07:32:21Z</time>
      </trkpt>
      <trkpt lat="54.428314967080951" lon="-5.481815971434116">
        <ele>15.52</ele>
        <time>2026-07-08T07:32:22Z</time>
      </trkpt>
      <trkpt lat="54.428285965695977" lon="-5.481991991400719">
        <ele>16</ele>
        <time>2026-07-08T07:32:23Z</time>
      </trkpt>
      <trkpt lat="54.428242966532707" lon="-5.482164993882179">
        <ele>16.48</ele>
        <time>2026-07-08T07:32:24Z</time>
      </trkpt>
      <trkpt lat="54.428198039531708" lon="-5.482345959171653">
        <ele>16.960000000000001</ele>
        <time>2026-07-08T07:32:25Z</time>
      </trkpt>
      <trkpt lat="54.427738962695003" lon="-5.48427103087306">
        <ele>16.960000000000001</ele>
        <time>2026-07-08T07:32:33Z</time>
      </trkpt>
      <trkpt lat="54.427032032981515" lon="-5.487483981996775">
        <ele>17.920000000000002</ele>
        <time>2026-07-08T07:32:43Z</time>
      </trkpt>
      <trkpt lat="54.426116980612278" lon="-5.491745006293058">
        <ele>20.809999999999999</ele>
        <time>2026-07-08T07:32:56Z</time>
      </trkpt>
      <trkpt lat="54.425026997923851" lon="-5.49696902744472">
        <ele>23.210000000000001</ele>
        <time>2026-07-08T07:33:12Z</time>
      </trkpt>
      <trkpt lat="54.424759028479457" lon="-5.498729981482029">
        <ele>23.210000000000001</ele>
        <time>2026-07-08T07:33:18Z</time>
      </trkpt>
      <trkpt lat="54.424741007387638" lon="-5.498997028917074">
        <ele>23.210000000000001</ele>
        <time>2026-07-08T07:33:19Z</time>
      </trkpt>
      <trkpt lat="54.424695996567607" lon="-5.499448981136084">
        <ele>22.73</ele>
        <time>2026-07-08T07:33:21Z</time>
      </trkpt>
      <trkpt lat="54.42466096021235" lon="-5.499615026637912">
        <ele>22.73</ele>
        <time>2026-07-08T07:33:22Z</time>
      </trkpt>
      <trkpt lat="54.424601029604673" lon="-5.499769002199173">
        <ele>22.25</ele>
        <time>2026-07-08T07:33:23Z</time>
      </trkpt>
      <trkpt lat="54.424523999914527" lon="-5.499881990253925">
        <ele>21.77</ele>
        <time>2026-07-08T07:33:24Z</time>
      </trkpt>
      <trkpt lat="54.424425009638071" lon="-5.499970000237227">
        <ele>21.289999999999999</ele>
        <time>2026-07-08T07:33:25Z</time>
      </trkpt>
      <trkpt lat="54.42431503906846" lon="-5.50004200078547">
        <ele>20.809999999999999</ele>
        <time>2026-07-08T07:33:26Z</time>
      </trkpt>
      <trkpt lat="54.424192998558283" lon="-5.500104026868939">
        <ele>20.32</ele>
        <time>2026-07-08T07:33:27Z</time>
      </trkpt>
      <trkpt lat="54.422858012840152" lon="-5.500696040689945">
        <ele>17.440000000000001</ele>
        <time>2026-07-08T07:33:36Z</time>
      </trkpt>
      <trkpt lat="54.421298978850245" lon="-5.501272967085242">
        <ele>19.84</ele>
        <time>2026-07-08T07:33:46Z</time>
      </trkpt>
      <trkpt lat="54.421166041865945" lon="-5.501247989013791">
        <ele>20.32</ele>
        <time>2026-07-08T07:33:47Z</time>
      </trkpt>
      <trkpt lat="54.42019198089838" lon="-5.501066017895937">
        <ele>20.809999999999999</ele>
        <time>2026-07-08T07:33:54Z</time>
      </trkpt>
      <trkpt lat="54.420076981186867" lon="-5.501044979318976">
        <ele>20.32</ele>
        <time>2026-07-08T07:33:55Z</time>
      </trkpt>
      <trkpt lat="54.41997597925365" lon="-5.500943977385759">
        <ele>19.84</ele>
        <time>2026-07-08T07:33:56Z</time>
      </trkpt>
      <trkpt lat="54.419886041432619" lon="-5.500826966017485">
        <ele>19.84</ele>
        <time>2026-07-08T07:33:57Z</time>
      </trkpt>
      <trkpt lat="54.419796019792557" lon="-5.500709032639861">
        <ele>19.84</ele>
        <time>2026-07-08T07:33:58Z</time>
      </trkpt>
      <trkpt lat="54.419711027294397" lon="-5.500595960766077">
        <ele>19.359999999999999</ele>
        <time>2026-07-08T07:33:59Z</time>
      </trkpt>
      <trkpt lat="54.419628968462348" lon="-5.500507028773427">
        <ele>18.879999999999999</ele>
        <time>2026-07-08T07:34:00Z</time>
      </trkpt>
      <trkpt lat="54.419543975964189" lon="-5.500539969652891">
        <ele>18.879999999999999</ele>
        <time>2026-07-08T07:34:01Z</time>
      </trkpt>
      <trkpt lat="54.419455965980887" lon="-5.500575006008148">
        <ele>18.879999999999999</ele>
        <time>2026-07-08T07:34:02Z</time>
      </trkpt>
      <trkpt lat="54.419362004846334" lon="-5.500610964372754">
        <ele>19.359999999999999</ele>
        <time>2026-07-08T07:34:03Z</time>
      </trkpt>
      <trkpt lat="54.419263014569879" lon="-5.500650024041534">
        <ele>19.359999999999999</ele>
        <time>2026-07-08T07:34:04Z</time>
      </trkpt>
      <trkpt lat="54.418380986899137" lon="-5.500943977385759">
        <ele>19.84</ele>
        <time>2026-07-08T07:34:11Z</time>
      </trkpt>
      <trkpt lat="54.418276967480779" lon="-5.501063000410795">
        <ele>19.84</ele>
        <time>2026-07-08T07:34:12Z</time>
      </trkpt>
      <trkpt lat="54.418180994689465" lon="-5.501201972365379">
        <ele>19.359999999999999</ele>
        <time>2026-07-08T07:34:13Z</time>
      </trkpt>
      <trkpt lat="54.418105976656079" lon="-5.501354020088911">
        <ele>19.359999999999999</ele>
        <time>2026-07-08T07:34:14Z</time>
      </trkpt>
      <trkpt lat="54.418072029948235" lon="-5.501557029783726">
        <ele>19.84</ele>
        <time>2026-07-08T07:34:15Z</time>
      </trkpt>
      <trkpt lat="54.418035987764597" lon="-5.501768002286553">
        <ele>19.84</ele>
        <time>2026-07-08T07:34:16Z</time>
      </trkpt>
      <trkpt lat="54.41799902357161" lon="-5.501977968961">
        <ele>19.84</ele>
        <time>2026-07-08T07:34:17Z</time>
      </trkpt>
      <trkpt lat="54.417943032458425" lon="-5.502180978655815">
        <ele>19.84</ele>
        <time>2026-07-08T07:34:18Z</time>
      </trkpt>
      <trkpt lat="54.417880000546575" lon="-5.502368984743953">
        <ele>19.84</ele>
        <time>2026-07-08T07:34:19Z</time>
      </trkpt>
      <trkpt lat="54.417769024148583" lon="-5.502538969740272">
        <ele>19.84</ele>
        <time>2026-07-08T07:34:20Z</time>
      </trkpt>
      <trkpt lat="54.417658969759941" lon="-5.50270602107048">
        <ele>19.84</ele>
        <time>2026-07-08T07:34:21Z</time>
      </trkpt>
      <trkpt lat="54.417314976453781" lon="-5.50317901186645">
        <ele>20.32</ele>
        <time>2026-07-08T07:34:24Z</time>
      </trkpt>
      <trkpt lat="54.417188996449113" lon="-5.503282025456429">
        <ele>20.809999999999999</ele>
        <time>2026-07-08T07:34:25Z</time>
      </trkpt>
      <trkpt lat="54.41705203615129" lon="-5.503332987427712">
        <ele>20.809999999999999</ele>
        <time>2026-07-08T07:34:26Z</time>
      </trkpt>
      <trkpt lat="54.416092978790402" lon="-5.50362803041935">
        <ele>19.84</ele>
        <time>2026-07-08T07:34:32Z</time>
      </trkpt>
      <trkpt lat="54.415925005450845" lon="-5.503725009039044">
        <ele>19.84</ele>
        <time>2026-07-08T07:34:33Z</time>
      </trkpt>
      <trkpt lat="54.415773963555694" lon="-5.50384595990181">
        <ele>19.359999999999999</ele>
        <time>2026-07-08T07:34:34Z</time>
      </trkpt>
      <trkpt lat="54.415644966065884" lon="-5.504013011232019">
        <ele>19.359999999999999</ele>
        <time>2026-07-08T07:34:35Z</time>
      </trkpt>
      <trkpt lat="54.41552996635437" lon="-5.504215015098453">
        <ele>18.879999999999999</ele>
        <time>2026-07-08T07:34:36Z</time>
      </trkpt>
      <trkpt lat="54.41541999578476" lon="-5.504436967894435">
        <ele>18.879999999999999</ele>
        <time>2026-07-08T07:34:37Z</time>
      </trkpt>
      <trkpt lat="54.414492035284638" lon="-5.50571302883327">
        <ele>21.289999999999999</ele>
        <time>2026-07-08T07:34:44Z</time>
      </trkpt>
      <trkpt lat="54.414378041401505" lon="-5.505846971645951">
        <ele>21.289999999999999</ele>
        <time>2026-07-08T07:34:45Z</time>
      </trkpt>
      <trkpt lat="54.414252983406186" lon="-5.505899023264647">
        <ele>21.289999999999999</ele>
        <time>2026-07-08T07:34:46Z</time>
      </trkpt>
      <trkpt lat="54.41413002088666" lon="-5.50593095831573">
        <ele>21.289999999999999</ele>
        <time>2026-07-08T07:34:47Z</time>
      </trkpt>
      <trkpt lat="54.414004040881991" lon="-5.505926012992859">
        <ele>20.809999999999999</ele>
        <time>2026-07-08T07:34:48Z</time>
      </trkpt>
      <trkpt lat="54.413870014250278" lon="-5.505919978022575">
        <ele>20.32</ele>
        <time>2026-07-08T07:34:49Z</time>
      </trkpt>
      <trkpt lat="54.413170963525772" lon="-5.505889970809221">
        <ele>19.359999999999999</ele>
        <time>2026-07-08T07:34:54Z</time>
      </trkpt>
      <trkpt lat="54.413049006834626" lon="-5.505940010771155">
        <ele>19.359999999999999</ele>
        <time>2026-07-08T07:34:55Z</time>
      </trkpt>
      <trkpt lat="54.412916991859674" lon="-5.506017040461302">
        <ele>19.359999999999999</ele>
        <time>2026-07-08T07:34:56Z</time>
      </trkpt>
      <trkpt lat="54.411947038024664" lon="-5.507020018994808">
        <ele>22.25</ele>
        <time>2026-07-08T07:35:03Z</time>
      </trkpt>
      <trkpt lat="54.410658990964293" lon="-5.508850961923599">
        <ele>22.73</ele>
        <time>2026-07-08T07:35:12Z</time>
      </trkpt>
      <trkpt lat="54.409818034619093" lon="-5.510547962039709">
        <ele>28.02</ele>
        <time>2026-07-08T07:35:19Z</time>
      </trkpt>
      <trkpt lat="54.409738993272185" lon="-5.510839987546206">
        <ele>28.98</ele>
        <time>2026-07-08T07:35:20Z</time>
      </trkpt>
      <trkpt lat="54.409431964159012" lon="-5.511973975226283">
        <ele>34.740000000000002</ele>
        <time>2026-07-08T07:35:24Z</time>
      </trkpt>
      <trkpt lat="54.409353006631136" lon="-5.512204980477691">
        <ele>36.189999999999998</ele>
        <time>2026-07-08T07:35:25Z</time>
      </trkpt>
      <trkpt lat="54.409234989434481" lon="-5.512405978515744">
        <ele>37.630000000000003</ele>
        <time>2026-07-08T07:35:26Z</time>
      </trkpt>
      <trkpt lat="54.409123007208109" lon="-5.512598007917404">
        <ele>39.07</ele>
        <time>2026-07-08T07:35:27Z</time>
      </trkpt>
      <trkpt lat="54.409019993618131" lon="-5.512774027884007">
        <ele>40.030000000000001</ele>
        <time>2026-07-08T07:35:28Z</time>
      </trkpt>
      <trkpt lat="54.408899964764714" lon="-5.512835970148444">
        <ele>40.990000000000002</ele>
        <time>2026-07-08T07:35:29Z</time>
      </trkpt>
      <trkpt lat="54.40876099281013" lon="-5.512905037030578">
        <ele>41.469999999999999</ele>
        <time>2026-07-08T07:35:30Z</time>
      </trkpt>
      <trkpt lat="54.40861196257174" lon="-5.512978965416551">
        <ele>41.469999999999999</ele>
        <time>2026-07-08T07:35:31Z</time>
      </trkpt>
      <trkpt lat="54.407675033435225" lon="-5.513380039483309">
        <ele>40.990000000000002</ele>
        <time>2026-07-08T07:35:37Z</time>
      </trkpt>
      <trkpt lat="54.407508987933397" lon="-5.513422032818198">
        <ele>40.990000000000002</ele>
        <time>2026-07-08T07:35:38Z</time>
      </trkpt>
      <trkpt lat="54.407181004062295" lon="-5.513504007831216">
        <ele>42.439999999999998</ele>
        <time>2026-07-08T07:35:40Z</time>
      </trkpt>
      <trkpt lat="54.40700096078217" lon="-5.513549018651247">
        <ele>43.399999999999999</ele>
        <time>2026-07-08T07:35:41Z</time>
      </trkpt>
      <trkpt lat="54.405675027519464" lon="-5.514487959444523">
        <ele>48.200000000000003</ele>
        <time>2026-07-08T07:35:49Z</time>
      </trkpt>
      <trkpt lat="54.404542967677116" lon="-5.515108974650502">
        <ele>45.799999999999997</ele>
        <time>2026-07-08T07:35:56Z</time>
      </trkpt>
      <trkpt lat="54.40276600420475" lon="-5.516944024711847">
        <ele>40.509999999999998</ele>
        <time>2026-07-08T07:36:07Z</time>
      </trkpt>
      <trkpt lat="54.401225997135043" lon="-5.518149007111788">
        <ele>40.509999999999998</ele>
        <time>2026-07-08T07:36:16Z</time>
      </trkpt>
      <trkpt lat="54.401073027402163" lon="-5.518317986279726">
        <ele>40.509999999999998</ele>
        <time>2026-07-08T07:36:17Z</time>
      </trkpt>
      <trkpt lat="54.399698982015252" lon="-5.519641991704702">
        <ele>40.030000000000001</ele>
        <time>2026-07-08T07:36:25Z</time>
      </trkpt>
      <trkpt lat="54.397134035825729" lon="-5.521582989022136">
        <ele>38.109999999999999</ele>
        <time>2026-07-08T07:36:39Z</time>
      </trkpt>
      <trkpt lat="54.396114964038134" lon="-5.522474991157651">
        <ele>33.299999999999997</ele>
        <time>2026-07-08T07:36:46Z</time>
      </trkpt>
      <trkpt lat="54.396013962104917" lon="-5.522521007806063">
        <ele>33.299999999999997</ele>
        <time>2026-07-08T07:36:47Z</time>
      </trkpt>
      <trkpt lat="54.39591396600008" lon="-5.522498963400722">
        <ele>32.82</ele>
        <time>2026-07-08T07:36:48Z</time>
      </trkpt>
      <trkpt lat="54.395808018743992" lon="-5.522423023357987">
        <ele>32.340000000000003</ele>
        <time>2026-07-08T07:36:49Z</time>
      </trkpt>
      <trkpt lat="54.395691007375717" lon="-5.522339036688209">
        <ele>32.340000000000003</ele>
        <time>2026-07-08T07:36:50Z</time>
      </trkpt>
      <trkpt lat="54.395563015714288" lon="-5.522248009219766">
        <ele>32.340000000000003</ele>
        <time>2026-07-08T07:36:51Z</time>
      </trkpt>
      <trkpt lat="54.39417002722621" lon="-5.521252993494272">
        <ele>27.050000000000001</ele>
        <time>2026-07-08T07:37:00Z</time>
      </trkpt>
      <trkpt lat="54.393714973703027" lon="-5.520989969372749">
        <ele>27.050000000000001</ele>
        <time>2026-07-08T07:37:03Z</time>
      </trkpt>
      <trkpt lat="54.393573990091681" lon="-5.520945964381099">
        <ele>27.050000000000001</ele>
        <time>2026-07-08T07:37:04Z</time>
      </trkpt>
      <trkpt lat="54.393451027572155" lon="-5.520987035706639">
        <ele>27.050000000000001</ele>
        <time>2026-07-08T07:37:05Z</time>
      </trkpt>
      <trkpt lat="54.393329992890358" lon="-5.521079991012812">
        <ele>27.050000000000001</ele>
        <time>2026-07-08T07:37:06Z</time>
      </trkpt>
      <trkpt lat="54.39320501871407" lon="-5.521175041794777">
        <ele>27.530000000000001</ele>
        <time>2026-07-08T07:37:07Z</time>
      </trkpt>
      <trkpt lat="54.39307501539588" lon="-5.521274032071233">
        <ele>27.530000000000001</ele>
        <time>2026-07-08T07:37:08Z</time>
      </trkpt>
      <trkpt lat="54.392343023791909" lon="-5.52225798368454">
        <ele>29.460000000000001</ele>
        <time>2026-07-08T07:37:14Z</time>
      </trkpt>
      <trkpt lat="54.392201034352183" lon="-5.522376000881195">
        <ele>28.98</ele>
        <time>2026-07-08T07:37:15Z</time>
      </trkpt>
      <trkpt lat="54.392047980800271" lon="-5.522453030571342">
        <ele>28.98</ele>
        <time>2026-07-08T07:37:16Z</time>
      </trkpt>
      <trkpt lat="54.391889981925488" lon="-5.52251597866416">
        <ele>28.98</ele>
        <time>2026-07-08T07:37:17Z</time>
      </trkpt>
      <trkpt lat="54.39172301441431" lon="-5.522563001140952">
        <ele>28.5</ele>
        <time>2026-07-08T07:37:18Z</time>
      </trkpt>
      <trkpt lat="54.391553029417992" lon="-5.522611029446125">
        <ele>28.5</ele>
        <time>2026-07-08T07:37:19Z</time>
      </trkpt>
      <trkpt lat="54.391054976731539" lon="-5.522786965593696">
        <ele>27.530000000000001</ele>
        <time>2026-07-08T07:37:22Z</time>
      </trkpt>
      <trkpt lat="54.390908963978291" lon="-5.52290397696197">
        <ele>27.530000000000001</ele>
        <time>2026-07-08T07:37:23Z</time>
      </trkpt>
      <trkpt lat="54.39017697237432" lon="-5.523478975519538">
        <ele>27.530000000000001</ele>
        <time>2026-07-08T07:37:28Z</time>
      </trkpt>
      <trkpt lat="54.390024002641439" lon="-5.52356799133122">
        <ele>27.530000000000001</ele>
        <time>2026-07-08T07:37:29Z</time>
      </trkpt>
      <trkpt lat="54.389867009595037" lon="-5.523659018799663">
        <ele>27.050000000000001</ele>
        <time>2026-07-08T07:37:30Z</time>
      </trkpt>
      <trkpt lat="54.38869496807456" lon="-5.524293025955558">
        <ele>26.09</ele>
        <time>2026-07-08T07:37:37Z</time>
      </trkpt>
      <trkpt lat="54.387971023097634" lon="-5.52462000399828">
        <ele>26.57</ele>
        <time>2026-07-08T07:37:42Z</time>
      </trkpt>
      <trkpt lat="54.387870021164417" lon="-5.524720000103116">
        <ele>27.050000000000001</ele>
        <time>2026-07-08T07:37:43Z</time>
      </trkpt>
      <trkpt lat="54.387817969545722" lon="-5.524851009249687">
        <ele>27.050000000000001</ele>
        <time>2026-07-08T07:37:44Z</time>
      </trkpt>
      <trkpt lat="54.387786034494638" lon="-5.525004984810948">
        <ele>27.530000000000001</ele>
        <time>2026-07-08T07:37:45Z</time>
      </trkpt>
      <trkpt lat="54.387753009796143" lon="-5.525172958150506">
        <ele>27.530000000000001</ele>
        <time>2026-07-08T07:37:46Z</time>
      </trkpt>
      <trkpt lat="54.387743035331368" lon="-5.525373034179211">
        <ele>28.02</ele>
        <time>2026-07-08T07:37:47Z</time>
      </trkpt>
      <trkpt lat="54.387713028118014" lon="-5.527533972635865">
        <ele>33.780000000000001</ele>
        <time>2026-07-08T07:37:56Z</time>
      </trkpt>
      <trkpt lat="54.387734988704324" lon="-5.527809988707304">
        <ele>33.299999999999997</ele>
        <time>2026-07-08T07:37:57Z</time>
      </trkpt>
      <trkpt lat="54.387792991474271" lon="-5.528084998950362">
        <ele>33.299999999999997</ele>
        <time>2026-07-08T07:37:58Z</time>
      </trkpt>
      <trkpt lat="54.388226000592113" lon="-5.530221965163946">
        <ele>32.82</ele>
        <time>2026-07-08T07:38:06Z</time>
      </trkpt>
      <trkpt lat="54.3881990108639" lon="-5.530365966260433">
        <ele>32.82</ele>
        <time>2026-07-08T07:38:07Z</time>
      </trkpt>
      <trkpt lat="54.388176966458559" lon="-5.530483983457089">
        <ele>32.82</ele>
        <time>2026-07-08T07:38:08Z</time>
      </trkpt>
      <trkpt lat="54.388144025579095" lon="-5.530604012310505">
        <ele>32.82</ele>
        <time>2026-07-08T07:38:09Z</time>
      </trkpt>
      <trkpt lat="54.388094991445541" lon="-5.530713982880116">
        <ele>32.340000000000003</ele>
        <time>2026-07-08T07:38:10Z</time>
      </trkpt>
      <trkpt lat="54.387630969285965" lon="-5.53201099857688">
        <ele>31.859999999999999</ele>
        <time>2026-07-08T07:38:18Z</time>
      </trkpt>
      <trkpt lat="54.386754976585507" lon="-5.534476032480598">
        <ele>32.82</ele>
        <time>2026-07-08T07:38:29Z</time>
      </trkpt>
      <trkpt lat="54.386125998571515" lon="-5.535947978496552">
        <ele>32.340000000000003</ele>
        <time>2026-07-08T07:38:37Z</time>
      </trkpt>
      <trkpt lat="54.386059027165174" lon="-5.536101032048464">
        <ele>31.859999999999999</ele>
        <time>2026-07-08T07:38:38Z</time>
      </trkpt>
      <trkpt lat="54.385992977768183" lon="-5.536256013438106">
        <ele>31.379999999999999</ele>
        <time>2026-07-08T07:38:39Z</time>
      </trkpt>
      <trkpt lat="54.385765995830297" lon="-5.536980964243412">
        <ele>29.940000000000001</ele>
        <time>2026-07-08T07:38:43Z</time>
      </trkpt>
      <trkpt lat="54.385658036917448" lon="-5.537358988076448">
        <ele>29.940000000000001</ele>
        <time>2026-07-08T07:38:45Z</time>
      </trkpt>
      <trkpt lat="54.385588970035315" lon="-5.537745980545878">
        <ele>29.940000000000001</ele>
        <time>2026-07-08T07:38:47Z</time>
      </trkpt>
      <trkpt lat="54.385374980047345" lon="-5.538895977661014">
        <ele>31.859999999999999</ele>
        <time>2026-07-08T07:38:53Z</time>
      </trkpt>
      <trkpt lat="54.385301973670721" lon="-5.539051964879036">
        <ele>31.859999999999999</ele>
        <time>2026-07-08T07:38:54Z</time>
      </trkpt>
      <trkpt lat="54.385224021971226" lon="-5.539207030087709">
        <ele>32.340000000000003</ele>
        <time>2026-07-08T07:38:55Z</time>
      </trkpt>
      <trkpt lat="54.384504016488791" lon="-5.540383011102676">
        <ele>32.340000000000003</ele>
        <time>2026-07-08T07:39:04Z</time>
      </trkpt>
      <trkpt lat="54.383930023759604" lon="-5.541526973247528">
        <ele>33.780000000000001</ele>
        <time>2026-07-08T07:39:14Z</time>
      </trkpt>
      <trkpt lat="54.383655013516545" lon="-5.542044974863529">
        <ele>32.340000000000003</ele>
        <time>2026-07-08T07:39:21Z</time>
      </trkpt>
      <trkpt lat="54.382949005812407" lon="-5.543229002505541">
        <ele>30.899999999999999</ele>
        <time>2026-07-08T07:39:30Z</time>
      </trkpt>
      <trkpt lat="54.382868036627769" lon="-5.543385995551944">
        <ele>31.379999999999999</ele>
        <time>2026-07-08T07:39:31Z</time>
      </trkpt>
      <trkpt lat="54.382400996983051" lon="-5.544544039294124">
        <ele>26.57</ele>
        <time>2026-07-08T07:39:39Z</time>
      </trkpt>
      <trkpt lat="54.382248027250171" lon="-5.544941006228328">
        <ele>25.129999999999999</ele>
        <time>2026-07-08T07:39:42Z</time>
      </trkpt>
      <trkpt lat="54.38220301643014" lon="-5.545057011768222">
        <ele>24.649999999999999</ele>
        <time>2026-07-08T07:39:43Z</time>
      </trkpt>
      <trkpt lat="54.382023978978395" lon="-5.545521033927798">
        <ele>22.25</ele>
        <time>2026-07-08T07:39:47Z</time>
      </trkpt>
      <trkpt lat="54.381985003128648" lon="-5.545666040852666">
        <ele>22.25</ele>
        <time>2026-07-08T07:39:48Z</time>
      </trkpt>
      <trkpt lat="54.38181602396071" lon="-5.546318991109729">
        <ele>21.289999999999999</ele>
        <time>2026-07-08T07:39:53Z</time>
      </trkpt>
      <trkpt lat="54.38173295930028" lon="-5.546572962775827">
        <ele>20.809999999999999</ele>
        <time>2026-07-08T07:39:55Z</time>
      </trkpt>
      <trkpt lat="54.38168803229928" lon="-5.546697014942765">
        <ele>20.809999999999999</ele>
        <time>2026-07-08T07:39:56Z</time>
      </trkpt>
      <trkpt lat="54.381643021479249" lon="-5.546820983290672">
        <ele>20.809999999999999</ele>
        <time>2026-07-08T07:39:57Z</time>
      </trkpt>
      <trkpt lat="54.38147496432066" lon="-5.547281987965107">
        <ele>19.84</ele>
        <time>2026-07-08T07:40:01Z</time>
      </trkpt>
      <trkpt lat="54.381438000127673" lon="-5.547374021261931">
        <ele>19.359999999999999</ele>
        <time>2026-07-08T07:40:02Z</time>
      </trkpt>
      <trkpt lat="54.381387960165739" lon="-5.54741601459682">
        <ele>19.359999999999999</ele>
        <time>2026-07-08T07:40:03Z</time>
      </trkpt>
      <trkpt lat="54.381332974880934" lon="-5.547426994889975">
        <ele>18.879999999999999</ele>
        <time>2026-07-08T07:40:04Z</time>
      </trkpt>
      <trkpt lat="54.381278995424509" lon="-5.547424983233213">
        <ele>18.399999999999999</ele>
        <time>2026-07-08T07:40:05Z</time>
      </trkpt>
      <trkpt lat="54.38121797516942" lon="-5.547417020425201">
        <ele>17.920000000000002</ele>
        <time>2026-07-08T07:40:06Z</time>
      </trkpt>
      <trkpt lat="54.381144968792796" lon="-5.547422971576452">
        <ele>17.440000000000001</ele>
        <time>2026-07-08T07:40:07Z</time>
      </trkpt>
      <trkpt lat="54.381077997386456" lon="-5.547463959082961">
        <ele>16.960000000000001</ele>
        <time>2026-07-08T07:40:08Z</time>
      </trkpt>
      <trkpt lat="54.381009014323354" lon="-5.547507964074612">
        <ele>16.48</ele>
        <time>2026-07-08T07:40:09Z</time>
      </trkpt>
      <trkpt lat="54.380368972197175" lon="-5.547898979857564">
        <ele>13.119999999999999</ele>
        <time>2026-07-08T07:40:17Z</time>
      </trkpt>
      <trkpt lat="54.380333013832569" lon="-5.547943990677595">
        <ele>12.630000000000001</ele>
        <time>2026-07-08T07:40:18Z</time>
      </trkpt>
      <trkpt lat="54.380275011062622" lon="-5.548013979569078">
        <ele>11.67</ele>
        <time>2026-07-08T07:40:23Z</time>
      </trkpt>
      <trkpt lat="54.380274005234241" lon="-5.548125961795449">
        <ele>11.67</ele>
        <time>2026-07-08T07:40:24Z</time>
      </trkpt>
      <trkpt lat="54.380297977477312" lon="-5.548184970393777">
        <ele>11.67</ele>
        <time>2026-07-08T07:40:25Z</time>
      </trkpt>
      <trkpt lat="54.380332008004189" lon="-5.548268035054207">
        <ele>11.67</ele>
        <time>2026-07-08T07:40:26Z</time>
      </trkpt>
      <trkpt lat="54.380375007167459" lon="-5.548370964825153">
        <ele>11.67</ele>
        <time>2026-07-08T07:40:27Z</time>
      </trkpt>
      <trkpt lat="54.38042102381587" lon="-5.548482025042176">
        <ele>11.67</ele>
        <time>2026-07-08T07:40:28Z</time>
      </trkpt>
      <trkpt lat="54.380835006013513" lon="-5.549515010789037">
        <ele>15.52</ele>
        <time>2026-07-08T07:40:36Z</time>
      </trkpt>
      <trkpt lat="54.380879011005163" lon="-5.549637973308563">
        <ele>16.48</ele>
        <time>2026-07-08T07:40:41Z</time>
      </trkpt>
      <trkpt lat="54.38091304153204" lon="-5.549760013818741">
        <ele>16.48</ele>
        <time>2026-07-08T07:40:47Z</time>
      </trkpt>
      <trkpt lat="54.380932990461588" lon="-5.549835031852126">
        <ele>16.48</ele>
        <time>2026-07-08T07:40:48Z</time>
      </trkpt>
      <trkpt lat="54.380951011553407" lon="-5.549899991601706">
        <ele>16.48</ele>
        <time>2026-07-08T07:40:49Z</time>
      </trkpt>
      <trkpt lat="54.380811033770442" lon="-5.549892028793693">
        <ele>16.48</ele>
        <time>2026-07-08T07:40:50Z</time>
      </trkpt>
      <trkpt lat="54.380780020728707" lon="-5.549983978271484">
        <ele>16.48</ele>
        <time>2026-07-08T07:40:51Z</time>
      </trkpt>
      <trkpt lat="54.380780020728707" lon="-5.549983978271484">
        <ele>16.48</ele>
        <time>2026-07-08T07:40:52Z</time>
      </trkpt>
      <trkpt lat="54.380755964666605" lon="-5.550008034333587">
        <ele>16</ele>
        <time>2026-07-08T07:40:53Z</time>
      </trkpt>
      <trkpt lat="54.380709026008844" lon="-5.550054972991347">
        <ele>15.52</ele>
        <time>2026-07-08T07:40:54Z</time>
      </trkpt>
      <trkpt lat="54.380340976640582" lon="-5.550400977954269">
        <ele>11.67</ele>
        <time>2026-07-08T07:41:03Z</time>
      </trkpt>
      <trkpt lat="54.380317004397511" lon="-5.550422016531229">
        <ele>11.19</ele>
        <time>2026-07-08T07:41:04Z</time>
      </trkpt>
      <trkpt lat="54.380317004397511" lon="-5.550422016531229">
        <ele>9.75</ele>
        <time>2026-07-08T07:41:13Z</time>
      </trkpt>
      <trkpt lat="54.372660974040627" lon="-5.550966002047062">
        <ele>10.710000000000001</ele>
        <time>2026-07-08T07:49:45Z</time>
      </trkpt>
      <trkpt lat="54.372368026524782" lon="-5.551605960354209">
        <ele>18.399999999999999</ele>
        <time>2026-07-08T07:49:57Z</time>
      </trkpt>
      <trkpt lat="54.372327961027622" lon="-5.551717020571232">
        <ele>16.48</ele>
        <time>2026-07-08T07:49:59Z</time>
      </trkpt>
      <trkpt lat="54.372120006009936" lon="-5.552356978878379">
        <ele>12.630000000000001</ele>
        <time>2026-07-08T07:50:13Z</time>
      </trkpt>
      <trkpt lat="54.371942980214953" lon="-5.553083019331098">
        <ele>13.6</ele>
        <time>2026-07-08T07:50:30Z</time>
      </trkpt>
      <trkpt lat="54.371797973290086" lon="-5.553676960989833">
        <ele>14.08</ele>
        <time>2026-07-08T07:50:46Z</time>
      </trkpt>
      <trkpt lat="54.371695965528488" lon="-5.554096978157759">
        <ele>15.52</ele>
        <time>2026-07-08T07:51:02Z</time>
      </trkpt>
      <trkpt lat="54.371695965528488" lon="-5.554096978157759">
        <ele>12.630000000000001</ele>
        <time>2026-07-08T07:51:33Z</time>
      </trkpt>
      <trkpt lat="54.371575014665723" lon="-5.554594025015831">
        <ele>12.15</ele>
        <time>2026-07-08T07:51:54Z</time>
      </trkpt>
      <trkpt lat="54.371455991640687" lon="-5.555255021899939">
        <ele>11.67</ele>
        <time>2026-07-08T07:52:01Z</time>
      </trkpt>
      <trkpt lat="54.371406035497785" lon="-5.555606978014112">
        <ele>11.19</ele>
        <time>2026-07-08T07:52:04Z</time>
      </trkpt>
      <trkpt lat="54.371388014405966" lon="-5.555732036009431">
        <ele>10.710000000000001</ele>
        <time>2026-07-08T07:52:05Z</time>
      </trkpt>
      <trkpt lat="54.371363036334515" lon="-5.555814011022449">
        <ele>10.710000000000001</ele>
        <time>2026-07-08T07:52:06Z</time>
      </trkpt>
      <trkpt lat="54.371318025514483" lon="-5.555905038490892">
        <ele>11.19</ele>
        <time>2026-07-08T07:52:07Z</time>
      </trkpt>
      <trkpt lat="54.371252981945872" lon="-5.556035041809082">
        <ele>11.67</ele>
        <time>2026-07-08T07:52:08Z</time>
      </trkpt>
      <trkpt lat="54.371217023581266" lon="-5.556028001010418">
        <ele>12.15</ele>
        <time>2026-07-08T07:52:09Z</time>
      </trkpt>
      <trkpt lat="54.371145023033023" lon="-5.556014003232122">
        <ele>12.630000000000001</ele>
        <time>2026-07-08T07:52:10Z</time>
      </trkpt>
      <trkpt lat="54.371067993342876" lon="-5.556006040424109">
        <ele>12.630000000000001</ele>
        <time>2026-07-08T07:52:11Z</time>
      </trkpt>
      <trkpt lat="54.370990041643381" lon="-5.555997993797064">
        <ele>13.119999999999999</ele>
        <time>2026-07-08T07:52:12Z</time>
      </trkpt>
      <trkpt lat="54.370915023609996" lon="-5.556004028767347">
        <ele>13.6</ele>
        <time>2026-07-08T07:52:13Z</time>
      </trkpt>
      <trkpt lat="54.370846962556243" lon="-5.556052979081869">
        <ele>14.08</ele>
        <time>2026-07-08T07:52:14Z</time>
      </trkpt>
      <trkpt lat="54.370777979493141" lon="-5.556103019043803">
        <ele>14.56</ele>
        <time>2026-07-08T07:52:15Z</time>
      </trkpt>
      <trkpt lat="54.370694998651743" lon="-5.556164039298892">
        <ele>15.039999999999999</ele>
        <time>2026-07-08T07:52:16Z</time>
      </trkpt>
      <trkpt lat="54.370630038902164" lon="-5.556241990998387">
        <ele>15.52</ele>
        <time>2026-07-08T07:52:17Z</time>
      </trkpt>
      <trkpt lat="54.37055803835392" lon="-5.556347016245127">
        <ele>16.48</ele>
        <time>2026-07-08T07:52:18Z</time>
      </trkpt>
      <trkpt lat="54.370301971212029" lon="-5.556781031191349">
        <ele>19.359999999999999</ele>
        <time>2026-07-08T07:52:22Z</time>
      </trkpt>
      <trkpt lat="54.370227959007025" lon="-5.556867029517889">
        <ele>20.32</ele>
        <time>2026-07-08T07:52:23Z</time>
      </trkpt>
      <trkpt lat="54.36942002736032" lon="-5.557649983093143">
        <ele>24.649999999999999</ele>
        <time>2026-07-08T07:52:33Z</time>
      </trkpt>
      <trkpt lat="54.368932032957673" lon="-5.558306034654379">
        <ele>26.09</ele>
        <time>2026-07-08T07:52:39Z</time>
      </trkpt>
      <trkpt lat="54.368859026581049" lon="-5.558406030759215">
        <ele>26.57</ele>
        <time>2026-07-08T07:52:40Z</time>
      </trkpt>
      <trkpt lat="54.3680240213871" lon="-5.559482015669346">
        <ele>22.25</ele>
        <time>2026-07-08T07:52:50Z</time>
      </trkpt>
      <trkpt lat="54.367380039766431" lon="-5.560078974813223">
        <ele>16.960000000000001</ele>
        <time>2026-07-08T07:52:56Z</time>
      </trkpt>
      <trkpt lat="54.367284988984466" lon="-5.560226999223232">
        <ele>16.48</ele>
        <time>2026-07-08T07:52:57Z</time>
      </trkpt>
      <trkpt lat="54.367196979001164" lon="-5.560369994491339">
        <ele>16</ele>
        <time>2026-07-08T07:52:58Z</time>
      </trkpt>
      <trkpt lat="54.367135958746076" lon="-5.560579961165786">
        <ele>15.52</ele>
        <time>2026-07-08T07:52:59Z</time>
      </trkpt>
      <trkpt lat="54.36707803979516" lon="-5.56077903136611">
        <ele>15.039999999999999</ele>
        <time>2026-07-08T07:53:00Z</time>
      </trkpt>
      <trkpt lat="54.367020037025213" lon="-5.560977011919022">
        <ele>14.56</ele>
        <time>2026-07-08T07:53:01Z</time>
      </trkpt>
      <trkpt lat="54.366961028426886" lon="-5.561181027442217">
        <ele>14.08</ele>
        <time>2026-07-08T07:53:02Z</time>
      </trkpt>
      <trkpt lat="54.366902019828558" lon="-5.561380013823509">
        <ele>14.08</ele>
        <time>2026-07-08T07:53:03Z</time>
      </trkpt>
      <trkpt lat="54.366832030937076" lon="-5.561559973284602">
        <ele>13.6</ele>
        <time>2026-07-08T07:53:04Z</time>
      </trkpt>
      <trkpt lat="54.36675701290369" lon="-5.561744039878249">
        <ele>13.6</ele>
        <time>2026-07-08T07:53:05Z</time>
      </trkpt>
      <trkpt lat="54.366684006527066" lon="-5.561922993510962">
        <ele>13.6</ele>
        <time>2026-07-08T07:53:06Z</time>
      </trkpt>
      <trkpt lat="54.366609994322062" lon="-5.562098007649183">
        <ele>13.119999999999999</ele>
        <time>2026-07-08T07:53:07Z</time>
      </trkpt>
      <trkpt lat="54.36564196832478" lon="-5.563610019162297">
        <ele>13.6</ele>
        <time>2026-07-08T07:53:17Z</time>
      </trkpt>
      <trkpt lat="54.364532036706805" lon="-5.564875015988946">
        <ele>12.630000000000001</ele>
        <time>2026-07-08T07:53:26Z</time>
      </trkpt>
      <trkpt lat="54.364175973460078" lon="-5.565343983471394">
        <ele>11.67</ele>
        <time>2026-07-08T07:53:29Z</time>
      </trkpt>
      <trkpt lat="54.364071032032371" lon="-5.565535007044673">
        <ele>11.19</ele>
        <time>2026-07-08T07:53:30Z</time>
      </trkpt>
      <trkpt lat="54.36396399512887" lon="-5.565728964284062">
        <ele>11.19</ele>
        <time>2026-07-08T07:53:31Z</time>
      </trkpt>
      <trkpt lat="54.363869028165936" lon="-5.565935997292399">
        <ele>10.710000000000001</ele>
        <time>2026-07-08T07:53:32Z</time>
      </trkpt>
      <trkpt lat="54.363779006525874" lon="-5.566164990887046">
        <ele>10.710000000000001</ele>
        <time>2026-07-08T07:53:33Z</time>
      </trkpt>
      <trkpt lat="54.362906031310558" lon="-5.568586019799113">
        <ele>16.960000000000001</ele>
        <time>2026-07-08T07:53:43Z</time>
      </trkpt>
      <trkpt lat="54.362626997753978" lon="-5.569294961169362">
        <ele>20.809999999999999</ele>
        <time>2026-07-08T07:53:46Z</time>
      </trkpt>
      <trkpt lat="54.362517027184367" lon="-5.569515991955996">
        <ele>21.77</ele>
        <time>2026-07-08T07:53:47Z</time>
      </trkpt>
      <trkpt lat="54.362387023866177" lon="-5.56971900165081">
        <ele>22.25</ele>
        <time>2026-07-08T07:53:48Z</time>
      </trkpt>
      <trkpt lat="54.361977986991405" lon="-5.570280002430081">
        <ele>22.73</ele>
        <time>2026-07-08T07:53:51Z</time>
      </trkpt>
      <trkpt lat="54.36089001595974" lon="-5.571750020608306">
        <ele>28.98</ele>
        <time>2026-07-08T07:53:59Z</time>
      </trkpt>
      <trkpt lat="54.360737968236208" lon="-5.571885975077748">
        <ele>30.420000000000002</ele>
        <time>2026-07-08T07:54:00Z</time>
      </trkpt>
      <trkpt lat="54.360584998503327" lon="-5.572015978395939">
        <ele>32.340000000000003</ele>
        <time>2026-07-08T07:54:01Z</time>
      </trkpt>
      <trkpt lat="54.359676986932755" lon="-5.572614027187228">
        <ele>40.990000000000002</ele>
        <time>2026-07-08T07:54:07Z</time>
      </trkpt>
      <trkpt lat="54.359555030241609" lon="-5.572792980819941">
        <ele>41.950000000000003</ele>
        <time>2026-07-08T07:54:08Z</time>
      </trkpt>
      <trkpt lat="54.359436007216573" lon="-5.572977969422936">
        <ele>42.439999999999998</ele>
        <time>2026-07-08T07:54:09Z</time>
      </trkpt>
      <trkpt lat="54.359313966706395" lon="-5.573168992996216">
        <ele>42.920000000000002</ele>
        <time>2026-07-08T07:54:10Z</time>
      </trkpt>
      <trkpt lat="54.359201984480023" lon="-5.573378959670663">
        <ele>43.399999999999999</ele>
        <time>2026-07-08T07:54:11Z</time>
      </trkpt>
      <trkpt lat="54.359093019738793" lon="-5.573600996285677">
        <ele>43.880000000000003</ele>
        <time>2026-07-08T07:54:12Z</time>
      </trkpt>
      <trkpt lat="54.358177967369556" lon="-5.57545498944819">
        <ele>45.32</ele>
        <time>2026-07-08T07:54:20Z</time>
      </trkpt>
      <trkpt lat="54.356836024671793" lon="-5.578254964202642">
        <ele>50.609999999999999</ele>
        <time>2026-07-08T07:54:32Z</time>
      </trkpt>
      <trkpt lat="54.356766035780311" lon="-5.578517988324165">
        <ele>51.090000000000003</ele>
        <time>2026-07-08T07:54:33Z</time>
      </trkpt>
      <trkpt lat="54.356742985546589" lon="-5.578798027709127">
        <ele>51.57</ele>
        <time>2026-07-08T07:54:34Z</time>
      </trkpt>
      <trkpt lat="54.356729993596673" lon="-5.579086029902101">
        <ele>52.049999999999997</ele>
        <time>2026-07-08T07:54:35Z</time>
      </trkpt>
      <trkpt lat="54.356749020516872" lon="-5.579371014609933">
        <ele>52.049999999999997</ele>
        <time>2026-07-08T07:54:36Z</time>
      </trkpt>
      <trkpt lat="54.356766035780311" lon="-5.579643007367849">
        <ele>52.049999999999997</ele>
        <time>2026-07-08T07:54:37Z</time>
      </trkpt>
      <trkpt lat="54.356797970831394" lon="-5.580138964578509">
        <ele>52.049999999999997</ele>
        <time>2026-07-08T07:54:41Z</time>
      </trkpt>
      <trkpt lat="54.356802999973297" lon="-5.580214988440275">
        <ele>51.57</ele>
        <time>2026-07-08T07:54:42Z</time>
      </trkpt>
      <trkpt lat="54.356807023286819" lon="-5.580280032008886">
        <ele>51.57</ele>
        <time>2026-07-08T07:54:43Z</time>
      </trkpt>
      <trkpt lat="54.356739968061447" lon="-5.580364018678665">
        <ele>51.57</ele>
        <time>2026-07-08T07:54:44Z</time>
      </trkpt>
      <trkpt lat="54.356695963069797" lon="-5.58037499897182">
        <ele>51.57</ele>
        <time>2026-07-08T07:54:45Z</time>
      </trkpt>
      <trkpt lat="54.356645001098514" lon="-5.580387990921736">
        <ele>52.049999999999997</ele>
        <time>2026-07-08T07:54:46Z</time>
      </trkpt>
      <trkpt lat="54.356584986671805" lon="-5.580402994528413">
        <ele>51.57</ele>
        <time>2026-07-08T07:54:47Z</time>
      </trkpt>
      <trkpt lat="54.356355993077159" lon="-5.58046099729836">
        <ele>51.090000000000003</ele>
        <time>2026-07-08T07:54:50Z</time>
      </trkpt>
      <trkpt lat="54.355504978448153" lon="-5.580672975629568">
        <ele>49.649999999999999</ele>
        <time>2026-07-08T07:54:57Z</time>
      </trkpt>
      <trkpt lat="54.35405801050365" lon="-5.581034990027547">
        <ele>47.240000000000002</ele>
        <time>2026-07-08T07:55:06Z</time>
      </trkpt>
      <trkpt lat="54.352580029517412" lon="-5.581403961405158">
        <ele>43.880000000000003</ele>
        <time>2026-07-08T07:55:15Z</time>
      </trkpt>
      <trkpt lat="54.351083021610975" lon="-5.581778967753053">
        <ele>43.399999999999999</ele>
        <time>2026-07-08T07:55:25Z</time>
      </trkpt>
      <trkpt lat="54.350954024121165" lon="-5.581834958866239">
        <ele>42.439999999999998</ele>
        <time>2026-07-08T07:55:26Z</time>
      </trkpt>
      <trkpt lat="54.350861990824342" lon="-5.581959011033177">
        <ele>41.950000000000003</ele>
        <time>2026-07-08T07:55:27Z</time>
      </trkpt>
      <trkpt lat="54.350765012204647" lon="-5.582089014351368">
        <ele>41.469999999999999</ele>
        <time>2026-07-08T07:55:28Z</time>
      </trkpt>
      <trkpt lat="54.350665016099811" lon="-5.58222396299243">
        <ele>40.509999999999998</ele>
        <time>2026-07-08T07:55:29Z</time>
      </trkpt>
      <trkpt lat="54.349801009520888" lon="-5.583492983132601">
        <ele>37.149999999999999</ele>
        <time>2026-07-08T07:55:38Z</time>
      </trkpt>
      <trkpt lat="54.349562963470817" lon="-5.583784002810717">
        <ele>37.630000000000003</ele>
        <time>2026-07-08T07:55:41Z</time>
      </trkpt>
      <trkpt lat="54.349474031478167" lon="-5.583844017237425">
        <ele>37.630000000000003</ele>
        <time>2026-07-08T07:55:42Z</time>
      </trkpt>
      <trkpt lat="54.349279990419745" lon="-5.583973014727235">
        <ele>37.630000000000003</ele>
        <time>2026-07-08T07:55:44Z</time>
      </trkpt>
      <trkpt lat="54.349164990708232" lon="-5.58402800001204">
        <ele>38.590000000000003</ele>
        <time>2026-07-08T07:55:45Z</time>
      </trkpt>
      <trkpt lat="54.349048985168338" lon="-5.584083991125226">
        <ele>39.07</ele>
        <time>2026-07-08T07:55:46Z</time>
      </trkpt>
      <trkpt lat="54.348053969442844" lon="-5.584562011063099">
        <ele>40.509999999999998</ele>
        <time>2026-07-08T07:55:53Z</time>
      </trkpt>
      <trkpt lat="54.345963019877672" lon="-5.585567001253367">
        <ele>36.670000000000002</ele>
        <time>2026-07-08T07:56:05Z</time>
      </trkpt>
      <trkpt lat="54.344631973654032" lon="-5.586206037551165">
        <ele>31.859999999999999</ele>
        <time>2026-07-08T07:56:13Z</time>
      </trkpt>
      <trkpt lat="54.343518018722534" lon="-5.586741976439953">
        <ele>31.859999999999999</ele>
        <time>2026-07-08T07:56:20Z</time>
      </trkpt>
      <trkpt lat="54.342256039381027" lon="-5.587347988039255">
        <ele>29.940000000000001</ele>
        <time>2026-07-08T07:56:28Z</time>
      </trkpt>
      <trkpt lat="54.34067202731967" lon="-5.588115015998483">
        <ele>36.189999999999998</ele>
        <time>2026-07-08T07:56:39Z</time>
      </trkpt>
      <trkpt lat="54.33906496502459" lon="-5.589029984548688">
        <ele>37.630000000000003</ele>
        <time>2026-07-08T07:56:51Z</time>
      </trkpt>
      <trkpt lat="54.337612967938185" lon="-5.589915029704571">
        <ele>32.340000000000003</ele>
        <time>2026-07-08T07:57:01Z</time>
      </trkpt>
      <trkpt lat="54.335942035540938" lon="-5.590984979644418">
        <ele>31.859999999999999</ele>
        <time>2026-07-08T07:57:14Z</time>
      </trkpt>
      <trkpt lat="54.334596991539001" lon="-5.591846974566579">
        <ele>30.420000000000002</ele>
        <time>2026-07-08T07:57:25Z</time>
      </trkpt>
      <trkpt lat="54.334011012688279" lon="-5.592221980914474">
        <ele>34.740000000000002</ele>
        <time>2026-07-08T07:57:33Z</time>
      </trkpt>
      <trkpt lat="54.333774978294969" lon="-5.592373022809625">
        <ele>37.149999999999999</ele>
        <time>2026-07-08T07:57:41Z</time>
      </trkpt>
      <trkpt lat="54.333748994395137" lon="-5.592390038073063">
        <ele>37.149999999999999</ele>
        <time>2026-07-08T07:57:42Z</time>
      </trkpt>
      <trkpt lat="54.333748994395137" lon="-5.592390038073063">
        <ele>37.630000000000003</ele>
        <time>2026-07-08T07:57:54Z</time>
      </trkpt>
      <trkpt lat="54.333730973303318" lon="-5.592402024194598">
        <ele>38.109999999999999</ele>
        <time>2026-07-08T07:58:14Z</time>
      </trkpt>
      <trkpt lat="54.33334699831903" lon="-5.592619031667709">
        <ele>38.590000000000003</ele>
        <time>2026-07-08T07:58:20Z</time>
      </trkpt>
      <trkpt lat="54.332449967041612" lon="-5.592851964756846">
        <ele>37.630000000000003</ele>
        <time>2026-07-08T07:58:29Z</time>
      </trkpt>
      <trkpt lat="54.331183964386582" lon="-5.593181038275361">
        <ele>36.670000000000002</ele>
        <time>2026-07-08T07:58:39Z</time>
      </trkpt>
      <trkpt lat="54.329395014792681" lon="-5.593638019636273">
        <ele>43.880000000000003</ele>
        <time>2026-07-08T07:58:52Z</time>
      </trkpt>
      <trkpt lat="54.32743901386857" lon="-5.594215029850602">
        <ele>42.439999999999998</ele>
        <time>2026-07-08T07:59:05Z</time>
      </trkpt>
      <trkpt lat="54.325642017647624" lon="-5.595239968970418">
        <ele>37.630000000000003</ele>
        <time>2026-07-08T07:59:17Z</time>
      </trkpt>
      <trkpt lat="54.323848960921168" lon="-5.596292987465859">
        <ele>38.109999999999999</ele>
        <time>2026-07-08T07:59:29Z</time>
      </trkpt>
      <trkpt lat="54.322056993842125" lon="-5.597514985129237">
        <ele>34.740000000000002</ele>
        <time>2026-07-08T07:59:42Z</time>
      </trkpt>
      <trkpt lat="54.320695018395782" lon="-5.598636986687779">
        <ele>38.109999999999999</ele>
        <time>2026-07-08T07:59:54Z</time>
      </trkpt>
      <trkpt lat="54.31942599825561" lon="-5.599557990208268">
        <ele>38.109999999999999</ele>
        <time>2026-07-08T08:00:04Z</time>
      </trkpt>
      <trkpt lat="54.317804016172886" lon="-5.600426020100713">
        <ele>41.950000000000003</ele>
        <time>2026-07-08T08:00:15Z</time>
      </trkpt>
      <trkpt lat="54.315616004168987" lon="-5.601402008906007">
        <ele>42.920000000000002</ele>
        <time>2026-07-08T08:00:30Z</time>
      </trkpt>
      <trkpt lat="54.314287975430489" lon="-5.602165013551712">
        <ele>37.630000000000003</ele>
        <time>2026-07-08T08:00:39Z</time>
      </trkpt>
      <trkpt lat="54.312530038878322" lon="-5.603199005126953">
        <ele>31.379999999999999</ele>
        <time>2026-07-08T08:00:51Z</time>
      </trkpt>
      <trkpt lat="54.310751985758543" lon="-5.604260992258787">
        <ele>29.940000000000001</ele>
        <time>2026-07-08T08:01:03Z</time>
      </trkpt>
      <trkpt lat="54.309988981112838" lon="-5.604571960866451">
        <ele>28.98</ele>
        <time>2026-07-08T08:01:08Z</time>
      </trkpt>
      <trkpt lat="54.30984104052186" lon="-5.604571960866451">
        <ele>28.5</ele>
        <time>2026-07-08T08:01:09Z</time>
      </trkpt>
      <trkpt lat="54.309697039425373" lon="-5.604536002501845">
        <ele>28.5</ele>
        <time>2026-07-08T08:01:10Z</time>
      </trkpt>
      <trkpt lat="54.309569969773293" lon="-5.604498032480478">
        <ele>28.5</ele>
        <time>2026-07-08T08:01:11Z</time>
      </trkpt>
      <trkpt lat="54.309467040002346" lon="-5.604467019438744">
        <ele>28.02</ele>
        <time>2026-07-08T08:01:12Z</time>
      </trkpt>
      <trkpt lat="54.309331001713872" lon="-5.604469031095505">
        <ele>28.02</ele>
        <time>2026-07-08T08:01:14Z</time>
      </trkpt>
      <trkpt lat="54.309160010889173" lon="-5.604542037472129">
        <ele>28.02</ele>
        <time>2026-07-08T08:01:21Z</time>
      </trkpt>
      <trkpt lat="54.309160010889173" lon="-5.604542037472129">
        <ele>28.02</ele>
        <time>2026-07-08T08:01:23Z</time>
      </trkpt>
      <trkpt lat="54.309124974533916" lon="-5.604557041078806">
        <ele>28.02</ele>
        <time>2026-07-08T08:01:24Z</time>
      </trkpt>
      <trkpt lat="54.309105025604367" lon="-5.6045660097152">
        <ele>28.02</ele>
        <time>2026-07-08T08:01:25Z</time>
      </trkpt>
      <trkpt lat="54.309104019775987" lon="-5.604624012485147">
        <ele>28.02</ele>
        <time>2026-07-08T08:01:26Z</time>
      </trkpt>
      <trkpt lat="54.309122040867805" lon="-5.604692995548248">
        <ele>28.02</ele>
        <time>2026-07-08T08:01:27Z</time>
      </trkpt>
      <trkpt lat="54.309146013110876" lon="-5.60478201135993">
        <ele>28.02</ele>
        <time>2026-07-08T08:01:28Z</time>
      </trkpt>
      <trkpt lat="54.309170991182327" lon="-5.604874966666102">
        <ele>28.02</ele>
        <time>2026-07-08T08:01:29Z</time>
      </trkpt>
      <trkpt lat="54.309192029759288" lon="-5.60495400801301">
        <ele>28.02</ele>
        <time>2026-07-08T08:01:30Z</time>
      </trkpt>
      <trkpt lat="54.309209967032075" lon="-5.60501703992486">
        <ele>28.02</ele>
        <time>2026-07-08T08:01:31Z</time>
      </trkpt>
      <trkpt lat="54.309159005060792" lon="-5.605176966637373">
        <ele>28.5</ele>
        <time>2026-07-08T08:01:32Z</time>
      </trkpt>
      <trkpt lat="54.309120029211044" lon="-5.605201022699475">
        <ele>28.5</ele>
        <time>2026-07-08T08:01:33Z</time>
      </trkpt>
      <trkpt lat="54.309063032269478" lon="-5.605233963578939">
        <ele>28.98</ele>
        <time>2026-07-08T08:01:34Z</time>
      </trkpt>
      <trkpt lat="54.308993965387344" lon="-5.605274029076099">
        <ele>28.98</ele>
        <time>2026-07-08T08:01:35Z</time>
      </trkpt>
      <trkpt lat="54.308090982958674" lon="-5.605800999328494">
        <ele>30.899999999999999</ele>
        <time>2026-07-08T08:01:44Z</time>
      </trkpt>
      <trkpt lat="54.30666103027761" lon="-5.606634998694062">
        <ele>30.420000000000002</ele>
        <time>2026-07-08T08:01:55Z</time>
      </trkpt>
      <trkpt lat="54.305579010397196" lon="-5.607266994193196">
        <ele>26.57</ele>
        <time>2026-07-08T08:02:04Z</time>
      </trkpt>
      <trkpt lat="54.304073033854365" lon="-5.608144998550415">
        <ele>29.940000000000001</ele>
        <time>2026-07-08T08:02:18Z</time>
      </trkpt>
      <trkpt lat="54.30197898298502" lon="-5.609373031184077">
        <ele>21.289999999999999</ele>
        <time>2026-07-08T08:02:33Z</time>
      </trkpt>
      <trkpt lat="54.300073022022843" lon="-5.610493021085858">
        <ele>21.289999999999999</ele>
        <time>2026-07-08T08:02:48Z</time>
      </trkpt>
      <trkpt lat="54.298735018819571" lon="-5.611279997974634">
        <ele>23.210000000000001</ele>
        <time>2026-07-08T08:02:58Z</time>
      </trkpt>
      <trkpt lat="54.297305988147855" lon="-5.612121038138866">
        <ele>30.420000000000002</ele>
        <time>2026-07-08T08:03:07Z</time>
      </trkpt>
      <trkpt lat="54.296246012672782" lon="-5.612867027521133">
        <ele>35.710000000000001</ele>
        <time>2026-07-08T08:03:14Z</time>
      </trkpt>
      <trkpt lat="54.296101005747914" lon="-5.612985966727138">
        <ele>36.189999999999998</ele>
        <time>2026-07-08T08:03:15Z</time>
      </trkpt>
      <trkpt lat="54.294582959264517" lon="-5.614335034042597">
        <ele>32.340000000000003</ele>
        <time>2026-07-08T08:03:25Z</time>
      </trkpt>
      <trkpt lat="54.292678004130721" lon="-5.616031028330326">
        <ele>27.050000000000001</ele>
        <time>2026-07-08T08:03:38Z</time>
      </trkpt>
      <trkpt lat="54.291106984019279" lon="-5.617384035140276">
        <ele>26.57</ele>
        <time>2026-07-08T08:03:50Z</time>
      </trkpt>
      <trkpt lat="54.289399003610015" lon="-5.618852963671088">
        <ele>18.879999999999999</ele>
        <time>2026-07-08T08:04:03Z</time>
      </trkpt>
      <trkpt lat="54.288029987365007" lon="-5.620031040161848">
        <ele>17.440000000000001</ele>
        <time>2026-07-08T08:04:14Z</time>
      </trkpt>
      <trkpt lat="54.287378964945674" lon="-5.620586005970836">
        <ele>17.920000000000002</ele>
        <time>2026-07-08T08:04:22Z</time>
      </trkpt>
      <trkpt lat="54.287334959954023" lon="-5.62061701901257">
        <ele>17.920000000000002</ele>
        <time>2026-07-08T08:04:23Z</time>
      </trkpt>
      <trkpt lat="54.28728299215436" lon="-5.62074601650238">
        <ele>17.440000000000001</ele>
        <time>2026-07-08T08:04:24Z</time>
      </trkpt>
      <trkpt lat="54.287296989932656" lon="-5.620818017050624">
        <ele>17.920000000000002</ele>
        <time>2026-07-08T08:04:25Z</time>
      </trkpt>
      <trkpt lat="54.287314005196095" lon="-5.620908038690686">
        <ele>17.920000000000002</ele>
        <time>2026-07-08T08:04:26Z</time>
      </trkpt>
      <trkpt lat="54.287334959954023" lon="-5.621018009260297">
        <ele>17.920000000000002</ele>
        <time>2026-07-08T08:04:27Z</time>
      </trkpt>
      <trkpt lat="54.287358010187745" lon="-5.621141977608204">
        <ele>17.920000000000002</ele>
        <time>2026-07-08T08:04:28Z</time>
      </trkpt>
      <trkpt lat="54.287384999915957" lon="-5.62128103338182">
        <ele>17.440000000000001</ele>
        <time>2026-07-08T08:04:29Z</time>
      </trkpt>
      <trkpt lat="54.287677025422454" lon="-5.623027989640832">
        <ele>21.289999999999999</ele>
        <time>2026-07-08T08:04:39Z</time>
      </trkpt>
      <trkpt lat="54.287678031250834" lon="-5.623577004298568">
        <ele>24.170000000000002</ele>
        <time>2026-07-08T08:04:42Z</time>
      </trkpt>
      <trkpt lat="54.287576023489237" lon="-5.624972004443407">
        <ele>29.940000000000001</ele>
        <time>2026-07-08T08:04:50Z</time>
      </trkpt>
      <trkpt lat="54.287577029317617" lon="-5.625151041895151">
        <ele>30.899999999999999</ele>
        <time>2026-07-08T08:04:51Z</time>
      </trkpt>
      <trkpt lat="54.287721030414104" lon="-5.626118984073401">
        <ele>33.780000000000001</ele>
        <time>2026-07-08T08:04:57Z</time>
      </trkpt>
      <trkpt lat="54.287753971293569" lon="-5.626272959634662">
        <ele>34.259999999999998</ele>
        <time>2026-07-08T08:04:58Z</time>
      </trkpt>
      <trkpt lat="54.28782002069056" lon="-5.626398017629981">
        <ele>34.259999999999998</ele>
        <time>2026-07-08T08:04:59Z</time>
      </trkpt>
      <trkpt lat="54.287887997925282" lon="-5.626528020948172">
        <ele>34.259999999999998</ele>
        <time>2026-07-08T08:05:00Z</time>
      </trkpt>
      <trkpt lat="54.287957986816764" lon="-5.626661963760853">
        <ele>34.740000000000002</ele>
        <time>2026-07-08T08:05:01Z</time>
      </trkpt>
      <trkpt lat="54.288256969302893" lon="-5.627265041694045">
        <ele>35.229999999999997</ele>
        <time>2026-07-08T08:05:05Z</time>
      </trkpt>
      <trkpt lat="54.288311032578349" lon="-5.627438966184855">
        <ele>34.740000000000002</ele>
        <time>2026-07-08T08:05:06Z</time>
      </trkpt>
      <trkpt lat="54.288460984826088" lon="-5.627760998904705">
        <ele>35.229999999999997</ele>
        <time>2026-07-08T08:05:08Z</time>
      </trkpt>
      <trkpt lat="54.288620995357633" lon="-5.628064004704356">
        <ele>35.229999999999997</ele>
        <time>2026-07-08T08:05:10Z</time>
      </trkpt>
      <trkpt lat="54.28870196454227" lon="-5.628217980265617">
        <ele>35.710000000000001</ele>
        <time>2026-07-08T08:05:11Z</time>
      </trkpt>
      <trkpt lat="54.288770025596023" lon="-5.628380002453923">
        <ele>35.710000000000001</ele>
        <time>2026-07-08T08:05:12Z</time>
      </trkpt>
      <trkpt lat="54.288825010880828" lon="-5.628561973571777">
        <ele>36.189999999999998</ele>
        <time>2026-07-08T08:05:13Z</time>
      </trkpt>
      <trkpt lat="54.288878990337253" lon="-5.628744028508663">
        <ele>36.670000000000002</ele>
        <time>2026-07-08T08:05:14Z</time>
      </trkpt>
      <trkpt lat="54.289377965033054" lon="-5.630259979516268">
        <ele>40.030000000000001</ele>
        <time>2026-07-08T08:05:23Z</time>
      </trkpt>
      <trkpt lat="54.289460023865104" lon="-5.630395011976361">
        <ele>40.030000000000001</ele>
        <time>2026-07-08T08:05:24Z</time>
      </trkpt>
      <trkpt lat="54.289547028020024" lon="-5.630523003637791">
        <ele>40.030000000000001</ele>
        <time>2026-07-08T08:05:25Z</time>
      </trkpt>
      <trkpt lat="54.2896450124681" lon="-5.630634985864162">
        <ele>40.030000000000001</ele>
        <time>2026-07-08T08:05:26Z</time>
      </trkpt>
      <trkpt lat="54.289745008572936" lon="-5.630749985575676">
        <ele>40.509999999999998</ele>
        <time>2026-07-08T08:05:27Z</time>
      </trkpt>
      <trkpt lat="54.290905985981226" lon="-5.631718011572957">
        <ele>45.32</ele>
        <time>2026-07-08T08:05:38Z</time>
      </trkpt>
      <trkpt lat="54.291692040860653" lon="-5.633003041148186">
        <ele>41.469999999999999</ele>
        <time>2026-07-08T08:05:46Z</time>
      </trkpt>
      <trkpt lat="54.29203100502491" lon="-5.633925972506404">
        <ele>36.670000000000002</ele>
        <time>2026-07-08T08:05:51Z</time>
      </trkpt>
      <trkpt lat="54.292143993079662" lon="-5.634070979431272">
        <ele>35.710000000000001</ele>
        <time>2026-07-08T08:05:52Z</time>
      </trkpt>
      <trkpt lat="54.292226973921061" lon="-5.63417499884963">
        <ele>35.229999999999997</ele>
        <time>2026-07-08T08:05:53Z</time>
      </trkpt>
      <trkpt lat="54.292315989732742" lon="-5.634253034368157">
        <ele>34.259999999999998</ele>
        <time>2026-07-08T08:05:54Z</time>
      </trkpt>
      <trkpt lat="54.292422020807862" lon="-5.634309025481343">
        <ele>33.299999999999997</ele>
        <time>2026-07-08T08:05:55Z</time>
      </trkpt>
      <trkpt lat="54.292532997205853" lon="-5.634368034079671">
        <ele>32.82</ele>
        <time>2026-07-08T08:05:56Z</time>
      </trkpt>
      <trkpt lat="54.293638989329338" lon="-5.634952001273632">
        <ele>26.57</ele>
        <time>2026-07-08T08:06:06Z</time>
      </trkpt>
      <trkpt lat="54.293696992099285" lon="-5.634975973516703">
        <ele>26.57</ele>
        <time>2026-07-08T08:06:07Z</time>
      </trkpt>
      <trkpt lat="54.293737979605794" lon="-5.634992988780141">
        <ele>26.09</ele>
        <time>2026-07-08T08:06:08Z</time>
      </trkpt>
      <trkpt lat="54.293766980990767" lon="-5.635003969073296">
        <ele>25.609999999999999</ele>
        <time>2026-07-08T08:06:09Z</time>
      </trkpt>
      <trkpt lat="54.293789025396109" lon="-5.635013021528721">
        <ele>25.129999999999999</ele>
        <time>2026-07-08T08:06:10Z</time>
      </trkpt>
      <trkpt lat="54.293821966275573" lon="-5.635027019307017">
        <ele>24.649999999999999</ele>
        <time>2026-07-08T08:06:20Z</time>
      </trkpt>
      <trkpt lat="54.293917017057538" lon="-5.635065995156765">
        <ele>25.129999999999999</ele>
        <time>2026-07-08T08:06:22Z</time>
      </trkpt>
      <trkpt lat="54.29435103200376" lon="-5.635244026780129">
        <ele>23.690000000000001</ele>
        <time>2026-07-08T08:06:27Z</time>
      </trkpt>
      <trkpt lat="54.295108001679182" lon="-5.635790023952723">
        <ele>23.210000000000001</ele>
        <time>2026-07-08T08:06:34Z</time>
      </trkpt>
      <trkpt lat="54.295718958601356" lon="-5.636253962293267">
        <ele>25.129999999999999</ele>
        <time>2026-07-08T08:06:40Z</time>
      </trkpt>
      <trkpt lat="54.295816021040082" lon="-5.636328980326653">
        <ele>25.129999999999999</ele>
        <time>2026-07-08T08:06:41Z</time>
      </trkpt>
      <trkpt lat="54.29600696079433" lon="-5.63647298142314">
        <ele>25.129999999999999</ele>
        <time>2026-07-08T08:06:43Z</time>
      </trkpt>
      <trkpt lat="54.296111986041069" lon="-5.636525033041835">
        <ele>25.129999999999999</ele>
        <time>2026-07-08T08:06:44Z</time>
      </trkpt>
      <trkpt lat="54.296615989878774" lon="-5.636702980846167">
        <ele>21.77</ele>
        <time>2026-07-08T08:06:50Z</time>
      </trkpt>
      <trkpt lat="54.296656977385283" lon="-5.636717984452844">
        <ele>21.77</ele>
        <time>2026-07-08T08:06:51Z</time>
      </trkpt>
      <trkpt lat="54.296686984598637" lon="-5.636727958917618">
        <ele>21.289999999999999</ele>
        <time>2026-07-08T08:06:52Z</time>
      </trkpt>
      <trkpt lat="54.296709029003978" lon="-5.636736005544663">
        <ele>20.809999999999999</ele>
        <time>2026-07-08T08:06:53Z</time>
      </trkpt>
      <trkpt lat="54.296748004853725" lon="-5.63686097972095">
        <ele>20.32</ele>
        <time>2026-07-08T08:06:54Z</time>
      </trkpt>
      <trkpt lat="54.296740964055061" lon="-5.636886963620782">
        <ele>19.84</ele>
        <time>2026-07-08T08:07:00Z</time>
      </trkpt>
      <trkpt lat="54.296729983761907" lon="-5.636929962784052">
        <ele>19.359999999999999</ele>
        <time>2026-07-08T08:07:01Z</time>
      </trkpt>
      <trkpt lat="54.296711040660739" lon="-5.637007998302579">
        <ele>19.359999999999999</ele>
        <time>2026-07-08T08:07:02Z</time>
      </trkpt>
      <trkpt lat="54.296684972941875" lon="-5.637113023549318">
        <ele>19.359999999999999</ele>
        <time>2026-07-08T08:07:03Z</time>
      </trkpt>
      <trkpt lat="54.296653959900141" lon="-5.637233974412084">
        <ele>19.359999999999999</ele>
        <time>2026-07-08T08:07:04Z</time>
      </trkpt>
      <trkpt lat="54.296565027907491" lon="-5.637663966044784">
        <ele>19.84</ele>
        <time>2026-07-08T08:07:07Z</time>
      </trkpt>
      <trkpt lat="54.296538038179278" lon="-5.637822970747948">
        <ele>20.32</ele>
        <time>2026-07-08T08:07:08Z</time>
      </trkpt>
      <trkpt lat="54.296547006815672" lon="-5.637992033734918">
        <ele>20.809999999999999</ele>
        <time>2026-07-08T08:07:09Z</time>
      </trkpt>
      <trkpt lat="54.296613978222013" lon="-5.638767024502158">
        <ele>21.289999999999999</ele>
        <time>2026-07-08T08:07:13Z</time>
      </trkpt>
      <trkpt lat="54.29664901457727" lon="-5.638956036418676">
        <ele>21.289999999999999</ele>
        <time>2026-07-08T08:07:14Z</time>
      </trkpt>
      <trkpt lat="54.296721015125513" lon="-5.639339005574584">
        <ele>22.25</ele>
        <time>2026-07-08T08:07:16Z</time>
      </trkpt>
      <trkpt lat="54.296755967661738" lon="-5.639521982520819">
        <ele>22.25</ele>
        <time>2026-07-08T08:07:17Z</time>
      </trkpt>
      <trkpt lat="54.29680198431015" lon="-5.639693979173899">
        <ele>22.73</ele>
        <time>2026-07-08T08:07:18Z</time>
      </trkpt>
      <trkpt lat="54.296853030100465" lon="-5.639883996918798">
        <ele>22.73</ele>
        <time>2026-07-08T08:07:19Z</time>
      </trkpt>
      <trkpt lat="54.296906003728509" lon="-5.64008298330009">
        <ele>23.210000000000001</ele>
        <time>2026-07-08T08:07:20Z</time>
      </trkpt>
      <trkpt lat="54.297261983156204" lon="-5.641415035352111">
        <ele>26.57</ele>
        <time>2026-07-08T08:07:28Z</time>
      </trkpt>
      <trkpt lat="54.297387963160872" lon="-5.641888026148081">
        <ele>28.5</ele>
        <time>2026-07-08T08:07:31Z</time>
      </trkpt>
      <trkpt lat="54.297433979809284" lon="-5.642060022801161">
        <ele>28.98</ele>
        <time>2026-07-08T08:07:32Z</time>
      </trkpt>
      <trkpt lat="54.29802599363029" lon="-5.644366974011064">
        <ele>31.859999999999999</ele>
        <time>2026-07-08T08:07:43Z</time>
      </trkpt>
      <trkpt lat="54.298227997496724" lon="-5.645453017205">
        <ele>32.82</ele>
        <time>2026-07-08T08:07:48Z</time>
      </trkpt>
      <trkpt lat="54.298254987224936" lon="-5.645643034949899">
        <ele>32.82</ele>
        <time>2026-07-08T08:07:49Z</time>
      </trkpt>
      <trkpt lat="54.298451039940119" lon="-5.647250013425946">
        <ele>37.630000000000003</ele>
        <time>2026-07-08T08:07:56Z</time>
      </trkpt>
      <trkpt lat="54.298673998564482" lon="-5.64966500736773">
        <ele>40.990000000000002</ele>
        <time>2026-07-08T08:08:05Z</time>
      </trkpt>
      <trkpt lat="54.298883965238929" lon="-5.651783030480146">
        <ele>40.030000000000001</ele>
        <time>2026-07-08T08:08:14Z</time>
      </trkpt>
      <trkpt lat="54.299073982983828" lon="-5.653697960078716">
        <ele>39.549999999999997</ele>
        <time>2026-07-08T08:08:23Z</time>
      </trkpt>
      <trkpt lat="54.299259977415204" lon="-5.656056040897965">
        <ele>32.340000000000003</ele>
        <time>2026-07-08T08:08:34Z</time>
      </trkpt>
      <trkpt lat="54.29925000295043" lon="-5.656504975631833">
        <ele>29.460000000000001</ele>
        <time>2026-07-08T08:08:37Z</time>
      </trkpt>
      <trkpt lat="54.299243967980146" lon="-5.65679700113833">
        <ele>26.09</ele>
        <time>2026-07-08T08:08:43Z</time>
      </trkpt>
      <trkpt lat="54.299283027648926" lon="-5.656933039426804">
        <ele>25.609999999999999</ele>
        <time>2026-07-08T08:08:51Z</time>
      </trkpt>
      <trkpt lat="54.299341030418873" lon="-5.656939996406436">
        <ele>24.649999999999999</ele>
        <time>2026-07-08T08:08:52Z</time>
      </trkpt>
      <trkpt lat="54.299413030967116" lon="-5.6569470372051">
        <ele>24.649999999999999</ele>
        <time>2026-07-08T08:08:53Z</time>
      </trkpt>
      <trkpt lat="54.29955099709332" lon="-5.656962040811777">
        <ele>24.170000000000002</ele>
        <time>2026-07-08T08:08:55Z</time>
      </trkpt>
      <trkpt lat="54.299647975713015" lon="-5.656972015276551">
        <ele>24.170000000000002</ele>
        <time>2026-07-08T08:08:56Z</time>
      </trkpt>
      <trkpt lat="54.29966096766293" lon="-5.657150968909264">
        <ele>23.690000000000001</ele>
        <time>2026-07-08T08:08:57Z</time>
      </trkpt>
      <trkpt lat="54.299671025946736" lon="-5.657284995540977">
        <ele>23.690000000000001</ele>
        <time>2026-07-08T08:08:58Z</time>
      </trkpt>
      <trkpt lat="54.299682006239891" lon="-5.657436037436128">
        <ele>23.210000000000001</ele>
        <time>2026-07-08T08:08:59Z</time>
      </trkpt>
      <trkpt lat="54.299729028716683" lon="-5.658102985471487">
        <ele>22.25</ele>
        <time>2026-07-08T08:09:03Z</time>
      </trkpt>
      <trkpt lat="54.299718970432878" lon="-5.658246986567974">
        <ele>21.77</ele>
        <time>2026-07-08T08:09:04Z</time>
      </trkpt>
      <trkpt lat="54.299687035381794" lon="-5.658395010977984">
        <ele>22.25</ele>
        <time>2026-07-08T08:09:05Z</time>
      </trkpt>
      <trkpt lat="54.299650993198156" lon="-5.658563990145922">
        <ele>22.25</ele>
        <time>2026-07-08T08:09:06Z</time>
      </trkpt>
      <trkpt lat="54.299613023176789" lon="-5.658741015940905">
        <ele>21.77</ele>
        <time>2026-07-08T08:09:07Z</time>
      </trkpt>
      <trkpt lat="54.299575975164771" lon="-5.658914018422365">
        <ele>21.289999999999999</ele>
        <time>2026-07-08T08:09:08Z</time>
      </trkpt>
      <trkpt lat="54.299182025715709" lon="-5.660349000245333">
        <ele>20.32</ele>
        <time>2026-07-08T08:09:16Z</time>
      </trkpt>
      <trkpt lat="54.299137014895678" lon="-5.660510016605258">
        <ele>19.84</ele>
        <time>2026-07-08T08:09:17Z</time>
      </trkpt>
      <trkpt lat="54.298715991899371" lon="-5.662005012854934">
        <ele>21.289999999999999</ele>
        <time>2026-07-08T08:09:26Z</time>
      </trkpt>
      <trkpt lat="54.29811199195683" lon="-5.664148014038801">
        <ele>21.77</ele>
        <time>2026-07-08T08:09:36Z</time>
      </trkpt>
      <trkpt lat="54.297524001449347" lon="-5.666262013837695">
        <ele>24.649999999999999</ele>
        <time>2026-07-08T08:09:47Z</time>
      </trkpt>
      <trkpt lat="54.296988984569907" lon="-5.668223965913057">
        <ele>25.609999999999999</ele>
        <time>2026-07-08T08:09:57Z</time>
      </trkpt>
      <trkpt lat="54.296437036246061" lon="-5.670125987380743">
        <ele>31.379999999999999</ele>
        <time>2026-07-08T08:10:07Z</time>
      </trkpt>
      <trkpt lat="54.296362018212676" lon="-5.670232018455863">
        <ele>31.379999999999999</ele>
        <time>2026-07-08T08:10:08Z</time>
      </trkpt>
      <trkpt lat="54.296282976865768" lon="-5.670330002903938">
        <ele>30.899999999999999</ele>
        <time>2026-07-08T08:10:09Z</time>
      </trkpt>
      <trkpt lat="54.296203013509512" lon="-5.670403009280562">
        <ele>30.899999999999999</ele>
        <time>2026-07-08T08:10:10Z</time>
      </trkpt>
      <trkpt lat="54.296115003526211" lon="-5.670469980686903">
        <ele>30.420000000000002</ele>
        <time>2026-07-08T08:10:11Z</time>
      </trkpt>
      <trkpt lat="54.295730022713542" lon="-5.670762006193399">
        <ele>29.940000000000001</ele>
        <time>2026-07-08T08:10:15Z</time>
      </trkpt>
      <trkpt lat="54.295635977759957" lon="-5.670834006741643">
        <ele>29.940000000000001</ele>
        <time>2026-07-08T08:10:16Z</time>
      </trkpt>
      <trkpt lat="54.295568000525236" lon="-5.670959986746311">
        <ele>30.420000000000002</ele>
        <time>2026-07-08T08:10:17Z</time>
      </trkpt>
      <trkpt lat="54.29551100358367" lon="-5.671065011993051">
        <ele>30.420000000000002</ele>
        <time>2026-07-08T08:10:18Z</time>
      </trkpt>
      <trkpt lat="54.295482002198696" lon="-5.671199960634112">
        <ele>29.940000000000001</ele>
        <time>2026-07-08T08:10:19Z</time>
      </trkpt>
      <trkpt lat="54.295475967228413" lon="-5.67134496755898">
        <ele>29.460000000000001</ele>
        <time>2026-07-08T08:10:20Z</time>
      </trkpt>
      <trkpt lat="54.29546901024878" lon="-5.671502966433764">
        <ele>28.98</ele>
        <time>2026-07-08T08:10:21Z</time>
      </trkpt>
      <trkpt lat="54.295460963621736" lon="-5.671673035249114">
        <ele>28.98</ele>
        <time>2026-07-08T08:10:22Z</time>
      </trkpt>
      <trkpt lat="54.295263988897204" lon="-5.67342703230679">
        <ele>26.57</ele>
        <time>2026-07-08T08:10:31Z</time>
      </trkpt>
      <trkpt lat="54.295100038871169" lon="-5.674297995865345">
        <ele>23.210000000000001</ele>
        <time>2026-07-08T08:10:36Z</time>
      </trkpt>
      <trkpt lat="54.295077994465828" lon="-5.674417018890381">
        <ele>22.25</ele>
        <time>2026-07-08T08:10:37Z</time>
      </trkpt>
      <trkpt lat="54.295080006122589" lon="-5.674575017765164">
        <ele>21.77</ele>
        <time>2026-07-08T08:10:38Z</time>
      </trkpt>
      <trkpt lat="54.29508101195097" lon="-5.674713989719749">
        <ele>21.289999999999999</ele>
        <time>2026-07-08T08:10:39Z</time>
      </trkpt>
      <trkpt lat="54.295083023607731" lon="-5.674863019958139">
        <ele>20.809999999999999</ele>
        <time>2026-07-08T08:10:40Z</time>
      </trkpt>
      <trkpt lat="54.295101966708899" lon="-5.676364973187447">
        <ele>20.32</ele>
        <time>2026-07-08T08:10:49Z</time>
      </trkpt>
      <trkpt lat="54.295077994465828" lon="-5.678270012140274">
        <ele>20.809999999999999</ele>
        <time>2026-07-08T08:10:59Z</time>
      </trkpt>
      <trkpt lat="54.295008005574346" lon="-5.678702015429735">
        <ele>20.32</ele>
        <time>2026-07-08T08:11:02Z</time>
      </trkpt>
      <trkpt lat="54.294977998360991" lon="-5.678840987384319">
        <ele>20.32</ele>
        <time>2026-07-08T08:11:03Z</time>
      </trkpt>
      <trkpt lat="54.294786974787712" lon="-5.679786968976259">
        <ele>18.879999999999999</ele>
        <time>2026-07-08T08:11:09Z</time>
      </trkpt>
      <trkpt lat="54.294771971181035" lon="-5.679954020306468">
        <ele>18.399999999999999</ele>
        <time>2026-07-08T08:11:10Z</time>
      </trkpt>
      <trkpt lat="54.294756967574358" lon="-5.680112019181252">
        <ele>18.399999999999999</ele>
        <time>2026-07-08T08:11:11Z</time>
      </trkpt>
      <trkpt lat="54.294785968959332" lon="-5.68028200417757">
        <ele>18.399999999999999</ele>
        <time>2026-07-08T08:11:12Z</time>
      </trkpt>
      <trkpt lat="54.294814970344305" lon="-5.680441008880734">
        <ele>18.399999999999999</ele>
        <time>2026-07-08T08:11:13Z</time>
      </trkpt>
      <trkpt lat="54.294856963679194" lon="-5.680563971400261">
        <ele>18.399999999999999</ele>
        <time>2026-07-08T08:11:14Z</time>
      </trkpt>
      <trkpt lat="54.294907003641129" lon="-5.680692968890071">
        <ele>17.920000000000002</ele>
        <time>2026-07-08T08:11:15Z</time>
      </trkpt>
      <trkpt lat="54.294964000582695" lon="-5.680803023278713">
        <ele>17.920000000000002</ele>
        <time>2026-07-08T08:11:16Z</time>
      </trkpt>
      <trkpt lat="54.295186037197709" lon="-5.681143999099731">
        <ele>16.960000000000001</ele>
        <time>2026-07-08T08:11:19Z</time>
      </trkpt>
      <trkpt lat="54.295320985838771" lon="-5.681351032108069">
        <ele>16.48</ele>
        <time>2026-07-08T08:11:21Z</time>
      </trkpt>
      <trkpt lat="54.295385023579001" lon="-5.681449016556144">
        <ele>15.52</ele>
        <time>2026-07-08T08:11:22Z</time>
      </trkpt>
      <trkpt lat="54.295442020520568" lon="-5.681537026539445">
        <ele>14.56</ele>
        <time>2026-07-08T08:11:23Z</time>
      </trkpt>
      <trkpt lat="54.295529024675488" lon="-5.681669963523746">
        <ele>14.08</ele>
        <time>2026-07-08T08:11:24Z</time>
      </trkpt>
      <trkpt lat="54.295529024675488" lon="-5.68178697489202">
        <ele>14.08</ele>
        <time>2026-07-08T08:11:25Z</time>
      </trkpt>
      <trkpt lat="54.295529024675488" lon="-5.681970035657287">
        <ele>14.08</ele>
        <time>2026-07-08T08:11:26Z</time>
      </trkpt>
      <trkpt lat="54.295507986098528" lon="-5.682098027318716">
        <ele>14.08</ele>
        <time>2026-07-08T08:11:27Z</time>
      </trkpt>
      <trkpt lat="54.295432968065143" lon="-5.682551991194487">
        <ele>15.039999999999999</ele>
        <time>2026-07-08T08:11:30Z</time>
      </trkpt>
      <trkpt lat="54.295406984165311" lon="-5.682712001726031">
        <ele>15.039999999999999</ele>
        <time>2026-07-08T08:11:31Z</time>
      </trkpt>
      <trkpt lat="54.295379994437099" lon="-5.682877963408828">
        <ele>15.52</ele>
        <time>2026-07-08T08:11:32Z</time>
      </trkpt>
      <trkpt lat="54.295353004708886" lon="-5.683043003082275">
        <ele>15.52</ele>
        <time>2026-07-08T08:11:33Z</time>
      </trkpt>
      <trkpt lat="54.295334983617067" lon="-5.683150039985776">
        <ele>15.52</ele>
        <time>2026-07-08T08:11:34Z</time>
      </trkpt>
      <trkpt lat="54.295314028859138" lon="-5.683365035802126">
        <ele>16</ele>
        <time>2026-07-08T08:11:35Z</time>
      </trkpt>
      <trkpt lat="54.295295001938939" lon="-5.683558993041515">
        <ele>16</ele>
        <time>2026-07-08T08:11:36Z</time>
      </trkpt>
      <trkpt lat="54.295118981972337" lon="-5.685254987329245">
        <ele>19.84</ele>
        <time>2026-07-08T08:11:45Z</time>
      </trkpt>
      <trkpt lat="54.295034995302558" lon="-5.685724960640073">
        <ele>20.809999999999999</ele>
        <time>2026-07-08T08:11:48Z</time>
      </trkpt>
      <trkpt lat="54.294994007796049" lon="-5.685838032513857">
        <ele>21.289999999999999</ele>
        <time>2026-07-08T08:11:49Z</time>
      </trkpt>
      <trkpt lat="54.294938016682863" lon="-5.68597599864006">
        <ele>21.77</ele>
        <time>2026-07-08T08:11:50Z</time>
      </trkpt>
      <trkpt lat="54.294357988983393" lon="-5.686921980232">
        <ele>21.77</ele>
        <time>2026-07-08T08:11:58Z</time>
      </trkpt>
      <trkpt lat="54.294225974008441" lon="-5.687248036265373">
        <ele>21.289999999999999</ele>
        <time>2026-07-08T08:12:04Z</time>
      </trkpt>
      <trkpt lat="54.294193033128977" lon="-5.68732900545001">
        <ele>21.77</ele>
        <time>2026-07-08T08:12:13Z</time>
      </trkpt>
      <trkpt lat="54.294186998158693" lon="-5.68745699711144">
        <ele>22.25</ele>
        <time>2026-07-08T08:12:14Z</time>
      </trkpt>
      <trkpt lat="54.294219017028809" lon="-5.687492033466697">
        <ele>22.25</ele>
        <time>2026-07-08T08:12:15Z</time>
      </trkpt>
      <trkpt lat="54.294268973171711" lon="-5.687550036236644">
        <ele>22.25</ele>
        <time>2026-07-08T08:12:16Z</time>
      </trkpt>
      <trkpt lat="54.294334016740322" lon="-5.687623964622617">
        <ele>22.73</ele>
        <time>2026-07-08T08:12:17Z</time>
      </trkpt>
      <trkpt lat="54.294409034773707" lon="-5.687709040939808">
        <ele>22.73</ele>
        <time>2026-07-08T08:12:18Z</time>
      </trkpt>
      <trkpt lat="54.295402960851789" lon="-5.688837999477983">
        <ele>24.649999999999999</ele>
        <time>2026-07-08T08:12:29Z</time>
      </trkpt>
      <trkpt lat="54.295680988579988" lon="-5.68915500305593">
        <ele>24.649999999999999</ele>
        <time>2026-07-08T08:12:33Z</time>
      </trkpt>
      <trkpt lat="54.295687023550272" lon="-5.689272014424205">
        <ele>24.649999999999999</ele>
        <time>2026-07-08T08:12:34Z</time>
      </trkpt>
      <trkpt lat="54.29566003382206" lon="-5.689324988052249">
        <ele>24.649999999999999</ele>
        <time>2026-07-08T08:12:35Z</time>
      </trkpt>
      <trkpt lat="54.295622985810041" lon="-5.689397994428873">
        <ele>24.170000000000002</ele>
        <time>2026-07-08T08:12:36Z</time>
      </trkpt>
      <trkpt lat="54.295592978596687" lon="-5.689459014683962">
        <ele>24.170000000000002</ele>
        <time>2026-07-08T08:12:37Z</time>
      </trkpt>
      <trkpt lat="54.295592978596687" lon="-5.689459014683962">
        <ele>24.170000000000002</ele>
        <time>2026-07-08T08:12:38Z</time>
      </trkpt>
      <trkpt lat="54.295560959726572" lon="-5.689678033813834">
        <ele>24.170000000000002</ele>
        <time>2026-07-08T08:12:39Z</time>
      </trkpt>
      <trkpt lat="54.295547967776656" lon="-5.689682979136705">
        <ele>23.690000000000001</ele>
        <time>2026-07-08T08:12:43Z</time>
      </trkpt>
      <trkpt lat="54.295518966391683" lon="-5.689694965258241">
        <ele>23.690000000000001</ele>
        <time>2026-07-08T08:12:44Z</time>
      </trkpt>
      <trkpt lat="54.295470016077161" lon="-5.689714998006821">
        <ele>23.690000000000001</ele>
        <time>2026-07-08T08:12:45Z</time>
      </trkpt>
      <trkpt lat="54.295137003064156" lon="-5.689849024638534">
        <ele>23.210000000000001</ele>
        <time>2026-07-08T08:12:49Z</time>
      </trkpt>
      <trkpt lat="54.294040985405445" lon="-5.690384041517973">
        <ele>20.809999999999999</ele>
        <time>2026-07-08T08:12:58Z</time>
      </trkpt>
      <trkpt lat="54.293518038466573" lon="-5.690729040652514">
        <ele>20.809999999999999</ele>
        <time>2026-07-08T08:13:03Z</time>
      </trkpt>
      <trkpt lat="54.293446959927678" lon="-5.69085200317204">
        <ele>20.809999999999999</ele>
        <time>2026-07-08T08:13:04Z</time>
      </trkpt>
      <trkpt lat="54.293389962986112" lon="-5.690950993448496">
        <ele>21.77</ele>
        <time>2026-07-08T08:13:05Z</time>
      </trkpt>
      <trkpt lat="54.293347969651222" lon="-5.691022993996739">
        <ele>22.25</ele>
        <time>2026-07-08T08:13:06Z</time>
      </trkpt>
      <trkpt lat="54.293317040428519" lon="-5.691077979281545">
        <ele>22.25</ele>
        <time>2026-07-08T08:13:07Z</time>
      </trkpt>
      <trkpt lat="54.293145965784788" lon="-5.691373022273183">
        <ele>26.57</ele>
        <time>2026-07-08T08:13:18Z</time>
      </trkpt>
      <trkpt lat="54.293145965784788" lon="-5.691373022273183">
        <ele>26.57</ele>
        <time>2026-07-08T08:13:33Z</time>
      </trkpt>
      <trkpt lat="54.293111013248563" lon="-5.69143395870924">
        <ele>26.57</ele>
        <time>2026-07-08T08:13:58Z</time>
      </trkpt>
      <trkpt lat="54.293066002428532" lon="-5.691511994227767">
        <ele>26.57</ele>
        <time>2026-07-08T08:13:59Z</time>
      </trkpt>
      <trkpt lat="54.292727038264275" lon="-5.692277010530233">
        <ele>27.530000000000001</ele>
        <time>2026-07-08T08:14:05Z</time>
      </trkpt>
      <trkpt lat="54.292660988867283" lon="-5.692439032718539">
        <ele>28.5</ele>
        <time>2026-07-08T08:14:06Z</time>
      </trkpt>
      <trkpt lat="54.292593011632562" lon="-5.692606000229716">
        <ele>28.98</ele>
        <time>2026-07-08T08:14:07Z</time>
      </trkpt>
      <trkpt lat="54.291765969246626" lon="-5.694430992007256">
        <ele>32.340000000000003</ele>
        <time>2026-07-08T08:14:18Z</time>
      </trkpt>
      <trkpt lat="54.290835997089744" lon="-5.696366038173437">
        <ele>39.07</ele>
        <time>2026-07-08T08:14:29Z</time>
      </trkpt>
      <trkpt lat="54.290217999368906" lon="-5.697818035259843">
        <ele>40.509999999999998</ele>
        <time>2026-07-08T08:14:37Z</time>
      </trkpt>
      <trkpt lat="54.290165025740862" lon="-5.698018027469516">
        <ele>40.030000000000001</ele>
        <time>2026-07-08T08:14:38Z</time>
      </trkpt>
      <trkpt lat="54.289811979979277" lon="-5.700048040598631">
        <ele>40.990000000000002</ele>
        <time>2026-07-08T08:14:48Z</time>
      </trkpt>
      <trkpt lat="54.289798988029361" lon="-5.700274016708136">
        <ele>40.990000000000002</ele>
        <time>2026-07-08T08:14:49Z</time>
      </trkpt>
      <trkpt lat="54.289808040484786" lon="-5.700444001704454">
        <ele>40.030000000000001</ele>
        <time>2026-07-08T08:14:50Z</time>
      </trkpt>
      <trkpt lat="54.28981801494956" lon="-5.700654974207282">
        <ele>39.549999999999997</ele>
        <time>2026-07-08T08:14:51Z</time>
      </trkpt>
      <trkpt lat="54.28986000828445" lon="-5.700867036357522">
        <ele>38.590000000000003</ele>
        <time>2026-07-08T08:14:52Z</time>
      </trkpt>
      <trkpt lat="54.289908036589622" lon="-5.701071973890066">
        <ele>38.109999999999999</ele>
        <time>2026-07-08T08:14:53Z</time>
      </trkpt>
      <trkpt lat="54.289954975247383" lon="-5.7012739777565">
        <ele>37.630000000000003</ele>
        <time>2026-07-08T08:14:54Z</time>
      </trkpt>
      <trkpt lat="54.290013983845711" lon="-5.701475981622934">
        <ele>37.149999999999999</ele>
        <time>2026-07-08T08:14:55Z</time>
      </trkpt>
      <trkpt lat="54.290100988000631" lon="-5.701648984104395">
        <ele>37.149999999999999</ele>
        <time>2026-07-08T08:14:56Z</time>
      </trkpt>
      <trkpt lat="54.290187992155552" lon="-5.701823998242617">
        <ele>37.149999999999999</ele>
        <time>2026-07-08T08:14:57Z</time>
      </trkpt>
      <trkpt lat="54.290281031280756" lon="-5.702003035694361">
        <ele>37.149999999999999</ele>
        <time>2026-07-08T08:14:58Z</time>
      </trkpt>
      <trkpt lat="54.290389996021986" lon="-5.7021529879421">
        <ele>37.149999999999999</ele>
        <time>2026-07-08T08:14:59Z</time>
      </trkpt>
      <trkpt lat="54.291852973401546" lon="-5.704270005226135">
        <ele>43.880000000000003</ele>
        <time>2026-07-08T08:15:13Z</time>
      </trkpt>
      <trkpt lat="54.291970990598202" lon="-5.704357009381056">
        <ele>44.840000000000003</ele>
        <time>2026-07-08T08:15:14Z</time>
      </trkpt>
      <trkpt lat="54.292085990309715" lon="-5.704440996050835">
        <ele>44.840000000000003</ele>
        <time>2026-07-08T08:15:15Z</time>
      </trkpt>
      <trkpt lat="54.292454039677978" lon="-5.704712988808751">
        <ele>44.840000000000003</ele>
        <time>2026-07-08T08:15:19Z</time>
      </trkpt>
      <trkpt lat="54.292523022741079" lon="-5.704764034599066">
        <ele>44.359999999999999</ele>
        <time>2026-07-08T08:15:20Z</time>
      </trkpt>
      <trkpt lat="54.292615978047252" lon="-5.704933013767004">
        <ele>44.359999999999999</ele>
        <time>2026-07-08T08:15:21Z</time>
      </trkpt>
      <trkpt lat="54.292598962783813" lon="-5.705029992386699">
        <ele>44.840000000000003</ele>
        <time>2026-07-08T08:15:22Z</time>
      </trkpt>
      <trkpt lat="54.292577002197504" lon="-5.705152032896876">
        <ele>44.840000000000003</ele>
        <time>2026-07-08T08:15:23Z</time>
      </trkpt>
      <trkpt lat="54.29254699498415" lon="-5.705296033993363">
        <ele>45.32</ele>
        <time>2026-07-08T08:15:24Z</time>
      </trkpt>
      <trkpt lat="54.292510030791163" lon="-5.705455038696528">
        <ele>45.32</ele>
        <time>2026-07-08T08:15:25Z</time>
      </trkpt>
      <trkpt lat="54.292470971122384" lon="-5.705626029521227">
        <ele>45.799999999999997</ele>
        <time>2026-07-08T08:15:26Z</time>
      </trkpt>
      <trkpt lat="54.292026981711388" lon="-5.707539031282067">
        <ele>43.880000000000003</ele>
        <time>2026-07-08T08:15:35Z</time>
      </trkpt>
      <trkpt lat="54.291850039735436" lon="-5.708303041756153">
        <ele>43.399999999999999</ele>
        <time>2026-07-08T08:15:40Z</time>
      </trkpt>
      <trkpt lat="54.291824977844954" lon="-5.708411000669003">
        <ele>43.399999999999999</ele>
        <time>2026-07-08T08:15:41Z</time>
      </trkpt>
      <trkpt lat="54.291835036128759" lon="-5.708522982895374">
        <ele>43.880000000000003</ele>
        <time>2026-07-08T08:15:42Z</time>
      </trkpt>
      <trkpt lat="54.291862025856972" lon="-5.708633037284017">
        <ele>43.880000000000003</ele>
        <time>2026-07-08T08:15:43Z</time>
      </trkpt>
      <trkpt lat="54.291907036677003" lon="-5.70874803699553">
        <ele>44.359999999999999</ele>
        <time>2026-07-08T08:15:44Z</time>
      </trkpt>
      <trkpt lat="54.291970990598202" lon="-5.708846021443605">
        <ele>44.359999999999999</ele>
        <time>2026-07-08T08:15:45Z</time>
      </trkpt>
      <trkpt lat="54.292042991146445" lon="-5.708958003669977">
        <ele>44.359999999999999</ele>
        <time>2026-07-08T08:15:46Z</time>
      </trkpt>
      <trkpt lat="54.292276008054614" lon="-5.709319012239575">
        <ele>43.880000000000003</ele>
        <time>2026-07-08T08:15:49Z</time>
      </trkpt>
      <trkpt lat="54.292329987511039" lon="-5.709459995850921">
        <ele>43.880000000000003</ele>
        <time>2026-07-08T08:15:50Z</time>
      </trkpt>
      <trkpt lat="54.292362006381154" lon="-5.709605002775788">
        <ele>43.880000000000003</ele>
        <time>2026-07-08T08:15:51Z</time>
      </trkpt>
      <trkpt lat="54.29239503107965" lon="-5.709754033014178">
        <ele>44.359999999999999</ele>
        <time>2026-07-08T08:15:52Z</time>
      </trkpt>
      <trkpt lat="54.292415985837579" lon="-5.709913959726691">
        <ele>44.359999999999999</ele>
        <time>2026-07-08T08:15:53Z</time>
      </trkpt>
      <trkpt lat="54.292539032176137" lon="-5.710861030966044">
        <ele>43.880000000000003</ele>
        <time>2026-07-08T08:15:58Z</time>
      </trkpt>
      <trkpt lat="54.29252696223557" lon="-5.711068985983729">
        <ele>43.880000000000003</ele>
        <time>2026-07-08T08:15:59Z</time>
      </trkpt>
      <trkpt lat="54.292501984164119" lon="-5.711273001506925">
        <ele>43.880000000000003</ele>
        <time>2026-07-08T08:16:00Z</time>
      </trkpt>
      <trkpt lat="54.292476000264287" lon="-5.711482968181372">
        <ele>44.359999999999999</ele>
        <time>2026-07-08T08:16:01Z</time>
      </trkpt>
      <trkpt lat="54.292450016364455" lon="-5.711701987311244">
        <ele>44.359999999999999</ele>
        <time>2026-07-08T08:16:02Z</time>
      </trkpt>
      <trkpt lat="54.291901001706719" lon="-5.714696003124118">
        <ele>45.799999999999997</ele>
        <time>2026-07-08T08:16:16Z</time>
      </trkpt>
      <trkpt lat="54.291796982288361" lon="-5.715464958921075">
        <ele>46.759999999999998</ele>
        <time>2026-07-08T08:16:20Z</time>
      </trkpt>
      <trkpt lat="54.291804023087025" lon="-5.715640978887677">
        <ele>47.240000000000002</ele>
        <time>2026-07-08T08:16:21Z</time>
      </trkpt>
      <trkpt lat="54.29181600920856" lon="-5.715852035209537">
        <ele>47.240000000000002</ele>
        <time>2026-07-08T08:16:22Z</time>
      </trkpt>
      <trkpt lat="54.291847022250295" lon="-5.716019002720714">
        <ele>47.240000000000002</ele>
        <time>2026-07-08T08:16:23Z</time>
      </trkpt>
      <trkpt lat="54.29188197478652" lon="-5.716210026293993">
        <ele>46.759999999999998</ele>
        <time>2026-07-08T08:16:24Z</time>
      </trkpt>
      <trkpt lat="54.291951041668653" lon="-5.716589977964759">
        <ele>45.32</ele>
        <time>2026-07-08T08:16:26Z</time>
      </trkpt>
      <trkpt lat="54.29198800586164" lon="-5.716796005144715">
        <ele>44.840000000000003</ele>
        <time>2026-07-08T08:16:27Z</time>
      </trkpt>
      <trkpt lat="54.292046008631587" lon="-5.718380017206073">
        <ele>43.880000000000003</ele>
        <time>2026-07-08T08:16:37Z</time>
      </trkpt>
      <trkpt lat="54.292062018066645" lon="-5.718517983332276">
        <ele>42.920000000000002</ele>
        <time>2026-07-08T08:16:43Z</time>
      </trkpt>
      <trkpt lat="54.292108034715056" lon="-5.719045037403703">
        <ele>41.950000000000003</ele>
        <time>2026-07-08T08:16:48Z</time>
      </trkpt>
      <trkpt lat="54.2921800352633" lon="-5.719939973205328">
        <ele>40.030000000000001</ele>
        <time>2026-07-08T08:16:53Z</time>
      </trkpt>
      <trkpt lat="54.292254969477654" lon="-5.720087997615337">
        <ele>39.549999999999997</ele>
        <time>2026-07-08T08:16:54Z</time>
      </trkpt>
      <trkpt lat="54.292324958369136" lon="-5.720216995105147">
        <ele>39.07</ele>
        <time>2026-07-08T08:16:55Z</time>
      </trkpt>
      <trkpt lat="54.29241799749434" lon="-5.720309028401971">
        <ele>38.590000000000003</ele>
        <time>2026-07-08T08:16:56Z</time>
      </trkpt>
      <trkpt lat="54.292526040226221" lon="-5.720407012850046">
        <ele>38.109999999999999</ele>
        <time>2026-07-08T08:16:57Z</time>
      </trkpt>
      <trkpt lat="54.292750004678965" lon="-5.720611028373241">
        <ele>37.630000000000003</ele>
        <time>2026-07-08T08:16:59Z</time>
      </trkpt>
      <trkpt lat="54.292856035754085" lon="-5.72073700837791">
        <ele>37.630000000000003</ele>
        <time>2026-07-08T08:17:00Z</time>
      </trkpt>
      <trkpt lat="54.292937004938722" lon="-5.7208860386163">
        <ele>38.109999999999999</ele>
        <time>2026-07-08T08:17:01Z</time>
      </trkpt>
      <trkpt lat="54.29299802519381" lon="-5.721063986420631">
        <ele>38.590000000000003</ele>
        <time>2026-07-08T08:17:02Z</time>
      </trkpt>
      <trkpt lat="54.293053010478616" lon="-5.721246041357517">
        <ele>38.590000000000003</ele>
        <time>2026-07-08T08:17:03Z</time>
      </trkpt>
      <trkpt lat="54.293110007420182" lon="-5.721433041617274">
        <ele>39.07</ele>
        <time>2026-07-08T08:17:04Z</time>
      </trkpt>
      <trkpt lat="54.293725993484259" lon="-5.723569002002478">
        <ele>37.630000000000003</ele>
        <time>2026-07-08T08:17:14Z</time>
      </trkpt>
      <trkpt lat="54.294147016480565" lon="-5.725199030712247">
        <ele>31.859999999999999</ele>
        <time>2026-07-08T08:17:22Z</time>
      </trkpt>
      <trkpt lat="54.294229997321963" lon="-5.725820967927575">
        <ele>29.940000000000001</ele>
        <time>2026-07-08T08:17:25Z</time>
      </trkpt>
      <trkpt lat="54.294252963736653" lon="-5.726197985932231">
        <ele>29.940000000000001</ele>
        <time>2026-07-08T08:17:27Z</time>
      </trkpt>
      <trkpt lat="54.294237960129976" lon="-5.726394038647413">
        <ele>30.899999999999999</ele>
        <time>2026-07-08T08:17:28Z</time>
      </trkpt>
      <trkpt lat="54.294151961803436" lon="-5.72849496267736">
        <ele>35.710000000000001</ele>
        <time>2026-07-08T08:17:37Z</time>
      </trkpt>
      <trkpt lat="54.29409303702414" lon="-5.730465967208147">
        <ele>40.990000000000002</ele>
        <time>2026-07-08T08:17:46Z</time>
      </trkpt>
      <trkpt lat="54.294113991782069" lon="-5.730698984116316">
        <ele>41.950000000000003</ele>
        <time>2026-07-08T08:17:47Z</time>
      </trkpt>
      <trkpt lat="54.294240977615118" lon="-5.731863984838128">
        <ele>41.950000000000003</ele>
        <time>2026-07-08T08:17:52Z</time>
      </trkpt>
      <trkpt lat="54.294240977615118" lon="-5.732106976211071">
        <ele>41.950000000000003</ele>
        <time>2026-07-08T08:17:53Z</time>
      </trkpt>
      <trkpt lat="54.294240977615118" lon="-5.732348039746285">
        <ele>42.439999999999998</ele>
        <time>2026-07-08T08:17:54Z</time>
      </trkpt>
      <trkpt lat="54.29404903203249" lon="-5.734673012048006">
        <ele>46.759999999999998</ele>
        <time>2026-07-08T08:18:04Z</time>
      </trkpt>
      <trkpt lat="54.293940989300609" lon="-5.736193992197514">
        <ele>46.280000000000001</ele>
        <time>2026-07-08T08:18:10Z</time>
      </trkpt>
      <trkpt lat="54.293891033157706" lon="-5.736389039084315">
        <ele>46.280000000000001</ele>
        <time>2026-07-08T08:18:11Z</time>
      </trkpt>
      <trkpt lat="54.293451989069581" lon="-5.738647961989045">
        <ele>47.240000000000002</ele>
        <time>2026-07-08T08:18:22Z</time>
      </trkpt>
      <trkpt lat="54.293311005458236" lon="-5.740214036777616">
        <ele>48.68</ele>
        <time>2026-07-08T08:18:30Z</time>
      </trkpt>
      <trkpt lat="54.29284798912704" lon="-5.741855967789888">
        <ele>48.68</ele>
        <time>2026-07-08T08:18:38Z</time>
      </trkpt>
      <trkpt lat="54.292795015498996" lon="-5.74202997609973">
        <ele>49.159999999999997</ele>
        <time>2026-07-08T08:18:39Z</time>
      </trkpt>
      <trkpt lat="54.292742963880301" lon="-5.742204990237951">
        <ele>49.649999999999999</ele>
        <time>2026-07-08T08:18:40Z</time>
      </trkpt>
      <trkpt lat="54.292535008862615" lon="-5.743230013176799">
        <ele>50.130000000000003</ele>
        <time>2026-07-08T08:18:45Z</time>
      </trkpt>
      <trkpt lat="54.292000997811556" lon="-5.745496982708573">
        <ele>54.450000000000003</ele>
        <time>2026-07-08T08:18:56Z</time>
      </trkpt>
      <trkpt lat="54.291505040600896" lon="-5.747352987527847">
        <ele>60.700000000000003</ele>
        <time>2026-07-08T08:19:05Z</time>
      </trkpt>
      <trkpt lat="54.290699036791921" lon="-5.749726993963122">
        <ele>65.510000000000005</ele>
        <time>2026-07-08T08:19:18Z</time>
      </trkpt>
      <trkpt lat="54.290004009380937" lon="-5.751230036839843">
        <ele>61.18</ele>
        <time>2026-07-08T08:19:27Z</time>
      </trkpt>
      <trkpt lat="54.289303030818701" lon="-5.753060979768634">
        <ele>53.490000000000002</ele>
        <time>2026-07-08T08:19:37Z</time>
      </trkpt>
      <trkpt lat="54.288634993135929" lon="-5.754805002361536">
        <ele>43.880000000000003</ele>
        <time>2026-07-08T08:19:46Z</time>
      </trkpt>
      <trkpt lat="54.288588976487517" lon="-5.754998037591577">
        <ele>42.920000000000002</ele>
        <time>2026-07-08T08:19:47Z</time>
      </trkpt>
      <trkpt lat="54.288200978189707" lon="-5.756686991080642">
        <ele>41.469999999999999</ele>
        <time>2026-07-08T08:19:56Z</time>
      </trkpt>
      <trkpt lat="54.288173988461494" lon="-5.756834009662271">
        <ele>41.950000000000003</ele>
        <time>2026-07-08T08:19:57Z</time>
      </trkpt>
      <trkpt lat="54.288146998733282" lon="-5.756985973566771">
        <ele>42.439999999999998</ele>
        <time>2026-07-08T08:19:58Z</time>
      </trkpt>
      <trkpt lat="54.28814297541976" lon="-5.757147995755076">
        <ele>42.439999999999998</ele>
        <time>2026-07-08T08:19:59Z</time>
      </trkpt>
      <trkpt lat="54.288162002339959" lon="-5.758111998438835">
        <ele>41.469999999999999</ele>
        <time>2026-07-08T08:20:07Z</time>
      </trkpt>
      <trkpt lat="54.288106011226773" lon="-5.75831500813365">
        <ele>41.469999999999999</ele>
        <time>2026-07-08T08:20:15Z</time>
      </trkpt>
      <trkpt lat="54.288068041205406" lon="-5.758407041430473">
        <ele>41.469999999999999</ele>
        <time>2026-07-08T08:20:16Z</time>
      </trkpt>
      <trkpt lat="54.288021018728614" lon="-5.758518017828465">
        <ele>41.469999999999999</ele>
        <time>2026-07-08T08:20:17Z</time>
      </trkpt>
      <trkpt lat="54.287474015727639" lon="-5.759558966383338">
        <ele>40.509999999999998</ele>
        <time>2026-07-08T08:20:24Z</time>
      </trkpt>
      <trkpt lat="54.287266982719302" lon="-5.759835988283157">
        <ele>40.030000000000001</ele>
        <time>2026-07-08T08:20:26Z</time>
      </trkpt>
      <trkpt lat="54.287157012149692" lon="-5.7599270157516">
        <ele>39.549999999999997</ele>
        <time>2026-07-08T08:20:27Z</time>
      </trkpt>
      <trkpt lat="54.286950984969735" lon="-5.760097000747919">
        <ele>39.07</ele>
        <time>2026-07-08T08:20:29Z</time>
      </trkpt>
      <trkpt lat="54.286877978593111" lon="-5.760221974924207">
        <ele>39.07</ele>
        <time>2026-07-08T08:20:30Z</time>
      </trkpt>
      <trkpt lat="54.286818969994783" lon="-5.76035600155592">
        <ele>39.07</ele>
        <time>2026-07-08T08:20:31Z</time>
      </trkpt>
      <trkpt lat="54.286751998588443" lon="-5.76050503179431">
        <ele>39.07</ele>
        <time>2026-07-08T08:20:32Z</time>
      </trkpt>
      <trkpt lat="54.28674504160881" lon="-5.760627994313836">
        <ele>39.07</ele>
        <time>2026-07-08T08:20:33Z</time>
      </trkpt>
      <trkpt lat="54.286735989153385" lon="-5.760784987360239">
        <ele>39.07</ele>
        <time>2026-07-08T08:20:34Z</time>
      </trkpt>
      <trkpt lat="54.286673041060567" lon="-5.761835994198918">
        <ele>37.630000000000003</ele>
        <time>2026-07-08T08:20:42Z</time>
      </trkpt>
      <trkpt lat="54.286667006090283" lon="-5.761943031102419">
        <ele>37.149999999999999</ele>
        <time>2026-07-08T08:20:50Z</time>
      </trkpt>
      <trkpt lat="54.286670023575425" lon="-5.76196800917387">
        <ele>37.149999999999999</ele>
        <time>2026-07-08T08:20:52Z</time>
      </trkpt>
      <trkpt lat="54.286721991375089" lon="-5.761943031102419">
        <ele>37.149999999999999</ele>
        <time>2026-07-08T08:20:53Z</time>
      </trkpt>
      <trkpt lat="54.286816958338022" lon="-5.761943031102419">
        <ele>37.149999999999999</ele>
        <time>2026-07-08T08:20:54Z</time>
      </trkpt>
      <trkpt lat="54.286969006061554" lon="-5.762060964480043">
        <ele>37.149999999999999</ele>
        <time>2026-07-08T08:20:56Z</time>
      </trkpt>
      <trkpt lat="54.287070007994771" lon="-5.76215903274715">
        <ele>37.149999999999999</ele>
        <time>2026-07-08T08:20:57Z</time>
      </trkpt>
      <trkpt lat="54.287393968552351" lon="-5.762514006346464">
        <ele>38.109999999999999</ele>
        <time>2026-07-08T08:21:00Z</time>
      </trkpt>
      <trkpt lat="54.28846400231123" lon="-5.763517990708351">
        <ele>38.109999999999999</ele>
        <time>2026-07-08T08:21:08Z</time>
      </trkpt>
      <trkpt lat="54.289396991953254" lon="-5.764528010040522">
        <ele>31.859999999999999</ele>
        <time>2026-07-08T08:21:15Z</time>
      </trkpt>
      <trkpt lat="54.28955901414156" lon="-5.764580983668566">
        <ele>31.859999999999999</ele>
        <time>2026-07-08T08:21:16Z</time>
      </trkpt>
      <trkpt lat="54.289728999137878" lon="-5.764615014195442">
        <ele>32.340000000000003</ele>
        <time>2026-07-08T08:21:17Z</time>
      </trkpt>
      <trkpt lat="54.290759973227978" lon="-5.764872003346682">
        <ele>34.740000000000002</ele>
        <time>2026-07-08T08:21:23Z</time>
      </trkpt>
      <trkpt lat="54.290912020951509" lon="-5.764962024986744">
        <ele>35.229999999999997</ele>
        <time>2026-07-08T08:21:24Z</time>
      </trkpt>
      <trkpt lat="54.291054010391235" lon="-5.765096973627806">
        <ele>35.229999999999997</ele>
        <time>2026-07-08T08:21:25Z</time>
      </trkpt>
      <trkpt lat="54.292694013565779" lon="-5.766659025102854">
        <ele>35.710000000000001</ele>
        <time>2026-07-08T08:21:37Z</time>
      </trkpt>
      <trkpt lat="54.293501023203135" lon="-5.76742697507143">
        <ele>34.259999999999998</ele>
        <time>2026-07-08T08:21:45Z</time>
      </trkpt>
      <trkpt lat="54.294048026204109" lon="-5.767966015264392">
        <ele>35.229999999999997</ele>
        <time>2026-07-08T08:21:52Z</time>
      </trkpt>
      <trkpt lat="54.294082978740335" lon="-5.768000967800617">
        <ele>35.229999999999997</ele>
        <time>2026-07-08T08:21:53Z</time>
      </trkpt>
      <trkpt lat="54.294082978740335" lon="-5.768000967800617">
        <ele>35.710000000000001</ele>
        <time>2026-07-08T08:21:54Z</time>
      </trkpt>
      <trkpt lat="54.294082978740335" lon="-5.768000967800617">
        <ele>35.710000000000001</ele>
        <time>2026-07-08T08:22:10Z</time>
      </trkpt>
      <trkpt lat="54.294082978740335" lon="-5.768000967800617">
        <ele>35.710000000000001</ele>
        <time>2026-07-08T08:22:56Z</time>
      </trkpt>
      <trkpt lat="54.294082978740335" lon="-5.768000967800617">
        <ele>36.189999999999998</ele>
        <time>2026-07-08T08:23:46Z</time>
      </trkpt>
      <trkpt lat="54.294370980933309" lon="-5.768285030499101">
        <ele>38.590000000000003</ele>
        <time>2026-07-08T08:23:54Z</time>
      </trkpt>
      <trkpt lat="54.295204980298877" lon="-5.769108971580863">
        <ele>33.780000000000001</ele>
        <time>2026-07-08T08:24:02Z</time>
      </trkpt>
      <trkpt lat="54.296352965757251" lon="-5.77021898701787">
        <ele>32.340000000000003</ele>
        <time>2026-07-08T08:24:12Z</time>
      </trkpt>
      <trkpt lat="54.29765903390944" lon="-5.771173015236855">
        <ele>28.02</ele>
        <time>2026-07-08T08:24:22Z</time>
      </trkpt>
      <trkpt lat="54.29873401299119" lon="-5.772254029288888">
        <ele>28.5</ele>
        <time>2026-07-08T08:24:30Z</time>
      </trkpt>
      <trkpt lat="54.298833003267646" lon="-5.772434994578362">
        <ele>28.98</ele>
        <time>2026-07-08T08:24:31Z</time>
      </trkpt>
      <trkpt lat="54.299845034256577" lon="-5.774502977728844">
        <ele>26.09</ele>
        <time>2026-07-08T08:24:41Z</time>
      </trkpt>
      <trkpt lat="54.300224985927343" lon="-5.775260031223297">
        <ele>27.050000000000001</ele>
        <time>2026-07-08T08:24:45Z</time>
      </trkpt>
      <trkpt lat="54.300330011174083" lon="-5.775432027876377">
        <ele>27.530000000000001</ele>
        <time>2026-07-08T08:24:46Z</time>
      </trkpt>
      <trkpt lat="54.301270041614771" lon="-5.777163980528712">
        <ele>31.859999999999999</ele>
        <time>2026-07-08T08:24:55Z</time>
      </trkpt>
      <trkpt lat="54.301675977185369" lon="-5.777985993772745">
        <ele>33.299999999999997</ele>
        <time>2026-07-08T08:25:00Z</time>
      </trkpt>
      <trkpt lat="54.301730040460825" lon="-5.778079032897949">
        <ele>33.780000000000001</ele>
        <time>2026-07-08T08:25:01Z</time>
      </trkpt>
      <trkpt lat="54.302017958834767" lon="-5.778155978769064">
        <ele>36.189999999999998</ele>
        <time>2026-07-08T08:25:07Z</time>
      </trkpt>
      <trkpt lat="54.302049977704883" lon="-5.778164025396109">
        <ele>37.149999999999999</ele>
        <time>2026-07-08T08:25:16Z</time>
      </trkpt>
      <trkpt lat="54.302109992131591" lon="-5.778617989271879">
        <ele>37.630000000000003</ele>
        <time>2026-07-08T08:25:23Z</time>
      </trkpt>
      <trkpt lat="54.302324987947941" lon="-5.779894972220063">
        <ele>35.710000000000001</ele>
        <time>2026-07-08T08:25:29Z</time>
      </trkpt>
      <trkpt lat="54.302353989332914" lon="-5.780165959149599">
        <ele>35.710000000000001</ele>
        <time>2026-07-08T08:25:30Z</time>
      </trkpt>
      <trkpt lat="54.302360024303198" lon="-5.780463013797998">
        <ele>35.229999999999997</ele>
        <time>2026-07-08T08:25:31Z</time>
      </trkpt>
      <trkpt lat="54.302458008751273" lon="-5.782795026898384">
        <ele>33.780000000000001</ele>
        <time>2026-07-08T08:25:39Z</time>
      </trkpt>
      <trkpt lat="54.302567979320884" lon="-5.783923985436559">
        <ele>30.899999999999999</ele>
        <time>2026-07-08T08:25:44Z</time>
      </trkpt>
      <trkpt lat="54.302532020956278" lon="-5.786244012415409">
        <ele>27.530000000000001</ele>
        <time>2026-07-08T08:25:53Z</time>
      </trkpt>
      <trkpt lat="54.302209988236427" lon="-5.788705023005605">
        <ele>27.530000000000001</ele>
        <time>2026-07-08T08:26:02Z</time>
      </trkpt>
      <trkpt lat="54.301890973001719" lon="-5.790745010599494">
        <ele>29.460000000000001</ele>
        <time>2026-07-08T08:26:08Z</time>
      </trkpt>
      <trkpt lat="54.301538011059165" lon="-5.792878037318587">
        <ele>30.420000000000002</ele>
        <time>2026-07-08T08:26:13Z</time>
      </trkpt>
      <trkpt lat="54.301297031342983" lon="-5.794682996347547">
        <ele>32.82</ele>
        <time>2026-07-08T08:26:19Z</time>
      </trkpt>
      <trkpt lat="54.301212960854173" lon="-5.797292031347752">
        <ele>35.229999999999997</ele>
        <time>2026-07-08T08:26:27Z</time>
      </trkpt>
      <trkpt lat="54.300842983648181" lon="-5.799844991415739">
        <ele>31.379999999999999</ele>
        <time>2026-07-08T08:26:35Z</time>
      </trkpt>
      <trkpt lat="54.300149967893958" lon="-5.801785988733172">
        <ele>22.25</ele>
        <time>2026-07-08T08:26:42Z</time>
      </trkpt>
      <trkpt lat="54.2992930021137" lon="-5.804408015683293">
        <ele>16</ele>
        <time>2026-07-08T08:26:51Z</time>
      </trkpt>
      <trkpt lat="54.298689002171159" lon="-5.807605041190982">
        <ele>15.039999999999999</ele>
        <time>2026-07-08T08:27:01Z</time>
      </trkpt>
      <trkpt lat="54.298097994178534" lon="-5.811864975839853">
        <ele>12.630000000000001</ele>
        <time>2026-07-08T08:27:14Z</time>
      </trkpt>
      <trkpt lat="54.297430962324142" lon="-5.816593039780855">
        <ele>16.960000000000001</ele>
        <time>2026-07-08T08:27:28Z</time>
      </trkpt>
      <trkpt lat="54.296916984021664" lon="-5.820165993645787">
        <ele>27.050000000000001</ele>
        <time>2026-07-08T08:27:39Z</time>
      </trkpt>
      <trkpt lat="54.296352965757251" lon="-5.822988012805581">
        <ele>36.670000000000002</ele>
        <time>2026-07-08T08:27:48Z</time>
      </trkpt>
      <trkpt lat="54.296150039881468" lon="-5.823903987184167">
        <ele>39.07</ele>
        <time>2026-07-08T08:27:51Z</time>
      </trkpt>
      <trkpt lat="54.296063035726547" lon="-5.824204981327057">
        <ele>40.030000000000001</ele>
        <time>2026-07-08T08:27:52Z</time>
      </trkpt>
      <trkpt lat="54.295679982751608" lon="-5.825676005333662">
        <ele>39.07</ele>
        <time>2026-07-08T08:27:57Z</time>
      </trkpt>
      <trkpt lat="54.295632960274816" lon="-5.825986973941326">
        <ele>38.590000000000003</ele>
        <time>2026-07-08T08:27:58Z</time>
      </trkpt>
      <trkpt lat="54.295623991638422" lon="-5.826315963640809">
        <ele>38.590000000000003</ele>
        <time>2026-07-08T08:27:59Z</time>
      </trkpt>
      <trkpt lat="54.295615023002028" lon="-5.826645037159324">
        <ele>38.590000000000003</ele>
        <time>2026-07-08T08:28:00Z</time>
      </trkpt>
      <trkpt lat="54.295605970546603" lon="-5.826973021030426">
        <ele>38.109999999999999</ele>
        <time>2026-07-08T08:28:01Z</time>
      </trkpt>
      <trkpt lat="54.295648969709873" lon="-5.828644959256053">
        <ele>35.710000000000001</ele>
        <time>2026-07-08T08:28:06Z</time>
      </trkpt>
      <trkpt lat="54.295636983588338" lon="-5.828971015289426">
        <ele>35.229999999999997</ele>
        <time>2026-07-08T08:28:07Z</time>
      </trkpt>
      <trkpt lat="54.29557797499001" lon="-5.829268991947174">
        <ele>35.229999999999997</ele>
        <time>2026-07-08T08:28:08Z</time>
      </trkpt>
      <trkpt lat="54.29551100358367" lon="-5.829576021060348">
        <ele>35.229999999999997</ele>
        <time>2026-07-08T08:28:09Z</time>
      </trkpt>
      <trkpt lat="54.295444032177329" lon="-5.829891012981534">
        <ele>35.710000000000001</ele>
        <time>2026-07-08T08:28:10Z</time>
      </trkpt>
      <trkpt lat="54.295374965295196" lon="-5.830210028216243">
        <ele>35.710000000000001</ele>
        <time>2026-07-08T08:28:11Z</time>
      </trkpt>
      <trkpt lat="54.295287961140275" lon="-5.830518985167146">
        <ele>35.710000000000001</ele>
        <time>2026-07-08T08:28:12Z</time>
      </trkpt>
      <trkpt lat="54.295176984742284" lon="-5.830814028158784">
        <ele>36.189999999999998</ele>
        <time>2026-07-08T08:28:13Z</time>
      </trkpt>
      <trkpt lat="54.293777961283922" lon="-5.834555039182305">
        <ele>41.950000000000003</ele>
        <time>2026-07-08T08:28:26Z</time>
      </trkpt>
      <trkpt lat="54.293197011575103" lon="-5.836180038750172">
        <ele>46.280000000000001</ele>
        <time>2026-07-08T08:28:33Z</time>
      </trkpt>
      <trkpt lat="54.293000958859921" lon="-5.836729975417256">
        <ele>49.159999999999997</ele>
        <time>2026-07-08T08:28:39Z</time>
      </trkpt>
      <trkpt lat="54.292967012152076" lon="-5.836851010099053">
        <ele>51.090000000000003</ele>
        <time>2026-07-08T08:28:48Z</time>
      </trkpt>
      <trkpt lat="54.29291202686727" lon="-5.837126020342112">
        <ele>53.009999999999998</ele>
        <time>2026-07-08T08:29:10Z</time>
      </trkpt>
      <trkpt lat="54.292892999947071" lon="-5.83727303892374">
        <ele>52.530000000000001</ele>
        <time>2026-07-08T08:29:12Z</time>
      </trkpt>
      <trkpt lat="54.292883025482297" lon="-5.837350990623236">
        <ele>52.530000000000001</ele>
        <time>2026-07-08T08:29:13Z</time>
      </trkpt>
      <trkpt lat="54.29286802187562" lon="-5.837474036961794">
        <ele>52.530000000000001</ele>
        <time>2026-07-08T08:29:14Z</time>
      </trkpt>
      <trkpt lat="54.292799960821867" lon="-5.837997989729047">
        <ele>50.609999999999999</ele>
        <time>2026-07-08T08:29:20Z</time>
      </trkpt>
      <trkpt lat="54.292776994407177" lon="-5.838144002482295">
        <ele>50.609999999999999</ele>
        <time>2026-07-08T08:29:21Z</time>
      </trkpt>
      <trkpt lat="54.292727960273623" lon="-5.838193036615849">
        <ele>50.609999999999999</ele>
        <time>2026-07-08T08:29:22Z</time>
      </trkpt>
      <trkpt lat="54.29261296056211" lon="-5.838183984160423">
        <ele>50.130000000000003</ele>
        <time>2026-07-08T08:29:23Z</time>
      </trkpt>
      <trkpt lat="54.292531991377473" lon="-5.838142996653915">
        <ele>50.130000000000003</ele>
        <time>2026-07-08T08:29:24Z</time>
      </trkpt>
      <trkpt lat="54.292449010536075" lon="-5.838085999712348">
        <ele>49.649999999999999</ele>
        <time>2026-07-08T08:29:25Z</time>
      </trkpt>
      <trkpt lat="54.292368041351438" lon="-5.838029002770782">
        <ele>49.159999999999997</ele>
        <time>2026-07-08T08:29:26Z</time>
      </trkpt>
      <trkpt lat="54.292285982519388" lon="-5.837971000000835">
        <ele>48.68</ele>
        <time>2026-07-08T08:29:27Z</time>
      </trkpt>
      <trkpt lat="54.291374031454325" lon="-5.837307991459966">
        <ele>48.200000000000003</ele>
        <time>2026-07-08T08:29:38Z</time>
      </trkpt>
      <trkpt lat="54.290680009871721" lon="-5.836812034249306">
        <ele>49.159999999999997</ele>
        <time>2026-07-08T08:29:49Z</time>
      </trkpt>
      <trkpt lat="54.290225962176919" lon="-5.836496958509088">
        <ele>48.200000000000003</ele>
        <time>2026-07-08T08:29:55Z</time>
      </trkpt>
      <trkpt lat="54.290168965235353" lon="-5.83645798265934">
        <ele>48.200000000000003</ele>
        <time>2026-07-08T08:29:56Z</time>
      </trkpt>
      <trkpt lat="54.290120014920831" lon="-5.836424035951495">
        <ele>47.719999999999999</ele>
        <time>2026-07-08T08:29:57Z</time>
      </trkpt>
      <trkpt lat="54.290078021585941" lon="-5.836396040394902">
        <ele>47.719999999999999</ele>
        <time>2026-07-08T08:29:58Z</time>
      </trkpt>
      <trkpt lat="54.290046002715826" lon="-5.836373995989561">
        <ele>47.719999999999999</ele>
        <time>2026-07-08T08:29:59Z</time>
      </trkpt>
      <trkpt lat="54.290023958310485" lon="-5.836358992382884">
        <ele>47.719999999999999</ele>
        <time>2026-07-08T08:30:05Z</time>
      </trkpt>
      <trkpt lat="54.289980959147215" lon="-5.836387993767858">
        <ele>47.240000000000002</ele>
        <time>2026-07-08T08:30:06Z</time>
      </trkpt>
      <trkpt lat="54.289965033531189" lon="-5.83645798265934">
        <ele>47.240000000000002</ele>
        <time>2026-07-08T08:30:07Z</time>
      </trkpt>
      <trkpt lat="54.289941983297467" lon="-5.836562002077699">
        <ele>46.759999999999998</ele>
        <time>2026-07-08T08:30:08Z</time>
      </trkpt>
      <trkpt lat="54.289912981912494" lon="-5.836682030931115">
        <ele>46.759999999999998</ele>
        <time>2026-07-08T08:30:09Z</time>
      </trkpt>
      <trkpt lat="54.28988398052752" lon="-5.836800970137119">
        <ele>46.280000000000001</ele>
        <time>2026-07-08T08:30:10Z</time>
      </trkpt>
      <trkpt lat="54.289534036070108" lon="-5.83824098110199">
        <ele>43.399999999999999</ele>
        <time>2026-07-08T08:30:19Z</time>
      </trkpt>
      <trkpt lat="54.289082000032067" lon="-5.84008801728487">
        <ele>40.030000000000001</ele>
        <time>2026-07-08T08:30:30Z</time>
      </trkpt>
      <trkpt lat="54.288533991202712" lon="-5.842324979603291">
        <ele>38.109999999999999</ele>
        <time>2026-07-08T08:30:42Z</time>
      </trkpt>
      <trkpt lat="54.28803401067853" lon="-5.844436967745423">
        <ele>27.530000000000001</ele>
        <time>2026-07-08T08:30:51Z</time>
      </trkpt>
      <trkpt lat="54.287833012640476" lon="-5.84528898820281">
        <ele>25.609999999999999</ele>
        <time>2026-07-08T08:30:57Z</time>
      </trkpt>
      <trkpt lat="54.287784984335303" lon="-5.845488980412483">
        <ele>26.09</ele>
        <time>2026-07-08T08:31:03Z</time>
      </trkpt>
      <trkpt lat="54.287784984335303" lon="-5.845488980412483">
        <ele>26.09</ele>
        <time>2026-07-08T08:31:23Z</time>
      </trkpt>
      <trkpt lat="54.287780039012432" lon="-5.845511024817824">
        <ele>26.09</ele>
        <time>2026-07-08T08:31:33Z</time>
      </trkpt>
      <trkpt lat="54.287772998213768" lon="-5.845541032031179">
        <ele>26.57</ele>
        <time>2026-07-08T08:31:34Z</time>
      </trkpt>
      <trkpt lat="54.287794958800077" lon="-5.845533991232514">
        <ele>26.57</ele>
        <time>2026-07-08T08:31:37Z</time>
      </trkpt>
      <trkpt lat="54.287794036790729" lon="-5.845451010391116">
        <ele>27.050000000000001</ele>
        <time>2026-07-08T08:31:40Z</time>
      </trkpt>
      <trkpt lat="54.287808034569025" lon="-5.845392001792789">
        <ele>27.530000000000001</ele>
        <time>2026-07-08T08:31:41Z</time>
      </trkpt>
      <trkpt lat="54.287829995155334" lon="-5.845298962667584">
        <ele>28.02</ele>
        <time>2026-07-08T08:31:42Z</time>
      </trkpt>
      <trkpt lat="54.288082038983703" lon="-5.84423303604126">
        <ele>28.5</ele>
        <time>2026-07-08T08:31:48Z</time>
      </trkpt>
      <trkpt lat="54.288649996742606" lon="-5.841837991029024">
        <ele>33.299999999999997</ele>
        <time>2026-07-08T08:31:57Z</time>
      </trkpt>
      <trkpt lat="54.28915299475193" lon="-5.839817030355334">
        <ele>37.630000000000003</ele>
        <time>2026-07-08T08:32:06Z</time>
      </trkpt>
      <trkpt lat="54.289639983326197" lon="-5.837802020832896">
        <ele>41.950000000000003</ele>
        <time>2026-07-08T08:32:17Z</time>
      </trkpt>
      <trkpt lat="54.289760012179613" lon="-5.837311008945108">
        <ele>43.399999999999999</ele>
        <time>2026-07-08T08:32:21Z</time>
      </trkpt>
      <trkpt lat="54.289784990251064" lon="-5.837207995355129">
        <ele>43.880000000000003</ele>
        <time>2026-07-08T08:32:22Z</time>
      </trkpt>
      <trkpt lat="54.289804017171264" lon="-5.837127026170492">
        <ele>44.359999999999999</ele>
        <time>2026-07-08T08:32:23Z</time>
      </trkpt>
      <trkpt lat="54.28981801494956" lon="-5.837071035057306">
        <ele>44.359999999999999</ele>
        <time>2026-07-08T08:32:24Z</time>
      </trkpt>
      <trkpt lat="54.289824971929193" lon="-5.837043961510062">
        <ele>44.359999999999999</ele>
        <time>2026-07-08T08:32:25Z</time>
      </trkpt>
      <trkpt lat="54.289693040773273" lon="-5.836972966790199">
        <ele>44.840000000000003</ele>
        <time>2026-07-08T08:32:28Z</time>
      </trkpt>
      <trkpt lat="54.28979798220098" lon="-5.837156027555466">
        <ele>45.32</ele>
        <time>2026-07-08T08:32:33Z</time>
      </trkpt>
      <trkpt lat="54.289788007736206" lon="-5.837195003405213">
        <ele>45.32</ele>
        <time>2026-07-08T08:32:34Z</time>
      </trkpt>
      <trkpt lat="54.289783984422684" lon="-5.837212018668652">
        <ele>45.32</ele>
        <time>2026-07-08T08:32:35Z</time>
      </trkpt>
      <trkpt lat="54.289737967774272" lon="-5.837150998413563">
        <ele>44.840000000000003</ele>
        <time>2026-07-08T08:32:44Z</time>
      </trkpt>
      <trkpt lat="54.289737967774272" lon="-5.837150998413563">
        <ele>44.840000000000003</ele>
        <time>2026-07-08T08:33:04Z</time>
      </trkpt>
      <trkpt lat="54.289734028279781" lon="-5.83714596927166">
        <ele>45.32</ele>
        <time>2026-07-08T08:33:30Z</time>
      </trkpt>
      <trkpt lat="54.289734028279781" lon="-5.83714596927166">
        <ele>45.32</ele>
        <time>2026-07-08T08:33:36Z</time>
      </trkpt>
      <trkpt lat="54.289783984422684" lon="-5.837039016187191">
        <ele>45.799999999999997</ele>
        <time>2026-07-08T08:33:47Z</time>
      </trkpt>
      <trkpt lat="54.289783984422684" lon="-5.837039016187191">
        <ele>45.799999999999997</ele>
        <time>2026-07-08T08:34:01Z</time>
      </trkpt>
      <trkpt lat="54.289809968322515" lon="-5.837105987593532">
        <ele>45.32</ele>
        <time>2026-07-08T08:34:03Z</time>
      </trkpt>
      <trkpt lat="54.289794964715838" lon="-5.83716600202024">
        <ele>45.32</ele>
        <time>2026-07-08T08:34:04Z</time>
      </trkpt>
      <trkpt lat="54.289773004129529" lon="-5.837256023660302">
        <ele>45.32</ele>
        <time>2026-07-08T08:34:05Z</time>
      </trkpt>
      <trkpt lat="54.289746014401317" lon="-5.837369011715055">
        <ele>45.32</ele>
        <time>2026-07-08T08:34:06Z</time>
      </trkpt>
      <trkpt lat="54.289462035521865" lon="-5.838537029922009">
        <ele>40.990000000000002</ele>
        <time>2026-07-08T08:34:13Z</time>
      </trkpt>
      <trkpt lat="54.288924001157284" lon="-5.840756976976991">
        <ele>35.710000000000001</ele>
        <time>2026-07-08T08:34:24Z</time>
      </trkpt>
      <trkpt lat="54.288282031193376" lon="-5.843385960906744">
        <ele>29.460000000000001</ele>
        <time>2026-07-08T08:34:36Z</time>
      </trkpt>
      <trkpt lat="54.287676019594073" lon="-5.846073031425476">
        <ele>23.690000000000001</ele>
        <time>2026-07-08T08:34:47Z</time>
      </trkpt>
      <trkpt lat="54.287403021007776" lon="-5.848923968151212">
        <ele>17.440000000000001</ele>
        <time>2026-07-08T08:34:58Z</time>
      </trkpt>
      <trkpt lat="54.287352981045842" lon="-5.849444987252355">
        <ele>17.920000000000002</ele>
        <time>2026-07-08T08:35:00Z</time>
      </trkpt>
      <trkpt lat="54.287323979660869" lon="-5.84971496835351">
        <ele>18.399999999999999</ele>
        <time>2026-07-08T08:35:01Z</time>
      </trkpt>
      <trkpt lat="54.286845959722996" lon="-5.852094003930688">
        <ele>25.609999999999999</ele>
        <time>2026-07-08T08:35:10Z</time>
      </trkpt>
      <trkpt lat="54.286110028624535" lon="-5.854542022570968">
        <ele>34.740000000000002</ele>
        <time>2026-07-08T08:35:19Z</time>
      </trkpt>
      <trkpt lat="54.285048041492701" lon="-5.856156963855028">
        <ele>41.469999999999999</ele>
        <time>2026-07-08T08:35:27Z</time>
      </trkpt>
      <trkpt lat="54.28365396335721" lon="-5.858294013887644">
        <ele>50.130000000000003</ele>
        <time>2026-07-08T08:35:38Z</time>
      </trkpt>
      <trkpt lat="54.283294966444373" lon="-5.858915029093623">
        <ele>50.130000000000003</ele>
        <time>2026-07-08T08:35:41Z</time>
      </trkpt>
      <trkpt lat="54.282428026199341" lon="-5.861517023295164">
        <ele>43.399999999999999</ele>
        <time>2026-07-08T08:35:51Z</time>
      </trkpt>
      <trkpt lat="54.281376013532281" lon="-5.864799041301012">
        <ele>47.240000000000002</ele>
        <time>2026-07-08T08:36:03Z</time>
      </trkpt>
      <trkpt lat="54.280089978128672" lon="-5.868829982355237">
        <ele>53.490000000000002</ele>
        <time>2026-07-08T08:36:17Z</time>
      </trkpt>
      <trkpt lat="54.279508022591472" lon="-5.870686993002892">
        <ele>53.490000000000002</ele>
        <time>2026-07-08T08:36:23Z</time>
      </trkpt>
      <trkpt lat="54.279410960152745" lon="-5.870997039601207">
        <ele>53.969999999999999</ele>
        <time>2026-07-08T08:36:24Z</time>
      </trkpt>
      <trkpt lat="54.27772200666368" lon="-5.876409988850355">
        <ele>65.510000000000005</ele>
        <time>2026-07-08T08:36:41Z</time>
      </trkpt>
      <trkpt lat="54.276509983465075" lon="-5.88037203066051">
        <ele>68.870000000000005</ele>
        <time>2026-07-08T08:36:53Z</time>
      </trkpt>
      <trkpt lat="54.275266025215387" lon="-5.884439013898373">
        <ele>72.719999999999999</ele>
        <time>2026-07-08T08:37:06Z</time>
      </trkpt>
      <trkpt lat="54.27400597371161" lon="-5.888561988249421">
        <ele>80.890000000000001</ele>
        <time>2026-07-08T08:37:20Z</time>
      </trkpt>
      <trkpt lat="54.273054962977767" lon="-5.891687013208866">
        <ele>84.25</ele>
        <time>2026-07-08T08:37:30Z</time>
      </trkpt>
      <trkpt lat="54.272577026858926" lon="-5.893270019441843">
        <ele>87.140000000000001</ele>
        <time>2026-07-08T08:37:37Z</time>
      </trkpt>
      <trkpt lat="54.271965986117721" lon="-5.895320987328887">
        <ele>92.420000000000002</ele>
        <time>2026-07-08T08:37:46Z</time>
      </trkpt>
      <trkpt lat="54.270906010642648" lon="-5.89891598559916">
        <ele>98.189999999999998</ele>
        <time>2026-07-08T08:37:59Z</time>
      </trkpt>
      <trkpt lat="54.269512016326189" lon="-5.903519997373223">
        <ele>90.980000000000004</ele>
        <time>2026-07-08T08:38:16Z</time>
      </trkpt>
      <trkpt lat="54.26869603805244" lon="-5.906208995729685">
        <ele>83.290000000000006</ele>
        <time>2026-07-08T08:38:26Z</time>
      </trkpt>
      <trkpt lat="54.267880981788039" lon="-5.908893970772624">
        <ele>80.890000000000001</ele>
        <time>2026-07-08T08:38:36Z</time>
      </trkpt>
      <trkpt lat="54.267007000744343" lon="-5.911777010187507">
        <ele>84.25</ele>
        <time>2026-07-08T08:38:48Z</time>
      </trkpt>
      <trkpt lat="54.266804996877909" lon="-5.912448987364769">
        <ele>83.290000000000006</ele>
        <time>2026-07-08T08:38:51Z</time>
      </trkpt>
      <trkpt lat="54.266737019643188" lon="-5.912674041464925">
        <ele>82.810000000000002</ele>
        <time>2026-07-08T08:38:52Z</time>
      </trkpt>
      <trkpt lat="54.266145005822182" lon="-5.914634987711906">
        <ele>74.640000000000001</ele>
        <time>2026-07-08T08:39:00Z</time>
      </trkpt>
      <trkpt lat="54.265590962022543" lon="-5.916440030559897">
        <ele>60.219999999999999</ele>
        <time>2026-07-08T08:39:08Z</time>
      </trkpt>
      <trkpt lat="54.264893000945449" lon="-5.918792998418212">
        <ele>42.920000000000002</ele>
        <time>2026-07-08T08:39:18Z</time>
      </trkpt>
      <trkpt lat="54.263899996876717" lon="-5.922008967027068">
        <ele>35.229999999999997</ele>
        <time>2026-07-08T08:39:32Z</time>
      </trkpt>
      <trkpt lat="54.263203041628003" lon="-5.924239978194237">
        <ele>40.990000000000002</ele>
        <time>2026-07-08T08:39:42Z</time>
      </trkpt>
      <trkpt lat="54.262904981151223" lon="-5.925200041383505">
        <ele>47.719999999999999</ele>
        <time>2026-07-08T08:39:48Z</time>
      </trkpt>
      <trkpt lat="54.262705994769931" lon="-5.925881993025541">
        <ele>54.93</ele>
        <time>2026-07-08T08:39:57Z</time>
      </trkpt>
      <trkpt lat="54.262562999501824" lon="-5.926366969943047">
        <ele>55.890000000000001</ele>
        <time>2026-07-08T08:40:02Z</time>
      </trkpt>
      <trkpt lat="54.262368958443403" lon="-5.927068032324314">
        <ele>58.780000000000001</ele>
        <time>2026-07-08T08:40:10Z</time>
      </trkpt>
      <trkpt lat="54.262346997857094" lon="-5.927145984023809">
        <ele>58.780000000000001</ele>
        <time>2026-07-08T08:40:11Z</time>
      </trkpt>
      <trkpt lat="54.262315984815359" lon="-5.927259977906942">
        <ele>59.259999999999998</ele>
        <time>2026-07-08T08:40:12Z</time>
      </trkpt>
      <trkpt lat="54.26227499730885" lon="-5.927406996488571">
        <ele>59.259999999999998</ele>
        <time>2026-07-08T08:40:13Z</time>
      </trkpt>
      <trkpt lat="54.262226969003677" lon="-5.927579998970032">
        <ele>59.740000000000002</ele>
        <time>2026-07-08T08:40:14Z</time>
      </trkpt>
      <trkpt lat="54.262181958183646" lon="-5.927774962037802">
        <ele>59.740000000000002</ele>
        <time>2026-07-08T08:40:15Z</time>
      </trkpt>
      <trkpt lat="54.261862020939589" lon="-5.928924037143588">
        <ele>61.659999999999997</ele>
        <time>2026-07-08T08:40:22Z</time>
      </trkpt>
      <trkpt lat="54.261830002069473" lon="-5.929029984399676">
        <ele>62.140000000000001</ele>
        <time>2026-07-08T08:40:23Z</time>
      </trkpt>
      <trkpt lat="54.2618010006845" lon="-5.929129980504513">
        <ele>62.140000000000001</ele>
        <time>2026-07-08T08:40:24Z</time>
      </trkpt>
      <trkpt lat="54.261754984036088" lon="-5.929282028228045">
        <ele>61.659999999999997</ele>
        <time>2026-07-08T08:40:26Z</time>
      </trkpt>
      <trkpt lat="54.261736962944269" lon="-5.929341036826372">
        <ele>61.659999999999997</ele>
        <time>2026-07-08T08:40:27Z</time>
      </trkpt>
      <trkpt lat="54.261719025671482" lon="-5.929407002404332">
        <ele>61.659999999999997</ele>
        <time>2026-07-08T08:40:28Z</time>
      </trkpt>
      <trkpt lat="54.261669991537929" lon="-5.929589979350567">
        <ele>62.140000000000001</ele>
        <time>2026-07-08T08:40:30Z</time>
      </trkpt>
      <trkpt lat="54.261473016813397" lon="-5.930320965126157">
        <ele>67.430000000000007</ele>
        <time>2026-07-08T08:40:38Z</time>
      </trkpt>
      <trkpt lat="54.261339996010065" lon="-5.930814994499087">
        <ele>73.680000000000007</ele>
        <time>2026-07-08T08:40:46Z</time>
      </trkpt>
      <trkpt lat="54.261322980746627" lon="-5.930878026410937">
        <ele>74.159999999999997</ele>
        <time>2026-07-08T08:40:47Z</time>
      </trkpt>
      <trkpt lat="54.261203035712242" lon="-5.931302988901734">
        <ele>76.560000000000002</ele>
        <time>2026-07-08T08:40:52Z</time>
      </trkpt>
      <trkpt lat="54.261177973821759" lon="-5.931386975571513">
        <ele>77.519999999999996</ele>
        <time>2026-07-08T08:40:53Z</time>
      </trkpt>
      <trkpt lat="54.261155007407069" lon="-5.931466016918421">
        <ele>78</ele>
        <time>2026-07-08T08:40:54Z</time>
      </trkpt>
      <trkpt lat="54.261108990758657" lon="-5.931626027449966">
        <ele>78.969999999999999</ele>
        <time>2026-07-08T08:40:56Z</time>
      </trkpt>
      <trkpt lat="54.261087030172348" lon="-5.9317019674927">
        <ele>79.450000000000003</ele>
        <time>2026-07-08T08:40:57Z</time>
      </trkpt>
      <trkpt lat="54.261068003252149" lon="-5.93176600523293">
        <ele>79.930000000000007</ele>
        <time>2026-07-08T08:40:58Z</time>
      </trkpt>
      <trkpt lat="54.261052999645472" lon="-5.931817973032594">
        <ele>80.409999999999997</ele>
        <time>2026-07-08T08:40:59Z</time>
      </trkpt>
      <trkpt lat="54.261039001867175" lon="-5.931867007166147">
        <ele>80.890000000000001</ele>
        <time>2026-07-08T08:41:00Z</time>
      </trkpt>
      <trkpt lat="54.261021986603737" lon="-5.931924004107714">
        <ele>81.370000000000005</ele>
        <time>2026-07-08T08:41:01Z</time>
      </trkpt>
      <trkpt lat="54.261005977168679" lon="-5.9319799952209">
        <ele>81.849999999999994</ele>
        <time>2026-07-08T08:41:02Z</time>
      </trkpt>
      <trkpt lat="54.260990973562002" lon="-5.932031041011214">
        <ele>82.329999999999998</ele>
        <time>2026-07-08T08:41:03Z</time>
      </trkpt>
      <trkpt lat="54.260974964126945" lon="-5.932088037952781">
        <ele>82.810000000000002</ele>
        <time>2026-07-08T08:41:04Z</time>
      </trkpt>
      <trkpt lat="54.260958032682538" lon="-5.932146962732077">
        <ele>83.290000000000006</ele>
        <time>2026-07-08T08:41:05Z</time>
      </trkpt>
      <trkpt lat="54.26094202324748" lon="-5.932200020179153">
        <ele>83.290000000000006</ele>
        <time>2026-07-08T08:41:06Z</time>
      </trkpt>
      <trkpt lat="54.260927019640803" lon="-5.932253999635577">
        <ele>83.769999999999996</ele>
        <time>2026-07-08T08:41:07Z</time>
      </trkpt>
      <trkpt lat="54.260911010205746" lon="-5.932307979092002">
        <ele>84.25</ele>
        <time>2026-07-08T08:41:08Z</time>
      </trkpt>
      <trkpt lat="54.260896006599069" lon="-5.932360030710697">
        <ele>84.730000000000004</ele>
        <time>2026-07-08T08:41:09Z</time>
      </trkpt>
      <trkpt lat="54.260876979678869" lon="-5.932418033480644">
        <ele>85.209999999999994</ele>
        <time>2026-07-08T08:41:10Z</time>
      </trkpt>
      <trkpt lat="54.260859964415431" lon="-5.932493973523378">
        <ele>85.689999999999998</ele>
        <time>2026-07-08T08:41:11Z</time>
      </trkpt>
      <trkpt lat="54.260844038799405" lon="-5.932563962414861">
        <ele>86.659999999999997</ele>
        <time>2026-07-08T08:41:12Z</time>
      </trkpt>
      <trkpt lat="54.260827023535967" lon="-5.932622971013188">
        <ele>86.659999999999997</ele>
        <time>2026-07-08T08:41:13Z</time>
      </trkpt>
      <trkpt lat="54.26081201992929" lon="-5.932676028460264">
        <ele>87.140000000000001</ele>
        <time>2026-07-08T08:41:14Z</time>
      </trkpt>
      <trkpt lat="54.260796010494232" lon="-5.932730007916689">
        <ele>87.620000000000005</ele>
        <time>2026-07-08T08:41:15Z</time>
      </trkpt>
      <trkpt lat="54.260781006887555" lon="-5.932781975716353">
        <ele>88.099999999999994</ele>
        <time>2026-07-08T08:41:16Z</time>
      </trkpt>
      <trkpt lat="54.260694002732635" lon="-5.933089004829526">
        <ele>90.019999999999996</ele>
        <time>2026-07-08T08:41:22Z</time>
      </trkpt>
      <trkpt lat="54.260681010782719" lon="-5.933135021477938">
        <ele>90.980000000000004</ele>
        <time>2026-07-08T08:41:23Z</time>
      </trkpt>
      <trkpt lat="54.260666007176042" lon="-5.933186989277601">
        <ele>91.459999999999994</ele>
        <time>2026-07-08T08:41:24Z</time>
      </trkpt>
      <trkpt lat="54.260628037154675" lon="-5.933319004252553">
        <ele>92.900000000000006</ele>
        <time>2026-07-08T08:41:26Z</time>
      </trkpt>
      <trkpt lat="54.260595012456179" lon="-5.933436015620828">
        <ele>93.870000000000005</ele>
        <time>2026-07-08T08:41:27Z</time>
      </trkpt>
      <trkpt lat="54.260548995807767" lon="-5.933595020323992">
        <ele>94.829999999999998</ele>
        <time>2026-07-08T08:41:28Z</time>
      </trkpt>
      <trkpt lat="54.259993024170399" lon="-5.935457982122898">
        <ele>107.81</ele>
        <time>2026-07-08T08:41:38Z</time>
      </trkpt>
      <trkpt lat="54.259516010060906" lon="-5.93700997531414">
        <ele>113.09</ele>
        <time>2026-07-08T08:41:47Z</time>
      </trkpt>
      <trkpt lat="54.259011000394821" lon="-5.938492985442281">
        <ele>116.45999999999999</ele>
        <time>2026-07-08T08:41:56Z</time>
      </trkpt>
      <trkpt lat="54.258495010435581" lon="-5.940228039398789">
        <ele>120.78</ele>
        <time>2026-07-08T08:42:07Z</time>
      </trkpt>
      <trkpt lat="54.257857985794544" lon="-5.942203989252448">
        <ele>129.91999999999999</ele>
        <time>2026-07-08T08:42:20Z</time>
      </trkpt>
      <trkpt lat="54.257459007203579" lon="-5.943393968045712">
        <ele>126.55</ele>
        <time>2026-07-08T08:42:30Z</time>
      </trkpt>
      <trkpt lat="54.257114008069038" lon="-5.944428965449333">
        <ele>123.19</ele>
        <time>2026-07-08T08:42:39Z</time>
      </trkpt>
      <trkpt lat="54.25703396089375" lon="-5.944637004286051">
        <ele>121.73999999999999</ele>
        <time>2026-07-08T08:42:43Z</time>
      </trkpt>
      <trkpt lat="54.257019963115454" lon="-5.944672962650657">
        <ele>120.78</ele>
        <time>2026-07-08T08:42:44Z</time>
      </trkpt>
      <trkpt lat="54.257006971165538" lon="-5.944707999005914">
        <ele>120.3</ele>
        <time>2026-07-08T08:42:45Z</time>
      </trkpt>
      <trkpt lat="54.256995990872383" lon="-5.944733982905746">
        <ele>119.81999999999999</ele>
        <time>2026-07-08T08:42:46Z</time>
      </trkpt>
      <trkpt lat="54.256969001144171" lon="-5.944804977625608">
        <ele>117.90000000000001</ele>
        <time>2026-07-08T08:42:55Z</time>
      </trkpt>
      <trkpt lat="54.25690496340394" lon="-5.944998012855649">
        <ele>117.42</ele>
        <time>2026-07-08T08:42:56Z</time>
      </trkpt>
      <trkpt lat="54.256898006424308" lon="-5.945028020069003">
        <ele>116.94</ele>
        <time>2026-07-08T08:42:57Z</time>
      </trkpt>
      <trkpt lat="54.256827011704445" lon="-5.945331025868654">
        <ele>115.98</ele>
        <time>2026-07-08T08:43:00Z</time>
      </trkpt>
      <trkpt lat="54.25673296675086" lon="-5.94564400613308">
        <ele>115.5</ele>
        <time>2026-07-08T08:43:03Z</time>
      </trkpt>
      <trkpt lat="54.256700025871396" lon="-5.945759005844593">
        <ele>115.01000000000001</ele>
        <time>2026-07-08T08:43:04Z</time>
      </trkpt>
      <trkpt lat="54.256500033661723" lon="-5.946372980251908">
        <ele>114.05</ele>
        <time>2026-07-08T08:43:09Z</time>
      </trkpt>
      <trkpt lat="54.256458040326834" lon="-5.94650398939848">
        <ele>114.05</ele>
        <time>2026-07-08T08:43:10Z</time>
      </trkpt>
      <trkpt lat="54.256411017850041" lon="-5.946628963574767">
        <ele>113.56999999999999</ele>
        <time>2026-07-08T08:43:11Z</time>
      </trkpt>
      <trkpt lat="54.256370030343533" lon="-5.946765001863241">
        <ele>113.09</ele>
        <time>2026-07-08T08:43:12Z</time>
      </trkpt>
      <trkpt lat="54.256328959017992" lon="-5.946901040151715">
        <ele>112.61</ele>
        <time>2026-07-08T08:43:13Z</time>
      </trkpt>
      <trkpt lat="54.255975997075438" lon="-5.947935031726956">
        <ele>110.20999999999999</ele>
        <time>2026-07-08T08:43:21Z</time>
      </trkpt>
      <trkpt lat="54.255940038710833" lon="-5.948042990639806">
        <ele>110.20999999999999</ele>
        <time>2026-07-08T08:43:22Z</time>
      </trkpt>
      <trkpt lat="54.255910031497478" lon="-5.948133012279868">
        <ele>109.25</ele>
        <time>2026-07-08T08:43:23Z</time>
      </trkpt>
      <trkpt lat="54.255853034555912" lon="-5.948302997276187">
        <ele>107.81</ele>
        <time>2026-07-08T08:43:26Z</time>
      </trkpt>
      <trkpt lat="54.255767958238721" lon="-5.948539031669498">
        <ele>107.31999999999999</ele>
        <time>2026-07-08T08:43:27Z</time>
      </trkpt>
      <trkpt lat="54.255756977945566" lon="-5.948570966720581">
        <ele>107.31999999999999</ele>
        <time>2026-07-08T08:43:28Z</time>
      </trkpt>
      <trkpt lat="54.255683971568942" lon="-5.948797026649118">
        <ele>106.36</ele>
        <time>2026-07-08T08:43:30Z</time>
      </trkpt>
      <trkpt lat="54.255232019349933" lon="-5.950170988216996">
        <ele>104.92</ele>
        <time>2026-07-08T08:43:41Z</time>
      </trkpt>
      <trkpt lat="54.254693984985352" lon="-5.951799005270004">
        <ele>107.81</ele>
        <time>2026-07-08T08:43:49Z</time>
      </trkpt>
      <trkpt lat="54.253956964239478" lon="-5.954025993123651">
        <ele>106.84</ele>
        <time>2026-07-08T08:43:59Z</time>
      </trkpt>
      <trkpt lat="54.253218015655875" lon="-5.956265972927213">
        <ele>103</ele>
        <time>2026-07-08T08:44:08Z</time>
      </trkpt>
      <trkpt lat="54.252666989341378" lon="-5.957936989143491">
        <ele>99.150000000000006</ele>
        <time>2026-07-08T08:44:16Z</time>
      </trkpt>
      <trkpt lat="54.251905996352434" lon="-5.960245030000806">
        <ele>94.829999999999998</ele>
        <time>2026-07-08T08:44:27Z</time>
      </trkpt>
      <trkpt lat="54.251233013346791" lon="-5.962278982624412">
        <ele>95.790000000000006</ele>
        <time>2026-07-08T08:44:36Z</time>
      </trkpt>
      <trkpt lat="54.250470008701086" lon="-5.964598003774881">
        <ele>98.189999999999998</ele>
        <time>2026-07-08T08:44:46Z</time>
      </trkpt>
      <trkpt lat="54.249737011268735" lon="-5.966820968315005">
        <ele>100.11</ele>
        <time>2026-07-08T08:44:55Z</time>
      </trkpt>
      <trkpt lat="54.249014994129539" lon="-5.968967992812395">
        <ele>101.56</ele>
        <time>2026-07-08T08:45:03Z</time>
      </trkpt>
      <trkpt lat="54.24817998893559" lon="-5.971473008394241">
        <ele>103.48</ele>
        <time>2026-07-08T08:45:11Z</time>
      </trkpt>
      <trkpt lat="54.247178016230464" lon="-5.974489990621805">
        <ele>105.88</ele>
        <time>2026-07-08T08:45:19Z</time>
      </trkpt>
      <trkpt lat="54.245985019952059" lon="-5.978080965578556">
        <ele>104.92</ele>
        <time>2026-07-08T08:45:30Z</time>
      </trkpt>
      <trkpt lat="54.244695967063308" lon="-5.98195499740541">
        <ele>102.52</ele>
        <time>2026-07-08T08:45:42Z</time>
      </trkpt>
      <trkpt lat="54.243202982470393" lon="-5.986438980326057">
        <ele>106.36</ele>
        <time>2026-07-08T08:45:56Z</time>
      </trkpt>
      <trkpt lat="54.241515034809709" lon="-5.991511037573218">
        <ele>120.78</ele>
        <time>2026-07-08T08:46:12Z</time>
      </trkpt>
      <trkpt lat="54.240225981920958" lon="-5.994893973693252">
        <ele>127.98999999999999</ele>
        <time>2026-07-08T08:46:23Z</time>
      </trkpt>
      <trkpt lat="54.239962035790086" lon="-5.995282977819443">
        <ele>127.98999999999999</ele>
        <time>2026-07-08T08:46:25Z</time>
      </trkpt>
      <trkpt lat="54.239827003329992" lon="-5.99544801749289">
        <ele>128.94999999999999</ele>
        <time>2026-07-08T08:46:26Z</time>
      </trkpt>
      <trkpt lat="54.239393994212151" lon="-5.995973981916904">
        <ele>129.91999999999999</ele>
        <time>2026-07-08T08:46:29Z</time>
      </trkpt>
      <trkpt lat="54.239258039742708" lon="-5.996191995218396">
        <ele>130.40000000000001</ele>
        <time>2026-07-08T08:46:30Z</time>
      </trkpt>
      <trkpt lat="54.23790997825563" lon="-5.998748978599906">
        <ele>134.24000000000001</ele>
        <time>2026-07-08T08:46:40Z</time>
      </trkpt>
      <trkpt lat="54.236785965040326" lon="-6.001239996403456">
        <ele>134.72</ele>
        <time>2026-07-08T08:46:49Z</time>
      </trkpt>
      <trkpt lat="54.236571975052357" lon="-6.001768978312612">
        <ele>134.24000000000001</ele>
        <time>2026-07-08T08:46:51Z</time>
      </trkpt>
      <trkpt lat="54.236482959240675" lon="-6.002056980505586">
        <ele>134.24000000000001</ele>
        <time>2026-07-08T08:46:52Z</time>
      </trkpt>
      <trkpt lat="54.235810982063413" lon="-6.005038004368544">
        <ele>132.80000000000001</ele>
        <time>2026-07-08T08:47:01Z</time>
      </trkpt>
      <trkpt lat="54.235493978485465" lon="-6.006782026961446">
        <ele>132.80000000000001</ele>
        <time>2026-07-08T08:47:07Z</time>
      </trkpt>
      <trkpt lat="54.235100029036403" lon="-6.009475970640779">
        <ele>133.28</ele>
        <time>2026-07-08T08:47:15Z</time>
      </trkpt>
      <trkpt lat="54.234292013570666" lon="-6.013303985819221">
        <ele>137.61000000000001</ele>
        <time>2026-07-08T08:47:26Z</time>
      </trkpt>
      <trkpt lat="54.233611989766359" lon="-6.01688900962472">
        <ele>132.80000000000001</ele>
        <time>2026-07-08T08:47:37Z</time>
      </trkpt>
      <trkpt lat="54.232877986505628" lon="-6.020798999816179">
        <ele>131.36000000000001</ele>
        <time>2026-07-08T08:47:49Z</time>
      </trkpt>
      <trkpt lat="54.232417987659574" lon="-6.023231009021401">
        <ele>135.68000000000001</ele>
        <time>2026-07-08T08:47:59Z</time>
      </trkpt>
      <trkpt lat="54.231952959671617" lon="-6.025680033490062">
        <ele>132.80000000000001</ele>
        <time>2026-07-08T08:48:09Z</time>
      </trkpt>
      <trkpt lat="54.23155096359551" lon="-6.028260989114642">
        <ele>127.51000000000001</ele>
        <time>2026-07-08T08:48:22Z</time>
      </trkpt>
      <trkpt lat="54.23135700635612" lon="-6.029872996732593">
        <ele>125.11</ele>
        <time>2026-07-08T08:48:31Z</time>
      </trkpt>
      <trkpt lat="54.231363041326404" lon="-6.03004097007215">
        <ele>124.63</ele>
        <time>2026-07-08T08:48:32Z</time>
      </trkpt>
      <trkpt lat="54.231367986649275" lon="-6.03020902723074">
        <ele>124.15000000000001</ele>
        <time>2026-07-08T08:48:33Z</time>
      </trkpt>
      <trkpt lat="54.23148499801755" lon="-6.032261000946164">
        <ele>120.3</ele>
        <time>2026-07-08T08:48:44Z</time>
      </trkpt>
      <trkpt lat="54.231820022687316" lon="-6.034772973507643">
        <ele>118.38</ele>
        <time>2026-07-08T08:48:55Z</time>
      </trkpt>
      <trkpt lat="54.232374988496304" lon="-6.038800980895758">
        <ele>123.19</ele>
        <time>2026-07-08T08:49:10Z</time>
      </trkpt>
      <trkpt lat="54.232787964865565" lon="-6.041740011423826">
        <ele>132.31999999999999</ele>
        <time>2026-07-08T08:49:21Z</time>
      </trkpt>
      <trkpt lat="54.233144028112292" lon="-6.044274028390646">
        <ele>133.75999999999999</ele>
        <time>2026-07-08T08:49:31Z</time>
      </trkpt>
      <trkpt lat="54.233444016426802" lon="-6.046407977119088">
        <ele>134.24000000000001</ele>
        <time>2026-07-08T08:49:41Z</time>
      </trkpt>
      <trkpt lat="54.233517022803426" lon="-6.04692698456347">
        <ele>133.75999999999999</ele>
        <time>2026-07-08T08:49:44Z</time>
      </trkpt>
      <trkpt lat="54.23350403085351" lon="-6.047091018408537">
        <ele>133.28</ele>
        <time>2026-07-08T08:49:45Z</time>
      </trkpt>
      <trkpt lat="54.233453990891576" lon="-6.04711901396513">
        <ele>133.28</ele>
        <time>2026-07-08T08:49:46Z</time>
      </trkpt>
      <trkpt lat="54.233391964808106" lon="-6.047153966501355">
        <ele>133.28</ele>
        <time>2026-07-08T08:49:47Z</time>
      </trkpt>
      <trkpt lat="54.233321975916624" lon="-6.047193026170135">
        <ele>133.28</ele>
        <time>2026-07-08T08:49:48Z</time>
      </trkpt>
      <trkpt lat="54.233252992853522" lon="-6.047232002019882">
        <ele>132.80000000000001</ele>
        <time>2026-07-08T08:49:49Z</time>
      </trkpt>
      <trkpt lat="54.232617979869246" lon="-6.047766013070941">
        <ele>130.40000000000001</ele>
        <time>2026-07-08T08:49:57Z</time>
      </trkpt>
      <trkpt lat="54.232400972396135" lon="-6.048116041347385">
        <ele>128.94999999999999</ele>
        <time>2026-07-08T08:49:59Z</time>
      </trkpt>
      <trkpt lat="54.232291001826525" lon="-6.048327013850212">
        <ele>127.98999999999999</ele>
        <time>2026-07-08T08:50:00Z</time>
      </trkpt>
      <trkpt lat="54.231373015791178" lon="-6.050483006983995">
        <ele>123.19</ele>
        <time>2026-07-08T08:50:08Z</time>
      </trkpt>
      <trkpt lat="54.230251014232635" lon="-6.053322041407228">
        <ele>119.34</ele>
        <time>2026-07-08T08:50:18Z</time>
      </trkpt>
      <trkpt lat="54.230073988437653" lon="-6.053837025538087">
        <ele>119.81999999999999</ele>
        <time>2026-07-08T08:50:20Z</time>
      </trkpt>
      <trkpt lat="54.229967035353184" lon="-6.054068030789495">
        <ele>119.81999999999999</ele>
        <time>2026-07-08T08:50:21Z</time>
      </trkpt>
      <trkpt lat="54.228804968297482" lon="-6.056692991405726">
        <ele>119.34</ele>
        <time>2026-07-08T08:50:31Z</time>
      </trkpt>
      <trkpt lat="54.227811964228749" lon="-6.059203036129475">
        <ele>116.45999999999999</ele>
        <time>2026-07-08T08:50:40Z</time>
      </trkpt>
      <trkpt lat="54.227765025570989" lon="-6.059515010565519">
        <ele>115.5</ele>
        <time>2026-07-08T08:50:41Z</time>
      </trkpt>
      <trkpt lat="54.227716997265816" lon="-6.059836037456989">
        <ele>115.5</ele>
        <time>2026-07-08T08:50:42Z</time>
      </trkpt>
      <trkpt lat="54.227336039766669" lon="-6.062958966940641">
        <ele>110.69</ele>
        <time>2026-07-08T08:50:51Z</time>
      </trkpt>
      <trkpt lat="54.226934965699911" lon="-6.066938024014235">
        <ele>107.31999999999999</ele>
        <time>2026-07-08T08:51:04Z</time>
      </trkpt>
      <trkpt lat="54.226526012644172" lon="-6.069460976868868">
        <ele>103.95999999999999</ele>
        <time>2026-07-08T08:51:12Z</time>
      </trkpt>
      <trkpt lat="54.22633096575737" lon="-6.07002298347652">
        <ele>103.48</ele>
        <time>2026-07-08T08:51:14Z</time>
      </trkpt>
      <trkpt lat="54.225924024358392" lon="-6.071140039712191">
        <ele>103</ele>
        <time>2026-07-08T08:51:18Z</time>
      </trkpt>
      <trkpt lat="54.225839031860232" lon="-6.071431981399655">
        <ele>103</ele>
        <time>2026-07-08T08:51:19Z</time>
      </trkpt>
      <trkpt lat="54.225795026868582" lon="-6.071749990805984">
        <ele>102.52</ele>
        <time>2026-07-08T08:51:20Z</time>
      </trkpt>
      <trkpt lat="54.225752027705312" lon="-6.072074035182595">
        <ele>102.52</ele>
        <time>2026-07-08T08:51:21Z</time>
      </trkpt>
      <trkpt lat="54.225710034370422" lon="-6.072403024882078">
        <ele>102.04000000000001</ele>
        <time>2026-07-08T08:51:22Z</time>
      </trkpt>
      <trkpt lat="54.225535020232201" lon="-6.07363298535347">
        <ele>102.04000000000001</ele>
        <time>2026-07-08T08:51:26Z</time>
      </trkpt>
      <trkpt lat="54.22547098249197" lon="-6.07391101308167">
        <ele>101.56</ele>
        <time>2026-07-08T08:51:27Z</time>
      </trkpt>
      <trkpt lat="54.225380038842559" lon="-6.074175965040922">
        <ele>101.08</ele>
        <time>2026-07-08T08:51:28Z</time>
      </trkpt>
      <trkpt lat="54.224575962871313" lon="-6.076513007283211">
        <ele>98.189999999999998</ele>
        <time>2026-07-08T08:51:36Z</time>
      </trkpt>
      <trkpt lat="54.223311971873045" lon="-6.079577011987567">
        <ele>98.189999999999998</ele>
        <time>2026-07-08T08:51:46Z</time>
      </trkpt>
      <trkpt lat="54.222107995301485" lon="-6.082337005063891">
        <ele>104.92</ele>
        <time>2026-07-08T08:51:56Z</time>
      </trkpt>
      <trkpt lat="54.220391968265176" lon="-6.085992017760873">
        <ele>102.04000000000001</ele>
        <time>2026-07-08T08:52:09Z</time>
      </trkpt>
      <trkpt lat="54.219134012237191" lon="-6.088749999180436">
        <ele>104.44</ele>
        <time>2026-07-08T08:52:19Z</time>
      </trkpt>
      <trkpt lat="54.218333037570119" lon="-6.091476967558265">
        <ele>108.77</ele>
        <time>2026-07-08T08:52:28Z</time>
      </trkpt>
      <trkpt lat="54.217651002109051" lon="-6.093760030344129">
        <ele>109.25</ele>
        <time>2026-07-08T08:52:37Z</time>
      </trkpt>
      <trkpt lat="54.216763023287058" lon="-6.096636028960347">
        <ele>105.40000000000001</ele>
        <time>2026-07-08T08:52:47Z</time>
      </trkpt>
      <trkpt lat="54.21582399867475" lon="-6.09967396594584">
        <ele>107.31999999999999</ele>
        <time>2026-07-08T08:52:58Z</time>
      </trkpt>
      <trkpt lat="54.215063005685806" lon="-6.101377001032233">
        <ele>107.31999999999999</ele>
        <time>2026-07-08T08:53:05Z</time>
      </trkpt>
      <trkpt lat="54.214292960241437" lon="-6.102889012545347">
        <ele>105.40000000000001</ele>
        <time>2026-07-08T08:53:10Z</time>
      </trkpt>
      <trkpt lat="54.213594999164343" lon="-6.104259034618735">
        <ele>107.31999999999999</ele>
        <time>2026-07-08T08:53:16Z</time>
      </trkpt>
      <trkpt lat="54.212955040857196" lon="-6.105570970103145">
        <ele>112.13</ele>
        <time>2026-07-08T08:53:23Z</time>
      </trkpt>
      <trkpt lat="54.212106037884951" lon="-6.107349023222923">
        <ele>110.20999999999999</ele>
        <time>2026-07-08T08:53:29Z</time>
      </trkpt>
      <trkpt lat="54.210975989699364" lon="-6.109723029658198">
        <ele>111.65000000000001</ele>
        <time>2026-07-08T08:53:37Z</time>
      </trkpt>
      <trkpt lat="54.20997703447938" lon="-6.111823031678796">
        <ele>115.5</ele>
        <time>2026-07-08T08:53:46Z</time>
      </trkpt>
      <trkpt lat="54.208871964365244" lon="-6.114246994256973">
        <ele>119.34</ele>
        <time>2026-07-08T08:53:57Z</time>
      </trkpt>
      <trkpt lat="54.208798035979271" lon="-6.114500965923071">
        <ele>119.34</ele>
        <time>2026-07-08T08:53:58Z</time>
      </trkpt>
      <trkpt lat="54.20804601162672" lon="-6.117143025621772">
        <ele>120.78</ele>
        <time>2026-07-08T08:54:08Z</time>
      </trkpt>
      <trkpt lat="54.207696989178658" lon="-6.118370974436402">
        <ele>121.73999999999999</ele>
        <time>2026-07-08T08:54:13Z</time>
      </trkpt>
      <trkpt lat="54.207306979224086" lon="-6.120652025565505">
        <ele>120.78</ele>
        <time>2026-07-08T08:54:21Z</time>
      </trkpt>
      <trkpt lat="54.206860978156328" lon="-6.123081017285585">
        <ele>125.11</ele>
        <time>2026-07-08T08:54:30Z</time>
      </trkpt>
      <trkpt lat="54.20669199898839" lon="-6.123770009726286">
        <ele>127.03</ele>
        <time>2026-07-08T08:54:33Z</time>
      </trkpt>
      <trkpt lat="54.206624021753669" lon="-6.123988023027778">
        <ele>127.51000000000001</ele>
        <time>2026-07-08T08:54:34Z</time>
      </trkpt>
      <trkpt lat="54.206537017598748" lon="-6.124178040772677">
        <ele>127.98999999999999</ele>
        <time>2026-07-08T08:54:35Z</time>
      </trkpt>
      <trkpt lat="54.205494979396462" lon="-6.12635800614953">
        <ele>125.11</ele>
        <time>2026-07-08T08:54:45Z</time>
      </trkpt>
      <trkpt lat="54.204576993361115" lon="-6.128150979056954">
        <ele>117.90000000000001</ele>
        <time>2026-07-08T08:54:50Z</time>
      </trkpt>
      <trkpt lat="54.203577032312751" lon="-6.130103040486574">
        <ele>118.38</ele>
        <time>2026-07-08T08:54:57Z</time>
      </trkpt>
      <trkpt lat="54.202472968026996" lon="-6.132115032523871">
        <ele>119.81999999999999</ele>
        <time>2026-07-08T08:55:06Z</time>
      </trkpt>
      <trkpt lat="54.202357968315482" lon="-6.132239000871778">
        <ele>119.34</ele>
        <time>2026-07-08T08:55:07Z</time>
      </trkpt>
      <trkpt lat="54.202227964997292" lon="-6.132323993369937">
        <ele>119.34</ele>
        <time>2026-07-08T08:55:08Z</time>
      </trkpt>
      <trkpt lat="54.202084969729185" lon="-6.132348971441388">
        <ele>119.34</ele>
        <time>2026-07-08T08:55:09Z</time>
      </trkpt>
      <trkpt lat="54.201935017481446" lon="-6.132375039160252">
        <ele>119.34</ele>
        <time>2026-07-08T08:55:10Z</time>
      </trkpt>
      <trkpt lat="54.200405990704894" lon="-6.132579976692796">
        <ele>121.73999999999999</ele>
        <time>2026-07-08T08:55:20Z</time>
      </trkpt>
      <trkpt lat="54.199145017191768" lon="-6.132709980010986">
        <ele>117.90000000000001</ele>
        <time>2026-07-08T08:55:30Z</time>
      </trkpt>
      <trkpt lat="54.197505014017224" lon="-6.132890023291111">
        <ele>115.98</ele>
        <time>2026-07-08T08:55:43Z</time>
      </trkpt>
      <trkpt lat="54.197029005736113" lon="-6.13301801495254">
        <ele>115.5</ele>
        <time>2026-07-08T08:55:47Z</time>
      </trkpt>
      <trkpt lat="54.196920040994883" lon="-6.133118011057377">
        <ele>115.01000000000001</ele>
        <time>2026-07-08T08:55:48Z</time>
      </trkpt>
      <trkpt lat="54.196807974949479" lon="-6.133220018818975">
        <ele>115.01000000000001</ele>
        <time>2026-07-08T08:55:49Z</time>
      </trkpt>
      <trkpt lat="54.196718959137797" lon="-6.133365025743842">
        <ele>114.05</ele>
        <time>2026-07-08T08:55:50Z</time>
      </trkpt>
      <trkpt lat="54.196630027145147" lon="-6.133517995476723">
        <ele>113.56999999999999</ele>
        <time>2026-07-08T08:55:51Z</time>
      </trkpt>
      <trkpt lat="54.196566995233297" lon="-6.133687980473042">
        <ele>112.61</ele>
        <time>2026-07-08T08:55:52Z</time>
      </trkpt>
      <trkpt lat="54.196523996070027" lon="-6.133891995996237">
        <ele>112.13</ele>
        <time>2026-07-08T08:55:53Z</time>
      </trkpt>
      <trkpt lat="54.196480996906757" lon="-6.134101040661335">
        <ele>111.65000000000001</ele>
        <time>2026-07-08T08:55:54Z</time>
      </trkpt>
      <trkpt lat="54.196475967764854" lon="-6.134318970143795">
        <ele>111.17</ele>
        <time>2026-07-08T08:55:55Z</time>
      </trkpt>
      <trkpt lat="54.196472028270364" lon="-6.134552992880344">
        <ele>111.17</ele>
        <time>2026-07-08T08:55:56Z</time>
      </trkpt>
      <trkpt lat="54.196466999128461" lon="-6.134786009788513">
        <ele>111.17</ele>
        <time>2026-07-08T08:55:57Z</time>
      </trkpt>
      <trkpt lat="54.196396004408598" lon="-6.136286035180092">
        <ele>114.05</ele>
        <time>2026-07-08T08:56:04Z</time>
      </trkpt>
      <trkpt lat="54.196361973881721" lon="-6.136493990197778">
        <ele>115.01000000000001</ele>
        <time>2026-07-08T08:56:05Z</time>
      </trkpt>
      <trkpt lat="54.196027033030987" lon="-6.138547975569964">
        <ele>115.98</ele>
        <time>2026-07-08T08:56:15Z</time>
      </trkpt>
      <trkpt lat="54.195632999762893" lon="-6.140792984515429">
        <ele>122.70999999999999</ele>
        <time>2026-07-08T08:56:26Z</time>
      </trkpt>
      <trkpt lat="54.195415992289782" lon="-6.142122019082308">
        <ele>127.51000000000001</ele>
        <time>2026-07-08T08:56:34Z</time>
      </trkpt>
      <trkpt lat="54.195387996733189" lon="-6.142283035442233">
        <ele>127.51000000000001</ele>
        <time>2026-07-08T08:56:35Z</time>
      </trkpt>
      <trkpt lat="54.195064036175609" lon="-6.144125964492559">
        <ele>134.24000000000001</ele>
        <time>2026-07-08T08:56:47Z</time>
      </trkpt>
      <trkpt lat="54.194762036204338" lon="-6.145968977361918">
        <ele>135.68000000000001</ele>
        <time>2026-07-08T08:56:57Z</time>
      </trkpt>
      <trkpt lat="54.194420976564288" lon="-6.14794903434813">
        <ele>138.56999999999999</ele>
        <time>2026-07-08T08:57:06Z</time>
      </trkpt>
      <trkpt lat="54.194063991308212" lon="-6.150023974478245">
        <ele>144.81999999999999</ele>
        <time>2026-07-08T08:57:16Z</time>
      </trkpt>
      <trkpt lat="54.193592006340623" lon="-6.152509041130543">
        <ele>151.53999999999999</ele>
        <time>2026-07-08T08:57:26Z</time>
      </trkpt>
      <trkpt lat="54.192758006975055" lon="-6.156768975779414">
        <ele>157.31</ele>
        <time>2026-07-08T08:57:40Z</time>
      </trkpt>
      <trkpt lat="54.191982010379434" lon="-6.160290967673063">
        <ele>153.94999999999999</ele>
        <time>2026-07-08T08:57:52Z</time>
      </trkpt>
      <trkpt lat="54.190988000482321" lon="-6.163337035104632">
        <ele>145.30000000000001</ele>
        <time>2026-07-08T08:58:03Z</time>
      </trkpt>
      <trkpt lat="54.189673969522119" lon="-6.167204026132822">
        <ele>142.41</ele>
        <time>2026-07-08T08:58:17Z</time>
      </trkpt>
      <trkpt lat="54.188286010175943" lon="-6.171380979940295">
        <ele>154.43000000000001</ele>
        <time>2026-07-08T08:58:32Z</time>
      </trkpt>
      <trkpt lat="54.186986982822418" lon="-6.175814000889659">
        <ele>164.03999999999999</ele>
        <time>2026-07-08T08:58:47Z</time>
      </trkpt>
      <trkpt lat="54.186249962076545" lon="-6.178366960957646">
        <ele>169.81</ele>
        <time>2026-07-08T08:58:56Z</time>
      </trkpt>
      <trkpt lat="54.186175027862191" lon="-6.178639037534595">
        <ele>169.33000000000001</ele>
        <time>2026-07-08T08:58:57Z</time>
      </trkpt>
      <trkpt lat="54.186091041192412" lon="-6.179170031100512">
        <ele>169.33000000000001</ele>
        <time>2026-07-08T08:58:59Z</time>
      </trkpt>
      <trkpt lat="54.186047958210111" lon="-6.179440012201667">
        <ele>168.84999999999999</ele>
        <time>2026-07-08T08:59:00Z</time>
      </trkpt>
      <trkpt lat="54.186030020937324" lon="-6.179730026051402">
        <ele>168.37</ele>
        <time>2026-07-08T08:59:01Z</time>
      </trkpt>
      <trkpt lat="54.186030020937324" lon="-6.180030014365912">
        <ele>168.37</ele>
        <time>2026-07-08T08:59:02Z</time>
      </trkpt>
      <trkpt lat="54.186060028150678" lon="-6.180342994630337">
        <ele>167.88999999999999</ele>
        <time>2026-07-08T08:59:03Z</time>
      </trkpt>
      <trkpt lat="54.186097998172045" lon="-6.180664021521807">
        <ele>167.41</ele>
        <time>2026-07-08T08:59:04Z</time>
      </trkpt>
      <trkpt lat="54.186554979532957" lon="-6.184150977060199">
        <ele>165</ele>
        <time>2026-07-08T08:59:14Z</time>
      </trkpt>
      <trkpt lat="54.187136013060808" lon="-6.188412001356483">
        <ele>176.53999999999999</ele>
        <time>2026-07-08T08:59:26Z</time>
      </trkpt>
      <trkpt lat="54.187611015513539" lon="-6.191904991865158">
        <ele>192.40000000000001</ele>
        <time>2026-07-08T08:59:36Z</time>
      </trkpt>
      <trkpt lat="54.187782006338239" lon="-6.193782035261393">
        <ele>200.09</ele>
        <time>2026-07-08T08:59:43Z</time>
      </trkpt>
      <trkpt lat="54.187744036316872" lon="-6.19401203468442">
        <ele>201.05000000000001</ele>
        <time>2026-07-08T08:59:44Z</time>
      </trkpt>
      <trkpt lat="54.187704976648092" lon="-6.194244967773557">
        <ele>201.53</ele>
        <time>2026-07-08T08:59:45Z</time>
      </trkpt>
      <trkpt lat="54.187653008848429" lon="-6.194467004388571">
        <ele>202.00999999999999</ele>
        <time>2026-07-08T08:59:46Z</time>
      </trkpt>
      <trkpt lat="54.187581008300185" lon="-6.19467998854816">
        <ele>202.49000000000001</ele>
        <time>2026-07-08T08:59:47Z</time>
      </trkpt>
      <trkpt lat="54.187510013580322" lon="-6.194888027384877">
        <ele>202.97999999999999</ele>
        <time>2026-07-08T08:59:48Z</time>
      </trkpt>
      <trkpt lat="54.18744103051722" lon="-6.195091037079692">
        <ele>203.46000000000001</ele>
        <time>2026-07-08T08:59:49Z</time>
      </trkpt>
      <trkpt lat="54.187238020822406" lon="-6.195692019537091">
        <ele>203.94</ele>
        <time>2026-07-08T08:59:52Z</time>
      </trkpt>
      <trkpt lat="54.187132995575666" lon="-6.195836020633578">
        <ele>204.41999999999999</ele>
        <time>2026-07-08T08:59:53Z</time>
      </trkpt>
      <trkpt lat="54.187024030834436" lon="-6.195977004244924">
        <ele>204.41999999999999</ele>
        <time>2026-07-08T08:59:54Z</time>
      </trkpt>
      <trkpt lat="54.186793025583029" lon="-6.196272969245911">
        <ele>203.94</ele>
        <time>2026-07-08T08:59:56Z</time>
      </trkpt>
      <trkpt lat="54.186696968972683" lon="-6.196467010304332">
        <ele>203.94</ele>
        <time>2026-07-08T08:59:57Z</time>
      </trkpt>
      <trkpt lat="54.186510974541306" lon="-6.196816032752395">
        <ele>203.46000000000001</ele>
        <time>2026-07-08T08:59:59Z</time>
      </trkpt>
      <trkpt lat="54.186407038941979" lon="-6.19695701636374">
        <ele>203.46000000000001</ele>
        <time>2026-07-08T09:00:00Z</time>
      </trkpt>
      <trkpt lat="54.185988027602434" lon="-6.197589011862874">
        <ele>201.05000000000001</ele>
        <time>2026-07-08T09:00:04Z</time>
      </trkpt>
      <trkpt lat="54.185918960720301" lon="-6.197789004072547">
        <ele>200.09</ele>
        <time>2026-07-08T09:00:05Z</time>
      </trkpt>
      <trkpt lat="54.185857018455863" lon="-6.197982039302588">
        <ele>199.13</ele>
        <time>2026-07-08T09:00:06Z</time>
      </trkpt>
      <trkpt lat="54.185838997364044" lon="-6.198212038725615">
        <ele>198.16999999999999</ele>
        <time>2026-07-08T09:00:07Z</time>
      </trkpt>
      <trkpt lat="54.185820976272225" lon="-6.198441032320261">
        <ele>197.21000000000001</ele>
        <time>2026-07-08T09:00:08Z</time>
      </trkpt>
      <trkpt lat="54.185769008472562" lon="-6.198889967054129">
        <ele>196.25</ele>
        <time>2026-07-08T09:00:10Z</time>
      </trkpt>
      <trkpt lat="54.18572198599577" lon="-6.199095994234085">
        <ele>195.77000000000001</ele>
        <time>2026-07-08T09:00:11Z</time>
      </trkpt>
      <trkpt lat="54.185674041509628" lon="-6.199307972565293">
        <ele>195.28</ele>
        <time>2026-07-08T09:00:12Z</time>
      </trkpt>
      <trkpt lat="54.185644034296274" lon="-6.199443005025387">
        <ele>194.80000000000001</ele>
        <time>2026-07-08T09:00:13Z</time>
      </trkpt>
      <trkpt lat="54.185673035681248" lon="-6.199732013046742">
        <ele>193.84</ele>
        <time>2026-07-08T09:00:14Z</time>
      </trkpt>
      <trkpt lat="54.185692984610796" lon="-6.199939968064427">
        <ele>193.36000000000001</ele>
        <time>2026-07-08T09:00:15Z</time>
      </trkpt>
      <trkpt lat="54.185714023187757" lon="-6.200141971930862">
        <ele>192.88</ele>
        <time>2026-07-08T09:00:16Z</time>
      </trkpt>
      <trkpt lat="54.185733972117305" lon="-6.200340958312154">
        <ele>192.40000000000001</ele>
        <time>2026-07-08T09:00:17Z</time>
      </trkpt>
      <trkpt lat="54.185750987380743" lon="-6.200515972450376">
        <ele>191.91999999999999</ele>
        <time>2026-07-08T09:00:18Z</time>
      </trkpt>
      <trkpt lat="54.185704970732331" lon="-6.200731974095106">
        <ele>191.44</ele>
        <time>2026-07-08T09:00:19Z</time>
      </trkpt>
      <trkpt lat="54.185662977397442" lon="-6.200926015153527">
        <ele>190.96000000000001</ele>
        <time>2026-07-08T09:00:20Z</time>
      </trkpt>
      <trkpt lat="54.185617966577411" lon="-6.201137993484736">
        <ele>190.47999999999999</ele>
        <time>2026-07-08T09:00:21Z</time>
      </trkpt>
      <trkpt lat="54.185536997392774" lon="-6.201602015644312">
        <ele>189.03999999999999</ele>
        <time>2026-07-08T09:00:23Z</time>
      </trkpt>
      <trkpt lat="54.185457034036517" lon="-6.202308023348451">
        <ele>187.11000000000001</ele>
        <time>2026-07-08T09:00:26Z</time>
      </trkpt>
      <trkpt lat="54.185395007953048" lon="-6.202517990022898">
        <ele>186.15000000000001</ele>
        <time>2026-07-08T09:00:27Z</time>
      </trkpt>
      <trkpt lat="54.18531596660614" lon="-6.202739020809531">
        <ele>185.19</ele>
        <time>2026-07-08T09:00:28Z</time>
      </trkpt>
      <trkpt lat="54.185017989948392" lon="-6.203577965497971">
        <ele>182.31</ele>
        <time>2026-07-08T09:00:32Z</time>
      </trkpt>
      <trkpt lat="54.184934003278613" lon="-6.203726995736361">
        <ele>181.83000000000001</ele>
        <time>2026-07-08T09:00:33Z</time>
      </trkpt>
      <trkpt lat="54.184849010780454" lon="-6.203853981569409">
        <ele>181.34999999999999</ele>
        <time>2026-07-08T09:00:34Z</time>
      </trkpt>
      <trkpt lat="54.184090029448271" lon="-6.205092994496226">
        <ele>173.16999999999999</ele>
        <time>2026-07-08T09:00:42Z</time>
      </trkpt>
      <trkpt lat="54.183798003941774" lon="-6.20585298165679">
        <ele>168.37</ele>
        <time>2026-07-08T09:00:45Z</time>
      </trkpt>
      <trkpt lat="54.183721980080009" lon="-6.20615498162806">
        <ele>166.93000000000001</ele>
        <time>2026-07-08T09:00:46Z</time>
      </trkpt>
      <trkpt lat="54.183644028380513" lon="-6.206459999084473">
        <ele>165</ele>
        <time>2026-07-08T09:00:47Z</time>
      </trkpt>
      <trkpt lat="54.183095013722777" lon="-6.208805004134774">
        <ele>154.91</ele>
        <time>2026-07-08T09:00:55Z</time>
      </trkpt>
      <trkpt lat="54.182910025119781" lon="-6.209301967173815">
        <ele>153.94999999999999</ele>
        <time>2026-07-08T09:00:57Z</time>
      </trkpt>
      <trkpt lat="54.181499015539885" lon="-6.212289026007056">
        <ele>150.09999999999999</ele>
        <time>2026-07-08T09:01:10Z</time>
      </trkpt>
      <trkpt lat="54.180755037814379" lon="-6.214796975255013">
        <ele>144.81999999999999</ele>
        <time>2026-07-08T09:01:19Z</time>
      </trkpt>
      <trkpt lat="54.180063027888536" lon="-6.218538992106915">
        <ele>143.84999999999999</ele>
        <time>2026-07-08T09:01:31Z</time>
      </trkpt>
      <trkpt lat="54.179992033168674" lon="-6.21915003284812">
        <ele>144.81999999999999</ele>
        <time>2026-07-08T09:01:33Z</time>
      </trkpt>
      <trkpt lat="54.179977029561996" lon="-6.220386028289795">
        <ele>143.37</ele>
        <time>2026-07-08T09:01:37Z</time>
      </trkpt>
      <trkpt lat="54.180016005411744" lon="-6.220679981634021">
        <ele>142.41</ele>
        <time>2026-07-08T09:01:38Z</time>
      </trkpt>
      <trkpt lat="54.18007199652493" lon="-6.220964966341853">
        <ele>141.93000000000001</ele>
        <time>2026-07-08T09:01:39Z</time>
      </trkpt>
      <trkpt lat="54.180496037006378" lon="-6.22276003472507">
        <ele>139.53</ele>
        <time>2026-07-08T09:01:47Z</time>
      </trkpt>
      <trkpt lat="54.181123003363609" lon="-6.224852995947003">
        <ele>132.31999999999999</ele>
        <time>2026-07-08T09:01:59Z</time>
      </trkpt>
      <trkpt lat="54.181544026359916" lon="-6.22630700469017">
        <ele>128.94999999999999</ele>
        <time>2026-07-08T09:02:08Z</time>
      </trkpt>
      <trkpt lat="54.18157403357327" lon="-6.22647900134325">
        <ele>128.94999999999999</ele>
        <time>2026-07-08T09:02:09Z</time>
      </trkpt>
      <trkpt lat="54.181575961410999" lon="-6.22667103074491">
        <ele>128.94999999999999</ele>
        <time>2026-07-08T09:02:10Z</time>
      </trkpt>
      <trkpt lat="54.18155500665307" lon="-6.226858031004667">
        <ele>128.47</ele>
        <time>2026-07-08T09:02:11Z</time>
      </trkpt>
      <trkpt lat="54.181532962247729" lon="-6.227046959102154">
        <ele>127.98999999999999</ele>
        <time>2026-07-08T09:02:12Z</time>
      </trkpt>
      <trkpt lat="54.181499015539885" lon="-6.227232031524181">
        <ele>127.51000000000001</ele>
        <time>2026-07-08T09:02:13Z</time>
      </trkpt>
      <trkpt lat="54.181457022204995" lon="-6.227416014298797">
        <ele>127.03</ele>
        <time>2026-07-08T09:02:14Z</time>
      </trkpt>
      <trkpt lat="54.181083021685481" lon="-6.228984016925097">
        <ele>122.70999999999999</ele>
        <time>2026-07-08T09:02:24Z</time>
      </trkpt>
      <trkpt lat="54.180552028119564" lon="-6.230970025062561">
        <ele>117.90000000000001</ele>
        <time>2026-07-08T09:02:38Z</time>
      </trkpt>
      <trkpt lat="54.180491007864475" lon="-6.23124998062849">
        <ele>115.98</ele>
        <time>2026-07-08T09:02:43Z</time>
      </trkpt>
      <trkpt lat="54.180491007864475" lon="-6.23124998062849">
        <ele>115.01000000000001</ele>
        <time>2026-07-08T09:02:56Z</time>
      </trkpt>
      <trkpt lat="54.180491007864475" lon="-6.23124998062849">
        <ele>115.01000000000001</ele>
        <time>2026-07-08T09:03:17Z</time>
      </trkpt>
      <trkpt lat="54.180226977914572" lon="-6.23107697814703">
        <ele>115.98</ele>
        <time>2026-07-08T09:03:26Z</time>
      </trkpt>
      <trkpt lat="54.180236030369997" lon="-6.231029033660889">
        <ele>114.05</ele>
        <time>2026-07-08T09:03:39Z</time>
      </trkpt>
      <trkpt lat="54.180247010663152" lon="-6.231044037267566">
        <ele>113.56999999999999</ele>
        <time>2026-07-08T09:03:41Z</time>
      </trkpt>
      <trkpt lat="54.180279029533267" lon="-6.231082007288933">
        <ele>113.09</ele>
        <time>2026-07-08T09:03:44Z</time>
      </trkpt>
      <trkpt lat="54.180389000102878" lon="-6.231102962046862">
        <ele>113.56999999999999</ele>
        <time>2026-07-08T09:03:58Z</time>
      </trkpt>
      <trkpt lat="54.180389000102878" lon="-6.231102962046862">
        <ele>113.56999999999999</ele>
        <time>2026-07-08T09:04:18Z</time>
      </trkpt>
      <trkpt lat="54.180308030918241" lon="-6.231070021167398">
        <ele>120.3</ele>
        <time>2026-07-08T09:52:58Z</time>
      </trkpt>
      <trkpt lat="54.180382965132594" lon="-6.231073960661888">
        <ele>119.81999999999999</ele>
        <time>2026-07-08T09:53:35Z</time>
      </trkpt>
      <trkpt lat="54.180368967354298" lon="-6.231102040037513">
        <ele>116.45999999999999</ele>
        <time>2026-07-08T09:54:40Z</time>
      </trkpt>
      <trkpt lat="54.180370979011059" lon="-6.231079995632172">
        <ele>117.90000000000001</ele>
        <time>2026-07-08T09:55:12Z</time>
      </trkpt>
      <trkpt lat="54.180499976500869" lon="-6.231207987293601">
        <ele>117.90000000000001</ele>
        <time>2026-07-08T09:55:14Z</time>
      </trkpt>
      <trkpt lat="54.180428981781006" lon="-6.23120597563684">
        <ele>118.38</ele>
        <time>2026-07-08T09:55:17Z</time>
      </trkpt>
      <trkpt lat="54.180481033399701" lon="-6.231235982850194">
        <ele>118.86</ele>
        <time>2026-07-08T09:55:22Z</time>
      </trkpt>
      <trkpt lat="54.180484972894192" lon="-6.231275964528322">
        <ele>118.86</ele>
        <time>2026-07-08T09:55:24Z</time>
      </trkpt>
      <trkpt lat="54.180471980944276" lon="-6.231336984783411">
        <ele>118.86</ele>
        <time>2026-07-08T09:55:25Z</time>
      </trkpt>
      <trkpt lat="54.180448008701205" lon="-6.231445027515292">
        <ele>119.34</ele>
        <time>2026-07-08T09:55:26Z</time>
      </trkpt>
      <trkpt lat="54.180418001487851" lon="-6.231585005298257">
        <ele>118.86</ele>
        <time>2026-07-08T09:55:27Z</time>
      </trkpt>
      <trkpt lat="54.180380031466484" lon="-6.231746021658182">
        <ele>118.86</ele>
        <time>2026-07-08T09:55:28Z</time>
      </trkpt>
      <trkpt lat="54.180337032303214" lon="-6.231924975290895">
        <ele>118.86</ele>
        <time>2026-07-08T09:55:29Z</time>
      </trkpt>
      <trkpt lat="54.179935958236456" lon="-6.233547041192651">
        <ele>118.86</ele>
        <time>2026-07-08T09:55:37Z</time>
      </trkpt>
      <trkpt lat="54.179370012134314" lon="-6.23578199185431">
        <ele>113.09</ele>
        <time>2026-07-08T09:55:49Z</time>
      </trkpt>
      <trkpt lat="54.179015038534999" lon="-6.237201970070601">
        <ele>108.29000000000001</ele>
        <time>2026-07-08T09:55:55Z</time>
      </trkpt>
      <trkpt lat="54.178483039140701" lon="-6.239590980112553">
        <ele>107.31999999999999</ele>
        <time>2026-07-08T09:56:04Z</time>
      </trkpt>
      <trkpt lat="54.178431993350387" lon="-6.239869007840753">
        <ele>107.81</ele>
        <time>2026-07-08T09:56:05Z</time>
      </trkpt>
      <trkpt lat="54.177913991734385" lon="-6.242430014535785">
        <ele>105.88</ele>
        <time>2026-07-08T09:56:14Z</time>
      </trkpt>
      <trkpt lat="54.177245032042265" lon="-6.245811022818089">
        <ele>104.44</ele>
        <time>2026-07-08T09:56:25Z</time>
      </trkpt>
      <trkpt lat="54.176540030166507" lon="-6.249754037708044">
        <ele>98.189999999999998</ele>
        <time>2026-07-08T09:56:38Z</time>
      </trkpt>
      <trkpt lat="54.175994032993913" lon="-6.252866992726922">
        <ele>89.060000000000002</ele>
        <time>2026-07-08T09:56:48Z</time>
      </trkpt>
      <trkpt lat="54.175373017787933" lon="-6.256325030699372">
        <ele>84.730000000000004</ele>
        <time>2026-07-08T09:56:59Z</time>
      </trkpt>
      <trkpt lat="54.175322977825999" lon="-6.256602974608541">
        <ele>85.209999999999994</ele>
        <time>2026-07-08T09:57:00Z</time>
      </trkpt>
      <trkpt lat="54.175233040004969" lon="-6.256862981244922">
        <ele>85.209999999999994</ele>
        <time>2026-07-08T09:57:01Z</time>
      </trkpt>
      <trkpt lat="54.175138995051384" lon="-6.257129022851586">
        <ele>85.209999999999994</ele>
        <time>2026-07-08T09:57:02Z</time>
      </trkpt>
      <trkpt lat="54.17504402808845" lon="-6.257397998124361">
        <ele>85.209999999999994</ele>
        <time>2026-07-08T09:57:03Z</time>
      </trkpt>
      <trkpt lat="54.174947971478105" lon="-6.2576740141958">
        <ele>84.730000000000004</ele>
        <time>2026-07-08T09:57:04Z</time>
      </trkpt>
      <trkpt lat="54.174368027597666" lon="-6.259707966819406">
        <ele>79.930000000000007</ele>
        <time>2026-07-08T09:57:11Z</time>
      </trkpt>
      <trkpt lat="54.174339026212692" lon="-6.260029999539256">
        <ele>78.969999999999999</ele>
        <time>2026-07-08T09:57:12Z</time>
      </trkpt>
      <trkpt lat="54.174315975978971" lon="-6.260347003117204">
        <ele>78</ele>
        <time>2026-07-08T09:57:13Z</time>
      </trkpt>
      <trkpt lat="54.174327040091157" lon="-6.260672975331545">
        <ele>77.040000000000006</ele>
        <time>2026-07-08T09:57:14Z</time>
      </trkpt>
      <trkpt lat="54.174345983192325" lon="-6.260996013879776">
        <ele>76.079999999999998</ele>
        <time>2026-07-08T09:57:15Z</time>
      </trkpt>
      <trkpt lat="54.174403985962272" lon="-6.261312011629343">
        <ele>75.599999999999994</ele>
        <time>2026-07-08T09:57:16Z</time>
      </trkpt>
      <trkpt lat="54.17446400038898" lon="-6.261637983843684">
        <ele>74.640000000000001</ele>
        <time>2026-07-08T09:57:17Z</time>
      </trkpt>
      <trkpt lat="54.174547987058759" lon="-6.261944007128477">
        <ele>73.680000000000007</ele>
        <time>2026-07-08T09:57:18Z</time>
      </trkpt>
      <trkpt lat="54.174651000648737" lon="-6.262242989614606">
        <ele>72.719999999999999</ele>
        <time>2026-07-08T09:57:19Z</time>
      </trkpt>
      <trkpt lat="54.174771029502153" lon="-6.262527974322438">
        <ele>71.269999999999996</ele>
        <time>2026-07-08T09:57:20Z</time>
      </trkpt>
      <trkpt lat="54.175584996119142" lon="-6.264436030760407">
        <ele>64.549999999999997</ele>
        <time>2026-07-08T09:57:27Z</time>
      </trkpt>
      <trkpt lat="54.176507005468011" lon="-6.266627982258797">
        <ele>62.619999999999997</ele>
        <time>2026-07-08T09:57:35Z</time>
      </trkpt>
      <trkpt lat="54.177411999553442" lon="-6.268852958455682">
        <ele>57.340000000000003</ele>
        <time>2026-07-08T09:57:43Z</time>
      </trkpt>
      <trkpt lat="54.177517024800181" lon="-6.269186977297068">
        <ele>56.859999999999999</ele>
        <time>2026-07-08T09:57:44Z</time>
      </trkpt>
      <trkpt lat="54.178057992830873" lon="-6.271065026521683">
        <ele>55.409999999999997</ele>
        <time>2026-07-08T09:57:50Z</time>
      </trkpt>
      <trkpt lat="54.178146002814174" lon="-6.271616974845529">
        <ele>56.859999999999999</ele>
        <time>2026-07-08T09:57:52Z</time>
      </trkpt>
      <trkpt lat="54.178166035562754" lon="-6.271900031715632">
        <ele>56.859999999999999</ele>
        <time>2026-07-08T09:57:53Z</time>
      </trkpt>
      <trkpt lat="54.178281035274267" lon="-6.2742830067873">
        <ele>47.240000000000002</ele>
        <time>2026-07-08T09:58:00Z</time>
      </trkpt>
      <trkpt lat="54.178430987522006" lon="-6.27722698263824">
        <ele>42.920000000000002</ele>
        <time>2026-07-08T09:58:09Z</time>
      </trkpt>
      <trkpt lat="54.178642965853214" lon="-6.27956603653729">
        <ele>46.759999999999998</ele>
        <time>2026-07-08T09:58:17Z</time>
      </trkpt>
      <trkpt lat="54.178628968074918" lon="-6.279833000153303">
        <ele>46.759999999999998</ele>
        <time>2026-07-08T09:58:18Z</time>
      </trkpt>
      <trkpt lat="54.178614970296621" lon="-6.280107004567981">
        <ele>46.759999999999998</ele>
        <time>2026-07-08T09:58:19Z</time>
      </trkpt>
      <trkpt lat="54.17854598723352" lon="-6.281173015013337">
        <ele>44.359999999999999</ele>
        <time>2026-07-08T09:58:23Z</time>
      </trkpt>
      <trkpt lat="54.178498964756727" lon="-6.281412988901138">
        <ele>43.880000000000003</ele>
        <time>2026-07-08T09:58:24Z</time>
      </trkpt>
      <trkpt lat="54.177976017817855" lon="-6.28399696201086">
        <ele>39.549999999999997</ele>
        <time>2026-07-08T09:58:34Z</time>
      </trkpt>
      <trkpt lat="54.177922960370779" lon="-6.28425202332437">
        <ele>39.549999999999997</ele>
        <time>2026-07-08T09:58:35Z</time>
      </trkpt>
      <trkpt lat="54.177716011181474" lon="-6.285329014062882">
        <ele>40.030000000000001</ele>
        <time>2026-07-08T09:58:41Z</time>
      </trkpt>
      <trkpt lat="54.177692960947752" lon="-6.2856699898839">
        <ele>40.030000000000001</ele>
        <time>2026-07-08T09:58:45Z</time>
      </trkpt>
      <trkpt lat="54.177690027281642" lon="-6.285711983218789">
        <ele>40.030000000000001</ele>
        <time>2026-07-08T09:58:46Z</time>
      </trkpt>
      <trkpt lat="54.177591037005186" lon="-6.285726986825466">
        <ele>40.030000000000001</ele>
        <time>2026-07-08T09:58:47Z</time>
      </trkpt>
      <trkpt lat="54.177559018135071" lon="-6.285696979612112">
        <ele>40.030000000000001</ele>
        <time>2026-07-08T09:58:48Z</time>
      </trkpt>
      <trkpt lat="54.177519958466291" lon="-6.285662027075887">
        <ele>40.030000000000001</ele>
        <time>2026-07-08T09:58:49Z</time>
      </trkpt>
      <trkpt lat="54.177484000101686" lon="-6.285630008205771">
        <ele>40.030000000000001</ele>
        <time>2026-07-08T09:58:50Z</time>
      </trkpt>
      <trkpt lat="54.177449969574809" lon="-6.285598995164037">
        <ele>40.030000000000001</ele>
        <time>2026-07-08T09:58:51Z</time>
      </trkpt>
      <trkpt lat="54.17740797623992" lon="-6.28556102514267">
        <ele>40.030000000000001</ele>
        <time>2026-07-08T09:58:52Z</time>
      </trkpt>
      <trkpt lat="54.177348967641592" lon="-6.285506961867213">
        <ele>40.030000000000001</ele>
        <time>2026-07-08T09:58:53Z</time>
      </trkpt>
      <trkpt lat="54.177276967093349" lon="-6.285440996289253">
        <ele>40.030000000000001</ele>
        <time>2026-07-08T09:58:54Z</time>
      </trkpt>
      <trkpt lat="54.177197003737092" lon="-6.28536899574101">
        <ele>40.030000000000001</ele>
        <time>2026-07-08T09:58:55Z</time>
      </trkpt>
      <trkpt lat="54.176512034609914" lon="-6.284631974995136">
        <ele>46.280000000000001</ele>
        <time>2026-07-08T09:59:04Z</time>
      </trkpt>
      <trkpt lat="54.176446991041303" lon="-6.284556034952402">
        <ele>47.719999999999999</ele>
        <time>2026-07-08T09:59:06Z</time>
      </trkpt>
      <trkpt lat="54.176429975777864" lon="-6.284536002203822">
        <ele>48.200000000000003</ele>
        <time>2026-07-08T09:59:07Z</time>
      </trkpt>
      <trkpt lat="54.176429975777864" lon="-6.284536002203822">
        <ele>51.090000000000003</ele>
        <time>2026-07-08T09:59:17Z</time>
      </trkpt>
      <trkpt lat="54.176429975777864" lon="-6.284536002203822">
        <ele>51.090000000000003</ele>
        <time>2026-07-08T09:59:29Z</time>
      </trkpt>
      <trkpt lat="54.176363004371524" lon="-6.284456960856915">
        <ele>50.130000000000003</ele>
        <time>2026-07-08T09:59:42Z</time>
      </trkpt>
      <trkpt lat="54.176383959129453" lon="-6.284481016919017">
        <ele>49.649999999999999</ele>
        <time>2026-07-08T09:59:43Z</time>
      </trkpt>
      <trkpt lat="54.17642000131309" lon="-6.284524016082287">
        <ele>50.130000000000003</ele>
        <time>2026-07-08T09:59:44Z</time>
      </trkpt>
      <trkpt lat="54.176459982991219" lon="-6.284571038559079">
        <ele>50.130000000000003</ele>
        <time>2026-07-08T09:59:45Z</time>
      </trkpt>
      <trkpt lat="54.176494013518095" lon="-6.284611020237207">
        <ele>50.609999999999999</ele>
        <time>2026-07-08T09:59:46Z</time>
      </trkpt>
      <trkpt lat="54.176604989916086" lon="-6.284741023555398">
        <ele>53.009999999999998</ele>
        <time>2026-07-08T09:59:50Z</time>
      </trkpt>
      <trkpt lat="54.176674978807569" lon="-6.284822998568416">
        <ele>54.450000000000003</ele>
        <time>2026-07-08T09:59:51Z</time>
      </trkpt>
      <trkpt lat="54.177028024569154" lon="-6.285215020179749">
        <ele>56.369999999999997</ele>
        <time>2026-07-08T09:59:55Z</time>
      </trkpt>
      <trkpt lat="54.177123997360468" lon="-6.285302024334669">
        <ele>55.890000000000001</ele>
        <time>2026-07-08T09:59:56Z</time>
      </trkpt>
      <trkpt lat="54.177229022607207" lon="-6.285397997125983">
        <ele>55.890000000000001</ele>
        <time>2026-07-08T09:59:57Z</time>
      </trkpt>
      <trkpt lat="54.177328012883663" lon="-6.285488018766046">
        <ele>55.409999999999997</ele>
        <time>2026-07-08T09:59:58Z</time>
      </trkpt>
      <trkpt lat="54.177411999553442" lon="-6.28556395880878">
        <ele>54.450000000000003</ele>
        <time>2026-07-08T09:59:59Z</time>
      </trkpt>
      <trkpt lat="54.17753797955811" lon="-6.285678958520293">
        <ele>51.090000000000003</ele>
        <time>2026-07-08T10:00:04Z</time>
      </trkpt>
      <trkpt lat="54.177638981491327" lon="-6.285769985988736">
        <ele>47.719999999999999</ele>
        <time>2026-07-08T10:00:12Z</time>
      </trkpt>
      <trkpt lat="54.177691033110023" lon="-6.285870987921953">
        <ele>47.240000000000002</ele>
        <time>2026-07-08T10:00:13Z</time>
      </trkpt>
      <trkpt lat="54.177707964554429" lon="-6.285994034260511">
        <ele>46.759999999999998</ele>
        <time>2026-07-08T10:00:14Z</time>
      </trkpt>
      <trkpt lat="54.178064027801156" lon="-6.287255007773638">
        <ele>41.469999999999999</ele>
        <time>2026-07-08T10:00:21Z</time>
      </trkpt>
      <trkpt lat="54.178734999150038" lon="-6.289602024480701">
        <ele>38.590000000000003</ele>
        <time>2026-07-08T10:00:30Z</time>
      </trkpt>
      <trkpt lat="54.179368000477552" lon="-6.292167976498604">
        <ele>37.149999999999999</ele>
        <time>2026-07-08T10:00:40Z</time>
      </trkpt>
      <trkpt lat="54.179940987378359" lon="-6.294943979009986">
        <ele>42.439999999999998</ele>
        <time>2026-07-08T10:00:50Z</time>
      </trkpt>
      <trkpt lat="54.180026985704899" lon="-6.295174984261394">
        <ele>42.439999999999998</ele>
        <time>2026-07-08T10:00:51Z</time>
      </trkpt>
      <trkpt lat="54.180805999785662" lon="-6.297548990696669">
        <ele>37.149999999999999</ele>
        <time>2026-07-08T10:01:00Z</time>
      </trkpt>
      <trkpt lat="54.181719040498137" lon="-6.300750961527228">
        <ele>35.710000000000001</ele>
        <time>2026-07-08T10:01:11Z</time>
      </trkpt>
      <trkpt lat="54.182254979386926" lon="-6.302721966058016">
        <ele>34.740000000000002</ele>
        <time>2026-07-08T10:01:18Z</time>
      </trkpt>
      <trkpt lat="54.182318011298776" lon="-6.302954982966185">
        <ele>34.740000000000002</ele>
        <time>2026-07-08T10:01:19Z</time>
      </trkpt>
      <trkpt lat="54.182440973818302" lon="-6.303171990439296">
        <ele>35.229999999999997</ele>
        <time>2026-07-08T10:01:20Z</time>
      </trkpt>
      <trkpt lat="54.182553039863706" lon="-6.303370976820588">
        <ele>35.229999999999997</ele>
        <time>2026-07-08T10:01:21Z</time>
      </trkpt>
      <trkpt lat="54.182678014039993" lon="-6.303553031757474">
        <ele>34.740000000000002</ele>
        <time>2026-07-08T10:01:22Z</time>
      </trkpt>
      <trkpt lat="54.182816985994577" lon="-6.303730979561806">
        <ele>34.740000000000002</ele>
        <time>2026-07-08T10:01:23Z</time>
      </trkpt>
      <trkpt lat="54.184173010289669" lon="-6.30539302714169">
        <ele>33.299999999999997</ele>
        <time>2026-07-08T10:01:32Z</time>
      </trkpt>
      <trkpt lat="54.184292033314705" lon="-6.305615985766053">
        <ele>33.299999999999997</ele>
        <time>2026-07-08T10:01:33Z</time>
      </trkpt>
      <trkpt lat="54.185357037931681" lon="-6.307817995548248">
        <ele>34.740000000000002</ele>
        <time>2026-07-08T10:01:41Z</time>
      </trkpt>
      <trkpt lat="54.186375020071864" lon="-6.310031991451979">
        <ele>38.109999999999999</ele>
        <time>2026-07-08T10:01:50Z</time>
      </trkpt>
      <trkpt lat="54.186786990612745" lon="-6.311162039637566">
        <ele>38.590000000000003</ele>
        <time>2026-07-08T10:01:57Z</time>
      </trkpt>
      <trkpt lat="54.186824038624763" lon="-6.311277039349079">
        <ele>39.07</ele>
        <time>2026-07-08T10:01:58Z</time>
      </trkpt>
      <trkpt lat="54.186844993382692" lon="-6.3113450165838">
        <ele>39.07</ele>
        <time>2026-07-08T10:01:59Z</time>
      </trkpt>
      <trkpt lat="54.186823032796383" lon="-6.311585996299982">
        <ele>39.07</ele>
        <time>2026-07-08T10:02:00Z</time>
      </trkpt>
      <trkpt lat="54.186867037788033" lon="-6.31164601072669">
        <ele>38.590000000000003</ele>
        <time>2026-07-08T10:02:01Z</time>
      </trkpt>
      <trkpt lat="54.186986982822418" lon="-6.311705019325018">
        <ele>38.590000000000003</ele>
        <time>2026-07-08T10:02:02Z</time>
      </trkpt>
      <trkpt lat="54.187039034441113" lon="-6.311829993501306">
        <ele>38.590000000000003</ele>
        <time>2026-07-08T10:02:03Z</time>
      </trkpt>
      <trkpt lat="54.187093013897538" lon="-6.311959996819496">
        <ele>39.07</ele>
        <time>2026-07-08T10:02:04Z</time>
      </trkpt>
      <trkpt lat="54.187150010839105" lon="-6.31209603510797">
        <ele>39.07</ele>
        <time>2026-07-08T10:02:05Z</time>
      </trkpt>
      <trkpt lat="54.187207007780671" lon="-6.312231989577413">
        <ele>39.07</ele>
        <time>2026-07-08T10:02:06Z</time>
      </trkpt>
      <trkpt lat="54.187395013868809" lon="-6.312727024778724">
        <ele>39.549999999999997</ele>
        <time>2026-07-08T10:02:09Z</time>
      </trkpt>
      <trkpt lat="54.187453016638756" lon="-6.312925005331636">
        <ele>40.509999999999998</ele>
        <time>2026-07-08T10:02:10Z</time>
      </trkpt>
      <trkpt lat="54.187490986660123" lon="-6.313142012804747">
        <ele>40.990000000000002</ele>
        <time>2026-07-08T10:02:11Z</time>
      </trkpt>
      <trkpt lat="54.187843026593328" lon="-6.315865041688085">
        <ele>43.880000000000003</ele>
        <time>2026-07-08T10:02:23Z</time>
      </trkpt>
      <trkpt lat="54.188029021024704" lon="-6.318753026425839">
        <ele>47.719999999999999</ele>
        <time>2026-07-08T10:02:35Z</time>
      </trkpt>
      <trkpt lat="54.188006976619363" lon="-6.319000041112304">
        <ele>48.200000000000003</ele>
        <time>2026-07-08T10:02:36Z</time>
      </trkpt>
      <trkpt lat="54.187949979677796" lon="-6.319242026656866">
        <ele>48.68</ele>
        <time>2026-07-08T10:02:37Z</time>
      </trkpt>
      <trkpt lat="54.18789298273623" lon="-6.319473031908274">
        <ele>49.159999999999997</ele>
        <time>2026-07-08T10:02:38Z</time>
      </trkpt>
      <trkpt lat="54.187832968309522" lon="-6.319714011624456">
        <ele>49.649999999999999</ele>
        <time>2026-07-08T10:02:39Z</time>
      </trkpt>
      <trkpt lat="54.187757028266788" lon="-6.319892965257168">
        <ele>50.130000000000003</ele>
        <time>2026-07-08T10:02:40Z</time>
      </trkpt>
      <trkpt lat="54.187082033604383" lon="-6.320913964882493">
        <ele>49.159999999999997</ele>
        <time>2026-07-08T10:02:48Z</time>
      </trkpt>
      <trkpt lat="54.186045024544001" lon="-6.321802027523518">
        <ele>47.240000000000002</ele>
        <time>2026-07-08T10:02:58Z</time>
      </trkpt>
      <trkpt lat="54.18550699017942" lon="-6.322280969470739">
        <ele>50.130000000000003</ele>
        <time>2026-07-08T10:03:03Z</time>
      </trkpt>
      <trkpt lat="54.184524966403842" lon="-6.323470026254654">
        <ele>48.200000000000003</ele>
        <time>2026-07-08T10:03:14Z</time>
      </trkpt>
      <trkpt lat="54.183570016175508" lon="-6.324394969269633">
        <ele>43.880000000000003</ele>
        <time>2026-07-08T10:03:24Z</time>
      </trkpt>
      <trkpt lat="54.182765018194914" lon="-6.325393002480269">
        <ele>40.030000000000001</ele>
        <time>2026-07-08T10:03:33Z</time>
      </trkpt>
      <trkpt lat="54.181823981925845" lon="-6.326952958479524">
        <ele>39.549999999999997</ele>
        <time>2026-07-08T10:03:45Z</time>
      </trkpt>
      <trkpt lat="54.181530028581619" lon="-6.327573973685503">
        <ele>40.030000000000001</ele>
        <time>2026-07-08T10:03:50Z</time>
      </trkpt>
      <trkpt lat="54.181245965883136" lon="-6.328367991372943">
        <ele>37.630000000000003</ele>
        <time>2026-07-08T10:03:55Z</time>
      </trkpt>
      <trkpt lat="54.181164996698499" lon="-6.328694969415665">
        <ele>36.670000000000002</ele>
        <time>2026-07-08T10:03:57Z</time>
      </trkpt>
      <trkpt lat="54.181133983656764" lon="-6.328873001039028">
        <ele>35.710000000000001</ele>
        <time>2026-07-08T10:03:58Z</time>
      </trkpt>
      <trkpt lat="54.181100036948919" lon="-6.329058995470405">
        <ele>35.229999999999997</ele>
        <time>2026-07-08T10:03:59Z</time>
      </trkpt>
      <trkpt lat="54.181107999756932" lon="-6.329252030700445">
        <ele>34.259999999999998</ele>
        <time>2026-07-08T10:04:00Z</time>
      </trkpt>
      <trkpt lat="54.18112501502037" lon="-6.329451017081738">
        <ele>33.299999999999997</ele>
        <time>2026-07-08T10:04:01Z</time>
      </trkpt>
      <trkpt lat="54.181141024455428" lon="-6.329648997634649">
        <ele>32.340000000000003</ele>
        <time>2026-07-08T10:04:02Z</time>
      </trkpt>
      <trkpt lat="54.181149993091822" lon="-6.330027021467686">
        <ele>29.940000000000001</ele>
        <time>2026-07-08T10:04:04Z</time>
      </trkpt>
      <trkpt lat="54.181141024455428" lon="-6.330184014514089">
        <ele>28.98</ele>
        <time>2026-07-08T10:04:05Z</time>
      </trkpt>
      <trkpt lat="54.18110397644341" lon="-6.330283004790545">
        <ele>27.530000000000001</ele>
        <time>2026-07-08T10:04:06Z</time>
      </trkpt>
      <trkpt lat="54.181035999208689" lon="-6.330350982025266">
        <ele>26.57</ele>
        <time>2026-07-08T10:04:07Z</time>
      </trkpt>
      <trkpt lat="54.180963998660445" lon="-6.330421976745129">
        <ele>25.129999999999999</ele>
        <time>2026-07-08T10:04:08Z</time>
      </trkpt>
      <trkpt lat="54.180873977020383" lon="-6.330468999221921">
        <ele>24.170000000000002</ele>
        <time>2026-07-08T10:04:09Z</time>
      </trkpt>
      <trkpt lat="54.180779010057449" lon="-6.330519961193204">
        <ele>23.210000000000001</ele>
        <time>2026-07-08T10:04:10Z</time>
      </trkpt>
      <trkpt lat="54.179644016548991" lon="-6.331237033009529">
        <ele>13.119999999999999</ele>
        <time>2026-07-08T10:04:22Z</time>
      </trkpt>
      <trkpt lat="54.179432038217783" lon="-6.331552024930716">
        <ele>10.23</ele>
        <time>2026-07-08T10:04:25Z</time>
      </trkpt>
      <trkpt lat="54.179378980770707" lon="-6.331685967743397">
        <ele>9.27</ele>
        <time>2026-07-08T10:04:26Z</time>
      </trkpt>
      <trkpt lat="54.179357020184398" lon="-6.331831980496645">
        <ele>8.789999999999999</ele>
        <time>2026-07-08T10:04:27Z</time>
      </trkpt>
      <trkpt lat="54.179334975779057" lon="-6.331986961886287">
        <ele>8.310000000000001</ele>
        <time>2026-07-08T10:04:28Z</time>
      </trkpt>
      <trkpt lat="54.179313015192747" lon="-6.33214102126658">
        <ele>7.35</ele>
        <time>2026-07-08T10:04:29Z</time>
      </trkpt>
      <trkpt lat="54.179291976615787" lon="-6.332288961857557">
        <ele>6.39</ele>
        <time>2026-07-08T10:04:30Z</time>
      </trkpt>
      <trkpt lat="54.179108999669552" lon="-6.333658983930945">
        <ele>5.42</ele>
        <time>2026-07-08T10:04:41Z</time>
      </trkpt>
      <trkpt lat="54.17910497635603" lon="-6.333720004186034">
        <ele>5.91</ele>
        <time>2026-07-08T10:04:42Z</time>
      </trkpt>
      <trkpt lat="54.179101036861539" lon="-6.333769038319588">
        <ele>5.91</ele>
        <time>2026-07-08T10:04:43Z</time>
      </trkpt>
      <trkpt lat="54.179101036861539" lon="-6.333769038319588">
        <ele>5.91</ele>
        <time>2026-07-08T10:04:44Z</time>
      </trkpt>
      <trkpt lat="54.179098019376397" lon="-6.333814971148968">
        <ele>5.91</ele>
        <time>2026-07-08T10:04:48Z</time>
      </trkpt>
      <trkpt lat="54.179073963314295" lon="-6.334255021065474">
        <ele>5.42</ele>
        <time>2026-07-08T10:04:55Z</time>
      </trkpt>
      <trkpt lat="54.179010009393096" lon="-6.334339007735252">
        <ele>5.42</ele>
        <time>2026-07-08T10:04:56Z</time>
      </trkpt>
      <trkpt lat="54.178973967209458" lon="-6.334390975534916">
        <ele>5.42</ele>
        <time>2026-07-08T10:04:57Z</time>
      </trkpt>
      <trkpt lat="54.178743967786431" lon="-6.334698004648089">
        <ele>6.87</ele>
        <time>2026-07-08T10:05:07Z</time>
      </trkpt>
      <trkpt lat="54.178498964756727" lon="-6.335026994347572">
        <ele>8.789999999999999</ele>
        <time>2026-07-08T10:05:18Z</time>
      </trkpt>
      <trkpt lat="54.17818196117878" lon="-6.335466960445046">
        <ele>9.75</ele>
        <time>2026-07-08T10:05:30Z</time>
      </trkpt>
      <trkpt lat="54.178109960630536" lon="-6.335567040368915">
        <ele>9.27</ele>
        <time>2026-07-08T10:05:32Z</time>
      </trkpt>
      <trkpt lat="54.178066961467266" lon="-6.335626970976591">
        <ele>9.27</ele>
        <time>2026-07-08T10:05:33Z</time>
      </trkpt>
      <trkpt lat="54.178017005324364" lon="-6.335696037858725">
        <ele>9.27</ele>
        <time>2026-07-08T10:05:34Z</time>
      </trkpt>
      <trkpt lat="54.17790099978447" lon="-6.335760997608304">
        <ele>9.27</ele>
        <time>2026-07-08T10:05:36Z</time>
      </trkpt>
      <trkpt lat="54.177848026156425" lon="-6.33577398955822">
        <ele>9.27</ele>
        <time>2026-07-08T10:05:37Z</time>
      </trkpt>
      <trkpt lat="54.177608974277973" lon="-6.335828974843025">
        <ele>8.789999999999999</ele>
        <time>2026-07-08T10:05:46Z</time>
      </trkpt>
      <trkpt lat="54.177289037033916" lon="-6.335929976776242">
        <ele>7.35</ele>
        <time>2026-07-08T10:05:52Z</time>
      </trkpt>
      <trkpt lat="54.176909001544118" lon="-6.33609501644969">
        <ele>6.39</ele>
        <time>2026-07-08T10:05:57Z</time>
      </trkpt>
      <trkpt lat="54.176813028752804" lon="-6.336136003956199">
        <ele>6.39</ele>
        <time>2026-07-08T10:05:58Z</time>
      </trkpt>
      <trkpt lat="54.176116995513439" lon="-6.336364997550845">
        <ele>8.310000000000001</ele>
        <time>2026-07-08T10:06:05Z</time>
      </trkpt>
      <trkpt lat="54.175004968419671" lon="-6.336023015901446">
        <ele>11.19</ele>
        <time>2026-07-08T10:06:14Z</time>
      </trkpt>
      <trkpt lat="54.173992015421391" lon="-6.336290985345841">
        <ele>15.52</ele>
        <time>2026-07-08T10:06:23Z</time>
      </trkpt>
      <trkpt lat="54.173047039657831" lon="-6.336185960099101">
        <ele>17.440000000000001</ele>
        <time>2026-07-08T10:06:32Z</time>
      </trkpt>
      <trkpt lat="54.172080019488931" lon="-6.335813971236348">
        <ele>12.630000000000001</ele>
        <time>2026-07-08T10:06:41Z</time>
      </trkpt>
      <trkpt lat="54.171984968706965" lon="-6.33583702147007">
        <ele>11.67</ele>
        <time>2026-07-08T10:06:42Z</time>
      </trkpt>
      <trkpt lat="54.171911040320992" lon="-6.335893012583256">
        <ele>10.710000000000001</ele>
        <time>2026-07-08T10:06:43Z</time>
      </trkpt>
      <trkpt lat="54.171854965388775" lon="-6.335992002859712">
        <ele>10.23</ele>
        <time>2026-07-08T10:06:44Z</time>
      </trkpt>
      <trkpt lat="54.17179998010397" lon="-6.336088981479406">
        <ele>9.75</ele>
        <time>2026-07-08T10:06:45Z</time>
      </trkpt>
      <trkpt lat="54.171746000647545" lon="-6.336185960099101">
        <ele>9.27</ele>
        <time>2026-07-08T10:06:46Z</time>
      </trkpt>
      <trkpt lat="54.171475013718009" lon="-6.336916023865342">
        <ele>6.87</ele>
        <time>2026-07-08T10:06:52Z</time>
      </trkpt>
      <trkpt lat="54.171280972659588" lon="-6.338162999600172">
        <ele>7.35</ele>
        <time>2026-07-08T10:07:01Z</time>
      </trkpt>
      <trkpt lat="54.171274015679955" lon="-6.338224019855261">
        <ele>7.83</ele>
        <time>2026-07-08T10:07:08Z</time>
      </trkpt>
      <trkpt lat="54.171211989596486" lon="-6.338719977065921">
        <ele>9.27</ele>
        <time>2026-07-08T10:07:16Z</time>
      </trkpt>
      <trkpt lat="54.17119799181819" lon="-6.338880993425846">
        <ele>9.27</ele>
        <time>2026-07-08T10:07:18Z</time>
      </trkpt>
      <trkpt lat="54.171192962676287" lon="-6.338936984539032">
        <ele>9.27</ele>
        <time>2026-07-08T10:07:19Z</time>
      </trkpt>
      <trkpt lat="54.171190029010177" lon="-6.338970009237528">
        <ele>9.27</ele>
        <time>2026-07-08T10:07:20Z</time>
      </trkpt>
      <trkpt lat="54.171190029010177" lon="-6.338970009237528">
        <ele>9.75</ele>
        <time>2026-07-08T10:07:35Z</time>
      </trkpt>
      <trkpt lat="54.171166978776455" lon="-6.339139994233847">
        <ele>9.75</ele>
        <time>2026-07-08T10:08:23Z</time>
      </trkpt>
      <trkpt lat="54.170899009332061" lon="-6.339977011084557">
        <ele>5.91</ele>
        <time>2026-07-08T10:08:34Z</time>
      </trkpt>
      <trkpt lat="54.170794989913702" lon="-6.340183960273862">
        <ele>4.94</ele>
        <time>2026-07-08T10:08:36Z</time>
      </trkpt>
      <trkpt lat="54.170348988845944" lon="-6.340860966593027">
        <ele>1.1</ele>
        <time>2026-07-08T10:08:46Z</time>
      </trkpt>
      <trkpt lat="54.170335996896029" lon="-6.340880999341607">
        <ele>0.14</ele>
        <time>2026-07-08T10:08:56Z</time>
      </trkpt>
      <trkpt lat="54.170262990519404" lon="-6.340990969911218">
        <ele>0.14</ele>
        <time>2026-07-08T10:09:06Z</time>
      </trkpt>
      <trkpt lat="54.169943975284696" lon="-6.341461027041078">
        <ele>1.58</ele>
        <time>2026-07-08T10:09:13Z</time>
      </trkpt>
      <trkpt lat="54.169886978343129" lon="-6.341547025367618">
        <ele>1.58</ele>
        <time>2026-07-08T10:09:14Z</time>
      </trkpt>
      <trkpt lat="54.169700983911753" lon="-6.34183201007545">
        <ele>1.1</ele>
        <time>2026-07-08T10:09:17Z</time>
      </trkpt>
      <trkpt lat="54.169547008350492" lon="-6.342055974528194">
        <ele>0.62</ele>
        <time>2026-07-08T10:09:20Z</time>
      </trkpt>
      <trkpt lat="54.169512977823615" lon="-6.342106014490128">
        <ele>1.1</ele>
        <time>2026-07-08T10:09:21Z</time>
      </trkpt>
      <trkpt lat="54.169486993923783" lon="-6.342143984511495">
        <ele>1.1</ele>
        <time>2026-07-08T10:09:22Z</time>
      </trkpt>
      <trkpt lat="54.169465033337474" lon="-6.34217600338161">
        <ele>1.58</ele>
        <time>2026-07-08T10:09:23Z</time>
      </trkpt>
      <trkpt lat="54.169450029730797" lon="-6.342197963967919">
        <ele>2.06</ele>
        <time>2026-07-08T10:09:24Z</time>
      </trkpt>
      <trkpt lat="54.169409964233637" lon="-6.342254960909486">
        <ele>2.54</ele>
        <time>2026-07-08T10:09:33Z</time>
      </trkpt>
      <trkpt lat="54.168890034779906" lon="-6.342916963621974">
        <ele>7.35</ele>
        <time>2026-07-08T10:09:41Z</time>
      </trkpt>
      <trkpt lat="54.168806970119476" lon="-6.342994999140501">
        <ele>8.310000000000001</ele>
        <time>2026-07-08T10:09:42Z</time>
      </trkpt>
      <trkpt lat="54.168723989278078" lon="-6.343074962496758">
        <ele>9.27</ele>
        <time>2026-07-08T10:09:43Z</time>
      </trkpt>
      <trkpt lat="54.167864006012678" lon="-6.343386014923453">
        <ele>14.08</ele>
        <time>2026-07-08T10:09:52Z</time>
      </trkpt>
      <trkpt lat="54.166719960048795" lon="-6.343740988522768">
        <ele>16.48</ele>
        <time>2026-07-08T10:10:02Z</time>
      </trkpt>
      <trkpt lat="54.165528975427151" lon="-6.344135021790862">
        <ele>24.649999999999999</ele>
        <time>2026-07-08T10:10:12Z</time>
      </trkpt>
      <trkpt lat="54.164677038788795" lon="-6.344532994553447">
        <ele>33.299999999999997</ele>
        <time>2026-07-08T10:10:19Z</time>
      </trkpt>
      <trkpt lat="54.16455801576376" lon="-6.344609018415213">
        <ele>34.259999999999998</ele>
        <time>2026-07-08T10:10:20Z</time>
      </trkpt>
      <trkpt lat="54.164057029411197" lon="-6.34492602199316">
        <ele>39.07</ele>
        <time>2026-07-08T10:10:24Z</time>
      </trkpt>
      <trkpt lat="54.162766970694065" lon="-6.345350984483957">
        <ele>47.240000000000002</ele>
        <time>2026-07-08T10:10:35Z</time>
      </trkpt>
      <trkpt lat="54.161069970577955" lon="-6.345869991928339">
        <ele>54.450000000000003</ele>
        <time>2026-07-08T10:10:47Z</time>
      </trkpt>
      <trkpt lat="54.160015024244785" lon="-6.345896981656551">
        <ele>58.780000000000001</ele>
        <time>2026-07-08T10:10:54Z</time>
      </trkpt>
      <trkpt lat="54.159864988178015" lon="-6.345864962786436">
        <ele>59.740000000000002</ele>
        <time>2026-07-08T10:10:55Z</time>
      </trkpt>
      <trkpt lat="54.158721026033163" lon="-6.345648961141706">
        <ele>65.510000000000005</ele>
        <time>2026-07-08T10:11:03Z</time>
      </trkpt>
      <trkpt lat="54.157587960362434" lon="-6.345769995823503">
        <ele>71.760000000000005</ele>
        <time>2026-07-08T10:11:11Z</time>
      </trkpt>
      <trkpt lat="54.156163958832622" lon="-6.34617299772799">
        <ele>79.930000000000007</ele>
        <time>2026-07-08T10:11:21Z</time>
      </trkpt>
      <trkpt lat="54.154852023348212" lon="-6.346585974097252">
        <ele>89.540000000000006</ele>
        <time>2026-07-08T10:11:30Z</time>
      </trkpt>
      <trkpt lat="54.154438963159919" lon="-6.346612963825464">
        <ele>92.420000000000002</ele>
        <time>2026-07-08T10:11:33Z</time>
      </trkpt>
      <trkpt lat="54.154302002862096" lon="-6.346600977703929">
        <ele>93.390000000000001</ele>
        <time>2026-07-08T10:11:34Z</time>
      </trkpt>
      <trkpt lat="54.154169987887144" lon="-6.346546998247504">
        <ele>94.829999999999998</ele>
        <time>2026-07-08T10:11:35Z</time>
      </trkpt>
      <trkpt lat="54.152995012700558" lon="-6.34606696665287">
        <ele>102.52</ele>
        <time>2026-07-08T10:11:45Z</time>
      </trkpt>
      <trkpt lat="54.152788985520601" lon="-6.34600100107491">
        <ele>103.48</ele>
        <time>2026-07-08T10:11:47Z</time>
      </trkpt>
      <trkpt lat="54.152683038264513" lon="-6.346009969711304">
        <ele>104.44</ele>
        <time>2026-07-08T10:11:48Z</time>
      </trkpt>
      <trkpt lat="54.152574995532632" lon="-6.346019022166729">
        <ele>104.92</ele>
        <time>2026-07-08T10:11:49Z</time>
      </trkpt>
      <trkpt lat="54.152465024963021" lon="-6.346027990803123">
        <ele>105.88</ele>
        <time>2026-07-08T10:11:50Z</time>
      </trkpt>
      <trkpt lat="54.15235597640276" lon="-6.346036959439516">
        <ele>106.36</ele>
        <time>2026-07-08T10:11:51Z</time>
      </trkpt>
      <trkpt lat="54.152252962812781" lon="-6.34606302715838">
        <ele>107.31999999999999</ele>
        <time>2026-07-08T10:11:52Z</time>
      </trkpt>
      <trkpt lat="54.15216101333499" lon="-6.34610602632165">
        <ele>107.81</ele>
        <time>2026-07-08T10:11:53Z</time>
      </trkpt>
      <trkpt lat="54.151932019740343" lon="-6.346218008548021">
        <ele>109.73</ele>
        <time>2026-07-08T10:11:56Z</time>
      </trkpt>
      <trkpt lat="54.151874016970396" lon="-6.346250027418137">
        <ele>110.20999999999999</ele>
        <time>2026-07-08T10:11:57Z</time>
      </trkpt>
      <trkpt lat="54.151825988665223" lon="-6.346275005489588">
        <ele>110.69</ele>
        <time>2026-07-08T10:11:58Z</time>
      </trkpt>
      <trkpt lat="54.151729010045528" lon="-6.3463019952178">
        <ele>110.69</ele>
        <time>2026-07-08T10:11:59Z</time>
      </trkpt>
      <trkpt lat="54.151691040024161" lon="-6.346241980791092">
        <ele>111.17</ele>
        <time>2026-07-08T10:12:00Z</time>
      </trkpt>
      <trkpt lat="54.151633037254214" lon="-6.3461500313133">
        <ele>111.65000000000001</ele>
        <time>2026-07-08T10:12:01Z</time>
      </trkpt>
      <trkpt lat="54.15156195871532" lon="-6.346137961372733">
        <ele>112.13</ele>
        <time>2026-07-08T10:12:02Z</time>
      </trkpt>
      <trkpt lat="54.151466991752386" lon="-6.346093034371734">
        <ele>112.61</ele>
        <time>2026-07-08T10:12:03Z</time>
      </trkpt>
      <trkpt lat="54.151373030617833" lon="-6.346006030216813">
        <ele>113.09</ele>
        <time>2026-07-08T10:12:04Z</time>
      </trkpt>
      <trkpt lat="54.151270017027855" lon="-6.345909973606467">
        <ele>113.56999999999999</ele>
        <time>2026-07-08T10:12:05Z</time>
      </trkpt>
      <trkpt lat="54.151156023144722" lon="-6.34580503217876">
        <ele>113.56999999999999</ele>
        <time>2026-07-08T10:12:06Z</time>
      </trkpt>
      <trkpt lat="54.149976018816233" lon="-6.3447530195117">
        <ele>118.86</ele>
        <time>2026-07-08T10:12:14Z</time>
      </trkpt>
      <trkpt lat="54.148219004273415" lon="-6.343863029032946">
        <ele>124.15000000000001</ele>
        <time>2026-07-08T10:12:23Z</time>
      </trkpt>
      <trkpt lat="54.146448997780681" lon="-6.343406969681382">
        <ele>129.91999999999999</ele>
        <time>2026-07-08T10:12:32Z</time>
      </trkpt>
      <trkpt lat="54.144312031567097" lon="-6.34301302023232">
        <ele>136.16</ele>
        <time>2026-07-08T10:12:42Z</time>
      </trkpt>
      <trkpt lat="54.142541019245982" lon="-6.342732980847359">
        <ele>140.00999999999999</ele>
        <time>2026-07-08T10:12:50Z</time>
      </trkpt>
      <trkpt lat="54.140613013878465" lon="-6.342789977788925">
        <ele>141.93000000000001</ele>
        <time>2026-07-08T10:12:58Z</time>
      </trkpt>
      <trkpt lat="54.138751979917288" lon="-6.343468995764852">
        <ele>142.41</ele>
        <time>2026-07-08T10:13:05Z</time>
      </trkpt>
      <trkpt lat="54.136821962893009" lon="-6.344940019771457">
        <ele>137.13</ele>
        <time>2026-07-08T10:13:13Z</time>
      </trkpt>
      <trkpt lat="54.135141978040338" lon="-6.347061982378364">
        <ele>133.28</ele>
        <time>2026-07-08T10:13:21Z</time>
      </trkpt>
      <trkpt lat="54.133538017049432" lon="-6.349940998479724">
        <ele>133.75999999999999</ele>
        <time>2026-07-08T10:13:30Z</time>
      </trkpt>
      <trkpt lat="54.131740015000105" lon="-6.352635025978088">
        <ele>134.24000000000001</ele>
        <time>2026-07-08T10:13:39Z</time>
      </trkpt>
      <trkpt lat="54.128825962543488" lon="-6.35573398321867">
        <ele>129.43000000000001</ele>
        <time>2026-07-08T10:13:52Z</time>
      </trkpt>
      <trkpt lat="54.126179963350296" lon="-6.357746981084347">
        <ele>120.78</ele>
        <time>2026-07-08T10:14:03Z</time>
      </trkpt>
      <trkpt lat="54.122235020622611" lon="-6.360242022201419">
        <ele>105.40000000000001</ele>
        <time>2026-07-08T10:14:18Z</time>
      </trkpt>
      <trkpt lat="54.119663033634424" lon="-6.361794015392661">
        <ele>100.59999999999999</ele>
        <time>2026-07-08T10:14:28Z</time>
      </trkpt>
      <trkpt lat="54.117319034412503" lon="-6.363193960860372">
        <ele>98.189999999999998</ele>
        <time>2026-07-08T10:14:37Z</time>
      </trkpt>
      <trkpt lat="54.113891003653407" lon="-6.364817032590509">
        <ele>99.150000000000006</ele>
        <time>2026-07-08T10:14:50Z</time>
      </trkpt>
      <trkpt lat="54.111177027225494" lon="-6.365102017298341">
        <ele>100.11</ele>
        <time>2026-07-08T10:15:00Z</time>
      </trkpt>
      <trkpt lat="54.10844000056386" lon="-6.364935971796513">
        <ele>100.11</ele>
        <time>2026-07-08T10:15:10Z</time>
      </trkpt>
      <trkpt lat="54.10624897107482" lon="-6.364791970700026">
        <ele>98.670000000000002</ele>
        <time>2026-07-08T10:15:18Z</time>
      </trkpt>
      <trkpt lat="54.102952033281326" lon="-6.364345969632268">
        <ele>99.150000000000006</ele>
        <time>2026-07-08T10:15:30Z</time>
      </trkpt>
      <trkpt lat="54.099997999146581" lon="-6.363406023010612">
        <ele>98.189999999999998</ele>
        <time>2026-07-08T10:15:41Z</time>
      </trkpt>
      <trkpt lat="54.097388964146376" lon="-6.362104984000325">
        <ele>99.150000000000006</ele>
        <time>2026-07-08T10:15:51Z</time>
      </trkpt>
      <trkpt lat="54.096038974821568" lon="-6.361354971304536">
        <ele>101.08</ele>
        <time>2026-07-08T10:15:57Z</time>
      </trkpt>
      <trkpt lat="54.0938959736377" lon="-6.360342018306255">
        <ele>101.56</ele>
        <time>2026-07-08T10:16:05Z</time>
      </trkpt>
      <trkpt lat="54.089965028688312" lon="-6.358724981546402">
        <ele>98.670000000000002</ele>
        <time>2026-07-08T10:16:19Z</time>
      </trkpt>
      <trkpt lat="54.085731999948621" lon="-6.357380021363497">
        <ele>91.939999999999998</ele>
        <time>2026-07-08T10:16:34Z</time>
      </trkpt>
      <trkpt lat="54.083420019596815" lon="-6.355983009561896">
        <ele>86.659999999999997</ele>
        <time>2026-07-08T10:16:43Z</time>
      </trkpt>
      <trkpt lat="54.080978035926819" lon="-6.353875966742635">
        <ele>84.25</ele>
        <time>2026-07-08T10:16:53Z</time>
      </trkpt>
      <trkpt lat="54.078585002571344" lon="-6.352610969915986">
        <ele>82.810000000000002</ele>
        <time>2026-07-08T10:17:02Z</time>
      </trkpt>
      <trkpt lat="54.075173987075686" lon="-6.351869003847241">
        <ele>81.370000000000005</ele>
        <time>2026-07-08T10:17:14Z</time>
      </trkpt>
      <trkpt lat="54.071052018553019" lon="-6.351068029180169">
        <ele>80.890000000000001</ele>
        <time>2026-07-08T10:17:29Z</time>
      </trkpt>
      <trkpt lat="54.068152969703078" lon="-6.351041961461306">
        <ele>75.599999999999994</ele>
        <time>2026-07-08T10:17:39Z</time>
      </trkpt>
      <trkpt lat="54.065303038805723" lon="-6.351818041875958">
        <ele>71.269999999999996</ele>
        <time>2026-07-08T10:17:49Z</time>
      </trkpt>
      <trkpt lat="54.063263973221183" lon="-6.353198038414121">
        <ele>75.120000000000005</ele>
        <time>2026-07-08T10:17:57Z</time>
      </trkpt>
      <trkpt lat="54.059575013816357" lon="-6.356409983709455">
        <ele>78.969999999999999</ele>
        <time>2026-07-08T10:18:12Z</time>
      </trkpt>
      <trkpt lat="54.05719798989594" lon="-6.35766601189971">
        <ele>78.480000000000004</ele>
        <time>2026-07-08T10:18:21Z</time>
      </trkpt>
      <trkpt lat="54.054736979305744" lon="-6.358136991038919">
        <ele>77.519999999999996</ele>
        <time>2026-07-08T10:18:30Z</time>
      </trkpt>
      <trkpt lat="54.052248978987336" lon="-6.358696985989809">
        <ele>73.200000000000003</ele>
        <time>2026-07-08T10:18:39Z</time>
      </trkpt>
      <trkpt lat="54.050125004723668" lon="-6.360005987808108">
        <ele>65.510000000000005</ele>
        <time>2026-07-08T10:18:47Z</time>
      </trkpt>
      <trkpt lat="54.047919977456331" lon="-6.36215602979064">
        <ele>53.969999999999999</ele>
        <time>2026-07-08T10:18:56Z</time>
      </trkpt>
      <trkpt lat="54.045046996325254" lon="-6.36598396115005">
        <ele>34.259999999999998</ele>
        <time>2026-07-08T10:19:09Z</time>
      </trkpt>
      <trkpt lat="54.042806010693312" lon="-6.369501007720828">
        <ele>29.940000000000001</ele>
        <time>2026-07-08T10:19:20Z</time>
      </trkpt>
      <trkpt lat="54.039763966575265" lon="-6.375158037990332">
        <ele>24.170000000000002</ele>
        <time>2026-07-08T10:19:36Z</time>
      </trkpt>
      <trkpt lat="54.037589030340314" lon="-6.380246020853519">
        <ele>13.119999999999999</ele>
        <time>2026-07-08T10:19:49Z</time>
      </trkpt>
      <trkpt lat="54.036530982702971" lon="-6.384204039350152">
        <ele>11.19</ele>
        <time>2026-07-08T10:19:58Z</time>
      </trkpt>
      <trkpt lat="54.036267958581448" lon="-6.385569032281637">
        <ele>10.23</ele>
        <time>2026-07-08T10:20:01Z</time>
      </trkpt>
      <trkpt lat="54.035882977768779" lon="-6.389387995004654">
        <ele>12.15</ele>
        <time>2026-07-08T10:20:09Z</time>
      </trkpt>
      <trkpt lat="54.035892030224204" lon="-6.393767036497593">
        <ele>13.6</ele>
        <time>2026-07-08T10:20:18Z</time>
      </trkpt>
      <trkpt lat="54.036166034638882" lon="-6.399555997923017">
        <ele>16.48</ele>
        <time>2026-07-08T10:20:30Z</time>
      </trkpt>
      <trkpt lat="54.036445990204811" lon="-6.407327027991414">
        <ele>23.690000000000001</ele>
        <time>2026-07-08T10:20:46Z</time>
      </trkpt>
      <trkpt lat="54.036115994676948" lon="-6.413254039362073">
        <ele>27.050000000000001</ele>
        <time>2026-07-08T10:20:58Z</time>
      </trkpt>
      <trkpt lat="54.035350978374481" lon="-6.418548971414566">
        <ele>28.98</ele>
        <time>2026-07-08T10:21:09Z</time>
      </trkpt>
      <trkpt lat="54.034159993752837" lon="-6.423639971762896">
        <ele>24.649999999999999</ele>
        <time>2026-07-08T10:21:20Z</time>
      </trkpt>
      <trkpt lat="54.032649993896484" lon="-6.427822960540652">
        <ele>16.48</ele>
        <time>2026-07-08T10:21:30Z</time>
      </trkpt>
      <trkpt lat="54.030909994617105" lon="-6.430863998830319">
        <ele>15.039999999999999</ele>
        <time>2026-07-08T10:21:39Z</time>
      </trkpt>
      <trkpt lat="54.028573036193848" lon="-6.433503963053227">
        <ele>16</ele>
        <time>2026-07-08T10:21:49Z</time>
      </trkpt>
      <trkpt lat="54.025157997384667" lon="-6.436935011297464">
        <ele>19.359999999999999</ele>
        <time>2026-07-08T10:22:03Z</time>
      </trkpt>
      <trkpt lat="54.022208992391825" lon="-6.439859038218856">
        <ele>22.25</ele>
        <time>2026-07-08T10:22:15Z</time>
      </trkpt>
      <trkpt lat="54.019237020984292" lon="-6.442318959161639">
        <ele>26.09</ele>
        <time>2026-07-08T10:22:27Z</time>
      </trkpt>
      <trkpt lat="54.016971979290247" lon="-6.443689987063408">
        <ele>30.420000000000002</ele>
        <time>2026-07-08T10:22:36Z</time>
      </trkpt>
      <trkpt lat="54.014157000929117" lon="-6.444924976676703">
        <ele>37.149999999999999</ele>
        <time>2026-07-08T10:22:46Z</time>
      </trkpt>
      <trkpt lat="54.010392017662525" lon="-6.445723017677665">
        <ele>39.07</ele>
        <time>2026-07-08T10:22:59Z</time>
      </trkpt>
      <trkpt lat="54.007301023229957" lon="-6.445759981870651">
        <ele>41.469999999999999</ele>
        <time>2026-07-08T10:23:10Z</time>
      </trkpt>
      <trkpt lat="54.003932001069188" lon="-6.445106025785208">
        <ele>39.07</ele>
        <time>2026-07-08T10:23:22Z</time>
      </trkpt>
      <trkpt lat="54.000934967771173" lon="-6.443884028121829">
        <ele>35.229999999999997</ele>
        <time>2026-07-08T10:23:33Z</time>
      </trkpt>
      <trkpt lat="53.997500985860825" lon="-6.441829036921263">
        <ele>32.82</ele>
        <time>2026-07-08T10:23:46Z</time>
      </trkpt>
      <trkpt lat="53.994069015607238" lon="-6.439626021310687">
        <ele>26.57</ele>
        <time>2026-07-08T10:23:59Z</time>
      </trkpt>
      <trkpt lat="53.989928020164371" lon="-6.436872985213995">
        <ele>31.379999999999999</ele>
        <time>2026-07-08T10:24:15Z</time>
      </trkpt>
      <trkpt lat="53.987402971833944" lon="-6.434809025377035">
        <ele>39.07</ele>
        <time>2026-07-08T10:24:25Z</time>
      </trkpt>
      <trkpt lat="53.983964966610074" lon="-6.431558020412922">
        <ele>43.880000000000003</ele>
        <time>2026-07-08T10:24:39Z</time>
      </trkpt>
      <trkpt lat="53.979533035308123" lon="-6.427371008321643">
        <ele>45.32</ele>
        <time>2026-07-08T10:24:57Z</time>
      </trkpt>
      <trkpt lat="53.97662996314466" lon="-6.425435962155461">
        <ele>38.109999999999999</ele>
        <time>2026-07-08T10:25:08Z</time>
      </trkpt>
      <trkpt lat="53.973617004230618" lon="-6.42420600168407">
        <ele>29.940000000000001</ele>
        <time>2026-07-08T10:25:19Z</time>
      </trkpt>
      <trkpt lat="53.970547970384359" lon="-6.423726975917816">
        <ele>25.129999999999999</ele>
        <time>2026-07-08T10:25:30Z</time>
      </trkpt>
      <trkpt lat="53.967503998428583" lon="-6.423149965703487">
        <ele>24.649999999999999</ele>
        <time>2026-07-08T10:25:41Z</time>
      </trkpt>
      <trkpt lat="53.964805025607347" lon="-6.421924028545618">
        <ele>25.609999999999999</ele>
        <time>2026-07-08T10:25:51Z</time>
      </trkpt>
      <trkpt lat="53.961037024855614" lon="-6.419951012358069">
        <ele>21.289999999999999</ele>
        <time>2026-07-08T10:26:05Z</time>
      </trkpt>
      <trkpt lat="53.957971008494496" lon="-6.419119024649262">
        <ele>16.48</ele>
        <time>2026-07-08T10:26:16Z</time>
      </trkpt>
      <trkpt lat="53.954309038817883" lon="-6.419097986072302">
        <ele>13.6</ele>
        <time>2026-07-08T10:26:29Z</time>
      </trkpt>
      <trkpt lat="53.950381027534604" lon="-6.419212985783815">
        <ele>11.67</ele>
        <time>2026-07-08T10:26:43Z</time>
      </trkpt>
      <trkpt lat="53.946744035929441" lon="-6.419003019109368">
        <ele>10.23</ele>
        <time>2026-07-08T10:26:56Z</time>
      </trkpt>
      <trkpt lat="53.94371397793293" lon="-6.418043039739132">
        <ele>9.75</ele>
        <time>2026-07-08T10:27:07Z</time>
      </trkpt>
      <trkpt lat="53.937947982922196" lon="-6.415954018011689">
        <ele>11.19</ele>
        <time>2026-07-08T10:27:28Z</time>
      </trkpt>
      <trkpt lat="53.932719016447663" lon="-6.414049984887242">
        <ele>9.27</ele>
        <time>2026-07-08T10:27:47Z</time>
      </trkpt>
      <trkpt lat="53.928840961307287" lon="-6.412984980270267">
        <ele>10.710000000000001</ele>
        <time>2026-07-08T10:28:01Z</time>
      </trkpt>
      <trkpt lat="53.926035035401583" lon="-6.413133004680276">
        <ele>12.630000000000001</ele>
        <time>2026-07-08T10:28:11Z</time>
      </trkpt>
      <trkpt lat="53.923562960699201" lon="-6.413918975740671">
        <ele>16</ele>
        <time>2026-07-08T10:28:20Z</time>
      </trkpt>
      <trkpt lat="53.920155968517065" lon="-6.415195036679506">
        <ele>21.77</ele>
        <time>2026-07-08T10:28:33Z</time>
      </trkpt>
      <trkpt lat="53.918444970622659" lon="-6.415683031082153">
        <ele>24.170000000000002</ele>
        <time>2026-07-08T10:28:40Z</time>
      </trkpt>
      <trkpt lat="53.916357960551977" lon="-6.41612702049315">
        <ele>26.57</ele>
        <time>2026-07-08T10:28:47Z</time>
      </trkpt>
      <trkpt lat="53.912727003917098" lon="-6.41681500710547">
        <ele>27.050000000000001</ele>
        <time>2026-07-08T10:29:00Z</time>
      </trkpt>
      <trkpt lat="53.908265987411141" lon="-6.417793007567525">
        <ele>22.73</ele>
        <time>2026-07-08T10:29:16Z</time>
      </trkpt>
      <trkpt lat="53.903889963403344" lon="-6.419502999633551">
        <ele>19.359999999999999</ele>
        <time>2026-07-08T10:29:32Z</time>
      </trkpt>
      <trkpt lat="53.900415999814868" lon="-6.421364033594728">
        <ele>16</ele>
        <time>2026-07-08T10:29:45Z</time>
      </trkpt>
      <trkpt lat="53.896686974912882" lon="-6.423435034230351">
        <ele>16</ele>
        <time>2026-07-08T10:29:59Z</time>
      </trkpt>
      <trkpt lat="53.892102995887399" lon="-6.425956981256604">
        <ele>17.440000000000001</ele>
        <time>2026-07-08T10:30:16Z</time>
      </trkpt>
      <trkpt lat="53.888827012851834" lon="-6.427758000791073">
        <ele>19.359999999999999</ele>
        <time>2026-07-08T10:30:28Z</time>
      </trkpt>
      <trkpt lat="53.885762002319098" lon="-6.429001959040761">
        <ele>20.32</ele>
        <time>2026-07-08T10:30:39Z</time>
      </trkpt>
      <trkpt lat="53.882335983216763" lon="-6.429667985066772">
        <ele>18.399999999999999</ele>
        <time>2026-07-08T10:30:51Z</time>
      </trkpt>
      <trkpt lat="53.879625024273992" lon="-6.429703021422029">
        <ele>16.960000000000001</ele>
        <time>2026-07-08T10:31:01Z</time>
      </trkpt>
      <trkpt lat="53.877859963104129" lon="-6.429525995627046">
        <ele>16.960000000000001</ele>
        <time>2026-07-08T10:31:07Z</time>
      </trkpt>
      <trkpt lat="53.876041006296873" lon="-6.42934201285243">
        <ele>18.879999999999999</ele>
        <time>2026-07-08T10:31:13Z</time>
      </trkpt>
      <trkpt lat="53.871505977585912" lon="-6.428899029269815">
        <ele>28.5</ele>
        <time>2026-07-08T10:31:29Z</time>
      </trkpt>
      <trkpt lat="53.867196002975106" lon="-6.428490998223424">
        <ele>31.859999999999999</ele>
        <time>2026-07-08T10:31:44Z</time>
      </trkpt>
      <trkpt lat="53.864331990480423" lon="-6.428242977708578">
        <ele>29.460000000000001</ele>
        <time>2026-07-08T10:31:54Z</time>
      </trkpt>
      <trkpt lat="53.858599020168185" lon="-6.427952963858843">
        <ele>27.530000000000001</ele>
        <time>2026-07-08T10:32:14Z</time>
      </trkpt>
      <trkpt lat="53.856603959575295" lon="-6.427588015794754">
        <ele>29.460000000000001</ele>
        <time>2026-07-08T10:32:21Z</time>
      </trkpt>
      <trkpt lat="53.853284977376461" lon="-6.426336010918021">
        <ele>26.09</ele>
        <time>2026-07-08T10:32:33Z</time>
      </trkpt>
      <trkpt lat="53.850368997082114" lon="-6.424449998885393">
        <ele>24.170000000000002</ele>
        <time>2026-07-08T10:32:44Z</time>
      </trkpt>
      <trkpt lat="53.847224023193121" lon="-6.422172971069813">
        <ele>24.170000000000002</ele>
        <time>2026-07-08T10:32:56Z</time>
      </trkpt>
      <trkpt lat="53.843525005504489" lon="-6.419514985755086">
        <ele>30.899999999999999</ele>
        <time>2026-07-08T10:33:10Z</time>
      </trkpt>
      <trkpt lat="53.840375002473593" lon="-6.417240975424647">
        <ele>35.710000000000001</ele>
        <time>2026-07-08T10:33:22Z</time>
      </trkpt>
      <trkpt lat="53.836186984553933" lon="-6.414218964055181">
        <ele>41.950000000000003</ele>
        <time>2026-07-08T10:33:38Z</time>
      </trkpt>
      <trkpt lat="53.834111038595438" lon="-6.412730002775788">
        <ele>44.840000000000003</ele>
        <time>2026-07-08T10:33:46Z</time>
      </trkpt>
      <trkpt lat="53.83044102229178" lon="-6.410078974440694">
        <ele>51.57</ele>
        <time>2026-07-08T10:34:00Z</time>
      </trkpt>
      <trkpt lat="53.827127991244197" lon="-6.407680995762348">
        <ele>56.859999999999999</ele>
        <time>2026-07-08T10:34:12Z</time>
      </trkpt>
      <trkpt lat="53.823581021279097" lon="-6.405137004330754">
        <ele>57.82</ele>
        <time>2026-07-08T10:34:25Z</time>
      </trkpt>
      <trkpt lat="53.819566005840898" lon="-6.402563005685806">
        <ele>55.890000000000001</ele>
        <time>2026-07-08T10:34:40Z</time>
      </trkpt>
      <trkpt lat="53.81609296426177" lon="-6.400900958105922">
        <ele>55.890000000000001</ele>
        <time>2026-07-08T10:34:52Z</time>
      </trkpt>
      <trkpt lat="53.812969028949738" lon="-6.399896973744035">
        <ele>59.259999999999998</ele>
        <time>2026-07-08T10:35:03Z</time>
      </trkpt>
      <trkpt lat="53.809313010424376" lon="-6.399232037365437">
        <ele>65.030000000000001</ele>
        <time>2026-07-08T10:35:16Z</time>
      </trkpt>
      <trkpt lat="53.805883973836899" lon="-6.39911200851202">
        <ele>72.719999999999999</ele>
        <time>2026-07-08T10:35:28Z</time>
      </trkpt>
      <trkpt lat="53.801357997581363" lon="-6.399552980437875">
        <ele>88.099999999999994</ele>
        <time>2026-07-08T10:35:44Z</time>
      </trkpt>
      <trkpt lat="53.796806959435344" lon="-6.400101995095611">
        <ele>104.92</ele>
        <time>2026-07-08T10:36:00Z</time>
      </trkpt>
      <trkpt lat="53.793941019102931" lon="-6.400440037250519">
        <ele>110.20999999999999</ele>
        <time>2026-07-08T10:36:10Z</time>
      </trkpt>
      <trkpt lat="53.791441032662988" lon="-6.400736002251506">
        <ele>113.56999999999999</ele>
        <time>2026-07-08T10:36:19Z</time>
      </trkpt>
      <trkpt lat="53.787911999970675" lon="-6.401158031076193">
        <ele>117.42</ele>
        <time>2026-07-08T10:36:31Z</time>
      </trkpt>
      <trkpt lat="53.785284021869302" lon="-6.401467993855476">
        <ele>125.11</ele>
        <time>2026-07-08T10:36:40Z</time>
      </trkpt>
      <trkpt lat="53.783314023166895" lon="-6.401815004646778">
        <ele>129.91999999999999</ele>
        <time>2026-07-08T10:36:48Z</time>
      </trkpt>
      <trkpt lat="53.780719991773367" lon="-6.402556970715523">
        <ele>137.61000000000001</ele>
        <time>2026-07-08T10:36:59Z</time>
      </trkpt>
      <trkpt lat="53.778386972844601" lon="-6.40366698615253">
        <ele>140.00999999999999</ele>
        <time>2026-07-08T10:37:10Z</time>
      </trkpt>
      <trkpt lat="53.776697013527155" lon="-6.404626965522766">
        <ele>139.53</ele>
        <time>2026-07-08T10:37:19Z</time>
      </trkpt>
      <trkpt lat="53.775339983403683" lon="-6.404637023806572">
        <ele>137.13</ele>
        <time>2026-07-08T10:37:26Z</time>
      </trkpt>
      <trkpt lat="53.774398025125265" lon="-6.404509032145143">
        <ele>135.68000000000001</ele>
        <time>2026-07-08T10:37:33Z</time>
      </trkpt>
      <trkpt lat="53.773049041628838" lon="-6.404052972793579">
        <ele>133.75999999999999</ele>
        <time>2026-07-08T10:37:42Z</time>
      </trkpt>
      <trkpt lat="53.771432004868984" lon="-6.402534004300833">
        <ele>132.31999999999999</ele>
        <time>2026-07-08T10:37:52Z</time>
      </trkpt>
      <trkpt lat="53.77082196995616" lon="-6.401807963848114">
        <ele>132.31999999999999</ele>
        <time>2026-07-08T10:37:58Z</time>
      </trkpt>
      <trkpt lat="53.770771007984877" lon="-6.401747027412057">
        <ele>132.31999999999999</ele>
        <time>2026-07-08T10:37:59Z</time>
      </trkpt>
      <trkpt lat="53.77073597162962" lon="-6.401704028248787">
        <ele>132.31999999999999</ele>
        <time>2026-07-08T10:38:00Z</time>
      </trkpt>
      <trkpt lat="53.770708981901407" lon="-6.401784997433424">
        <ele>132.31999999999999</ele>
        <time>2026-07-08T10:38:01Z</time>
      </trkpt>
      <trkpt lat="53.770704958587885" lon="-6.401834031566978">
        <ele>132.31999999999999</ele>
        <time>2026-07-08T10:38:02Z</time>
      </trkpt>
      <trkpt lat="53.770699007436633" lon="-6.401907037943602">
        <ele>132.31999999999999</ele>
        <time>2026-07-08T10:38:03Z</time>
      </trkpt>
      <trkpt lat="53.770690960809588" lon="-6.402008039876819">
        <ele>132.31999999999999</ele>
        <time>2026-07-08T10:38:04Z</time>
      </trkpt>
      <trkpt lat="53.770680986344814" lon="-6.402137037366629">
        <ele>131.84</ele>
        <time>2026-07-08T10:38:05Z</time>
      </trkpt>
      <trkpt lat="53.770592976361513" lon="-6.403231965377927">
        <ele>125.11</ele>
        <time>2026-07-08T10:38:14Z</time>
      </trkpt>
      <trkpt lat="53.77058400772512" lon="-6.40334595926106">
        <ele>123.67</ele>
        <time>2026-07-08T10:38:16Z</time>
      </trkpt>
      <trkpt lat="53.770579984411597" lon="-6.403400022536516">
        <ele>122.70999999999999</ele>
        <time>2026-07-08T10:38:17Z</time>
      </trkpt>
      <trkpt lat="53.770572021603584" lon="-6.403502030298114">
        <ele>121.73999999999999</ele>
        <time>2026-07-08T10:38:19Z</time>
      </trkpt>
      <trkpt lat="53.770569004118443" lon="-6.403543017804623">
        <ele>121.26000000000001</ele>
        <time>2026-07-08T10:38:20Z</time>
      </trkpt>
      <trkpt lat="53.770565986633301" lon="-6.403576964512467">
        <ele>120.78</ele>
        <time>2026-07-08T10:38:21Z</time>
      </trkpt>
      <trkpt lat="53.770495997741818" lon="-6.403500018641353">
        <ele>119.34</ele>
        <time>2026-07-08T10:38:26Z</time>
      </trkpt>
      <trkpt lat="53.770578978583217" lon="-6.403415026143193">
        <ele>116.94</ele>
        <time>2026-07-08T10:38:33Z</time>
      </trkpt>
      <trkpt lat="53.770587025210261" lon="-6.403315030038357">
        <ele>116.94</ele>
        <time>2026-07-08T10:38:34Z</time>
      </trkpt>
      <trkpt lat="53.770596999675035" lon="-6.403179997578263">
        <ele>116.94</ele>
        <time>2026-07-08T10:38:35Z</time>
      </trkpt>
      <trkpt lat="53.770690960809588" lon="-6.402009967714548">
        <ele>121.26000000000001</ele>
        <time>2026-07-08T10:38:42Z</time>
      </trkpt>
      <trkpt lat="53.770694984123111" lon="-6.401960011571646">
        <ele>122.22</ele>
        <time>2026-07-08T10:38:43Z</time>
      </trkpt>
      <trkpt lat="53.770700013265014" lon="-6.401896979659796">
        <ele>124.15000000000001</ele>
        <time>2026-07-08T10:38:50Z</time>
      </trkpt>
      <trkpt lat="53.770795986056328" lon="-6.401777034625411">
        <ele>124.63</ele>
        <time>2026-07-08T10:38:51Z</time>
      </trkpt>
      <trkpt lat="53.770839991047978" lon="-6.401829002425075">
        <ele>125.11</ele>
        <time>2026-07-08T10:38:52Z</time>
      </trkpt>
      <trkpt lat="53.770910985767841" lon="-6.401912989094853">
        <ele>125.59</ele>
        <time>2026-07-08T10:38:53Z</time>
      </trkpt>
      <trkpt lat="53.770995978266001" lon="-6.40201399102807">
        <ele>126.06999999999999</ele>
        <time>2026-07-08T10:38:54Z</time>
      </trkpt>
      <trkpt lat="53.771095974370837" lon="-6.402134019881487">
        <ele>126.06999999999999</ele>
        <time>2026-07-08T10:38:55Z</time>
      </trkpt>
      <trkpt lat="53.771930979564786" lon="-6.403106991201639">
        <ele>126.55</ele>
        <time>2026-07-08T10:39:01Z</time>
      </trkpt>
      <trkpt lat="53.773301001638174" lon="-6.404382968321443">
        <ele>127.51000000000001</ele>
        <time>2026-07-08T10:39:10Z</time>
      </trkpt>
      <trkpt lat="53.774335999041796" lon="-6.40506299212575">
        <ele>126.06999999999999</ele>
        <time>2026-07-08T10:39:19Z</time>
      </trkpt>
      <trkpt lat="53.774936981499195" lon="-6.405167011544108">
        <ele>122.22</ele>
        <time>2026-07-08T10:39:26Z</time>
      </trkpt>
      <trkpt lat="53.775050975382328" lon="-6.40530196018517">
        <ele>121.26000000000001</ele>
        <time>2026-07-08T10:39:29Z</time>
      </trkpt>
      <trkpt lat="53.775050975382328" lon="-6.405378989875317">
        <ele>121.26000000000001</ele>
        <time>2026-07-08T10:39:30Z</time>
      </trkpt>
      <trkpt lat="53.775050975382328" lon="-6.405464988201857">
        <ele>120.78</ele>
        <time>2026-07-08T10:39:31Z</time>
      </trkpt>
      <trkpt lat="53.775050975382328" lon="-6.405565990135074">
        <ele>120.78</ele>
        <time>2026-07-08T10:39:32Z</time>
      </trkpt>
      <trkpt lat="53.775050975382328" lon="-6.405608989298344">
        <ele>120.3</ele>
        <time>2026-07-08T10:39:33Z</time>
      </trkpt>
      <trkpt lat="53.775073019787669" lon="-6.405759025365114">
        <ele>119.81999999999999</ele>
        <time>2026-07-08T10:39:34Z</time>
      </trkpt>
      <trkpt lat="53.775134962052107" lon="-6.405967986211181">
        <ele>119.81999999999999</ele>
        <time>2026-07-08T10:39:35Z</time>
      </trkpt>
      <trkpt lat="53.775188019499183" lon="-6.40613897703588">
        <ele>119.81999999999999</ele>
        <time>2026-07-08T10:39:36Z</time>
      </trkpt>
      <trkpt lat="53.775243004783988" lon="-6.406320026144385">
        <ele>119.81999999999999</ele>
        <time>2026-07-08T10:39:37Z</time>
      </trkpt>
      <trkpt lat="53.775287009775639" lon="-6.406466960906982">
        <ele>119.81999999999999</ele>
        <time>2026-07-08T10:39:38Z</time>
      </trkpt>
      <trkpt lat="53.775432016700506" lon="-6.406668964773417">
        <ele>119.81999999999999</ele>
        <time>2026-07-08T10:39:40Z</time>
      </trkpt>
      <trkpt lat="53.775502005591989" lon="-6.407025028020144">
        <ele>120.3</ele>
        <time>2026-07-08T10:39:42Z</time>
      </trkpt>
      <trkpt lat="53.77552698366344" lon="-6.407070038840175">
        <ele>120.78</ele>
        <time>2026-07-08T10:39:43Z</time>
      </trkpt>
      <trkpt lat="53.775575011968613" lon="-6.407156037166715">
        <ele>120.78</ele>
        <time>2026-07-08T10:39:44Z</time>
      </trkpt>
      <trkpt lat="53.775651035830379" lon="-6.40721102245152">
        <ele>120.78</ele>
        <time>2026-07-08T10:39:45Z</time>
      </trkpt>
      <trkpt lat="53.775732005015016" lon="-6.407198030501604">
        <ele>120.78</ele>
        <time>2026-07-08T10:39:46Z</time>
      </trkpt>
      <trkpt lat="53.77578497864306" lon="-6.407079007476568">
        <ele>121.26000000000001</ele>
        <time>2026-07-08T10:39:47Z</time>
      </trkpt>
      <trkpt lat="53.775896960869431" lon="-6.406997032463551">
        <ele>121.26000000000001</ele>
        <time>2026-07-08T10:39:48Z</time>
      </trkpt>
      <trkpt lat="53.775993017479777" lon="-6.407015975564718">
        <ele>121.73999999999999</ele>
        <time>2026-07-08T10:39:49Z</time>
      </trkpt>
      <trkpt lat="53.77610600553453" lon="-6.407038019970059">
        <ele>121.73999999999999</ele>
        <time>2026-07-08T10:39:50Z</time>
      </trkpt>
      <trkpt lat="53.776224022731185" lon="-6.40706199221313">
        <ele>121.73999999999999</ele>
        <time>2026-07-08T10:39:51Z</time>
      </trkpt>
      <trkpt lat="53.776348996907473" lon="-6.407086970284581">
        <ele>122.22</ele>
        <time>2026-07-08T10:39:52Z</time>
      </trkpt>
      <trkpt lat="53.777291039004922" lon="-6.407875036820769">
        <ele>127.51000000000001</ele>
        <time>2026-07-08T10:39:59Z</time>
      </trkpt>
      <trkpt lat="53.778730966150761" lon="-6.408970970660448">
        <ele>134.24000000000001</ele>
        <time>2026-07-08T10:40:08Z</time>
      </trkpt>
      <trkpt lat="53.779503023251891" lon="-6.409631967544556">
        <ele>138.56999999999999</ele>
        <time>2026-07-08T10:40:14Z</time>
      </trkpt>
      <trkpt lat="53.779707960784435" lon="-6.409857021644712">
        <ele>140.97</ele>
        <time>2026-07-08T10:40:18Z</time>
      </trkpt>
      <trkpt lat="53.779736962169409" lon="-6.409938996657729">
        <ele>141.44999999999999</ele>
        <time>2026-07-08T10:40:19Z</time>
      </trkpt>
      <trkpt lat="53.779762024059892" lon="-6.410008985549212">
        <ele>142.41</ele>
        <time>2026-07-08T10:40:20Z</time>
      </trkpt>
      <trkpt lat="53.779789013788104" lon="-6.410086015239358">
        <ele>142.88999999999999</ele>
        <time>2026-07-08T10:40:21Z</time>
      </trkpt>
      <trkpt lat="53.779813991859555" lon="-6.410194979980588">
        <ele>143.84999999999999</ele>
        <time>2026-07-08T10:40:22Z</time>
      </trkpt>
      <trkpt lat="53.779793037101626" lon="-6.411428041756153">
        <ele>144.34</ele>
        <time>2026-07-08T10:40:29Z</time>
      </trkpt>
      <trkpt lat="53.779785996302962" lon="-6.411850992590189">
        <ele>143.84999999999999</ele>
        <time>2026-07-08T10:40:31Z</time>
      </trkpt>
      <trkpt lat="53.77978197298944" lon="-6.412057019770145">
        <ele>143.84999999999999</ele>
        <time>2026-07-08T10:40:32Z</time>
      </trkpt>
      <trkpt lat="53.77977903932333" lon="-6.412262041121721">
        <ele>143.37</ele>
        <time>2026-07-08T10:40:33Z</time>
      </trkpt>
      <trkpt lat="53.779737967997789" lon="-6.414629006758332">
        <ele>136.16</ele>
        <time>2026-07-08T10:40:45Z</time>
      </trkpt>
      <trkpt lat="53.779651969671249" lon="-6.415771963074803">
        <ele>133.28</ele>
        <time>2026-07-08T10:40:51Z</time>
      </trkpt>
      <trkpt lat="53.779605031013489" lon="-6.416069017723203">
        <ele>132.31999999999999</ele>
        <time>2026-07-08T10:40:53Z</time>
      </trkpt>
      <trkpt lat="53.779568988829851" lon="-6.416186029091477">
        <ele>132.31999999999999</ele>
        <time>2026-07-08T10:40:54Z</time>
      </trkpt>
      <trkpt lat="53.779521966353059" lon="-6.416315026581287">
        <ele>131.84</ele>
        <time>2026-07-08T10:40:55Z</time>
      </trkpt>
      <trkpt lat="53.779397998005152" lon="-6.416493980214">
        <ele>131.84</ele>
        <time>2026-07-08T10:40:57Z</time>
      </trkpt>
      <trkpt lat="53.779302025213838" lon="-6.416586013510823">
        <ele>131.36000000000001</ele>
        <time>2026-07-08T10:40:58Z</time>
      </trkpt>
      <trkpt lat="53.779232036322355" lon="-6.416606968268752">
        <ele>130.88</ele>
        <time>2026-07-08T10:40:59Z</time>
      </trkpt>
      <trkpt lat="53.779166992753744" lon="-6.416625995188952">
        <ele>130.40000000000001</ele>
        <time>2026-07-08T10:41:00Z</time>
      </trkpt>
      <trkpt lat="53.77907101996243" lon="-6.416590036824346">
        <ele>129.43000000000001</ele>
        <time>2026-07-08T10:41:01Z</time>
      </trkpt>
      <trkpt lat="53.779009999707341" lon="-6.416538991034031">
        <ele>128.94999999999999</ele>
        <time>2026-07-08T10:41:02Z</time>
      </trkpt>
      <trkpt lat="53.778945039957762" lon="-6.416433965787292">
        <ele>128.47</ele>
        <time>2026-07-08T10:41:03Z</time>
      </trkpt>
      <trkpt lat="53.778889970853925" lon="-6.416335981339216">
        <ele>127.51000000000001</ele>
        <time>2026-07-08T10:41:04Z</time>
      </trkpt>
      <trkpt lat="53.778831968083978" lon="-6.416231961920857">
        <ele>127.03</ele>
        <time>2026-07-08T10:41:05Z</time>
      </trkpt>
      <trkpt lat="53.778760973364115" lon="-6.416189968585968">
        <ele>126.06999999999999</ele>
        <time>2026-07-08T10:41:06Z</time>
      </trkpt>
      <trkpt lat="53.778677992522717" lon="-6.416196003556252">
        <ele>125.11</ele>
        <time>2026-07-08T10:41:07Z</time>
      </trkpt>
      <trkpt lat="53.778586965054274" lon="-6.416202038526535">
        <ele>124.15000000000001</ele>
        <time>2026-07-08T10:41:08Z</time>
      </trkpt>
      <trkpt lat="53.778484035283327" lon="-6.416208995506167">
        <ele>123.67</ele>
        <time>2026-07-08T10:41:09Z</time>
      </trkpt>
      <trkpt lat="53.778384039178491" lon="-6.416248977184296">
        <ele>123.19</ele>
        <time>2026-07-08T10:41:10Z</time>
      </trkpt>
      <trkpt lat="53.777813985943794" lon="-6.416479982435703">
        <ele>120.3</ele>
        <time>2026-07-08T10:41:17Z</time>
      </trkpt>
      <trkpt lat="53.777747014537454" lon="-6.416506972163916">
        <ele>118.38</ele>
        <time>2026-07-08T10:41:21Z</time>
      </trkpt>
      <trkpt lat="53.77773997373879" lon="-6.416509989649057">
        <ele>117.90000000000001</ele>
        <time>2026-07-08T10:41:22Z</time>
      </trkpt>
      <trkpt lat="53.777733016759157" lon="-6.416363976895809">
        <ele>116.94</ele>
        <time>2026-07-08T10:41:25Z</time>
      </trkpt>
      <trkpt lat="53.777704015374184" lon="-6.416318966075778">
        <ele>116.45999999999999</ele>
        <time>2026-07-08T10:41:28Z</time>
      </trkpt>
      <trkpt lat="53.777719018980861" lon="-6.416243026033044">
        <ele>115.01000000000001</ele>
        <time>2026-07-08T10:41:39Z</time>
      </trkpt>
      <trkpt lat="53.777708960697055" lon="-6.416251994669437">
        <ele>115.01000000000001</ele>
        <time>2026-07-08T10:41:56Z</time>
      </trkpt>
      <trkpt lat="53.777729999274015" lon="-6.416268004104495">
        <ele>136.63999999999999</ele>
        <time>2026-07-08T11:21:23Z</time>
      </trkpt>
      <trkpt lat="53.777731005102396" lon="-6.416242020204663">
        <ele>130.88</ele>
        <time>2026-07-08T11:22:05Z</time>
      </trkpt>
      <trkpt lat="53.77773997373879" lon="-6.416226010769606">
        <ele>125.11</ele>
        <time>2026-07-08T11:22:51Z</time>
      </trkpt>
      <trkpt lat="53.777738967910409" lon="-6.416227016597986">
        <ele>129.43000000000001</ele>
        <time>2026-07-08T11:23:37Z</time>
      </trkpt>
      <trkpt lat="53.777780961245298" lon="-6.416481994092464">
        <ele>128.47</ele>
        <time>2026-07-08T11:23:46Z</time>
      </trkpt>
      <trkpt lat="53.777789007872343" lon="-6.416490040719509">
        <ele>128.47</ele>
        <time>2026-07-08T11:23:50Z</time>
      </trkpt>
      <trkpt lat="53.77782597206533" lon="-6.416475037112832">
        <ele>127.98999999999999</ele>
        <time>2026-07-08T11:23:52Z</time>
      </trkpt>
      <trkpt lat="53.777872994542122" lon="-6.416457016021013">
        <ele>127.98999999999999</ele>
        <time>2026-07-08T11:23:53Z</time>
      </trkpt>
      <trkpt lat="53.777950024232268" lon="-6.416424997150898">
        <ele>127.98999999999999</ele>
        <time>2026-07-08T11:23:54Z</time>
      </trkpt>
      <trkpt lat="53.778029987588525" lon="-6.416392978280783">
        <ele>127.98999999999999</ele>
        <time>2026-07-08T11:23:55Z</time>
      </trkpt>
      <trkpt lat="53.778182035312057" lon="-6.416332041844726">
        <ele>127.51000000000001</ele>
        <time>2026-07-08T11:23:57Z</time>
      </trkpt>
      <trkpt lat="53.77825696952641" lon="-6.416301028802991">
        <ele>127.51000000000001</ele>
        <time>2026-07-08T11:23:58Z</time>
      </trkpt>
      <trkpt lat="53.778335005044937" lon="-6.416269009932876">
        <ele>127.51000000000001</ele>
        <time>2026-07-08T11:23:59Z</time>
      </trkpt>
      <trkpt lat="53.77864396199584" lon="-6.416198015213013">
        <ele>127.98999999999999</ele>
        <time>2026-07-08T11:24:03Z</time>
      </trkpt>
      <trkpt lat="53.778707999736071" lon="-6.41619399189949">
        <ele>127.98999999999999</ele>
        <time>2026-07-08T11:24:04Z</time>
      </trkpt>
      <trkpt lat="53.778767008334398" lon="-6.416189968585968">
        <ele>127.98999999999999</ele>
        <time>2026-07-08T11:24:05Z</time>
      </trkpt>
      <trkpt lat="53.77881302498281" lon="-6.416199021041393">
        <ele>128.47</ele>
        <time>2026-07-08T11:24:06Z</time>
      </trkpt>
      <trkpt lat="53.778853006660938" lon="-6.416270015761256">
        <ele>128.94999999999999</ele>
        <time>2026-07-08T11:24:07Z</time>
      </trkpt>
      <trkpt lat="53.778904974460602" lon="-6.416361965239048">
        <ele>129.43000000000001</ele>
        <time>2026-07-08T11:24:08Z</time>
      </trkpt>
      <trkpt lat="53.779045036062598" lon="-6.416567992419004">
        <ele>131.36000000000001</ele>
        <time>2026-07-08T11:24:10Z</time>
      </trkpt>
      <trkpt lat="53.779121981933713" lon="-6.416633035987616">
        <ele>132.31999999999999</ele>
        <time>2026-07-08T11:24:11Z</time>
      </trkpt>
      <trkpt lat="53.779216026887298" lon="-6.416611997410655">
        <ele>133.28</ele>
        <time>2026-07-08T11:24:12Z</time>
      </trkpt>
      <trkpt lat="53.779284004122019" lon="-6.416590958833695">
        <ele>133.75999999999999</ele>
        <time>2026-07-08T11:24:13Z</time>
      </trkpt>
      <trkpt lat="53.779343012720346" lon="-6.416574027389288">
        <ele>134.72</ele>
        <time>2026-07-08T11:24:14Z</time>
      </trkpt>
      <trkpt lat="53.779411995783448" lon="-6.416473025456071">
        <ele>135.68000000000001</ele>
        <time>2026-07-08T11:24:15Z</time>
      </trkpt>
      <trkpt lat="53.779469998553395" lon="-6.416389960795641">
        <ele>136.16</ele>
        <time>2026-07-08T11:24:16Z</time>
      </trkpt>
      <trkpt lat="53.779530012980103" lon="-6.416303040459752">
        <ele>137.13</ele>
        <time>2026-07-08T11:24:17Z</time>
      </trkpt>
      <trkpt lat="53.77956697717309" lon="-6.416194997727871">
        <ele>137.61000000000001</ele>
        <time>2026-07-08T11:24:18Z</time>
      </trkpt>
      <trkpt lat="53.779604025185108" lon="-6.416073041036725">
        <ele>138.09</ele>
        <time>2026-07-08T11:24:19Z</time>
      </trkpt>
      <trkpt lat="53.779631014913321" lon="-6.415942031890154">
        <ele>139.05000000000001</ele>
        <time>2026-07-08T11:24:20Z</time>
      </trkpt>
      <trkpt lat="53.779649036005139" lon="-6.415789984166622">
        <ele>140.00999999999999</ele>
        <time>2026-07-08T11:24:21Z</time>
      </trkpt>
      <trkpt lat="53.779669990763068" lon="-6.415623016655445">
        <ele>140.49000000000001</ele>
        <time>2026-07-08T11:24:22Z</time>
      </trkpt>
      <trkpt lat="53.779752971604466" lon="-6.413768017664552">
        <ele>147.69999999999999</ele>
        <time>2026-07-08T11:24:32Z</time>
      </trkpt>
      <trkpt lat="53.779763029888272" lon="-6.413168041035533">
        <ele>148.18000000000001</ele>
        <time>2026-07-08T11:24:35Z</time>
      </trkpt>
      <trkpt lat="53.779792031273246" lon="-6.411505993455648">
        <ele>149.13999999999999</ele>
        <time>2026-07-08T11:24:44Z</time>
      </trkpt>
      <trkpt lat="53.779808962717652" lon="-6.410485999658704">
        <ele>151.06</ele>
        <time>2026-07-08T11:24:49Z</time>
      </trkpt>
      <trkpt lat="53.779810974374413" lon="-6.41037099994719">
        <ele>151.06</ele>
        <time>2026-07-08T11:24:50Z</time>
      </trkpt>
      <trkpt lat="53.779812986031175" lon="-6.410279972478747">
        <ele>151.53999999999999</ele>
        <time>2026-07-08T11:24:51Z</time>
      </trkpt>
      <trkpt lat="53.779813991859555" lon="-6.410216018557549">
        <ele>151.53999999999999</ele>
        <time>2026-07-08T11:24:52Z</time>
      </trkpt>
      <trkpt lat="53.779813991859555" lon="-6.41017796471715">
        <ele>151.53999999999999</ele>
        <time>2026-07-08T11:24:53Z</time>
      </trkpt>
      <trkpt lat="53.779814997687936" lon="-6.410162039101124">
        <ele>152.03</ele>
        <time>2026-07-08T11:25:04Z</time>
      </trkpt>
      <trkpt lat="53.779774010181427" lon="-6.410042010247707">
        <ele>152.03</ele>
        <time>2026-07-08T11:25:08Z</time>
      </trkpt>
      <trkpt lat="53.779741991311312" lon="-6.409952994436026">
        <ele>152.03</ele>
        <time>2026-07-08T11:25:09Z</time>
      </trkpt>
      <trkpt lat="53.779686000198126" lon="-6.40983397141099">
        <ele>152.03</ele>
        <time>2026-07-08T11:25:10Z</time>
      </trkpt>
      <trkpt lat="53.779004970565438" lon="-6.409179009497166">
        <ele>149.13999999999999</ele>
        <time>2026-07-08T11:25:16Z</time>
      </trkpt>
      <trkpt lat="53.777496982365847" lon="-6.408038986846805">
        <ele>141.44999999999999</ele>
        <time>2026-07-08T11:25:26Z</time>
      </trkpt>
      <trkpt lat="53.776175994426012" lon="-6.407053023576737">
        <ele>130.88</ele>
        <time>2026-07-08T11:25:37Z</time>
      </trkpt>
      <trkpt lat="53.775945995002985" lon="-6.407007006928325">
        <ele>126.06999999999999</ele>
        <time>2026-07-08T11:25:40Z</time>
      </trkpt>
      <trkpt lat="53.775896038860083" lon="-6.406997032463551">
        <ele>124.63</ele>
        <time>2026-07-08T11:25:41Z</time>
      </trkpt>
      <trkpt lat="53.77584801055491" lon="-6.406986974179745">
        <ele>123.19</ele>
        <time>2026-07-08T11:25:42Z</time>
      </trkpt>
      <trkpt lat="53.77580601722002" lon="-6.406883038580418">
        <ele>121.73999999999999</ele>
        <time>2026-07-08T11:25:43Z</time>
      </trkpt>
      <trkpt lat="53.775781039148569" lon="-6.406745994463563">
        <ele>120.78</ele>
        <time>2026-07-08T11:25:44Z</time>
      </trkpt>
      <trkpt lat="53.775733010843396" lon="-6.406711963936687">
        <ele>120.3</ele>
        <time>2026-07-08T11:25:45Z</time>
      </trkpt>
      <trkpt lat="53.77567601390183" lon="-6.406670976430178">
        <ele>119.81999999999999</ele>
        <time>2026-07-08T11:25:46Z</time>
      </trkpt>
      <trkpt lat="53.775631003081799" lon="-6.406639041379094">
        <ele>119.34</ele>
        <time>2026-07-08T11:25:47Z</time>
      </trkpt>
      <trkpt lat="53.775541987270117" lon="-6.406726967543364">
        <ele>119.34</ele>
        <time>2026-07-08T11:25:48Z</time>
      </trkpt>
      <trkpt lat="53.775430005043745" lon="-6.406666031107307">
        <ele>118.86</ele>
        <time>2026-07-08T11:25:49Z</time>
      </trkpt>
      <trkpt lat="53.775361021980643" lon="-6.406570980325341">
        <ele>118.38</ele>
        <time>2026-07-08T11:25:50Z</time>
      </trkpt>
      <trkpt lat="53.775287009775639" lon="-6.406466960906982">
        <ele>118.38</ele>
        <time>2026-07-08T11:25:51Z</time>
      </trkpt>
      <trkpt lat="53.775240993127227" lon="-6.406313991174102">
        <ele>117.90000000000001</ele>
        <time>2026-07-08T11:25:52Z</time>
      </trkpt>
      <trkpt lat="53.775191958993673" lon="-6.406152974814177">
        <ele>117.90000000000001</ele>
        <time>2026-07-08T11:25:53Z</time>
      </trkpt>
      <trkpt lat="53.775144014507532" lon="-6.405994975939393">
        <ele>117.42</ele>
        <time>2026-07-08T11:25:54Z</time>
      </trkpt>
      <trkpt lat="53.775073019787669" lon="-6.405759025365114">
        <ele>116.94</ele>
        <time>2026-07-08T11:25:55Z</time>
      </trkpt>
      <trkpt lat="53.775060027837753" lon="-6.405666992068291">
        <ele>116.45999999999999</ele>
        <time>2026-07-08T11:25:56Z</time>
      </trkpt>
      <trkpt lat="53.775050975382328" lon="-6.405508993193507">
        <ele>116.94</ele>
        <time>2026-07-08T11:25:57Z</time>
      </trkpt>
      <trkpt lat="53.775050975382328" lon="-6.404795022681356">
        <ele>117.42</ele>
        <time>2026-07-08T11:26:03Z</time>
      </trkpt>
      <trkpt lat="53.775050975382328" lon="-6.404642974957824">
        <ele>117.42</ele>
        <time>2026-07-08T11:26:04Z</time>
      </trkpt>
      <trkpt lat="53.77505499869585" lon="-6.404495034366846">
        <ele>117.42</ele>
        <time>2026-07-08T11:26:05Z</time>
      </trkpt>
      <trkpt lat="53.775059022009373" lon="-6.404347009956837">
        <ele>117.42</ele>
        <time>2026-07-08T11:26:06Z</time>
      </trkpt>
      <trkpt lat="53.775062039494514" lon="-6.404213989153504">
        <ele>117.90000000000001</ele>
        <time>2026-07-08T11:26:07Z</time>
      </trkpt>
      <trkpt lat="53.775067990645766" lon="-6.403961023315787">
        <ele>119.34</ele>
        <time>2026-07-08T11:26:12Z</time>
      </trkpt>
      <trkpt lat="53.775068996474147" lon="-6.403915006667376">
        <ele>120.78</ele>
        <time>2026-07-08T11:26:19Z</time>
      </trkpt>
      <trkpt lat="53.775025997310877" lon="-6.403789026662707">
        <ele>121.26000000000001</ele>
        <time>2026-07-08T11:26:20Z</time>
      </trkpt>
      <trkpt lat="53.774977969005704" lon="-6.403793971985579">
        <ele>121.73999999999999</ele>
        <time>2026-07-08T11:26:21Z</time>
      </trkpt>
      <trkpt lat="53.774906974285841" lon="-6.403801012784243">
        <ele>121.73999999999999</ele>
        <time>2026-07-08T11:26:22Z</time>
      </trkpt>
      <trkpt lat="53.774817958474159" lon="-6.403809981420636">
        <ele>122.22</ele>
        <time>2026-07-08T11:26:23Z</time>
      </trkpt>
      <trkpt lat="53.774713017046452" lon="-6.403820039704442">
        <ele>122.22</ele>
        <time>2026-07-08T11:26:24Z</time>
      </trkpt>
      <trkpt lat="53.773653041571379" lon="-6.403788020834327">
        <ele>124.63</ele>
        <time>2026-07-08T11:26:31Z</time>
      </trkpt>
      <trkpt lat="53.772283019497991" lon="-6.403184020891786">
        <ele>127.03</ele>
        <time>2026-07-08T11:26:39Z</time>
      </trkpt>
      <trkpt lat="53.770837979391217" lon="-6.401825984939933">
        <ele>127.03</ele>
        <time>2026-07-08T11:26:48Z</time>
      </trkpt>
      <trkpt lat="53.769851010292768" lon="-6.400621002539992">
        <ele>128.47</ele>
        <time>2026-07-08T11:26:56Z</time>
      </trkpt>
      <trkpt lat="53.768186029046774" lon="-6.398601969704032">
        <ele>132.80000000000001</ele>
        <time>2026-07-08T11:27:11Z</time>
      </trkpt>
      <trkpt lat="53.767112977802753" lon="-6.397281987592578">
        <ele>136.63999999999999</ele>
        <time>2026-07-08T11:27:19Z</time>
      </trkpt>
      <trkpt lat="53.765222020447254" lon="-6.395104033872485">
        <ele>140.49000000000001</ele>
        <time>2026-07-08T11:27:31Z</time>
      </trkpt>
      <trkpt lat="53.763443967327476" lon="-6.393647007644177">
        <ele>137.61000000000001</ele>
        <time>2026-07-08T11:27:42Z</time>
      </trkpt>
      <trkpt lat="53.761509004980326" lon="-6.391968028619885">
        <ele>133.28</ele>
        <time>2026-07-08T11:27:51Z</time>
      </trkpt>
      <trkpt lat="53.759545963257551" lon="-6.389438034966588">
        <ele>128.94999999999999</ele>
        <time>2026-07-08T11:28:01Z</time>
      </trkpt>
      <trkpt lat="53.757437998428941" lon="-6.38665096834302">
        <ele>122.70999999999999</ele>
        <time>2026-07-08T11:28:13Z</time>
      </trkpt>
      <trkpt lat="53.755440004169941" lon="-6.384280985221267">
        <ele>112.61</ele>
        <time>2026-07-08T11:28:24Z</time>
      </trkpt>
      <trkpt lat="53.75333396717906" lon="-6.382717005908489">
        <ele>99.629999999999995</ele>
        <time>2026-07-08T11:28:34Z</time>
      </trkpt>
      <trkpt lat="53.751521967351437" lon="-6.381993982940912">
        <ele>89.060000000000002</ele>
        <time>2026-07-08T11:28:43Z</time>
      </trkpt>
      <trkpt lat="53.748661978170276" lon="-6.381716039031744">
        <ele>77.519999999999996</ele>
        <time>2026-07-08T11:28:54Z</time>
      </trkpt>
      <trkpt lat="53.74435099773109" lon="-6.381463995203376">
        <ele>65.989999999999995</ele>
        <time>2026-07-08T11:29:12Z</time>
      </trkpt>
      <trkpt lat="53.741527972742915" lon="-6.381288981065154">
        <ele>59.259999999999998</ele>
        <time>2026-07-08T11:29:24Z</time>
      </trkpt>
      <trkpt lat="53.739874977618456" lon="-6.381183033809066">
        <ele>54.93</ele>
        <time>2026-07-08T11:29:31Z</time>
      </trkpt>
      <trkpt lat="53.737104004248977" lon="-6.380904000252485">
        <ele>50.609999999999999</ele>
        <time>2026-07-08T11:29:43Z</time>
      </trkpt>
      <trkpt lat="53.735341960564256" lon="-6.380018033087254">
        <ele>49.159999999999997</ele>
        <time>2026-07-08T11:29:52Z</time>
      </trkpt>
      <trkpt lat="53.733878983184695" lon="-6.37852898798883">
        <ele>49.649999999999999</ele>
        <time>2026-07-08T11:30:00Z</time>
      </trkpt>
      <trkpt lat="53.732741978019476" lon="-6.376758981496096">
        <ele>49.649999999999999</ele>
        <time>2026-07-08T11:30:08Z</time>
      </trkpt>
      <trkpt lat="53.731506988406181" lon="-6.374797029420734">
        <ele>48.200000000000003</ele>
        <time>2026-07-08T11:30:20Z</time>
      </trkpt>
      <trkpt lat="53.73118101619184" lon="-6.374272992834449">
        <ele>48.68</ele>
        <time>2026-07-08T11:30:24Z</time>
      </trkpt>
      <trkpt lat="53.731118990108371" lon="-6.374171990901232">
        <ele>49.159999999999997</ele>
        <time>2026-07-08T11:30:25Z</time>
      </trkpt>
      <trkpt lat="53.731148997321725" lon="-6.373830009251833">
        <ele>49.649999999999999</ele>
        <time>2026-07-08T11:30:26Z</time>
      </trkpt>
      <trkpt lat="53.73113801702857" lon="-6.373790027573705">
        <ele>50.130000000000003</ele>
        <time>2026-07-08T11:30:27Z</time>
      </trkpt>
      <trkpt lat="53.731068028137088" lon="-6.373649965971708">
        <ele>50.609999999999999</ele>
        <time>2026-07-08T11:30:28Z</time>
      </trkpt>
      <trkpt lat="53.731001978740096" lon="-6.373596992343664">
        <ele>50.609999999999999</ele>
        <time>2026-07-08T11:30:29Z</time>
      </trkpt>
      <trkpt lat="53.730924027040601" lon="-6.373647032305598">
        <ele>50.609999999999999</ele>
        <time>2026-07-08T11:30:30Z</time>
      </trkpt>
      <trkpt lat="53.730851020663977" lon="-6.373699000105262">
        <ele>50.130000000000003</ele>
        <time>2026-07-08T11:30:31Z</time>
      </trkpt>
      <trkpt lat="53.730822019279003" lon="-6.373798996210098">
        <ele>49.649999999999999</ele>
        <time>2026-07-08T11:30:32Z</time>
      </trkpt>
      <trkpt lat="53.730787988752127" lon="-6.373923970386386">
        <ele>49.649999999999999</ele>
        <time>2026-07-08T11:30:33Z</time>
      </trkpt>
      <trkpt lat="53.730783965438604" lon="-6.373936962336302">
        <ele>49.649999999999999</ele>
        <time>2026-07-08T11:30:34Z</time>
      </trkpt>
      <trkpt lat="53.730849009007215" lon="-6.374133015051484">
        <ele>49.649999999999999</ele>
        <time>2026-07-08T11:30:35Z</time>
      </trkpt>
      <trkpt lat="53.730817995965481" lon="-6.37442696839571">
        <ele>49.159999999999997</ele>
        <time>2026-07-08T11:30:36Z</time>
      </trkpt>
      <trkpt lat="53.730781031772494" lon="-6.374601982533932">
        <ele>48.68</ele>
        <time>2026-07-08T11:30:37Z</time>
      </trkpt>
      <trkpt lat="53.730745995417237" lon="-6.374801974743605">
        <ele>47.719999999999999</ele>
        <time>2026-07-08T11:30:38Z</time>
      </trkpt>
      <trkpt lat="53.730709031224251" lon="-6.375017976388335">
        <ele>47.240000000000002</ele>
        <time>2026-07-08T11:30:39Z</time>
      </trkpt>
      <trkpt lat="53.730669971555471" lon="-6.375246969982982">
        <ele>46.280000000000001</ele>
        <time>2026-07-08T11:30:40Z</time>
      </trkpt>
      <trkpt lat="53.730318015441298" lon="-6.37741100974381">
        <ele>43.399999999999999</ele>
        <time>2026-07-08T11:30:48Z</time>
      </trkpt>
      <trkpt lat="53.729897998273373" lon="-6.381059987470508">
        <ele>40.509999999999998</ele>
        <time>2026-07-08T11:31:00Z</time>
      </trkpt>
      <trkpt lat="53.729365998879075" lon="-6.384923961013556">
        <ele>37.630000000000003</ele>
        <time>2026-07-08T11:31:12Z</time>
      </trkpt>
      <trkpt lat="53.72909601777792" lon="-6.386204967275262">
        <ele>36.670000000000002</ele>
        <time>2026-07-08T11:31:18Z</time>
      </trkpt>
      <trkpt lat="53.729016976431012" lon="-6.386492969468236">
        <ele>36.670000000000002</ele>
        <time>2026-07-08T11:31:21Z</time>
      </trkpt>
      <trkpt lat="53.728873981162906" lon="-6.386576034128666">
        <ele>36.670000000000002</ele>
        <time>2026-07-08T11:31:22Z</time>
      </trkpt>
      <trkpt lat="53.728873981162906" lon="-6.386576034128666">
        <ele>36.670000000000002</ele>
        <time>2026-07-08T11:31:23Z</time>
      </trkpt>
      <trkpt lat="53.728807009756565" lon="-6.386630013585091">
        <ele>36.670000000000002</ele>
        <time>2026-07-08T11:31:24Z</time>
      </trkpt>
      <trkpt lat="53.728741966187954" lon="-6.386747024953365">
        <ele>36.670000000000002</ele>
        <time>2026-07-08T11:31:25Z</time>
      </trkpt>
      <trkpt lat="53.728706007823348" lon="-6.38686596415937">
        <ele>37.149999999999999</ele>
        <time>2026-07-08T11:31:26Z</time>
      </trkpt>
      <trkpt lat="53.728736015036702" lon="-6.386967971920967">
        <ele>37.630000000000003</ele>
        <time>2026-07-08T11:31:27Z</time>
      </trkpt>
      <trkpt lat="53.728758981451392" lon="-6.387216998264194">
        <ele>37.630000000000003</ele>
        <time>2026-07-08T11:31:28Z</time>
      </trkpt>
      <trkpt lat="53.728720005601645" lon="-6.387357981875539">
        <ele>37.149999999999999</ele>
        <time>2026-07-08T11:31:29Z</time>
      </trkpt>
      <trkpt lat="53.728683041408658" lon="-6.387491002678871">
        <ele>37.149999999999999</ele>
        <time>2026-07-08T11:31:30Z</time>
      </trkpt>
      <trkpt lat="53.72864699922502" lon="-6.387618994340301">
        <ele>37.630000000000003</ele>
        <time>2026-07-08T11:31:31Z</time>
      </trkpt>
      <trkpt lat="53.728610035032034" lon="-6.387753020972014">
        <ele>37.630000000000003</ele>
        <time>2026-07-08T11:31:32Z</time>
      </trkpt>
      <trkpt lat="53.728568963706493" lon="-6.387900039553642">
        <ele>37.630000000000003</ele>
        <time>2026-07-08T11:31:33Z</time>
      </trkpt>
      <trkpt lat="53.728366959840059" lon="-6.388675030320883">
        <ele>37.630000000000003</ele>
        <time>2026-07-08T11:31:38Z</time>
      </trkpt>
      <trkpt lat="53.728050040081143" lon="-6.390483006834984">
        <ele>38.109999999999999</ele>
        <time>2026-07-08T11:31:48Z</time>
      </trkpt>
      <trkpt lat="53.727997988462448" lon="-6.390891037881374">
        <ele>38.590000000000003</ele>
        <time>2026-07-08T11:31:50Z</time>
      </trkpt>
      <trkpt lat="53.727973010390997" lon="-6.391115002334118">
        <ele>39.07</ele>
        <time>2026-07-08T11:31:51Z</time>
      </trkpt>
      <trkpt lat="53.72802497819066" lon="-6.393600990995765">
        <ele>39.549999999999997</ele>
        <time>2026-07-08T11:32:03Z</time>
      </trkpt>
      <trkpt lat="53.72806797735393" lon="-6.394851990044117">
        <ele>39.549999999999997</ele>
        <time>2026-07-08T11:32:10Z</time>
      </trkpt>
      <trkpt lat="53.728060014545918" lon="-6.394958021119237">
        <ele>39.549999999999997</ele>
        <time>2026-07-08T11:32:11Z</time>
      </trkpt>
      <trkpt lat="53.72804501093924" lon="-6.395013006404042">
        <ele>40.030000000000001</ele>
        <time>2026-07-08T11:32:12Z</time>
      </trkpt>
      <trkpt lat="53.728034030646086" lon="-6.39505198225379">
        <ele>40.030000000000001</ele>
        <time>2026-07-08T11:32:13Z</time>
      </trkpt>
      <trkpt lat="53.728025984019041" lon="-6.395078971982002">
        <ele>40.030000000000001</ele>
        <time>2026-07-08T11:32:14Z</time>
      </trkpt>
      <trkpt lat="53.728018021211028" lon="-6.395104033872485">
        <ele>40.030000000000001</ele>
        <time>2026-07-08T11:32:15Z</time>
      </trkpt>
      <trkpt lat="53.728005029261112" lon="-6.395148038864136">
        <ele>39.549999999999997</ele>
        <time>2026-07-08T11:32:16Z</time>
      </trkpt>
      <trkpt lat="53.72798197902739" lon="-6.395226996392012">
        <ele>39.549999999999997</ele>
        <time>2026-07-08T11:32:17Z</time>
      </trkpt>
      <trkpt lat="53.727951971814036" lon="-6.39533101581037">
        <ele>39.549999999999997</ele>
        <time>2026-07-08T11:32:18Z</time>
      </trkpt>
      <trkpt lat="53.727883994579315" lon="-6.39541701413691">
        <ele>39.549999999999997</ele>
        <time>2026-07-08T11:32:19Z</time>
      </trkpt>
      <trkpt lat="53.727801013737917" lon="-6.39552497304976">
        <ele>39.549999999999997</ele>
        <time>2026-07-08T11:32:20Z</time>
      </trkpt>
      <trkpt lat="53.727739993482828" lon="-6.395684983581305">
        <ele>39.549999999999997</ele>
        <time>2026-07-08T11:32:21Z</time>
      </trkpt>
      <trkpt lat="53.72770101763308" lon="-6.39584700576961">
        <ele>39.549999999999997</ele>
        <time>2026-07-08T11:32:22Z</time>
      </trkpt>
      <trkpt lat="53.727660030126572" lon="-6.39601900242269">
        <ele>39.549999999999997</ele>
        <time>2026-07-08T11:32:23Z</time>
      </trkpt>
      <trkpt lat="53.727607978507876" lon="-6.396231986582279">
        <ele>40.030000000000001</ele>
        <time>2026-07-08T11:32:24Z</time>
      </trkpt>
      <trkpt lat="53.727607978507876" lon="-6.396416975185275">
        <ele>40.030000000000001</ele>
        <time>2026-07-08T11:32:25Z</time>
      </trkpt>
      <trkpt lat="53.727607978507876" lon="-6.396623002365232">
        <ele>40.509999999999998</ele>
        <time>2026-07-08T11:32:26Z</time>
      </trkpt>
      <trkpt lat="53.727613007649779" lon="-6.396845038980246">
        <ele>40.990000000000002</ele>
        <time>2026-07-08T11:32:27Z</time>
      </trkpt>
      <trkpt lat="53.727630022913218" lon="-6.397046959027648">
        <ele>40.990000000000002</ele>
        <time>2026-07-08T11:32:28Z</time>
      </trkpt>
      <trkpt lat="53.727662963792682" lon="-6.39726203866303">
        <ele>41.469999999999999</ele>
        <time>2026-07-08T11:32:29Z</time>
      </trkpt>
      <trkpt lat="53.727698000147939" lon="-6.397452978417277">
        <ele>41.469999999999999</ele>
        <time>2026-07-08T11:32:30Z</time>
      </trkpt>
      <trkpt lat="53.727759020403028" lon="-6.397615000605583">
        <ele>41.950000000000003</ele>
        <time>2026-07-08T11:32:31Z</time>
      </trkpt>
      <trkpt lat="53.727879971265793" lon="-6.39790803194046">
        <ele>42.439999999999998</ele>
        <time>2026-07-08T11:32:33Z</time>
      </trkpt>
      <trkpt lat="53.727902015671134" lon="-6.398068964481354">
        <ele>42.920000000000002</ele>
        <time>2026-07-08T11:32:34Z</time>
      </trkpt>
      <trkpt lat="53.727900004014373" lon="-6.398246996104717">
        <ele>42.920000000000002</ele>
        <time>2026-07-08T11:32:35Z</time>
      </trkpt>
      <trkpt lat="53.727875025942922" lon="-6.39844698831439">
        <ele>42.920000000000002</ele>
        <time>2026-07-08T11:32:36Z</time>
      </trkpt>
      <trkpt lat="53.727810988202691" lon="-6.398587971925736">
        <ele>42.920000000000002</ele>
        <time>2026-07-08T11:32:37Z</time>
      </trkpt>
      <trkpt lat="53.727740999311209" lon="-6.398740019649267">
        <ele>42.920000000000002</ele>
        <time>2026-07-08T11:32:38Z</time>
      </trkpt>
      <trkpt lat="53.727664975449443" lon="-6.398904975503683">
        <ele>42.920000000000002</ele>
        <time>2026-07-08T11:32:39Z</time>
      </trkpt>
      <trkpt lat="53.726891996338964" lon="-6.400580015033484">
        <ele>40.509999999999998</ele>
        <time>2026-07-08T11:32:47Z</time>
      </trkpt>
      <trkpt lat="53.725927993655205" lon="-6.40328099951148">
        <ele>35.229999999999997</ele>
        <time>2026-07-08T11:32:57Z</time>
      </trkpt>
      <trkpt lat="53.725479980930686" lon="-6.40626797452569">
        <ele>28.98</ele>
        <time>2026-07-08T11:33:06Z</time>
      </trkpt>
      <trkpt lat="53.725499007850885" lon="-6.409121006727219">
        <ele>26.57</ele>
        <time>2026-07-08T11:33:14Z</time>
      </trkpt>
      <trkpt lat="53.725940985605121" lon="-6.413424024358392">
        <ele>18.879999999999999</ele>
        <time>2026-07-08T11:33:26Z</time>
      </trkpt>
      <trkpt lat="53.726268969476223" lon="-6.416829004883766">
        <ele>14.08</ele>
        <time>2026-07-08T11:33:36Z</time>
      </trkpt>
      <trkpt lat="53.726184982806444" lon="-6.419831989333034">
        <ele>17.440000000000001</ele>
        <time>2026-07-08T11:33:45Z</time>
      </trkpt>
      <trkpt lat="53.725836966186762" lon="-6.422301968559623">
        <ele>16.960000000000001</ele>
        <time>2026-07-08T11:33:53Z</time>
      </trkpt>
      <trkpt lat="53.72529398649931" lon="-6.425460018217564">
        <ele>17.920000000000002</ele>
        <time>2026-07-08T11:34:03Z</time>
      </trkpt>
      <trkpt lat="53.725290969014168" lon="-6.425756989046931">
        <ele>18.399999999999999</ele>
        <time>2026-07-08T11:34:04Z</time>
      </trkpt>
      <trkpt lat="53.725290969014168" lon="-6.426044991239905">
        <ele>18.399999999999999</ele>
        <time>2026-07-08T11:34:05Z</time>
      </trkpt>
      <trkpt lat="53.725290969014168" lon="-6.426581013947725">
        <ele>19.359999999999999</ele>
        <time>2026-07-08T11:34:07Z</time>
      </trkpt>
      <trkpt lat="53.725246964022517" lon="-6.426820987835527">
        <ele>19.359999999999999</ele>
        <time>2026-07-08T11:34:08Z</time>
      </trkpt>
      <trkpt lat="53.72518602758646" lon="-6.427028020843864">
        <ele>19.84</ele>
        <time>2026-07-08T11:34:09Z</time>
      </trkpt>
      <trkpt lat="53.724818984046578" lon="-6.428032005205751">
        <ele>17.920000000000002</ele>
        <time>2026-07-08T11:34:14Z</time>
      </trkpt>
      <trkpt lat="53.724716976284981" lon="-6.428193021565676">
        <ele>17.440000000000001</ele>
        <time>2026-07-08T11:34:15Z</time>
      </trkpt>
      <trkpt lat="53.724614968523383" lon="-6.42835495993495">
        <ele>16.960000000000001</ele>
        <time>2026-07-08T11:34:16Z</time>
      </trkpt>
      <trkpt lat="53.723981967195868" lon="-6.429199017584324">
        <ele>17.440000000000001</ele>
        <time>2026-07-08T11:34:22Z</time>
      </trkpt>
      <trkpt lat="53.723891023546457" lon="-6.42932097427547">
        <ele>17.920000000000002</ele>
        <time>2026-07-08T11:34:23Z</time>
      </trkpt>
      <trkpt lat="53.723802007734776" lon="-6.429444020614028">
        <ele>18.399999999999999</ele>
        <time>2026-07-08T11:34:24Z</time>
      </trkpt>
      <trkpt lat="53.723638979718089" lon="-6.429667985066772">
        <ele>20.32</ele>
        <time>2026-07-08T11:34:26Z</time>
      </trkpt>
      <trkpt lat="53.723496990278363" lon="-6.429848028346896">
        <ele>21.77</ele>
        <time>2026-07-08T11:34:28Z</time>
      </trkpt>
      <trkpt lat="53.723440999165177" lon="-6.429916005581617">
        <ele>22.73</ele>
        <time>2026-07-08T11:34:29Z</time>
      </trkpt>
      <trkpt lat="53.723322981968522" lon="-6.429912988096476">
        <ele>23.210000000000001</ele>
        <time>2026-07-08T11:34:30Z</time>
      </trkpt>
      <trkpt lat="53.722530975937843" lon="-6.429818021133542">
        <ele>23.690000000000001</ele>
        <time>2026-07-08T11:34:38Z</time>
      </trkpt>
      <trkpt lat="53.722425028681755" lon="-6.429821960628033">
        <ele>23.690000000000001</ele>
        <time>2026-07-08T11:34:39Z</time>
      </trkpt>
      <trkpt lat="53.722310028970242" lon="-6.429825983941555">
        <ele>23.690000000000001</ele>
        <time>2026-07-08T11:34:40Z</time>
      </trkpt>
      <trkpt lat="53.721290035173297" lon="-6.429861020296812">
        <ele>21.289999999999999</ele>
        <time>2026-07-08T11:34:49Z</time>
      </trkpt>
      <trkpt lat="53.720730040222406" lon="-6.429916005581617">
        <ele>18.879999999999999</ele>
        <time>2026-07-08T11:34:54Z</time>
      </trkpt>
      <trkpt lat="53.720624009147286" lon="-6.429957998916507">
        <ele>18.399999999999999</ele>
        <time>2026-07-08T11:34:55Z</time>
      </trkpt>
      <trkpt lat="53.720523007214069" lon="-6.429997980594635">
        <ele>17.440000000000001</ele>
        <time>2026-07-08T11:34:56Z</time>
      </trkpt>
      <trkpt lat="53.720429968088865" lon="-6.430035028606653">
        <ele>16.960000000000001</ele>
        <time>2026-07-08T11:34:57Z</time>
      </trkpt>
      <trkpt lat="53.720332989469171" lon="-6.43007299862802">
        <ele>16</ele>
        <time>2026-07-08T11:34:58Z</time>
      </trkpt>
      <trkpt lat="53.720227964222431" lon="-6.43011499196291">
        <ele>15.039999999999999</ele>
        <time>2026-07-08T11:34:59Z</time>
      </trkpt>
      <trkpt lat="53.720106007531285" lon="-6.430164026096463">
        <ele>14.56</ele>
        <time>2026-07-08T11:35:00Z</time>
      </trkpt>
      <trkpt lat="53.719969969242811" lon="-6.430218005552888">
        <ele>13.6</ele>
        <time>2026-07-08T11:35:01Z</time>
      </trkpt>
      <trkpt lat="53.718994986265898" lon="-6.430696025490761">
        <ele>10.710000000000001</ele>
        <time>2026-07-08T11:35:08Z</time>
      </trkpt>
      <trkpt lat="53.71887001208961" lon="-6.430800966918469">
        <ele>11.19</ele>
        <time>2026-07-08T11:35:09Z</time>
      </trkpt>
      <trkpt lat="53.718745037913322" lon="-6.430924013257027">
        <ele>11.19</ele>
        <time>2026-07-08T11:35:10Z</time>
      </trkpt>
      <trkpt lat="53.71865501627326" lon="-6.431072959676385">
        <ele>11.19</ele>
        <time>2026-07-08T11:35:11Z</time>
      </trkpt>
      <trkpt lat="53.718571029603481" lon="-6.431214027106762">
        <ele>11.19</ele>
        <time>2026-07-08T11:35:12Z</time>
      </trkpt>
      <trkpt lat="53.718417976051569" lon="-6.43146900460124">
        <ele>11.19</ele>
        <time>2026-07-08T11:35:14Z</time>
      </trkpt>
      <trkpt lat="53.71835301630199" lon="-6.431546034291387">
        <ele>11.19</ele>
        <time>2026-07-08T11:35:15Z</time>
      </trkpt>
      <trkpt lat="53.718269029632211" lon="-6.431591967120767">
        <ele>11.19</ele>
        <time>2026-07-08T11:35:16Z</time>
      </trkpt>
      <trkpt lat="53.718194011598825" lon="-6.4315539970994">
        <ele>11.67</ele>
        <time>2026-07-08T11:35:17Z</time>
      </trkpt>
      <trkpt lat="53.718113964423537" lon="-6.431514015421271">
        <ele>11.67</ele>
        <time>2026-07-08T11:35:18Z</time>
      </trkpt>
      <trkpt lat="53.718027966096997" lon="-6.431471016258001">
        <ele>11.67</ele>
        <time>2026-07-08T11:35:19Z</time>
      </trkpt>
      <trkpt lat="53.717203019186854" lon="-6.431071031838656">
        <ele>16.48</ele>
        <time>2026-07-08T11:35:26Z</time>
      </trkpt>
      <trkpt lat="53.715901980176568" lon="-6.430822005495429">
        <ele>26.57</ele>
        <time>2026-07-08T11:35:36Z</time>
      </trkpt>
      <trkpt lat="53.715782035142183" lon="-6.430798033252358">
        <ele>26.57</ele>
        <time>2026-07-08T11:35:37Z</time>
      </trkpt>
      <trkpt lat="53.715671980753541" lon="-6.430711029097438">
        <ele>27.050000000000001</ele>
        <time>2026-07-08T11:35:38Z</time>
      </trkpt>
      <trkpt lat="53.715555975213647" lon="-6.430620001628995">
        <ele>27.530000000000001</ele>
        <time>2026-07-08T11:35:39Z</time>
      </trkpt>
      <trkpt lat="53.715438963845372" lon="-6.430526962503791">
        <ele>27.050000000000001</ele>
        <time>2026-07-08T11:35:40Z</time>
      </trkpt>
      <trkpt lat="53.715319018810987" lon="-6.430433001369238">
        <ele>27.530000000000001</ele>
        <time>2026-07-08T11:35:41Z</time>
      </trkpt>
      <trkpt lat="53.714172039180994" lon="-6.429530018940568">
        <ele>25.609999999999999</ele>
        <time>2026-07-08T11:35:51Z</time>
      </trkpt>
      <trkpt lat="53.713740035891533" lon="-6.429203040897846">
        <ele>23.210000000000001</ele>
        <time>2026-07-08T11:35:55Z</time>
      </trkpt>
      <trkpt lat="53.713641967624426" lon="-6.42917001619935">
        <ele>22.73</ele>
        <time>2026-07-08T11:35:56Z</time>
      </trkpt>
      <trkpt lat="53.713545994833112" lon="-6.429147971794009">
        <ele>22.73</ele>
        <time>2026-07-08T11:35:57Z</time>
      </trkpt>
      <trkpt lat="53.713424960151315" lon="-6.429147971794009">
        <ele>23.210000000000001</ele>
        <time>2026-07-08T11:35:58Z</time>
      </trkpt>
      <trkpt lat="53.713349020108581" lon="-6.42923497594893">
        <ele>23.690000000000001</ele>
        <time>2026-07-08T11:35:59Z</time>
      </trkpt>
      <trkpt lat="53.713260004296899" lon="-6.429379982873797">
        <ele>24.649999999999999</ele>
        <time>2026-07-08T11:36:00Z</time>
      </trkpt>
      <trkpt lat="53.713221028447151" lon="-6.429537981748581">
        <ele>25.129999999999999</ele>
        <time>2026-07-08T11:36:01Z</time>
      </trkpt>
      <trkpt lat="53.713180040940642" lon="-6.429706960916519">
        <ele>25.609999999999999</ele>
        <time>2026-07-08T11:36:02Z</time>
      </trkpt>
      <trkpt lat="53.713136035948992" lon="-6.429887004196644">
        <ele>26.09</ele>
        <time>2026-07-08T11:36:03Z</time>
      </trkpt>
      <trkpt lat="53.712849039584398" lon="-6.431547962129116">
        <ele>25.129999999999999</ele>
        <time>2026-07-08T11:36:11Z</time>
      </trkpt>
      <trkpt lat="53.712747031822801" lon="-6.43185599707067">
        <ele>24.649999999999999</ele>
        <time>2026-07-08T11:36:13Z</time>
      </trkpt>
      <trkpt lat="53.712704032659531" lon="-6.431979965418577">
        <ele>25.129999999999999</ele>
        <time>2026-07-08T11:36:14Z</time>
      </trkpt>
      <trkpt lat="53.712666984647512" lon="-6.432089013978839">
        <ele>25.129999999999999</ele>
        <time>2026-07-08T11:36:15Z</time>
      </trkpt>
      <trkpt lat="53.712582997977734" lon="-6.432145005092025">
        <ele>25.129999999999999</ele>
        <time>2026-07-08T11:36:16Z</time>
      </trkpt>
      <trkpt lat="53.712496999651194" lon="-6.432164032012224">
        <ele>25.609999999999999</ele>
        <time>2026-07-08T11:36:17Z</time>
      </trkpt>
      <trkpt lat="53.712409995496273" lon="-6.432181969285011">
        <ele>26.57</ele>
        <time>2026-07-08T11:36:18Z</time>
      </trkpt>
      <trkpt lat="53.71231502853334" lon="-6.432166965678334">
        <ele>27.530000000000001</ele>
        <time>2026-07-08T11:36:19Z</time>
      </trkpt>
      <trkpt lat="53.712224001064897" lon="-6.432097982615233">
        <ele>28.5</ele>
        <time>2026-07-08T11:36:20Z</time>
      </trkpt>
      <trkpt lat="53.712125010788441" lon="-6.432023970410228">
        <ele>28.98</ele>
        <time>2026-07-08T11:36:21Z</time>
      </trkpt>
      <trkpt lat="53.71100602671504" lon="-6.431176979094744">
        <ele>37.149999999999999</ele>
        <time>2026-07-08T11:36:30Z</time>
      </trkpt>
      <trkpt lat="53.710586009547114" lon="-6.430859975516796">
        <ele>38.109999999999999</ele>
        <time>2026-07-08T11:36:34Z</time>
      </trkpt>
      <trkpt lat="53.71049297042191" lon="-6.43080398440361">
        <ele>38.109999999999999</ele>
        <time>2026-07-08T11:36:35Z</time>
      </trkpt>
      <trkpt lat="53.710428010672331" lon="-6.43082401715219">
        <ele>38.109999999999999</ele>
        <time>2026-07-08T11:36:36Z</time>
      </trkpt>
      <trkpt lat="53.710366990417242" lon="-6.430842038244009">
        <ele>38.109999999999999</ele>
        <time>2026-07-08T11:36:37Z</time>
      </trkpt>
      <trkpt lat="53.710269005969167" lon="-6.430900041013956">
        <ele>38.109999999999999</ele>
        <time>2026-07-08T11:36:38Z</time>
      </trkpt>
      <trkpt lat="53.710217960178852" lon="-6.43097598105669">
        <ele>38.109999999999999</ele>
        <time>2026-07-08T11:36:39Z</time>
      </trkpt>
      <trkpt lat="53.710119975730777" lon="-6.431121993809938">
        <ele>38.590000000000003</ele>
        <time>2026-07-08T11:36:40Z</time>
      </trkpt>
      <trkpt lat="53.71008200570941" lon="-6.431230958551168">
        <ele>38.109999999999999</ele>
        <time>2026-07-08T11:36:41Z</time>
      </trkpt>
      <trkpt lat="53.710030037909746" lon="-6.431378982961178">
        <ele>37.149999999999999</ele>
        <time>2026-07-08T11:36:42Z</time>
      </trkpt>
      <trkpt lat="53.70997698046267" lon="-6.431528013199568">
        <ele>37.149999999999999</ele>
        <time>2026-07-08T11:36:43Z</time>
      </trkpt>
      <trkpt lat="53.709554029628634" lon="-6.43318603746593">
        <ele>40.509999999999998</ele>
        <time>2026-07-08T11:36:51Z</time>
      </trkpt>
      <trkpt lat="53.709403993561864" lon="-6.43383395858109">
        <ele>42.439999999999998</ele>
        <time>2026-07-08T11:36:54Z</time>
      </trkpt>
      <trkpt lat="53.709084978327155" lon="-6.435210015624762">
        <ele>45.32</ele>
        <time>2026-07-08T11:37:01Z</time>
      </trkpt>
      <trkpt lat="53.708739979192615" lon="-6.436532009392977">
        <ele>45.799999999999997</ele>
        <time>2026-07-08T11:37:08Z</time>
      </trkpt>
      <trkpt lat="53.708373019471765" lon="-6.437860038131475">
        <ele>46.280000000000001</ele>
        <time>2026-07-08T11:37:15Z</time>
      </trkpt>
      <trkpt lat="53.707939004525542" lon="-6.439433991909027">
        <ele>47.719999999999999</ele>
        <time>2026-07-08T11:37:23Z</time>
      </trkpt>
      <trkpt lat="53.707566009834409" lon="-6.440788004547358">
        <ele>49.649999999999999</ele>
        <time>2026-07-08T11:37:30Z</time>
      </trkpt>
      <trkpt lat="53.707514964044094" lon="-6.440972993150353">
        <ele>50.130000000000003</ele>
        <time>2026-07-08T11:37:31Z</time>
      </trkpt>
      <trkpt lat="53.707020012661815" lon="-6.442723972722888">
        <ele>53.009999999999998</ele>
        <time>2026-07-08T11:37:40Z</time>
      </trkpt>
      <trkpt lat="53.706546016037464" lon="-6.44438199698925">
        <ele>52.530000000000001</ele>
        <time>2026-07-08T11:37:48Z</time>
      </trkpt>
      <trkpt lat="53.706040000542998" lon="-6.446156026795507">
        <ele>54.93</ele>
        <time>2026-07-08T11:37:56Z</time>
      </trkpt>
      <trkpt lat="53.705576984211802" lon="-6.447774991393089">
        <ele>57.340000000000003</ele>
        <time>2026-07-08T11:38:04Z</time>
      </trkpt>
      <trkpt lat="53.705358970910311" lon="-6.448539001867175">
        <ele>61.18</ele>
        <time>2026-07-08T11:38:11Z</time>
      </trkpt>
      <trkpt lat="53.704998968169093" lon="-6.449797041714191">
        <ele>64.549999999999997</ele>
        <time>2026-07-08T11:38:18Z</time>
      </trkpt>
      <trkpt lat="53.704503010958433" lon="-6.451522037386894">
        <ele>70.790000000000006</ele>
        <time>2026-07-08T11:38:26Z</time>
      </trkpt>
      <trkpt lat="53.704450037330389" lon="-6.451687999069691">
        <ele>70.790000000000006</ele>
        <time>2026-07-08T11:38:27Z</time>
      </trkpt>
      <trkpt lat="53.704402009025216" lon="-6.451839040964842">
        <ele>71.269999999999996</ele>
        <time>2026-07-08T11:38:28Z</time>
      </trkpt>
      <trkpt lat="53.704268988221884" lon="-6.452269032597542">
        <ele>72.239999999999995</ele>
        <time>2026-07-08T11:38:31Z</time>
      </trkpt>
      <trkpt lat="53.704123981297016" lon="-6.452763983979821">
        <ele>73.200000000000003</ele>
        <time>2026-07-08T11:38:37Z</time>
      </trkpt>
      <trkpt lat="53.704103026539087" lon="-6.452745962888002">
        <ele>73.680000000000007</ele>
        <time>2026-07-08T11:38:38Z</time>
      </trkpt>
      <trkpt lat="53.704072013497353" lon="-6.45271796733141">
        <ele>74.159999999999997</ele>
        <time>2026-07-08T11:38:39Z</time>
      </trkpt>
      <trkpt lat="53.70393798686564" lon="-6.452599028125405">
        <ele>74.640000000000001</ele>
        <time>2026-07-08T11:38:43Z</time>
      </trkpt>
      <trkpt lat="53.703794991597533" lon="-6.452471958473325">
        <ele>74.640000000000001</ele>
        <time>2026-07-08T11:38:46Z</time>
      </trkpt>
      <trkpt lat="53.703754004091024" lon="-6.452434994280338">
        <ele>75.120000000000005</ele>
        <time>2026-07-08T11:38:47Z</time>
      </trkpt>
      <trkpt lat="53.703754004091024" lon="-6.452434994280338">
        <ele>74.640000000000001</ele>
        <time>2026-07-08T11:38:48Z</time>
      </trkpt>
      <trkpt lat="53.703645961359143" lon="-6.452339021489024">
        <ele>74.640000000000001</ele>
        <time>2026-07-08T11:38:50Z</time>
      </trkpt>
      <trkpt lat="53.703610002994537" lon="-6.452307002618909">
        <ele>74.159999999999997</ele>
        <time>2026-07-08T11:38:51Z</time>
      </trkpt>
      <trkpt lat="53.70357102714479" lon="-6.452272972092032">
        <ele>74.159999999999997</ele>
        <time>2026-07-08T11:38:52Z</time>
      </trkpt>
      <trkpt lat="53.703530039638281" lon="-6.452237013727427">
        <ele>74.640000000000001</ele>
        <time>2026-07-08T11:38:53Z</time>
      </trkpt>
      <trkpt lat="53.70348896831274" lon="-6.452199965715408">
        <ele>74.159999999999997</ele>
        <time>2026-07-08T11:38:54Z</time>
      </trkpt>
      <trkpt lat="53.7034029699862" lon="-6.452124025672674">
        <ele>74.159999999999997</ele>
        <time>2026-07-08T11:38:56Z</time>
      </trkpt>
      <trkpt lat="53.703360976651311" lon="-6.452085971832275">
        <ele>74.159999999999997</ele>
        <time>2026-07-08T11:38:57Z</time>
      </trkpt>
      <trkpt lat="53.70331596583128" lon="-6.452045990154147">
        <ele>74.159999999999997</ele>
        <time>2026-07-08T11:38:58Z</time>
      </trkpt>
      <trkpt lat="53.703168025240302" lon="-6.451913975179195">
        <ele>73.200000000000003</ele>
        <time>2026-07-08T11:39:08Z</time>
      </trkpt>
      <trkpt lat="53.703168025240302" lon="-6.451913975179195">
        <ele>73.200000000000003</ele>
        <time>2026-07-08T11:39:09Z</time>
      </trkpt>
      <trkpt lat="53.702806010842323" lon="-6.451827976852655">
        <ele>72.719999999999999</ele>
        <time>2026-07-08T11:39:23Z</time>
      </trkpt>
      <trkpt lat="53.702805005013943" lon="-6.451826971024275">
        <ele>72.719999999999999</ele>
        <time>2026-07-08T11:40:13Z</time>
      </trkpt>
      <trkpt lat="53.702805005013943" lon="-6.451826971024275">
        <ele>72.719999999999999</ele>
        <time>2026-07-08T11:40:18Z</time>
      </trkpt>
      <trkpt lat="53.703168025240302" lon="-6.451913975179195">
        <ele>72.239999999999995</ele>
        <time>2026-07-08T11:40:24Z</time>
      </trkpt>
      <trkpt lat="53.703549988567829" lon="-6.452254028990865">
        <ele>74.640000000000001</ele>
        <time>2026-07-08T11:40:30Z</time>
      </trkpt>
      <trkpt lat="53.704060027375817" lon="-6.452706987038255">
        <ele>76.560000000000002</ele>
        <time>2026-07-08T11:40:38Z</time>
      </trkpt>
      <trkpt lat="53.704078970476985" lon="-6.452724002301693">
        <ele>76.560000000000002</ele>
        <time>2026-07-08T11:40:48Z</time>
      </trkpt>
      <trkpt lat="53.704147031530738" lon="-6.452722996473312">
        <ele>76.560000000000002</ele>
        <time>2026-07-08T11:40:49Z</time>
      </trkpt>
      <trkpt lat="53.704160023480654" lon="-6.45267597399652">
        <ele>76.560000000000002</ele>
        <time>2026-07-08T11:40:50Z</time>
      </trkpt>
      <trkpt lat="53.704176032915711" lon="-6.452615959569812">
        <ele>76.560000000000002</ele>
        <time>2026-07-08T11:40:51Z</time>
      </trkpt>
      <trkpt lat="53.704192964360118" lon="-6.452553011476994">
        <ele>76.560000000000002</ele>
        <time>2026-07-08T11:40:52Z</time>
      </trkpt>
      <trkpt lat="53.704440984874964" lon="-6.451717000454664">
        <ele>76.560000000000002</ele>
        <time>2026-07-08T11:40:58Z</time>
      </trkpt>
      <trkpt lat="53.704510973766446" lon="-6.45149496383965">
        <ele>76.560000000000002</ele>
        <time>2026-07-08T11:40:59Z</time>
      </trkpt>
      <trkpt lat="53.705008020624518" lon="-6.449766028672457">
        <ele>75.599999999999994</ele>
        <time>2026-07-08T11:41:07Z</time>
      </trkpt>
      <trkpt lat="53.705461984500289" lon="-6.448175981640816">
        <ele>71.269999999999996</ele>
        <time>2026-07-08T11:41:18Z</time>
      </trkpt>
      <trkpt lat="53.705511018633842" lon="-6.448007002472878">
        <ele>70.310000000000002</ele>
        <time>2026-07-08T11:41:20Z</time>
      </trkpt>
      <trkpt lat="53.705529039725661" lon="-6.447941958904266">
        <ele>69.829999999999998</ele>
        <time>2026-07-08T11:41:21Z</time>
      </trkpt>
      <trkpt lat="53.705543037503958" lon="-6.447894014418125">
        <ele>69.349999999999994</ele>
        <time>2026-07-08T11:41:22Z</time>
      </trkpt>
      <trkpt lat="53.705572038888931" lon="-6.447792006656528">
        <ele>66.950000000000003</ele>
        <time>2026-07-08T11:41:33Z</time>
      </trkpt>
      <trkpt lat="53.705572038888931" lon="-6.447792006656528">
        <ele>66.950000000000003</ele>
        <time>2026-07-08T11:42:00Z</time>
      </trkpt>
      <trkpt lat="53.705673040822148" lon="-6.447438038885593">
        <ele>65.510000000000005</ele>
        <time>2026-07-08T11:42:28Z</time>
      </trkpt>
      <trkpt lat="53.705759961158037" lon="-6.447135033085942">
        <ele>62.619999999999997</ele>
        <time>2026-07-08T11:42:35Z</time>
      </trkpt>
      <trkpt lat="53.705759961158037" lon="-6.447135033085942">
        <ele>62.140000000000001</ele>
        <time>2026-07-08T11:42:56Z</time>
      </trkpt>
      <trkpt lat="53.705759961158037" lon="-6.447135033085942">
        <ele>61.18</ele>
        <time>2026-07-08T11:43:21Z</time>
      </trkpt>
      <trkpt lat="53.705759961158037" lon="-6.447135033085942">
        <ele>61.18</ele>
        <time>2026-07-08T11:43:23Z</time>
      </trkpt>
      <trkpt lat="53.705735988914967" lon="-6.447073007002473">
        <ele>60.700000000000003</ele>
        <time>2026-07-08T11:43:32Z</time>
      </trkpt>
      <trkpt lat="53.705735988914967" lon="-6.447073007002473">
        <ele>60.700000000000003</ele>
        <time>2026-07-08T11:43:34Z</time>
      </trkpt>
      <trkpt lat="53.705758033320308" lon="-6.447140984237194">
        <ele>58.780000000000001</ele>
        <time>2026-07-08T11:43:37Z</time>
      </trkpt>
      <trkpt lat="53.70559299364686" lon="-6.447720006108284">
        <ele>55.890000000000001</ele>
        <time>2026-07-08T11:43:42Z</time>
      </trkpt>
      <trkpt lat="53.705170964822173" lon="-6.44919597543776">
        <ele>55.409999999999997</ele>
        <time>2026-07-08T11:43:49Z</time>
      </trkpt>
      <trkpt lat="53.704463029280305" lon="-6.451648017391563">
        <ele>62.140000000000001</ele>
        <time>2026-07-08T11:44:00Z</time>
      </trkpt>
      <trkpt lat="53.703979980200529" lon="-6.453346023336053">
        <ele>64.069999999999993</ele>
        <time>2026-07-08T11:44:09Z</time>
      </trkpt>
      <trkpt lat="53.703447980806231" lon="-6.455437978729606">
        <ele>63.100000000000001</ele>
        <time>2026-07-08T11:44:18Z</time>
      </trkpt>
      <trkpt lat="53.703070040792227" lon="-6.458181962370873">
        <ele>54.93</ele>
        <time>2026-07-08T11:44:27Z</time>
      </trkpt>
      <trkpt lat="53.702740967273712" lon="-6.460889987647533">
        <ele>45.799999999999997</ele>
        <time>2026-07-08T11:44:36Z</time>
      </trkpt>
      <trkpt lat="53.702379036694765" lon="-6.463735979050398">
        <ele>38.109999999999999</ele>
        <time>2026-07-08T11:44:46Z</time>
      </trkpt>
      <trkpt lat="53.70206899009645" lon="-6.466088024899364">
        <ele>33.299999999999997</ele>
        <time>2026-07-08T11:44:54Z</time>
      </trkpt>
      <trkpt lat="53.701816024258733" lon="-6.468016030266881">
        <ele>33.780000000000001</ele>
        <time>2026-07-08T11:45:01Z</time>
      </trkpt>
      <trkpt lat="53.701665988191962" lon="-6.469123028218746">
        <ele>33.780000000000001</ele>
        <time>2026-07-08T11:45:07Z</time>
      </trkpt>
      <trkpt lat="53.701718039810658" lon="-6.469310028478503">
        <ele>36.670000000000002</ele>
        <time>2026-07-08T11:45:14Z</time>
      </trkpt>
      <trkpt lat="53.701732959598303" lon="-6.469365013763309">
        <ele>37.149999999999999</ele>
        <time>2026-07-08T11:45:16Z</time>
      </trkpt>
      <trkpt lat="53.701749974861741" lon="-6.469424022361636">
        <ele>37.149999999999999</ele>
        <time>2026-07-08T11:45:17Z</time>
      </trkpt>
      <trkpt lat="53.701773025095463" lon="-6.469510020688176">
        <ele>37.149999999999999</ele>
        <time>2026-07-08T11:45:18Z</time>
      </trkpt>
      <trkpt lat="53.701823987066746" lon="-6.469542039558291">
        <ele>37.149999999999999</ele>
        <time>2026-07-08T11:45:19Z</time>
      </trkpt>
      <trkpt lat="53.701909985393286" lon="-6.469595013186336">
        <ele>37.149999999999999</ele>
        <time>2026-07-08T11:45:20Z</time>
      </trkpt>
      <trkpt lat="53.702011993154883" lon="-6.469659972935915">
        <ele>37.149999999999999</ele>
        <time>2026-07-08T11:45:21Z</time>
      </trkpt>
      <trkpt lat="53.702985970303416" lon="-6.470273025333881">
        <ele>36.670000000000002</ele>
        <time>2026-07-08T11:45:28Z</time>
      </trkpt>
      <trkpt lat="53.704960998147726" lon="-6.471515977755189">
        <ele>40.990000000000002</ele>
        <time>2026-07-08T11:45:41Z</time>
      </trkpt>
      <trkpt lat="53.705060994252563" lon="-6.471614968031645">
        <ele>41.469999999999999</ele>
        <time>2026-07-08T11:45:42Z</time>
      </trkpt>
      <trkpt lat="53.705121008679271" lon="-6.471698032692075">
        <ele>41.469999999999999</ele>
        <time>2026-07-08T11:45:43Z</time>
      </trkpt>
      <trkpt lat="53.705131988972425" lon="-6.471849996596575">
        <ele>41.469999999999999</ele>
        <time>2026-07-08T11:45:44Z</time>
      </trkpt>
      <trkpt lat="53.705141041427851" lon="-6.471998021006584">
        <ele>41.469999999999999</ele>
        <time>2026-07-08T11:45:45Z</time>
      </trkpt>
      <trkpt lat="53.705132994800806" lon="-6.472184015437961">
        <ele>41.469999999999999</ele>
        <time>2026-07-08T11:45:46Z</time>
      </trkpt>
      <trkpt lat="53.705123020336032" lon="-6.472389036789537">
        <ele>41.950000000000003</ele>
        <time>2026-07-08T11:45:47Z</time>
      </trkpt>
      <trkpt lat="53.70490400120616" lon="-6.473876992240548">
        <ele>40.990000000000002</ele>
        <time>2026-07-08T11:45:55Z</time>
      </trkpt>
      <trkpt lat="53.704847004264593" lon="-6.474255016073585">
        <ele>41.469999999999999</ele>
        <time>2026-07-08T11:45:58Z</time>
      </trkpt>
      <trkpt lat="53.704833006486297" lon="-6.474349983036518">
        <ele>41.469999999999999</ele>
        <time>2026-07-08T11:45:59Z</time>
      </trkpt>
      <trkpt lat="53.704808028414845" lon="-6.474514016881585">
        <ele>41.469999999999999</ele>
        <time>2026-07-08T11:46:01Z</time>
      </trkpt>
      <trkpt lat="53.704795958474278" lon="-6.474584005773068">
        <ele>41.950000000000003</ele>
        <time>2026-07-08T11:46:02Z</time>
      </trkpt>
      <trkpt lat="53.704767962917686" lon="-6.474689031019807">
        <ele>42.439999999999998</ele>
        <time>2026-07-08T11:46:03Z</time>
      </trkpt>
      <trkpt lat="53.704698979854584" lon="-6.474946020171046">
        <ele>42.439999999999998</ele>
        <time>2026-07-08T11:46:05Z</time>
      </trkpt>
      <trkpt lat="53.704607030376792" lon="-6.475286995992065">
        <ele>40.990000000000002</ele>
        <time>2026-07-08T11:46:07Z</time>
      </trkpt>
      <trkpt lat="53.704102020710707" lon="-6.477161021903157">
        <ele>38.590000000000003</ele>
        <time>2026-07-08T11:46:16Z</time>
      </trkpt>
      <trkpt lat="53.703604973852634" lon="-6.479005962610245">
        <ele>41.950000000000003</ele>
        <time>2026-07-08T11:46:25Z</time>
      </trkpt>
      <trkpt lat="53.703429959714413" lon="-6.479683974757791">
        <ele>44.840000000000003</ele>
        <time>2026-07-08T11:46:29Z</time>
      </trkpt>
      <trkpt lat="53.703388972207904" lon="-6.479844991117716">
        <ele>45.32</ele>
        <time>2026-07-08T11:46:30Z</time>
      </trkpt>
      <trkpt lat="53.703086972236633" lon="-6.481046034023166">
        <ele>48.200000000000003</ele>
        <time>2026-07-08T11:46:39Z</time>
      </trkpt>
      <trkpt lat="53.702898966148496" lon="-6.481797974556685">
        <ele>48.68</ele>
        <time>2026-07-08T11:46:45Z</time>
      </trkpt>
      <trkpt lat="53.702681036666036" lon="-6.482663992792368">
        <ele>49.649999999999999</ele>
        <time>2026-07-08T11:46:52Z</time>
      </trkpt>
      <trkpt lat="53.702651029452682" lon="-6.482784021645784">
        <ele>50.609999999999999</ele>
        <time>2026-07-08T11:46:53Z</time>
      </trkpt>
      <trkpt lat="53.702422035858035" lon="-6.483694966882467">
        <ele>53.490000000000002</ele>
        <time>2026-07-08T11:47:01Z</time>
      </trkpt>
      <trkpt lat="53.702184995636344" lon="-6.484629968181253">
        <ele>57.340000000000003</ele>
        <time>2026-07-08T11:47:11Z</time>
      </trkpt>
      <trkpt lat="53.702051974833012" lon="-6.485151993110776">
        <ele>60.700000000000003</ele>
        <time>2026-07-08T11:47:16Z</time>
      </trkpt>
      <trkpt lat="53.70198399759829" lon="-6.485846014693379">
        <ele>60.219999999999999</ele>
        <time>2026-07-08T11:47:22Z</time>
      </trkpt>
      <trkpt lat="53.701962037011981" lon="-6.486067967489362">
        <ele>59.259999999999998</ele>
        <time>2026-07-08T11:47:24Z</time>
      </trkpt>
      <trkpt lat="53.701950972899795" lon="-6.486179027706385">
        <ele>58.780000000000001</ele>
        <time>2026-07-08T11:47:25Z</time>
      </trkpt>
      <trkpt lat="53.70193999260664" lon="-6.486291009932756">
        <ele>58.299999999999997</ele>
        <time>2026-07-08T11:47:26Z</time>
      </trkpt>
      <trkpt lat="53.701824992895126" lon="-6.487138001248241">
        <ele>55.890000000000001</ele>
        <time>2026-07-08T11:47:33Z</time>
      </trkpt>
      <trkpt lat="53.70179196819663" lon="-6.487335981801152">
        <ele>55.409999999999997</ele>
        <time>2026-07-08T11:47:35Z</time>
      </trkpt>
      <trkpt lat="53.701775958761573" lon="-6.487431032583118">
        <ele>54.93</ele>
        <time>2026-07-08T11:47:36Z</time>
      </trkpt>
      <trkpt lat="53.701742012053728" lon="-6.487637981772423">
        <ele>54.93</ele>
        <time>2026-07-08T11:47:38Z</time>
      </trkpt>
      <trkpt lat="53.701719967648387" lon="-6.487743007019162">
        <ele>54.93</ele>
        <time>2026-07-08T11:47:39Z</time>
      </trkpt>
      <trkpt lat="53.701657019555569" lon="-6.487956997007132">
        <ele>54.93</ele>
        <time>2026-07-08T11:47:41Z</time>
      </trkpt>
      <trkpt lat="53.701626006513834" lon="-6.48806101642549">
        <ele>55.409999999999997</ele>
        <time>2026-07-08T11:47:42Z</time>
      </trkpt>
      <trkpt lat="53.701536990702152" lon="-6.488363016396761">
        <ele>56.369999999999997</ele>
        <time>2026-07-08T11:47:45Z</time>
      </trkpt>
      <trkpt lat="53.701506983488798" lon="-6.48846703581512">
        <ele>56.859999999999999</ele>
        <time>2026-07-08T11:47:46Z</time>
      </trkpt>
      <trkpt lat="53.701477982103825" lon="-6.488564014434815">
        <ele>56.859999999999999</ele>
        <time>2026-07-08T11:47:47Z</time>
      </trkpt>
      <trkpt lat="53.701455015689135" lon="-6.48864196613431">
        <ele>56.859999999999999</ele>
        <time>2026-07-08T11:47:48Z</time>
      </trkpt>
      <trkpt lat="53.701434982940555" lon="-6.488712038844824">
        <ele>56.859999999999999</ele>
        <time>2026-07-08T11:47:49Z</time>
      </trkpt>
      <trkpt lat="53.701387038454413" lon="-6.488873977214098">
        <ele>57.340000000000003</ele>
        <time>2026-07-08T11:47:52Z</time>
      </trkpt>
      <trkpt lat="53.701367005705833" lon="-6.48894103243947">
        <ele>57.340000000000003</ele>
        <time>2026-07-08T11:47:53Z</time>
      </trkpt>
      <trkpt lat="53.701341021806002" lon="-6.48902996443212">
        <ele>58.299999999999997</ele>
        <time>2026-07-08T11:47:54Z</time>
      </trkpt>
      <trkpt lat="53.701311014592648" lon="-6.489132978022099">
        <ele>58.780000000000001</ele>
        <time>2026-07-08T11:47:55Z</time>
      </trkpt>
      <trkpt lat="53.701301040127873" lon="-6.489243032410741">
        <ele>58.780000000000001</ele>
        <time>2026-07-08T11:47:56Z</time>
      </trkpt>
      <trkpt lat="53.701301040127873" lon="-6.48937001824379">
        <ele>59.259999999999998</ele>
        <time>2026-07-08T11:47:57Z</time>
      </trkpt>
      <trkpt lat="53.701301040127873" lon="-6.489498009905219">
        <ele>59.740000000000002</ele>
        <time>2026-07-08T11:47:58Z</time>
      </trkpt>
      <trkpt lat="53.701313026249409" lon="-6.489598006010056">
        <ele>60.219999999999999</ele>
        <time>2026-07-08T11:47:59Z</time>
      </trkpt>
      <trkpt lat="53.701328029856086" lon="-6.489708982408047">
        <ele>60.219999999999999</ele>
        <time>2026-07-08T11:48:00Z</time>
      </trkpt>
      <trkpt lat="53.701344039291143" lon="-6.489830017089844">
        <ele>60.700000000000003</ele>
        <time>2026-07-08T11:48:01Z</time>
      </trkpt>
      <trkpt lat="53.701379997655749" lon="-6.489912997931242">
        <ele>60.700000000000003</ele>
        <time>2026-07-08T11:48:02Z</time>
      </trkpt>
      <trkpt lat="53.701428025960922" lon="-6.490021040663123">
        <ele>60.700000000000003</ele>
        <time>2026-07-08T11:48:03Z</time>
      </trkpt>
      <trkpt lat="53.701475970447063" lon="-6.490131011232734">
        <ele>60.700000000000003</ele>
        <time>2026-07-08T11:48:04Z</time>
      </trkpt>
      <trkpt lat="53.701529027894139" lon="-6.490234024822712">
        <ele>61.18</ele>
        <time>2026-07-08T11:48:05Z</time>
      </trkpt>
      <trkpt lat="53.70163899846375" lon="-6.49042496457696">
        <ele>61.659999999999997</ele>
        <time>2026-07-08T11:48:07Z</time>
      </trkpt>
      <trkpt lat="53.702001012861729" lon="-6.491057965904474">
        <ele>62.619999999999997</ele>
        <time>2026-07-08T11:48:16Z</time>
      </trkpt>
      <trkpt lat="53.702032025903463" lon="-6.491112029179931">
        <ele>62.619999999999997</ele>
        <time>2026-07-08T11:48:25Z</time>
      </trkpt>
      <trkpt lat="53.702048035338521" lon="-6.491140024736524">
        <ele>63.100000000000001</ele>
        <time>2026-07-08T11:48:26Z</time>
      </trkpt>
      <trkpt lat="53.702328996732831" lon="-6.4908960275352">
        <ele>63.579999999999998</ele>
        <time>2026-07-08T11:48:36Z</time>
      </trkpt>
      <trkpt lat="53.702330002561212" lon="-6.490865014493465">
        <ele>64.069999999999993</ele>
        <time>2026-07-08T11:48:48Z</time>
      </trkpt>
      <trkpt lat="53.70232799090445" lon="-6.490870965644717">
        <ele>64.069999999999993</ele>
        <time>2026-07-08T11:49:33Z</time>
      </trkpt>
      <trkpt lat="53.70232698507607" lon="-6.490870965644717">
        <ele>64.069999999999993</ele>
        <time>2026-07-08T11:50:23Z</time>
      </trkpt>
      <trkpt lat="53.702322961762547" lon="-6.490840958431363">
        <ele>65.030000000000001</ele>
        <time>2026-07-08T11:50:47Z</time>
      </trkpt>
      <trkpt lat="53.702189018949866" lon="-6.490936009213328">
        <ele>65.030000000000001</ele>
        <time>2026-07-08T11:50:53Z</time>
      </trkpt>
      <trkpt lat="53.702161023393273" lon="-6.490992000326514">
        <ele>65.030000000000001</ele>
        <time>2026-07-08T11:50:54Z</time>
      </trkpt>
      <trkpt lat="53.702040994539857" lon="-6.491126026958227">
        <ele>65.030000000000001</ele>
        <time>2026-07-08T11:50:56Z</time>
      </trkpt>
      <trkpt lat="53.702021967619658" lon="-6.491095013916493">
        <ele>65.030000000000001</ele>
        <time>2026-07-08T11:50:57Z</time>
      </trkpt>
      <trkpt lat="53.701997995376587" lon="-6.491052014753223">
        <ele>65.030000000000001</ele>
        <time>2026-07-08T11:50:58Z</time>
      </trkpt>
      <trkpt lat="53.701962037011981" lon="-6.490989988669753">
        <ele>65.030000000000001</ele>
        <time>2026-07-08T11:50:59Z</time>
      </trkpt>
      <trkpt lat="53.701915014535189" lon="-6.490908013656735">
        <ele>65.030000000000001</ele>
        <time>2026-07-08T11:51:00Z</time>
      </trkpt>
      <trkpt lat="53.701862962916493" lon="-6.490815980359912">
        <ele>65.030000000000001</ele>
        <time>2026-07-08T11:51:01Z</time>
      </trkpt>
      <trkpt lat="53.701330041512847" lon="-6.489725997671485">
        <ele>67.430000000000007</ele>
        <time>2026-07-08T11:51:11Z</time>
      </trkpt>
      <trkpt lat="53.701314032077789" lon="-6.489605968818069">
        <ele>67.430000000000007</ele>
        <time>2026-07-08T11:51:12Z</time>
      </trkpt>
      <trkpt lat="53.701301040127873" lon="-6.489507984369993">
        <ele>67.909999999999997</ele>
        <time>2026-07-08T11:51:13Z</time>
      </trkpt>
      <trkpt lat="53.701301040127873" lon="-6.489408994093537">
        <ele>67.909999999999997</ele>
        <time>2026-07-08T11:51:14Z</time>
      </trkpt>
      <trkpt lat="53.701301040127873" lon="-6.489289971068502">
        <ele>68.390000000000001</ele>
        <time>2026-07-08T11:51:15Z</time>
      </trkpt>
      <trkpt lat="53.701301040127873" lon="-6.489164996892214">
        <ele>68.870000000000005</ele>
        <time>2026-07-08T11:51:16Z</time>
      </trkpt>
      <trkpt lat="53.701369017362595" lon="-6.488933991640806">
        <ele>68.870000000000005</ele>
        <time>2026-07-08T11:51:18Z</time>
      </trkpt>
      <trkpt lat="53.701450992375612" lon="-6.488655041903257">
        <ele>67.430000000000007</ele>
        <time>2026-07-08T11:51:20Z</time>
      </trkpt>
      <trkpt lat="53.701545959338546" lon="-6.488332003355026">
        <ele>65.989999999999995</ele>
        <time>2026-07-08T11:51:22Z</time>
      </trkpt>
      <trkpt lat="53.701594993472099" lon="-6.48816604167223">
        <ele>65.510000000000005</ele>
        <time>2026-07-08T11:51:23Z</time>
      </trkpt>
      <trkpt lat="53.701643021777272" lon="-6.488004019483924">
        <ele>65.030000000000001</ele>
        <time>2026-07-08T11:51:24Z</time>
      </trkpt>
      <trkpt lat="53.701690966263413" lon="-6.487839985638857">
        <ele>64.549999999999997</ele>
        <time>2026-07-08T11:51:25Z</time>
      </trkpt>
      <trkpt lat="53.701734971255064" lon="-6.487676035612822">
        <ele>64.069999999999993</ele>
        <time>2026-07-08T11:51:26Z</time>
      </trkpt>
      <trkpt lat="53.701852988451719" lon="-6.486967010423541">
        <ele>60.219999999999999</ele>
        <time>2026-07-08T11:51:32Z</time>
      </trkpt>
      <trkpt lat="53.701884001493454" lon="-6.486786967143416">
        <ele>59.259999999999998</ele>
        <time>2026-07-08T11:51:42Z</time>
      </trkpt>
      <trkpt lat="53.70191995985806" lon="-6.486493013799191">
        <ele>59.740000000000002</ele>
        <time>2026-07-08T11:51:53Z</time>
      </trkpt>
      <trkpt lat="53.702051974833012" lon="-6.485151993110776">
        <ele>62.619999999999997</ele>
        <time>2026-07-08T11:52:01Z</time>
      </trkpt>
      <trkpt lat="53.702102014794946" lon="-6.484956024214625">
        <ele>62.619999999999997</ele>
        <time>2026-07-08T11:52:02Z</time>
      </trkpt>
      <trkpt lat="53.702250039204955" lon="-6.484373984858394">
        <ele>62.619999999999997</ele>
        <time>2026-07-08T11:52:05Z</time>
      </trkpt>
      <trkpt lat="53.70236998423934" lon="-6.483898982405663">
        <ele>61.18</ele>
        <time>2026-07-08T11:52:08Z</time>
      </trkpt>
      <trkpt lat="53.702595038339496" lon="-6.483004968613386">
        <ele>55.890000000000001</ele>
        <time>2026-07-08T11:52:16Z</time>
      </trkpt>
      <trkpt lat="53.70307900942862" lon="-6.481076963245869">
        <ele>53.009999999999998</ele>
        <time>2026-07-08T11:52:25Z</time>
      </trkpt>
      <trkpt lat="53.703730031847954" lon="-6.478540012612939">
        <ele>50.130000000000003</ele>
        <time>2026-07-08T11:52:36Z</time>
      </trkpt>
      <trkpt lat="53.704479960724711" lon="-6.475756969302893">
        <ele>41.950000000000003</ele>
        <time>2026-07-08T11:52:48Z</time>
      </trkpt>
      <trkpt lat="53.704744996502995" lon="-6.474772011861205">
        <ele>44.359999999999999</ele>
        <time>2026-07-08T11:52:54Z</time>
      </trkpt>
      <trkpt lat="53.704767962917686" lon="-6.474690036848187">
        <ele>44.359999999999999</ele>
        <time>2026-07-08T11:52:55Z</time>
      </trkpt>
      <trkpt lat="53.704911964014173" lon="-6.474580988287926">
        <ele>44.840000000000003</ele>
        <time>2026-07-08T11:52:57Z</time>
      </trkpt>
      <trkpt lat="53.704959992319345" lon="-6.474584005773068">
        <ele>45.32</ele>
        <time>2026-07-08T11:52:58Z</time>
      </trkpt>
      <trkpt lat="53.705024030059576" lon="-6.47458903491497">
        <ele>45.32</ele>
        <time>2026-07-08T11:52:59Z</time>
      </trkpt>
      <trkpt lat="53.705672034993768" lon="-6.47452600300312">
        <ele>42.439999999999998</ele>
        <time>2026-07-08T11:53:05Z</time>
      </trkpt>
      <trkpt lat="53.707028981298208" lon="-6.474292986094952">
        <ele>39.549999999999997</ele>
        <time>2026-07-08T11:53:14Z</time>
      </trkpt>
      <trkpt lat="53.709192015230656" lon="-6.473893001675606">
        <ele>31.859999999999999</ele>
        <time>2026-07-08T11:53:29Z</time>
      </trkpt>
      <trkpt lat="53.709340961650014" lon="-6.473865006119013">
        <ele>31.379999999999999</ele>
        <time>2026-07-08T11:53:30Z</time>
      </trkpt>
      <trkpt lat="53.711502989754081" lon="-6.473465021699667">
        <ele>28.02</ele>
        <time>2026-07-08T11:53:44Z</time>
      </trkpt>
      <trkpt lat="53.713036039844155" lon="-6.473180036991835">
        <ele>27.530000000000001</ele>
        <time>2026-07-08T11:53:54Z</time>
      </trkpt>
      <trkpt lat="53.713178029283881" lon="-6.473153969272971">
        <ele>28.02</ele>
        <time>2026-07-08T11:53:55Z</time>
      </trkpt>
      <trkpt lat="53.714119987562299" lon="-6.47297996096313">
        <ele>32.82</ele>
        <time>2026-07-08T11:54:03Z</time>
      </trkpt>
      <trkpt lat="53.714260971173644" lon="-6.472953977063298">
        <ele>33.299999999999997</ele>
        <time>2026-07-08T11:54:05Z</time>
      </trkpt>
      <trkpt lat="53.714311011135578" lon="-6.472944002598524">
        <ele>33.299999999999997</ele>
        <time>2026-07-08T11:54:06Z</time>
      </trkpt>
      <trkpt lat="53.714345963671803" lon="-6.472937967628241">
        <ele>33.780000000000001</ele>
        <time>2026-07-08T11:54:07Z</time>
      </trkpt>
      <trkpt lat="53.714363984763622" lon="-6.472935033962131">
        <ele>33.780000000000001</ele>
        <time>2026-07-08T11:54:08Z</time>
      </trkpt>
      <trkpt lat="53.714433973655105" lon="-6.473007034510374">
        <ele>34.259999999999998</ele>
        <time>2026-07-08T11:54:14Z</time>
      </trkpt>
      <trkpt lat="53.714434979483485" lon="-6.473051961511374">
        <ele>34.259999999999998</ele>
        <time>2026-07-08T11:54:15Z</time>
      </trkpt>
      <trkpt lat="53.714435985311866" lon="-6.473154975101352">
        <ele>34.259999999999998</ele>
        <time>2026-07-08T11:54:16Z</time>
      </trkpt>
      <trkpt lat="53.714450988918543" lon="-6.474374961107969">
        <ele>35.229999999999997</ele>
        <time>2026-07-08T11:54:22Z</time>
      </trkpt>
      <trkpt lat="53.71446599252522" lon="-6.475530993193388">
        <ele>36.189999999999998</ele>
        <time>2026-07-08T11:54:26Z</time>
      </trkpt>
      <trkpt lat="53.714435985311866" lon="-6.475832993164659">
        <ele>36.189999999999998</ele>
        <time>2026-07-08T11:54:27Z</time>
      </trkpt>
      <trkpt lat="53.714404972270131" lon="-6.476143039762974">
        <ele>36.189999999999998</ele>
        <time>2026-07-08T11:54:28Z</time>
      </trkpt>
      <trkpt lat="53.714347975328565" lon="-6.476449985057116">
        <ele>36.189999999999998</ele>
        <time>2026-07-08T11:54:29Z</time>
      </trkpt>
      <trkpt lat="53.714270023629069" lon="-6.476741004735231">
        <ele>36.189999999999998</ele>
        <time>2026-07-08T11:54:30Z</time>
      </trkpt>
      <trkpt lat="53.71339101344347" lon="-6.479887990280986">
        <ele>35.710000000000001</ele>
        <time>2026-07-08T11:54:41Z</time>
      </trkpt>
      <trkpt lat="53.713081972673535" lon="-6.481911968439817">
        <ele>36.670000000000002</ele>
        <time>2026-07-08T11:54:48Z</time>
      </trkpt>
      <trkpt lat="53.712910981848836" lon="-6.483041010797024">
        <ele>38.109999999999999</ele>
        <time>2026-07-08T11:54:52Z</time>
      </trkpt>
      <trkpt lat="53.712906036525965" lon="-6.483323983848095">
        <ele>38.109999999999999</ele>
        <time>2026-07-08T11:54:53Z</time>
      </trkpt>
      <trkpt lat="53.712906036525965" lon="-6.483323983848095">
        <ele>38.590000000000003</ele>
        <time>2026-07-08T11:54:54Z</time>
      </trkpt>
      <trkpt lat="53.712889021262527" lon="-6.484489990398288">
        <ele>39.549999999999997</ele>
        <time>2026-07-08T11:54:57Z</time>
      </trkpt>
      <trkpt lat="53.712846022099257" lon="-6.484782015904784">
        <ele>40.030000000000001</ele>
        <time>2026-07-08T11:54:58Z</time>
      </trkpt>
      <trkpt lat="53.712220983579755" lon="-6.488363016396761">
        <ele>43.399999999999999</ele>
        <time>2026-07-08T11:55:10Z</time>
      </trkpt>
      <trkpt lat="53.711656965315342" lon="-6.491881990805268">
        <ele>44.840000000000003</ele>
        <time>2026-07-08T11:55:21Z</time>
      </trkpt>
      <trkpt lat="53.710979036986828" lon="-6.49600999429822">
        <ele>49.159999999999997</ele>
        <time>2026-07-08T11:55:34Z</time>
      </trkpt>
      <trkpt lat="53.71036296710372" lon="-6.498419037088752">
        <ele>53.009999999999998</ele>
        <time>2026-07-08T11:55:42Z</time>
      </trkpt>
      <trkpt lat="53.71031996794045" lon="-6.49869597516954">
        <ele>53.009999999999998</ele>
        <time>2026-07-08T11:55:43Z</time>
      </trkpt>
      <trkpt lat="53.710313010960817" lon="-6.498968973755837">
        <ele>53.490000000000002</ele>
        <time>2026-07-08T11:55:44Z</time>
      </trkpt>
      <trkpt lat="53.710299013182521" lon="-6.499508013948798">
        <ele>54.450000000000003</ele>
        <time>2026-07-08T11:55:46Z</time>
      </trkpt>
      <trkpt lat="53.709958959370852" lon="-6.501778000965715">
        <ele>55.890000000000001</ele>
        <time>2026-07-08T11:55:55Z</time>
      </trkpt>
      <trkpt lat="53.709286982193589" lon="-6.50473102927208">
        <ele>56.369999999999997</ele>
        <time>2026-07-08T11:56:04Z</time>
      </trkpt>
      <trkpt lat="53.708638977259398" lon="-6.509102024137974">
        <ele>53.969999999999999</ele>
        <time>2026-07-08T11:56:18Z</time>
      </trkpt>
      <trkpt lat="53.708640988916159" lon="-6.511693960055709">
        <ele>55.409999999999997</ele>
        <time>2026-07-08T11:56:26Z</time>
      </trkpt>
      <trkpt lat="53.70857996866107" lon="-6.514914035797119">
        <ele>60.219999999999999</ele>
        <time>2026-07-08T11:56:36Z</time>
      </trkpt>
      <trkpt lat="53.708504028618336" lon="-6.515553994104266">
        <ele>61.659999999999997</ele>
        <time>2026-07-08T11:56:38Z</time>
      </trkpt>
      <trkpt lat="53.70815098285675" lon="-6.518765017390251">
        <ele>68.870000000000005</ele>
        <time>2026-07-08T11:56:48Z</time>
      </trkpt>
      <trkpt lat="53.707982003688812" lon="-6.521414034068584">
        <ele>72.239999999999995</ele>
        <time>2026-07-08T11:56:56Z</time>
      </trkpt>
      <trkpt lat="53.707900028675795" lon="-6.522599989548326">
        <ele>71.269999999999996</ele>
        <time>2026-07-08T11:57:00Z</time>
      </trkpt>
      <trkpt lat="53.707857029512525" lon="-6.522876005619764">
        <ele>70.790000000000006</ele>
        <time>2026-07-08T11:57:01Z</time>
      </trkpt>
      <trkpt lat="53.707349002361298" lon="-6.525306003168225">
        <ele>63.100000000000001</ele>
        <time>2026-07-08T11:57:09Z</time>
      </trkpt>
      <trkpt lat="53.707018001005054" lon="-6.528121987357736">
        <ele>62.619999999999997</ele>
        <time>2026-07-08T11:57:18Z</time>
      </trkpt>
      <trkpt lat="53.706981036812067" lon="-6.530894972383976">
        <ele>65.510000000000005</ele>
        <time>2026-07-08T11:57:27Z</time>
      </trkpt>
      <trkpt lat="53.707256969064474" lon="-6.53403902426362">
        <ele>69.349999999999994</ele>
        <time>2026-07-08T11:57:38Z</time>
      </trkpt>
      <trkpt lat="53.707336010411382" lon="-6.536392997950316">
        <ele>73.680000000000007</ele>
        <time>2026-07-08T11:57:48Z</time>
      </trkpt>
      <trkpt lat="53.707557041198015" lon="-6.538525018841028">
        <ele>77.040000000000006</ele>
        <time>2026-07-08T11:57:57Z</time>
      </trkpt>
      <trkpt lat="53.707976974546909" lon="-6.540552014485002">
        <ele>72.239999999999995</ele>
        <time>2026-07-08T11:58:07Z</time>
      </trkpt>
      <trkpt lat="53.708099015057087" lon="-6.541189961135387">
        <ele>66.950000000000003</ele>
        <time>2026-07-08T11:58:16Z</time>
      </trkpt>
      <trkpt lat="53.708165986463428" lon="-6.541534038260579">
        <ele>64.549999999999997</ele>
        <time>2026-07-08T11:58:25Z</time>
      </trkpt>
      <trkpt lat="53.708446025848389" lon="-6.542752012610436">
        <ele>60.700000000000003</ele>
        <time>2026-07-08T11:58:35Z</time>
      </trkpt>
      <trkpt lat="53.708756994456053" lon="-6.54420199804008">
        <ele>55.409999999999997</ele>
        <time>2026-07-08T11:58:44Z</time>
      </trkpt>
      <trkpt lat="53.709108028560877" lon="-6.545832026749849">
        <ele>49.649999999999999</ele>
        <time>2026-07-08T11:58:55Z</time>
      </trkpt>
      <trkpt lat="53.709483034908772" lon="-6.54766296967864">
        <ele>46.280000000000001</ele>
        <time>2026-07-08T11:59:05Z</time>
      </trkpt>
      <trkpt lat="53.709898022934794" lon="-6.549599021673203">
        <ele>47.719999999999999</ele>
        <time>2026-07-08T11:59:15Z</time>
      </trkpt>
      <trkpt lat="53.710182001814246" lon="-6.550913974642754">
        <ele>45.32</ele>
        <time>2026-07-08T11:59:24Z</time>
      </trkpt>
      <trkpt lat="53.710217960178852" lon="-6.551082031801343">
        <ele>44.840000000000003</ele>
        <time>2026-07-08T11:59:25Z</time>
      </trkpt>
      <trkpt lat="53.710256014019251" lon="-6.551257967948914">
        <ele>44.359999999999999</ele>
        <time>2026-07-08T11:59:26Z</time>
      </trkpt>
      <trkpt lat="53.71061903424561" lon="-6.552934013307095">
        <ele>45.799999999999997</ele>
        <time>2026-07-08T11:59:35Z</time>
      </trkpt>
      <trkpt lat="53.710951041430235" lon="-6.554540991783142">
        <ele>45.799999999999997</ele>
        <time>2026-07-08T11:59:46Z</time>
      </trkpt>
      <trkpt lat="53.711310038343072" lon="-6.555962981656194">
        <ele>45.32</ele>
        <time>2026-07-08T11:59:56Z</time>
      </trkpt>
      <trkpt lat="53.711652019992471" lon="-6.55694198794663">
        <ele>47.719999999999999</ele>
        <time>2026-07-08T12:00:02Z</time>
      </trkpt>
      <trkpt lat="53.711717985570431" lon="-6.55711499042809">
        <ele>48.68</ele>
        <time>2026-07-08T12:00:03Z</time>
      </trkpt>
      <trkpt lat="53.712464980781078" lon="-6.559164030477405">
        <ele>53.969999999999999</ele>
        <time>2026-07-08T12:00:15Z</time>
      </trkpt>
      <trkpt lat="53.712785001844168" lon="-6.561140986159444">
        <ele>54.450000000000003</ele>
        <time>2026-07-08T12:00:24Z</time>
      </trkpt>
      <trkpt lat="53.712709983810782" lon="-6.563373003154993">
        <ele>52.049999999999997</ele>
        <time>2026-07-08T12:00:33Z</time>
      </trkpt>
      <trkpt lat="53.712300024926662" lon="-6.564958021044731">
        <ele>44.840000000000003</ele>
        <time>2026-07-08T12:00:42Z</time>
      </trkpt>
      <trkpt lat="53.71158697642386" lon="-6.566350003704429">
        <ele>38.590000000000003</ele>
        <time>2026-07-08T12:00:52Z</time>
      </trkpt>
      <trkpt lat="53.71087602339685" lon="-6.567239994183183">
        <ele>34.740000000000002</ele>
        <time>2026-07-08T12:00:58Z</time>
      </trkpt>
      <trkpt lat="53.709457973018289" lon="-6.568240961059928">
        <ele>36.189999999999998</ele>
        <time>2026-07-08T12:01:08Z</time>
      </trkpt>
      <trkpt lat="53.708333037793636" lon="-6.56970301643014">
        <ele>46.759999999999998</ele>
        <time>2026-07-08T12:01:17Z</time>
      </trkpt>
      <trkpt lat="53.707571038976312" lon="-6.571593973785639">
        <ele>54.93</ele>
        <time>2026-07-08T12:01:25Z</time>
      </trkpt>
      <trkpt lat="53.706922028213739" lon="-6.573345037177205">
        <ele>62.140000000000001</ele>
        <time>2026-07-08T12:01:34Z</time>
      </trkpt>
      <trkpt lat="53.706103032454848" lon="-6.575215039774776">
        <ele>69.829999999999998</ele>
        <time>2026-07-08T12:01:44Z</time>
      </trkpt>
      <trkpt lat="53.704939959570765" lon="-6.577614024281502">
        <ele>71.269999999999996</ele>
        <time>2026-07-08T12:01:55Z</time>
      </trkpt>
      <trkpt lat="53.704000012949109" lon="-6.579429963603616">
        <ele>71.269999999999996</ele>
        <time>2026-07-08T12:02:01Z</time>
      </trkpt>
      <trkpt lat="53.702844986692071" lon="-6.581793995574117">
        <ele>72.719999999999999</ele>
        <time>2026-07-08T12:02:07Z</time>
      </trkpt>
      <trkpt lat="53.702081982046366" lon="-6.583653017878532">
        <ele>72.719999999999999</ele>
        <time>2026-07-08T12:02:13Z</time>
      </trkpt>
      <trkpt lat="53.701331969350576" lon="-6.585721001029015">
        <ele>71.760000000000005</ele>
        <time>2026-07-08T12:02:19Z</time>
      </trkpt>
      <trkpt lat="53.700305018573999" lon="-6.589452037587762">
        <ele>78.480000000000004</ele>
        <time>2026-07-08T12:02:28Z</time>
      </trkpt>
      <trkpt lat="53.699477976188064" lon="-6.592622995376587">
        <ele>79.930000000000007</ele>
        <time>2026-07-08T12:02:37Z</time>
      </trkpt>
      <trkpt lat="53.698495030403137" lon="-6.596318995580077">
        <ele>75.599999999999994</ele>
        <time>2026-07-08T12:02:48Z</time>
      </trkpt>
      <trkpt lat="53.697775024920702" lon="-6.598732983693481">
        <ele>77.519999999999996</ele>
        <time>2026-07-08T12:02:56Z</time>
      </trkpt>
      <trkpt lat="53.696475997567177" lon="-6.602784963324666">
        <ele>68.390000000000001</ele>
        <time>2026-07-08T12:03:10Z</time>
      </trkpt>
      <trkpt lat="53.695420967414975" lon="-6.605930021032691">
        <ele>61.18</ele>
        <time>2026-07-08T12:03:21Z</time>
      </trkpt>
      <trkpt lat="53.694288991391659" lon="-6.607811003923416">
        <ele>56.859999999999999</ele>
        <time>2026-07-08T12:03:29Z</time>
      </trkpt>
      <trkpt lat="53.692522002384067" lon="-6.610405035316944">
        <ele>61.659999999999997</ele>
        <time>2026-07-08T12:03:41Z</time>
      </trkpt>
      <trkpt lat="53.690644036978483" lon="-6.614346038550139">
        <ele>71.269999999999996</ele>
        <time>2026-07-08T12:03:56Z</time>
      </trkpt>
      <trkpt lat="53.689532009884715" lon="-6.617169985547662">
        <ele>71.269999999999996</ele>
        <time>2026-07-08T12:04:06Z</time>
      </trkpt>
      <trkpt lat="53.688311018049717" lon="-6.620671022683382">
        <ele>67.430000000000007</ele>
        <time>2026-07-08T12:04:18Z</time>
      </trkpt>
      <trkpt lat="53.686785008758307" lon="-6.624189997091889">
        <ele>65.510000000000005</ele>
        <time>2026-07-08T12:04:31Z</time>
      </trkpt>
      <trkpt lat="53.685648003593087" lon="-6.627663038671017">
        <ele>72.719999999999999</ele>
        <time>2026-07-08T12:04:43Z</time>
      </trkpt>
      <trkpt lat="53.68391202762723" lon="-6.633009016513825">
        <ele>78.480000000000004</ele>
        <time>2026-07-08T12:05:01Z</time>
      </trkpt>
      <trkpt lat="53.6825199611485" lon="-6.637089997529984">
        <ele>83.290000000000006</ele>
        <time>2026-07-08T12:05:15Z</time>
      </trkpt>
      <trkpt lat="53.680849028751254" lon="-6.641713958233595">
        <ele>84.25</ele>
        <time>2026-07-08T12:05:31Z</time>
      </trkpt>
      <trkpt lat="53.679784024134278" lon="-6.643790993839502">
        <ele>79.450000000000003</ele>
        <time>2026-07-08T12:05:39Z</time>
      </trkpt>
      <trkpt lat="53.678017035126686" lon="-6.645932989194989">
        <ele>76.079999999999998</ele>
        <time>2026-07-08T12:05:48Z</time>
      </trkpt>
      <trkpt lat="53.677155040204525" lon="-6.647964008152485">
        <ele>70.790000000000006</ele>
        <time>2026-07-08T12:05:54Z</time>
      </trkpt>
      <trkpt lat="53.675640011206269" lon="-6.652087988331914">
        <ele>63.579999999999998</ele>
        <time>2026-07-08T12:06:06Z</time>
      </trkpt>
      <trkpt lat="53.673991039395332" lon="-6.655704025179148">
        <ele>61.18</ele>
        <time>2026-07-08T12:06:19Z</time>
      </trkpt>
      <trkpt lat="53.672242993488908" lon="-6.65856703184545">
        <ele>57.82</ele>
        <time>2026-07-08T12:06:31Z</time>
      </trkpt>
      <trkpt lat="53.670479021966457" lon="-6.660821009427309">
        <ele>54.450000000000003</ele>
        <time>2026-07-08T12:06:42Z</time>
      </trkpt>
      <trkpt lat="53.668454959988594" lon="-6.662914976477623">
        <ele>58.299999999999997</ele>
        <time>2026-07-08T12:06:54Z</time>
      </trkpt>
      <trkpt lat="53.667248971760273" lon="-6.664708033204079">
        <ele>61.659999999999997</ele>
        <time>2026-07-08T12:07:02Z</time>
      </trkpt>
      <trkpt lat="53.665899988263845" lon="-6.666592033579946">
        <ele>53.969999999999999</ele>
        <time>2026-07-08T12:07:12Z</time>
      </trkpt>
      <trkpt lat="53.664947971701622" lon="-6.667886031791568">
        <ele>52.530000000000001</ele>
        <time>2026-07-08T12:07:20Z</time>
      </trkpt>
      <trkpt lat="53.664079019799829" lon="-6.669068969786167">
        <ele>59.259999999999998</ele>
        <time>2026-07-08T12:07:29Z</time>
      </trkpt>
      <trkpt lat="53.663972988724709" lon="-6.669197967275977">
        <ele>59.740000000000002</ele>
        <time>2026-07-08T12:07:30Z</time>
      </trkpt>
      <trkpt lat="53.663579039275646" lon="-6.669816970825195">
        <ele>61.18</ele>
        <time>2026-07-08T12:07:34Z</time>
      </trkpt>
      <trkpt lat="53.663499997928739" lon="-6.670000031590462">
        <ele>61.659999999999997</ele>
        <time>2026-07-08T12:07:35Z</time>
      </trkpt>
      <trkpt lat="53.662775969132781" lon="-6.671900041401386">
        <ele>65.030000000000001</ele>
        <time>2026-07-08T12:07:46Z</time>
      </trkpt>
      <trkpt lat="53.661883966997266" lon="-6.673983028158546">
        <ele>65.989999999999995</ele>
        <time>2026-07-08T12:07:58Z</time>
      </trkpt>
      <trkpt lat="53.661114005371928" lon="-6.675912039354444">
        <ele>61.659999999999997</ele>
        <time>2026-07-08T12:08:09Z</time>
      </trkpt>
      <trkpt lat="53.660196019336581" lon="-6.677649021148682">
        <ele>59.259999999999998</ele>
        <time>2026-07-08T12:08:20Z</time>
      </trkpt>
      <trkpt lat="53.659079968929291" lon="-6.678907983005047">
        <ele>56.859999999999999</ele>
        <time>2026-07-08T12:08:31Z</time>
      </trkpt>
      <trkpt lat="53.658612007275224" lon="-6.679446017369628">
        <ele>54.93</ele>
        <time>2026-07-08T12:08:38Z</time>
      </trkpt>
      <trkpt lat="53.658600021153688" lon="-6.67951600626111">
        <ele>54.93</ele>
        <time>2026-07-08T12:08:39Z</time>
      </trkpt>
      <trkpt lat="53.658664980903268" lon="-6.679674005135894">
        <ele>54.450000000000003</ele>
        <time>2026-07-08T12:08:40Z</time>
      </trkpt>
      <trkpt lat="53.658664980903268" lon="-6.679813982918859">
        <ele>54.450000000000003</ele>
        <time>2026-07-08T12:08:41Z</time>
      </trkpt>
      <trkpt lat="53.658664980903268" lon="-6.679970975965262">
        <ele>53.969999999999999</ele>
        <time>2026-07-08T12:08:42Z</time>
      </trkpt>
      <trkpt lat="53.658664980903268" lon="-6.679970975965262">
        <ele>54.450000000000003</ele>
        <time>2026-07-08T12:08:43Z</time>
      </trkpt>
      <trkpt lat="53.658664980903268" lon="-6.680322010070086">
        <ele>54.450000000000003</ele>
        <time>2026-07-08T12:08:44Z</time>
      </trkpt>
      <trkpt lat="53.658681996166706" lon="-6.682338025420904">
        <ele>54.93</ele>
        <time>2026-07-08T12:08:53Z</time>
      </trkpt>
      <trkpt lat="53.658622987568378" lon="-6.683614002540708">
        <ele>54.93</ele>
        <time>2026-07-08T12:09:00Z</time>
      </trkpt>
      <trkpt lat="53.658534977585077" lon="-6.684086993336678">
        <ele>53.969999999999999</ele>
        <time>2026-07-08T12:09:07Z</time>
      </trkpt>
      <trkpt lat="53.658515028655529" lon="-6.684194030240178">
        <ele>53.969999999999999</ele>
        <time>2026-07-08T12:09:17Z</time>
      </trkpt>
      <trkpt lat="53.658417966216803" lon="-6.68449804186821">
        <ele>53.969999999999999</ele>
        <time>2026-07-08T12:09:44Z</time>
      </trkpt>
      <trkpt lat="53.657887978479266" lon="-6.685810983181">
        <ele>52.530000000000001</ele>
        <time>2026-07-08T12:09:54Z</time>
      </trkpt>
      <trkpt lat="53.657471984624863" lon="-6.686637019738555">
        <ele>51.57</ele>
        <time>2026-07-08T12:10:00Z</time>
      </trkpt>
      <trkpt lat="53.657300993800163" lon="-6.686874981969595">
        <ele>51.090000000000003</ele>
        <time>2026-07-08T12:10:02Z</time>
      </trkpt>
      <trkpt lat="53.656259039416909" lon="-6.687805959954858">
        <ele>50.130000000000003</ele>
        <time>2026-07-08T12:10:14Z</time>
      </trkpt>
      <trkpt lat="53.656087964773178" lon="-6.687898999080062">
        <ele>49.159999999999997</ele>
        <time>2026-07-08T12:10:22Z</time>
      </trkpt>
      <trkpt lat="53.656087964773178" lon="-6.687898999080062">
        <ele>49.159999999999997</ele>
        <time>2026-07-08T12:10:39Z</time>
      </trkpt>
      <trkpt lat="53.655985035002232" lon="-6.687944009900093">
        <ele>48.68</ele>
        <time>2026-07-08T12:10:42Z</time>
      </trkpt>
      <trkpt lat="53.655920997262001" lon="-6.687972005456686">
        <ele>48.68</ele>
        <time>2026-07-08T12:10:43Z</time>
      </trkpt>
      <trkpt lat="53.655689992010593" lon="-6.687979968264699">
        <ele>48.200000000000003</ele>
        <time>2026-07-08T12:10:47Z</time>
      </trkpt>
      <trkpt lat="53.655646992847323" lon="-6.68797804042697">
        <ele>48.200000000000003</ele>
        <time>2026-07-08T12:10:48Z</time>
      </trkpt>
      <trkpt lat="53.655604999512434" lon="-6.687975022941828">
        <ele>48.200000000000003</ele>
        <time>2026-07-08T12:10:49Z</time>
      </trkpt>
      <trkpt lat="53.655559988692403" lon="-6.688182977959514">
        <ele>48.68</ele>
        <time>2026-07-08T12:10:50Z</time>
      </trkpt>
      <trkpt lat="53.655570968985558" lon="-6.688266964629293">
        <ele>48.68</ele>
        <time>2026-07-08T12:10:51Z</time>
      </trkpt>
      <trkpt lat="53.655585972592235" lon="-6.688385987654328">
        <ele>48.68</ele>
        <time>2026-07-08T12:10:52Z</time>
      </trkpt>
      <trkpt lat="53.655604999512434" lon="-6.68853996321559">
        <ele>48.68</ele>
        <time>2026-07-08T12:10:53Z</time>
      </trkpt>
      <trkpt lat="53.655625032261014" lon="-6.688719000667334">
        <ele>49.159999999999997</ele>
        <time>2026-07-08T12:10:54Z</time>
      </trkpt>
      <trkpt lat="53.655758975073695" lon="-6.690744990482926">
        <ele>52.049999999999997</ele>
        <time>2026-07-08T12:11:05Z</time>
      </trkpt>
      <trkpt lat="53.655735002830625" lon="-6.691119996830821">
        <ele>52.530000000000001</ele>
        <time>2026-07-08T12:11:07Z</time>
      </trkpt>
      <trkpt lat="53.65572502836585" lon="-6.691274978220463">
        <ele>52.530000000000001</ele>
        <time>2026-07-08T12:11:08Z</time>
      </trkpt>
      <trkpt lat="53.655511038377881" lon="-6.692111995071173">
        <ele>51.57</ele>
        <time>2026-07-08T12:11:15Z</time>
      </trkpt>
      <trkpt lat="53.655408024787903" lon="-6.692316010594368">
        <ele>49.649999999999999</ele>
        <time>2026-07-08T12:11:25Z</time>
      </trkpt>
      <trkpt lat="53.655379023402929" lon="-6.692376025021076">
        <ele>49.159999999999997</ele>
        <time>2026-07-08T12:11:33Z</time>
      </trkpt>
      <trkpt lat="53.65503896959126" lon="-6.693016989156604">
        <ele>47.240000000000002</ele>
        <time>2026-07-08T12:11:39Z</time>
      </trkpt>
      <trkpt lat="53.654783992096782" lon="-6.693656025454402">
        <ele>46.280000000000001</ele>
        <time>2026-07-08T12:11:44Z</time>
      </trkpt>
      <trkpt lat="53.654757002368569" lon="-6.693733977153897">
        <ele>46.280000000000001</ele>
        <time>2026-07-08T12:11:45Z</time>
      </trkpt>
      <trkpt lat="53.654644014313817" lon="-6.694067995995283">
        <ele>47.240000000000002</ele>
        <time>2026-07-08T12:11:54Z</time>
      </trkpt>
      <trkpt lat="53.654605038464069" lon="-6.694387011229992">
        <ele>50.130000000000003</ele>
        <time>2026-07-08T12:12:06Z</time>
      </trkpt>
      <trkpt lat="53.654605038464069" lon="-6.694387011229992">
        <ele>50.130000000000003</ele>
        <time>2026-07-08T12:12:10Z</time>
      </trkpt>
      <trkpt lat="53.654600009322166" lon="-6.6944470256567">
        <ele>50.609999999999999</ele>
        <time>2026-07-08T12:12:11Z</time>
      </trkpt>
      <trkpt lat="53.654545024037361" lon="-6.695267027243972">
        <ele>50.609999999999999</ele>
        <time>2026-07-08T12:12:19Z</time>
      </trkpt>
      <trkpt lat="53.654545024037361" lon="-6.696526994928718">
        <ele>48.200000000000003</ele>
        <time>2026-07-08T12:12:29Z</time>
      </trkpt>
      <trkpt lat="53.654545024037361" lon="-6.696956986561418">
        <ele>49.159999999999997</ele>
        <time>2026-07-08T12:12:34Z</time>
      </trkpt>
      <trkpt lat="53.654545024037361" lon="-6.697024963796139">
        <ele>49.649999999999999</ele>
        <time>2026-07-08T12:12:35Z</time>
      </trkpt>
      <trkpt lat="53.654545024037361" lon="-6.697124037891626">
        <ele>50.130000000000003</ele>
        <time>2026-07-08T12:12:43Z</time>
      </trkpt>
      <trkpt lat="53.654545024037361" lon="-6.697458978742361">
        <ele>49.649999999999999</ele>
        <time>2026-07-08T12:13:13Z</time>
      </trkpt>
      <trkpt lat="53.654545024037361" lon="-6.698042023926973">
        <ele>50.130000000000003</ele>
        <time>2026-07-08T12:13:18Z</time>
      </trkpt>
      <trkpt lat="53.654437987133861" lon="-6.698227012529969">
        <ele>50.130000000000003</ele>
        <time>2026-07-08T12:13:19Z</time>
      </trkpt>
      <trkpt lat="53.654434969648719" lon="-6.698235981166363">
        <ele>50.130000000000003</ele>
        <time>2026-07-08T12:13:20Z</time>
      </trkpt>
      <trkpt lat="53.654437987133861" lon="-6.698227012529969">
        <ele>50.130000000000003</ele>
        <time>2026-07-08T12:13:21Z</time>
      </trkpt>
      <trkpt lat="53.65432801656425" lon="-6.698453994467855">
        <ele>50.130000000000003</ele>
        <time>2026-07-08T12:13:22Z</time>
      </trkpt>
      <trkpt lat="53.654256016016006" lon="-6.698507973924279">
        <ele>50.130000000000003</ele>
        <time>2026-07-08T12:13:23Z</time>
      </trkpt>
      <trkpt lat="53.653540033847094" lon="-6.699232002720237">
        <ele>52.049999999999997</ele>
        <time>2026-07-08T12:13:32Z</time>
      </trkpt>
      <trkpt lat="53.65323199890554" lon="-6.699900040403009">
        <ele>55.890000000000001</ele>
        <time>2026-07-08T12:13:39Z</time>
      </trkpt>
      <trkpt lat="53.65321196615696" lon="-6.699951002374291">
        <ele>55.890000000000001</ele>
        <time>2026-07-08T12:13:40Z</time>
      </trkpt>
      <trkpt lat="53.653194028884172" lon="-6.699995007365942">
        <ele>56.369999999999997</ele>
        <time>2026-07-08T12:13:41Z</time>
      </trkpt>
      <trkpt lat="53.653167961165309" lon="-6.700059967115521">
        <ele>57.340000000000003</ele>
        <time>2026-07-08T12:13:50Z</time>
      </trkpt>
      <trkpt lat="53.65312403999269" lon="-6.700171027332544">
        <ele>57.340000000000003</ele>
        <time>2026-07-08T12:14:03Z</time>
      </trkpt>
      <trkpt lat="53.652736963704228" lon="-6.701071998104453">
        <ele>59.740000000000002</ele>
        <time>2026-07-08T12:14:11Z</time>
      </trkpt>
      <trkpt lat="53.652017964050174" lon="-6.702530030161142">
        <ele>63.579999999999998</ele>
        <time>2026-07-08T12:14:23Z</time>
      </trkpt>
      <trkpt lat="53.651281027123332" lon="-6.703756973147392">
        <ele>60.700000000000003</ele>
        <time>2026-07-08T12:14:33Z</time>
      </trkpt>
      <trkpt lat="53.650793032720685" lon="-6.704220995306969">
        <ele>57.82</ele>
        <time>2026-07-08T12:14:40Z</time>
      </trkpt>
      <trkpt lat="53.650575019419193" lon="-6.704410007223487">
        <ele>56.859999999999999</ele>
        <time>2026-07-08T12:14:46Z</time>
      </trkpt>
      <trkpt lat="53.650539983063936" lon="-6.704436996951699">
        <ele>56.859999999999999</ele>
        <time>2026-07-08T12:14:47Z</time>
      </trkpt>
      <trkpt lat="53.650361029431224" lon="-6.704300036653876">
        <ele>56.369999999999997</ele>
        <time>2026-07-08T12:14:49Z</time>
      </trkpt>
      <trkpt lat="53.650294980034232" lon="-6.704277992248535">
        <ele>55.890000000000001</ele>
        <time>2026-07-08T12:14:50Z</time>
      </trkpt>
      <trkpt lat="53.650216022506356" lon="-6.704251002520323">
        <ele>55.890000000000001</ele>
        <time>2026-07-08T12:14:51Z</time>
      </trkpt>
      <trkpt lat="53.65011602640152" lon="-6.704273968935013">
        <ele>55.409999999999997</ele>
        <time>2026-07-08T12:14:52Z</time>
      </trkpt>
      <trkpt lat="53.650045031681657" lon="-6.704357033595443">
        <ele>55.409999999999997</ele>
        <time>2026-07-08T12:14:53Z</time>
      </trkpt>
      <trkpt lat="53.649986023083329" lon="-6.704450994729996">
        <ele>55.409999999999997</ele>
        <time>2026-07-08T12:14:54Z</time>
      </trkpt>
      <trkpt lat="53.649931959807873" lon="-6.704584015533328">
        <ele>54.93</ele>
        <time>2026-07-08T12:14:55Z</time>
      </trkpt>
      <trkpt lat="53.649931959807873" lon="-6.70471703633666">
        <ele>54.93</ele>
        <time>2026-07-08T12:14:56Z</time>
      </trkpt>
      <trkpt lat="53.649931959807873" lon="-6.704856008291245">
        <ele>54.93</ele>
        <time>2026-07-08T12:14:57Z</time>
      </trkpt>
      <trkpt lat="53.649962972849607" lon="-6.70497503131628">
        <ele>54.93</ele>
        <time>2026-07-08T12:14:58Z</time>
      </trkpt>
      <trkpt lat="53.650008989498019" lon="-6.705087013542652">
        <ele>55.409999999999997</ele>
        <time>2026-07-08T12:14:59Z</time>
      </trkpt>
      <trkpt lat="53.650038996711373" lon="-6.705158008262515">
        <ele>55.409999999999997</ele>
        <time>2026-07-08T12:15:00Z</time>
      </trkpt>
      <trkpt lat="53.650038996711373" lon="-6.705158008262515">
        <ele>55.409999999999997</ele>
        <time>2026-07-08T12:15:01Z</time>
      </trkpt>
      <trkpt lat="53.65020202472806" lon="-6.705453973263502">
        <ele>54.93</ele>
        <time>2026-07-08T12:15:02Z</time>
      </trkpt>
      <trkpt lat="53.650211999192834" lon="-6.70561901293695">
        <ele>54.93</ele>
        <time>2026-07-08T12:15:03Z</time>
      </trkpt>
      <trkpt lat="53.650222979485989" lon="-6.705807019025087">
        <ele>54.93</ele>
        <time>2026-07-08T12:15:04Z</time>
      </trkpt>
      <trkpt lat="53.650234965607524" lon="-6.706012040376663">
        <ele>54.450000000000003</ele>
        <time>2026-07-08T12:15:05Z</time>
      </trkpt>
      <trkpt lat="53.650248041376472" lon="-6.706232987344265">
        <ele>54.450000000000003</ele>
        <time>2026-07-08T12:15:06Z</time>
      </trkpt>
      <trkpt lat="53.650207975879312" lon="-6.708522001281381">
        <ele>55.409999999999997</ele>
        <time>2026-07-08T12:15:14Z</time>
      </trkpt>
      <trkpt lat="53.649867000058293" lon="-6.71140001155436">
        <ele>56.859999999999999</ele>
        <time>2026-07-08T12:15:22Z</time>
      </trkpt>
      <trkpt lat="53.64904398098588" lon="-6.714786970987916">
        <ele>60.700000000000003</ele>
        <time>2026-07-08T12:15:31Z</time>
      </trkpt>
      <trkpt lat="53.647741014137864" lon="-6.718032024800777">
        <ele>67.430000000000007</ele>
        <time>2026-07-08T12:15:41Z</time>
      </trkpt>
      <trkpt lat="53.646537037566304" lon="-6.721084965392947">
        <ele>71.269999999999996</ele>
        <time>2026-07-08T12:15:51Z</time>
      </trkpt>
      <trkpt lat="53.645631037652493" lon="-6.724392967298627">
        <ele>67.909999999999997</ele>
        <time>2026-07-08T12:16:00Z</time>
      </trkpt>
      <trkpt lat="53.644628981128335" lon="-6.727876989170909">
        <ele>66.469999999999999</ele>
        <time>2026-07-08T12:16:10Z</time>
      </trkpt>
      <trkpt lat="53.643322996795177" lon="-6.731528984382749">
        <ele>68.390000000000001</ele>
        <time>2026-07-08T12:16:21Z</time>
      </trkpt>
      <trkpt lat="53.641658015549183" lon="-6.735485997051001">
        <ele>73.200000000000003</ele>
        <time>2026-07-08T12:16:33Z</time>
      </trkpt>
      <trkpt lat="53.640429982915521" lon="-6.738309022039175">
        <ele>80.890000000000001</ele>
        <time>2026-07-08T12:16:43Z</time>
      </trkpt>
      <trkpt lat="53.640137035399675" lon="-6.738895000889897">
        <ele>81.849999999999994</ele>
        <time>2026-07-08T12:16:47Z</time>
      </trkpt>
      <trkpt lat="53.640076015144587" lon="-6.739013018086553">
        <ele>82.329999999999998</ele>
        <time>2026-07-08T12:16:48Z</time>
      </trkpt>
      <trkpt lat="53.639910975471139" lon="-6.739082001149654">
        <ele>82.329999999999998</ele>
        <time>2026-07-08T12:16:49Z</time>
      </trkpt>
      <trkpt lat="53.639909969642758" lon="-6.739083006978035">
        <ele>82.810000000000002</ele>
        <time>2026-07-08T12:16:50Z</time>
      </trkpt>
      <trkpt lat="53.639836963266134" lon="-6.739127011969686">
        <ele>82.810000000000002</ele>
        <time>2026-07-08T12:16:51Z</time>
      </trkpt>
      <trkpt lat="53.639769991859794" lon="-6.739191971719265">
        <ele>82.810000000000002</ele>
        <time>2026-07-08T12:16:52Z</time>
      </trkpt>
      <trkpt lat="53.639730010181665" lon="-6.73928601667285">
        <ele>82.810000000000002</ele>
        <time>2026-07-08T12:16:53Z</time>
      </trkpt>
      <trkpt lat="53.639709977433085" lon="-6.739409985020757">
        <ele>82.810000000000002</ele>
        <time>2026-07-08T12:16:54Z</time>
      </trkpt>
      <trkpt lat="53.639695979654789" lon="-6.739490032196045">
        <ele>82.810000000000002</ele>
        <time>2026-07-08T12:16:55Z</time>
      </trkpt>
      <trkpt lat="53.639743002131581" lon="-6.739776022732258">
        <ele>82.329999999999998</ele>
        <time>2026-07-08T12:16:56Z</time>
      </trkpt>
      <trkpt lat="53.639692040160298" lon="-6.739913988858461">
        <ele>82.329999999999998</ele>
        <time>2026-07-08T12:16:57Z</time>
      </trkpt>
      <trkpt lat="53.639630014076829" lon="-6.740066958591342">
        <ele>82.810000000000002</ele>
        <time>2026-07-08T12:16:58Z</time>
      </trkpt>
      <trkpt lat="53.63954896107316" lon="-6.740219006314874">
        <ele>82.329999999999998</ele>
        <time>2026-07-08T12:16:59Z</time>
      </trkpt>
      <trkpt lat="53.639275040477514" lon="-6.740825017914176">
        <ele>81.849999999999994</ele>
        <time>2026-07-08T12:17:03Z</time>
      </trkpt>
      <trkpt lat="53.63909499719739" lon="-6.740885032340884">
        <ele>81.849999999999994</ele>
        <time>2026-07-08T12:17:04Z</time>
      </trkpt>
      <trkpt lat="53.639077981933951" lon="-6.7408980242908">
        <ele>81.849999999999994</ele>
        <time>2026-07-08T12:17:05Z</time>
      </trkpt>
      <trkpt lat="53.638995001092553" lon="-6.740959966555238">
        <ele>81.849999999999994</ele>
        <time>2026-07-08T12:17:06Z</time>
      </trkpt>
      <trkpt lat="53.638919983059168" lon="-6.741032972931862">
        <ele>81.849999999999994</ele>
        <time>2026-07-08T12:17:07Z</time>
      </trkpt>
      <trkpt lat="53.638892993330956" lon="-6.741166999563575">
        <ele>81.370000000000005</ele>
        <time>2026-07-08T12:17:08Z</time>
      </trkpt>
      <trkpt lat="53.63888100720942" lon="-6.741228019818664">
        <ele>81.370000000000005</ele>
        <time>2026-07-08T12:17:09Z</time>
      </trkpt>
      <trkpt lat="53.63886097446084" lon="-6.741583999246359">
        <ele>80.890000000000001</ele>
        <time>2026-07-08T12:17:10Z</time>
      </trkpt>
      <trkpt lat="53.638777993619442" lon="-6.741685001179576">
        <ele>80.409999999999997</ele>
        <time>2026-07-08T12:17:11Z</time>
      </trkpt>
      <trkpt lat="53.638683026656508" lon="-6.741818021982908">
        <ele>79.930000000000007</ele>
        <time>2026-07-08T12:17:12Z</time>
      </trkpt>
      <trkpt lat="53.638574983924627" lon="-6.741984989494085">
        <ele>79.930000000000007</ele>
        <time>2026-07-08T12:17:13Z</time>
      </trkpt>
      <trkpt lat="53.637509979307652" lon="-6.743076983839274">
        <ele>77.519999999999996</ele>
        <time>2026-07-08T12:17:20Z</time>
      </trkpt>
      <trkpt lat="53.635799987241626" lon="-6.744026988744736">
        <ele>74.159999999999997</ele>
        <time>2026-07-08T12:17:29Z</time>
      </trkpt>
      <trkpt lat="53.633624967187643" lon="-6.745124012231827">
        <ele>73.680000000000007</ele>
        <time>2026-07-08T12:17:40Z</time>
      </trkpt>
      <trkpt lat="53.632291993126273" lon="-6.746510965749621">
        <ele>74.159999999999997</ele>
        <time>2026-07-08T12:17:48Z</time>
      </trkpt>
      <trkpt lat="53.631106959655881" lon="-6.748709036037326">
        <ele>75.120000000000005</ele>
        <time>2026-07-08T12:17:57Z</time>
      </trkpt>
      <trkpt lat="53.630033992230892" lon="-6.751842023804784">
        <ele>75.120000000000005</ele>
        <time>2026-07-08T12:18:08Z</time>
      </trkpt>
      <trkpt lat="53.629246009513736" lon="-6.754832016304135">
        <ele>76.560000000000002</ele>
        <time>2026-07-08T12:18:18Z</time>
      </trkpt>
      <trkpt lat="53.628862034529448" lon="-6.75842902623117">
        <ele>79.930000000000007</ele>
        <time>2026-07-08T12:18:29Z</time>
      </trkpt>
      <trkpt lat="53.628792967647314" lon="-6.762071968987584">
        <ele>78.480000000000004</ele>
        <time>2026-07-08T12:18:40Z</time>
      </trkpt>
      <trkpt lat="53.629012992605567" lon="-6.766033004969358">
        <ele>77.040000000000006</ele>
        <time>2026-07-08T12:18:52Z</time>
      </trkpt>
      <trkpt lat="53.629072001203895" lon="-6.769154006615281">
        <ele>76.079999999999998</ele>
        <time>2026-07-08T12:19:02Z</time>
      </trkpt>
      <trkpt lat="53.62914802506566" lon="-6.771261971443892">
        <ele>76.079999999999998</ele>
        <time>2026-07-08T12:19:12Z</time>
      </trkpt>
      <trkpt lat="53.629176020622253" lon="-6.771692968904972">
        <ele>76.079999999999998</ele>
        <time>2026-07-08T12:19:16Z</time>
      </trkpt>
      <trkpt lat="53.629179960116744" lon="-6.7717519775033">
        <ele>76.079999999999998</ele>
        <time>2026-07-08T12:19:17Z</time>
      </trkpt>
      <trkpt lat="53.629095973446965" lon="-6.771787013858557">
        <ele>76.079999999999998</ele>
        <time>2026-07-08T12:19:18Z</time>
      </trkpt>
      <trkpt lat="53.629049034789205" lon="-6.771790031343699">
        <ele>76.079999999999998</ele>
        <time>2026-07-08T12:19:19Z</time>
      </trkpt>
      <trkpt lat="53.628983991220593" lon="-6.771791959181428">
        <ele>75.599999999999994</ele>
        <time>2026-07-08T12:19:20Z</time>
      </trkpt>
      <trkpt lat="53.628905033692718" lon="-6.77179598249495">
        <ele>75.599999999999994</ele>
        <time>2026-07-08T12:19:21Z</time>
      </trkpt>
      <trkpt lat="53.628118978813291" lon="-6.771808974444866">
        <ele>75.120000000000005</ele>
        <time>2026-07-08T12:19:28Z</time>
      </trkpt>
      <trkpt lat="53.627819996327162" lon="-6.77170897834003">
        <ele>75.120000000000005</ele>
        <time>2026-07-08T12:19:30Z</time>
      </trkpt>
      <trkpt lat="53.626101035624743" lon="-6.770976986736059">
        <ele>71.269999999999996</ele>
        <time>2026-07-08T12:19:40Z</time>
      </trkpt>
      <trkpt lat="53.623842028900981" lon="-6.769960010424256">
        <ele>70.790000000000006</ele>
        <time>2026-07-08T12:19:53Z</time>
      </trkpt>
      <trkpt lat="53.623544974252582" lon="-6.769763035699725">
        <ele>70.310000000000002</ele>
        <time>2026-07-08T12:19:55Z</time>
      </trkpt>
      <trkpt lat="53.623382030054927" lon="-6.769649041816592">
        <ele>70.790000000000006</ele>
        <time>2026-07-08T12:19:56Z</time>
      </trkpt>
      <trkpt lat="53.622201019898057" lon="-6.76842100918293">
        <ele>71.760000000000005</ele>
        <time>2026-07-08T12:20:04Z</time>
      </trkpt>
      <trkpt lat="53.621786031872034" lon="-6.768046002835035">
        <ele>72.719999999999999</ele>
        <time>2026-07-08T12:20:07Z</time>
      </trkpt>
      <trkpt lat="53.621083041653037" lon="-6.767549961805344">
        <ele>73.680000000000007</ele>
        <time>2026-07-08T12:20:12Z</time>
      </trkpt>
      <trkpt lat="53.620953038334846" lon="-6.767458012327552">
        <ele>74.159999999999997</ele>
        <time>2026-07-08T12:20:13Z</time>
      </trkpt>
      <trkpt lat="53.620675010606647" lon="-6.76726195961237">
        <ele>75.120000000000005</ele>
        <time>2026-07-08T12:20:15Z</time>
      </trkpt>
      <trkpt lat="53.620536960661411" lon="-6.767164980992675">
        <ele>75.120000000000005</ele>
        <time>2026-07-08T12:20:16Z</time>
      </trkpt>
      <trkpt lat="53.620265973731875" lon="-6.767028020694852">
        <ele>75.120000000000005</ele>
        <time>2026-07-08T12:20:18Z</time>
      </trkpt>
      <trkpt lat="53.620128007605672" lon="-6.767007987946272">
        <ele>74.640000000000001</ele>
        <time>2026-07-08T12:20:19Z</time>
      </trkpt>
      <trkpt lat="53.619991969317198" lon="-6.767022991552949">
        <ele>74.640000000000001</ele>
        <time>2026-07-08T12:20:20Z</time>
      </trkpt>
      <trkpt lat="53.619461981579661" lon="-6.767128016799688">
        <ele>72.239999999999995</ele>
        <time>2026-07-08T12:20:25Z</time>
      </trkpt>
      <trkpt lat="53.619339019060135" lon="-6.76700497046113">
        <ele>72.239999999999995</ele>
        <time>2026-07-08T12:20:26Z</time>
      </trkpt>
      <trkpt lat="53.619257966056466" lon="-6.766924001276493">
        <ele>72.239999999999995</ele>
        <time>2026-07-08T12:20:27Z</time>
      </trkpt>
      <trkpt lat="53.619171967729926" lon="-6.766805984079838">
        <ele>72.239999999999995</ele>
        <time>2026-07-08T12:20:28Z</time>
      </trkpt>
      <trkpt lat="53.619095021858811" lon="-6.766652008518577">
        <ele>72.239999999999995</ele>
        <time>2026-07-08T12:20:29Z</time>
      </trkpt>
      <trkpt lat="53.619016986340284" lon="-6.766496021300554">
        <ele>72.719999999999999</ele>
        <time>2026-07-08T12:20:30Z</time>
      </trkpt>
      <trkpt lat="53.618945991620421" lon="-6.766354031860828">
        <ele>73.200000000000003</ele>
        <time>2026-07-08T12:20:31Z</time>
      </trkpt>
      <trkpt lat="53.618874996900558" lon="-6.766211958602071">
        <ele>73.200000000000003</ele>
        <time>2026-07-08T12:20:32Z</time>
      </trkpt>
      <trkpt lat="53.618801990523934" lon="-6.766065023839474">
        <ele>73.200000000000003</ele>
        <time>2026-07-08T12:20:33Z</time>
      </trkpt>
      <trkpt lat="53.618712974712253" lon="-6.765926973894239">
        <ele>73.200000000000003</ele>
        <time>2026-07-08T12:20:34Z</time>
      </trkpt>
      <trkpt lat="53.618605015799403" lon="-6.765780039131641">
        <ele>72.719999999999999</ele>
        <time>2026-07-08T12:20:35Z</time>
      </trkpt>
      <trkpt lat="53.618484986945987" lon="-6.765636960044503">
        <ele>72.719999999999999</ele>
        <time>2026-07-08T12:20:36Z</time>
      </trkpt>
      <trkpt lat="53.617693986743689" lon="-6.764816958457232">
        <ele>72.719999999999999</ele>
        <time>2026-07-08T12:20:42Z</time>
      </trkpt>
      <trkpt lat="53.617597008123994" lon="-6.764656025916338">
        <ele>73.200000000000003</ele>
        <time>2026-07-08T12:20:43Z</time>
      </trkpt>
      <trkpt lat="53.617400033399463" lon="-6.7643609829247">
        <ele>73.680000000000007</ele>
        <time>2026-07-08T12:20:45Z</time>
      </trkpt>
      <trkpt lat="53.617294002324343" lon="-6.764262998476625">
        <ele>73.200000000000003</ele>
        <time>2026-07-08T12:20:46Z</time>
      </trkpt>
      <trkpt lat="53.617185037583113" lon="-6.764160990715027">
        <ele>73.200000000000003</ele>
        <time>2026-07-08T12:20:47Z</time>
      </trkpt>
      <trkpt lat="53.617059979587793" lon="-6.764086978510022">
        <ele>72.719999999999999</ele>
        <time>2026-07-08T12:20:48Z</time>
      </trkpt>
      <trkpt lat="53.616917990148067" lon="-6.764025036245585">
        <ele>72.239999999999995</ele>
        <time>2026-07-08T12:20:49Z</time>
      </trkpt>
      <trkpt lat="53.616765020415187" lon="-6.763965021818876">
        <ele>72.239999999999995</ele>
        <time>2026-07-08T12:20:50Z</time>
      </trkpt>
      <trkpt lat="53.616598974913359" lon="-6.763925962150097">
        <ele>71.760000000000005</ele>
        <time>2026-07-08T12:20:51Z</time>
      </trkpt>
      <trkpt lat="53.615375971421599" lon="-6.763730999082327">
        <ele>69.349999999999994</ele>
        <time>2026-07-08T12:20:58Z</time>
      </trkpt>
      <trkpt lat="53.614421021193266" lon="-6.763772992417216">
        <ele>68.390000000000001</ele>
        <time>2026-07-08T12:21:05Z</time>
      </trkpt>
      <trkpt lat="53.614247012883425" lon="-6.763775004073978">
        <ele>68.390000000000001</ele>
        <time>2026-07-08T12:21:10Z</time>
      </trkpt>
      <trkpt lat="53.614155985414982" lon="-6.763752037659288">
        <ele>68.870000000000005</ele>
        <time>2026-07-08T12:21:16Z</time>
      </trkpt>
      <trkpt lat="53.614068981260061" lon="-6.76375899463892">
        <ele>68.870000000000005</ele>
        <time>2026-07-08T12:21:17Z</time>
      </trkpt>
      <trkpt lat="53.613987006247044" lon="-6.76382303237915">
        <ele>68.870000000000005</ele>
        <time>2026-07-08T12:21:18Z</time>
      </trkpt>
      <trkpt lat="53.613208997994661" lon="-6.764429965987802">
        <ele>69.349999999999994</ele>
        <time>2026-07-08T12:21:24Z</time>
      </trkpt>
      <trkpt lat="53.612553030252457" lon="-6.76494000479579">
        <ele>68.870000000000005</ele>
        <time>2026-07-08T12:21:28Z</time>
      </trkpt>
      <trkpt lat="53.611350981518626" lon="-6.765952035784721">
        <ele>66.469999999999999</ele>
        <time>2026-07-08T12:21:35Z</time>
      </trkpt>
      <trkpt lat="53.610921995714307" lon="-6.766373980790377">
        <ele>67.430000000000007</ele>
        <time>2026-07-08T12:21:38Z</time>
      </trkpt>
      <trkpt lat="53.610783023759723" lon="-6.766527034342289">
        <ele>68.390000000000001</ele>
        <time>2026-07-08T12:21:39Z</time>
      </trkpt>
      <trkpt lat="53.609979031607509" lon="-6.767828995361924">
        <ele>72.239999999999995</ele>
        <time>2026-07-08T12:21:46Z</time>
      </trkpt>
      <trkpt lat="53.609244022518396" lon="-6.769678965210915">
        <ele>68.390000000000001</ele>
        <time>2026-07-08T12:21:56Z</time>
      </trkpt>
      <trkpt lat="53.60910102725029" lon="-6.770057994872332">
        <ele>66.950000000000003</ele>
        <time>2026-07-08T12:21:58Z</time>
      </trkpt>
      <trkpt lat="53.608409017324448" lon="-6.771907964721322">
        <ele>64.549999999999997</ele>
        <time>2026-07-08T12:22:08Z</time>
      </trkpt>
      <trkpt lat="53.607959998771548" lon="-6.773209003731608">
        <ele>63.100000000000001</ele>
        <time>2026-07-08T12:22:16Z</time>
      </trkpt>
      <trkpt lat="53.607910964637995" lon="-6.773330038413405">
        <ele>63.100000000000001</ele>
        <time>2026-07-08T12:22:17Z</time>
      </trkpt>
      <trkpt lat="53.607863020151854" lon="-6.773445038124919">
        <ele>62.619999999999997</ele>
        <time>2026-07-08T12:22:18Z</time>
      </trkpt>
      <trkpt lat="53.607808034867048" lon="-6.773540005087853">
        <ele>62.140000000000001</ele>
        <time>2026-07-08T12:22:19Z</time>
      </trkpt>
      <trkpt lat="53.607737040147185" lon="-6.773592978715897">
        <ele>62.140000000000001</ele>
        <time>2026-07-08T12:22:20Z</time>
      </trkpt>
      <trkpt lat="53.607660010457039" lon="-6.773650981485844">
        <ele>62.140000000000001</ele>
        <time>2026-07-08T12:22:21Z</time>
      </trkpt>
      <trkpt lat="53.607585998252034" lon="-6.773665985092521">
        <ele>62.619999999999997</ele>
        <time>2026-07-08T12:22:22Z</time>
      </trkpt>
      <trkpt lat="53.606705982238054" lon="-6.773902019485831">
        <ele>65.030000000000001</ele>
        <time>2026-07-08T12:22:33Z</time>
      </trkpt>
      <trkpt lat="53.60587801784277" lon="-6.77418096922338">
        <ele>67.909999999999997</ele>
        <time>2026-07-08T12:22:42Z</time>
      </trkpt>
      <trkpt lat="53.60454898327589" lon="-6.774644991382957">
        <ele>66.469999999999999</ele>
        <time>2026-07-08T12:22:51Z</time>
      </trkpt>
      <trkpt lat="53.603420024737716" lon="-6.775113036856055">
        <ele>64.549999999999997</ele>
        <time>2026-07-08T12:22:58Z</time>
      </trkpt>
      <trkpt lat="53.603274011984468" lon="-6.775225019082427">
        <ele>64.549999999999997</ele>
        <time>2026-07-08T12:22:59Z</time>
      </trkpt>
      <trkpt lat="53.602849971503019" lon="-6.775551997125149">
        <ele>65.510000000000005</ele>
        <time>2026-07-08T12:23:02Z</time>
      </trkpt>
      <trkpt lat="53.602702030912042" lon="-6.775625003501773">
        <ele>65.510000000000005</ele>
        <time>2026-07-08T12:23:03Z</time>
      </trkpt>
      <trkpt lat="53.602554006502032" lon="-6.775674037635326">
        <ele>65.510000000000005</ele>
        <time>2026-07-08T12:23:04Z</time>
      </trkpt>
      <trkpt lat="53.601935002952814" lon="-6.775778979063034">
        <ele>65.510000000000005</ele>
        <time>2026-07-08T12:23:08Z</time>
      </trkpt>
      <trkpt lat="53.601786978542805" lon="-6.775876041501761">
        <ele>65.510000000000005</ele>
        <time>2026-07-08T12:23:09Z</time>
      </trkpt>
      <trkpt lat="53.601636020466685" lon="-6.775975031778216">
        <ele>65.510000000000005</ele>
        <time>2026-07-08T12:23:10Z</time>
      </trkpt>
      <trkpt lat="53.599715977907181" lon="-6.777238016948104">
        <ele>69.829999999999998</ele>
        <time>2026-07-08T12:23:23Z</time>
      </trkpt>
      <trkpt lat="53.59958597458899" lon="-6.777319991961122">
        <ele>70.310000000000002</ele>
        <time>2026-07-08T12:23:24Z</time>
      </trkpt>
      <trkpt lat="53.599440967664123" lon="-6.777319991961122">
        <ele>70.310000000000002</ele>
        <time>2026-07-08T12:23:25Z</time>
      </trkpt>
      <trkpt lat="53.598710987716913" lon="-6.777299959212542">
        <ele>71.760000000000005</ele>
        <time>2026-07-08T12:23:30Z</time>
      </trkpt>
      <trkpt lat="53.598584001883864" lon="-6.777243968099356">
        <ele>71.760000000000005</ele>
        <time>2026-07-08T12:23:31Z</time>
      </trkpt>
      <trkpt lat="53.598469002172351" lon="-6.777114970609546">
        <ele>71.760000000000005</ele>
        <time>2026-07-08T12:23:32Z</time>
      </trkpt>
      <trkpt lat="53.598357019945979" lon="-6.776970969513059">
        <ele>71.760000000000005</ele>
        <time>2026-07-08T12:23:33Z</time>
      </trkpt>
      <trkpt lat="53.598234979435802" lon="-6.776799978688359">
        <ele>71.269999999999996</ele>
        <time>2026-07-08T12:23:34Z</time>
      </trkpt>
      <trkpt lat="53.597194030880928" lon="-6.77510398440063">
        <ele>69.349999999999994</ele>
        <time>2026-07-08T12:23:42Z</time>
      </trkpt>
      <trkpt lat="53.596399007365108" lon="-6.774476012215018">
        <ele>68.390000000000001</ele>
        <time>2026-07-08T12:23:47Z</time>
      </trkpt>
      <trkpt lat="53.596244025975466" lon="-6.774402000010014">
        <ele>68.390000000000001</ele>
        <time>2026-07-08T12:23:48Z</time>
      </trkpt>
      <trkpt lat="53.596137994900346" lon="-6.774418009445071">
        <ele>68.390000000000001</ele>
        <time>2026-07-08T12:23:49Z</time>
      </trkpt>
      <trkpt lat="53.595861978828907" lon="-6.77445899695158">
        <ele>67.909999999999997</ele>
        <time>2026-07-08T12:23:51Z</time>
      </trkpt>
      <trkpt lat="53.595712026581168" lon="-6.774441981688142">
        <ele>67.909999999999997</ele>
        <time>2026-07-08T12:23:52Z</time>
      </trkpt>
      <trkpt lat="53.594734026119113" lon="-6.774357995018363">
        <ele>65.989999999999995</ele>
        <time>2026-07-08T12:23:58Z</time>
      </trkpt>
      <trkpt lat="53.594589019194245" lon="-6.774423960596323">
        <ele>65.510000000000005</ele>
        <time>2026-07-08T12:23:59Z</time>
      </trkpt>
      <trkpt lat="53.594447029754519" lon="-6.774495961144567">
        <ele>65.510000000000005</ele>
        <time>2026-07-08T12:24:00Z</time>
      </trkpt>
      <trkpt lat="53.594159027561545" lon="-6.774639962241054">
        <ele>64.549999999999997</ele>
        <time>2026-07-08T12:24:02Z</time>
      </trkpt>
      <trkpt lat="53.594011003151536" lon="-6.774691008031368">
        <ele>64.069999999999993</ele>
        <time>2026-07-08T12:24:03Z</time>
      </trkpt>
      <trkpt lat="53.593856021761894" lon="-6.774713974446058">
        <ele>64.069999999999993</ele>
        <time>2026-07-08T12:24:04Z</time>
      </trkpt>
      <trkpt lat="53.592351973056793" lon="-6.774770971387625">
        <ele>62.140000000000001</ele>
        <time>2026-07-08T12:24:13Z</time>
      </trkpt>
      <trkpt lat="53.592195985838771" lon="-6.774727972224355">
        <ele>62.619999999999997</ele>
        <time>2026-07-08T12:24:14Z</time>
      </trkpt>
      <trkpt lat="53.592041004449129" lon="-6.774664018303156">
        <ele>62.140000000000001</ele>
        <time>2026-07-08T12:24:15Z</time>
      </trkpt>
      <trkpt lat="53.591879988089204" lon="-6.774564022198319">
        <ele>62.140000000000001</ele>
        <time>2026-07-08T12:24:16Z</time>
      </trkpt>
      <trkpt lat="53.591716960072517" lon="-6.774462014436722">
        <ele>62.140000000000001</ele>
        <time>2026-07-08T12:24:17Z</time>
      </trkpt>
      <trkpt lat="53.591556027531624" lon="-6.774362018331885">
        <ele>61.659999999999997</ele>
        <time>2026-07-08T12:24:18Z</time>
      </trkpt>
      <trkpt lat="53.591394005343318" lon="-6.774303009733558">
        <ele>61.659999999999997</ele>
        <time>2026-07-08T12:24:19Z</time>
      </trkpt>
      <trkpt lat="53.591231983155012" lon="-6.774278031662107">
        <ele>61.18</ele>
        <time>2026-07-08T12:24:20Z</time>
      </trkpt>
      <trkpt lat="53.591067027300596" lon="-6.774293035268784">
        <ele>61.18</ele>
        <time>2026-07-08T12:24:21Z</time>
      </trkpt>
      <trkpt lat="53.590898970142007" lon="-6.774318013340235">
        <ele>61.18</ele>
        <time>2026-07-08T12:24:22Z</time>
      </trkpt>
      <trkpt lat="53.589095016941428" lon="-6.774331005290151">
        <ele>59.259999999999998</ele>
        <time>2026-07-08T12:24:32Z</time>
      </trkpt>
      <trkpt lat="53.588279960677028" lon="-6.774376016110182">
        <ele>59.259999999999998</ele>
        <time>2026-07-08T12:24:37Z</time>
      </trkpt>
      <trkpt lat="53.588122967630625" lon="-6.774469977244735">
        <ele>59.259999999999998</ele>
        <time>2026-07-08T12:24:38Z</time>
      </trkpt>
      <trkpt lat="53.587297014892101" lon="-6.774873984977603">
        <ele>60.700000000000003</ele>
        <time>2026-07-08T12:24:43Z</time>
      </trkpt>
      <trkpt lat="53.585957000032067" lon="-6.775346975773573">
        <ele>62.619999999999997</ele>
        <time>2026-07-08T12:24:51Z</time>
      </trkpt>
      <trkpt lat="53.585623987019062" lon="-6.775432974100113">
        <ele>61.659999999999997</ele>
        <time>2026-07-08T12:24:53Z</time>
      </trkpt>
      <trkpt lat="53.584234016016126" lon="-6.775703961029649">
        <ele>58.299999999999997</ele>
        <time>2026-07-08T12:25:01Z</time>
      </trkpt>
      <trkpt lat="53.58291101641953" lon="-6.776356995105743">
        <ele>58.780000000000001</ele>
        <time>2026-07-08T12:25:08Z</time>
      </trkpt>
      <trkpt lat="53.581663034856319" lon="-6.77733801305294">
        <ele>58.780000000000001</ele>
        <time>2026-07-08T12:25:15Z</time>
      </trkpt>
      <trkpt lat="53.581506041809916" lon="-6.777429962530732">
        <ele>58.780000000000001</ele>
        <time>2026-07-08T12:25:16Z</time>
      </trkpt>
      <trkpt lat="53.581209992989898" lon="-6.777602965012193">
        <ele>58.780000000000001</ele>
        <time>2026-07-08T12:25:18Z</time>
      </trkpt>
      <trkpt lat="53.581051994115114" lon="-6.77761796861887">
        <ele>59.259999999999998</ele>
        <time>2026-07-08T12:25:19Z</time>
      </trkpt>
      <trkpt lat="53.580899024382234" lon="-6.77761503495276">
        <ele>60.219999999999999</ele>
        <time>2026-07-08T12:25:20Z</time>
      </trkpt>
      <trkpt lat="53.579574013128877" lon="-6.777778984978795">
        <ele>63.100000000000001</ele>
        <time>2026-07-08T12:25:28Z</time>
      </trkpt>
      <trkpt lat="53.578217988833785" lon="-6.778071010485292">
        <ele>62.619999999999997</ele>
        <time>2026-07-08T12:25:35Z</time>
      </trkpt>
      <trkpt lat="53.576935976743698" lon="-6.778309978544712">
        <ele>63.579999999999998</ele>
        <time>2026-07-08T12:25:42Z</time>
      </trkpt>
      <trkpt lat="53.57524199411273" lon="-6.779209021478891">
        <ele>64.549999999999997</ele>
        <time>2026-07-08T12:25:52Z</time>
      </trkpt>
      <trkpt lat="53.573711039498448" lon="-6.780170006677508">
        <ele>63.100000000000001</ele>
        <time>2026-07-08T12:26:02Z</time>
      </trkpt>
      <trkpt lat="53.573288004845381" lon="-6.780567979440093">
        <ele>63.579999999999998</ele>
        <time>2026-07-08T12:26:05Z</time>
      </trkpt>
      <trkpt lat="53.572131972759962" lon="-6.782078985124826">
        <ele>63.579999999999998</ele>
        <time>2026-07-08T12:26:13Z</time>
      </trkpt>
      <trkpt lat="53.571149026975036" lon="-6.783386981114745">
        <ele>66.469999999999999</ele>
        <time>2026-07-08T12:26:20Z</time>
      </trkpt>
      <trkpt lat="53.570781983435154" lon="-6.783766010776162">
        <ele>67.909999999999997</ele>
        <time>2026-07-08T12:26:23Z</time>
      </trkpt>
      <trkpt lat="53.570640999823809" lon="-6.783859971910715">
        <ele>67.909999999999997</ele>
        <time>2026-07-08T12:26:24Z</time>
      </trkpt>
      <trkpt lat="53.570359032601118" lon="-6.784047977998853">
        <ele>68.390000000000001</ele>
        <time>2026-07-08T12:26:26Z</time>
      </trkpt>
      <trkpt lat="53.570228023454547" lon="-6.784250987693667">
        <ele>68.870000000000005</ele>
        <time>2026-07-08T12:26:27Z</time>
      </trkpt>
      <trkpt lat="53.570116041228175" lon="-6.784434970468283">
        <ele>68.870000000000005</ele>
        <time>2026-07-08T12:26:28Z</time>
      </trkpt>
      <trkpt lat="53.568913992494345" lon="-6.786550981923938">
        <ele>70.310000000000002</ele>
        <time>2026-07-08T12:26:38Z</time>
      </trkpt>
      <trkpt lat="53.567613959312439" lon="-6.788817029446363">
        <ele>73.200000000000003</ele>
        <time>2026-07-08T12:26:49Z</time>
      </trkpt>
      <trkpt lat="53.566869981586933" lon="-6.79005797021091">
        <ele>73.200000000000003</ele>
        <time>2026-07-08T12:26:56Z</time>
      </trkpt>
      <trkpt lat="53.566710976883769" lon="-6.790113961324096">
        <ele>73.200000000000003</ele>
        <time>2026-07-08T12:26:57Z</time>
      </trkpt>
      <trkpt lat="53.566588014364243" lon="-6.790118990465999">
        <ele>73.200000000000003</ele>
        <time>2026-07-08T12:26:58Z</time>
      </trkpt>
      <trkpt lat="53.566452981904149" lon="-6.790125025436282">
        <ele>73.200000000000003</ele>
        <time>2026-07-08T12:26:59Z</time>
      </trkpt>
      <trkpt lat="53.566307974979281" lon="-6.790129970759153">
        <ele>72.719999999999999</ele>
        <time>2026-07-08T12:27:00Z</time>
      </trkpt>
      <trkpt lat="53.564876010641456" lon="-6.790111027657986">
        <ele>71.269999999999996</ele>
        <time>2026-07-08T12:27:09Z</time>
      </trkpt>
      <trkpt lat="53.563368022441864" lon="-6.789939031004906">
        <ele>71.269999999999996</ele>
        <time>2026-07-08T12:27:19Z</time>
      </trkpt>
      <trkpt lat="53.562475014477968" lon="-6.789859989657998">
        <ele>67.909999999999997</ele>
        <time>2026-07-08T12:27:28Z</time>
      </trkpt>
      <trkpt lat="53.562364960089326" lon="-6.789854038506746">
        <ele>66.469999999999999</ele>
        <time>2026-07-08T12:27:37Z</time>
      </trkpt>
      <trkpt lat="53.562320033088326" lon="-6.789871975779533">
        <ele>65.510000000000005</ele>
        <time>2026-07-08T12:27:40Z</time>
      </trkpt>
      <trkpt lat="53.562320033088326" lon="-6.78995001129806">
        <ele>65.030000000000001</ele>
        <time>2026-07-08T12:27:41Z</time>
      </trkpt>
      <trkpt lat="53.562320033088326" lon="-6.790056964382529">
        <ele>65.030000000000001</ele>
        <time>2026-07-08T12:27:42Z</time>
      </trkpt>
      <trkpt lat="53.562320033088326" lon="-6.790280006825924">
        <ele>64.069999999999993</ele>
        <time>2026-07-08T12:27:44Z</time>
      </trkpt>
      <trkpt lat="53.562194975093007" lon="-6.790417972952128">
        <ele>63.579999999999998</ele>
        <time>2026-07-08T12:27:45Z</time>
      </trkpt>
      <trkpt lat="53.562122974544764" lon="-6.790434988215566">
        <ele>63.579999999999998</ele>
        <time>2026-07-08T12:27:46Z</time>
      </trkpt>
      <trkpt lat="53.562035970389843" lon="-6.790456026792526">
        <ele>63.579999999999998</ele>
        <time>2026-07-08T12:27:47Z</time>
      </trkpt>
      <trkpt lat="53.561946032568812" lon="-6.790477987378836">
        <ele>63.100000000000001</ele>
        <time>2026-07-08T12:27:48Z</time>
      </trkpt>
      <trkpt lat="53.560811961069703" lon="-6.790768001228571">
        <ele>60.700000000000003</ele>
        <time>2026-07-08T12:27:59Z</time>
      </trkpt>
      <trkpt lat="53.560447013005614" lon="-6.790913008153439">
        <ele>60.700000000000003</ele>
        <time>2026-07-08T12:28:04Z</time>
      </trkpt>
      <trkpt lat="53.560303011909127" lon="-6.791031025350094">
        <ele>60.700000000000003</ele>
        <time>2026-07-08T12:28:09Z</time>
      </trkpt>
      <trkpt lat="53.560303011909127" lon="-6.791031025350094">
        <ele>61.18</ele>
        <time>2026-07-08T12:28:10Z</time>
      </trkpt>
      <trkpt lat="53.559627011418343" lon="-6.790179004892707">
        <ele>62.140000000000001</ele>
        <time>2026-07-08T12:28:20Z</time>
      </trkpt>
      <trkpt lat="53.559571020305157" lon="-6.790095018222928">
        <ele>62.140000000000001</ele>
        <time>2026-07-08T12:28:21Z</time>
      </trkpt>
      <trkpt lat="53.558866018429399" lon="-6.789402002468705">
        <ele>63.100000000000001</ele>
        <time>2026-07-08T12:28:33Z</time>
      </trkpt>
      <trkpt lat="53.558535017073154" lon="-6.789267975836992">
        <ele>63.579999999999998</ele>
        <time>2026-07-08T12:28:40Z</time>
      </trkpt>
      <trkpt lat="53.558494029566646" lon="-6.789259007200599">
        <ele>63.579999999999998</ele>
        <time>2026-07-08T12:28:41Z</time>
      </trkpt>
      <trkpt lat="53.558048028498888" lon="-6.789163034409285">
        <ele>64.549999999999997</ele>
        <time>2026-07-08T12:28:53Z</time>
      </trkpt>
      <trkpt lat="53.558008968830109" lon="-6.789115006104112">
        <ele>64.549999999999997</ele>
        <time>2026-07-08T12:28:54Z</time>
      </trkpt>
      <trkpt lat="53.557972004637122" lon="-6.789069995284081">
        <ele>64.549999999999997</ele>
        <time>2026-07-08T12:28:55Z</time>
      </trkpt>
      <trkpt lat="53.557936968281865" lon="-6.78902599029243">
        <ele>64.549999999999997</ele>
        <time>2026-07-08T12:28:56Z</time>
      </trkpt>
      <trkpt lat="53.55790201574564" lon="-6.788983996957541">
        <ele>64.549999999999997</ele>
        <time>2026-07-08T12:28:57Z</time>
      </trkpt>
      <trkpt lat="53.557866979390383" lon="-6.788940997794271">
        <ele>64.549999999999997</ele>
        <time>2026-07-08T12:28:58Z</time>
      </trkpt>
      <trkpt lat="53.55783998966217" lon="-6.788895986974239">
        <ele>64.549999999999997</ele>
        <time>2026-07-08T12:28:59Z</time>
      </trkpt>
      <trkpt lat="53.557811994105577" lon="-6.788844019174576">
        <ele>64.549999999999997</ele>
        <time>2026-07-08T12:29:00Z</time>
      </trkpt>
      <trkpt lat="53.557699006050825" lon="-6.788629023358226">
        <ele>65.030000000000001</ele>
        <time>2026-07-08T12:29:04Z</time>
      </trkpt>
      <trkpt lat="53.557652989402413" lon="-6.788542019203305">
        <ele>65.030000000000001</ele>
        <time>2026-07-08T12:29:08Z</time>
      </trkpt>
      <trkpt lat="53.557588029652834" lon="-6.788684008643031">
        <ele>65.030000000000001</ele>
        <time>2026-07-08T12:29:10Z</time>
      </trkpt>
      <trkpt lat="53.557570008561015" lon="-6.788737988099456">
        <ele>65.510000000000005</ele>
        <time>2026-07-08T12:29:11Z</time>
      </trkpt>
      <trkpt lat="53.557544024661183" lon="-6.788816023617983">
        <ele>65.510000000000005</ele>
        <time>2026-07-08T12:29:12Z</time>
      </trkpt>
      <trkpt lat="53.557513011619449" lon="-6.788906967267394">
        <ele>65.510000000000005</ele>
        <time>2026-07-08T12:29:13Z</time>
      </trkpt>
      <trkpt lat="53.557456014677882" lon="-6.789077958092094">
        <ele>65.989999999999995</ele>
        <time>2026-07-08T12:29:15Z</time>
      </trkpt>
      <trkpt lat="53.557382002472878" lon="-6.789299994707108">
        <ele>66.469999999999999</ele>
        <time>2026-07-08T12:29:18Z</time>
      </trkpt>
      <trkpt lat="53.557294998317957" lon="-6.78956201300025">
        <ele>67.430000000000007</ele>
        <time>2026-07-08T12:29:21Z</time>
      </trkpt>
      <trkpt lat="53.557226015254855" lon="-6.789768962189555">
        <ele>67.430000000000007</ele>
        <time>2026-07-08T12:29:23Z</time>
      </trkpt>
      <trkpt lat="53.556957961991429" lon="-6.790261985734105">
        <ele>68.870000000000005</ele>
        <time>2026-07-08T12:29:29Z</time>
      </trkpt>
      <trkpt lat="53.556817984208465" lon="-6.790495002642274">
        <ele>69.349999999999994</ele>
        <time>2026-07-08T12:29:32Z</time>
      </trkpt>
      <trkpt lat="53.556766016408801" lon="-6.790582006797195">
        <ele>69.349999999999994</ele>
        <time>2026-07-08T12:29:33Z</time>
      </trkpt>
      <trkpt lat="53.556701978668571" lon="-6.790659036487341">
        <ele>69.349999999999994</ele>
        <time>2026-07-08T12:29:34Z</time>
      </trkpt>
      <trkpt lat="53.556632995605469" lon="-6.790721984580159">
        <ele>68.870000000000005</ele>
        <time>2026-07-08T12:29:35Z</time>
      </trkpt>
      <trkpt lat="53.556562000885606" lon="-6.79078602232039">
        <ele>68.870000000000005</ele>
        <time>2026-07-08T12:29:36Z</time>
      </trkpt>
      <trkpt lat="53.556488994508982" lon="-6.790845030918717">
        <ele>68.390000000000001</ele>
        <time>2026-07-08T12:29:37Z</time>
      </trkpt>
      <trkpt lat="53.556413976475596" lon="-6.790877971798182">
        <ele>67.909999999999997</ele>
        <time>2026-07-08T12:29:38Z</time>
      </trkpt>
      <trkpt lat="53.556340970098972" lon="-6.790908984839916">
        <ele>67.909999999999997</ele>
        <time>2026-07-08T12:29:39Z</time>
      </trkpt>
      <trkpt lat="53.55627098120749" lon="-6.790939997881651">
        <ele>67.909999999999997</ele>
        <time>2026-07-08T12:29:40Z</time>
      </trkpt>
      <trkpt lat="53.556201998144388" lon="-6.790968999266625">
        <ele>67.909999999999997</ele>
        <time>2026-07-08T12:29:41Z</time>
      </trkpt>
      <trkpt lat="53.556135026738048" lon="-6.790998000651598">
        <ele>68.390000000000001</ele>
        <time>2026-07-08T12:29:42Z</time>
      </trkpt>
      <trkpt lat="53.556069983169436" lon="-6.791027002036572">
        <ele>68.390000000000001</ele>
        <time>2026-07-08T12:29:43Z</time>
      </trkpt>
      <trkpt lat="53.555819028988481" lon="-6.791148036718369">
        <ele>68.870000000000005</ele>
        <time>2026-07-08T12:29:47Z</time>
      </trkpt>
      <trkpt lat="53.555461037904024" lon="-6.791293965652585">
        <ele>68.870000000000005</ele>
        <time>2026-07-08T12:29:52Z</time>
      </trkpt>
      <trkpt lat="53.555369004607201" lon="-6.791265970095992">
        <ele>68.870000000000005</ele>
        <time>2026-07-08T12:29:53Z</time>
      </trkpt>
      <trkpt lat="53.555279988795519" lon="-6.79123998619616">
        <ele>68.390000000000001</ele>
        <time>2026-07-08T12:29:54Z</time>
      </trkpt>
      <trkpt lat="53.554957034066319" lon="-6.791145019233227">
        <ele>67.909999999999997</ele>
        <time>2026-07-08T12:30:00Z</time>
      </trkpt>
      <trkpt lat="53.554943958297372" lon="-6.791113000363112">
        <ele>68.390000000000001</ele>
        <time>2026-07-08T12:30:01Z</time>
      </trkpt>
      <trkpt lat="53.554954016581178" lon="-6.79106798954308">
        <ele>68.390000000000001</ele>
        <time>2026-07-08T12:30:02Z</time>
      </trkpt>
      <trkpt lat="53.555032974109054" lon="-6.790712010115385">
        <ele>66.950000000000003</ele>
        <time>2026-07-08T12:30:10Z</time>
      </trkpt>
      <trkpt lat="53.555032974109054" lon="-6.790712010115385">
        <ele>66.950000000000003</ele>
        <time>2026-07-08T12:30:26Z</time>
      </trkpt>
      <trkpt lat="53.555032974109054" lon="-6.790712010115385">
        <ele>65.510000000000005</ele>
        <time>2026-07-08T12:30:54Z</time>
      </trkpt>
      <trkpt lat="53.55506700463593" lon="-6.790559040382505">
        <ele>64.549999999999997</ele>
        <time>2026-07-08T12:30:57Z</time>
      </trkpt>
      <trkpt lat="53.55506700463593" lon="-6.790559040382505">
        <ele>63.579999999999998</ele>
        <time>2026-07-08T12:30:58Z</time>
      </trkpt>
      <trkpt lat="53.55506700463593" lon="-6.790559040382505">
        <ele>63.100000000000001</ele>
        <time>2026-07-08T12:30:59Z</time>
      </trkpt>
      <trkpt lat="53.55506700463593" lon="-6.790559040382505">
        <ele>62.619999999999997</ele>
        <time>2026-07-08T12:31:00Z</time>
      </trkpt>
      <trkpt lat="53.55506700463593" lon="-6.790559040382505">
        <ele>62.619999999999997</ele>
        <time>2026-07-08T12:31:14Z</time>
      </trkpt>
      <trkpt lat="53.55506700463593" lon="-6.790559040382505">
        <ele>62.619999999999997</ele>
        <time>2026-07-08T12:31:41Z</time>
      </trkpt>
      <trkpt lat="53.554900037124753" lon="-6.79061503149569">
        <ele>71.760000000000005</ele>
        <time>2026-07-08T13:09:24Z</time>
      </trkpt>
      <trkpt lat="53.554921997711062" lon="-6.79061402566731">
        <ele>68.870000000000005</ele>
        <time>2026-07-08T13:10:01Z</time>
      </trkpt>
      <trkpt lat="53.554896013811231" lon="-6.790567003190517">
        <ele>61.659999999999997</ele>
        <time>2026-07-08T13:10:59Z</time>
      </trkpt>
      <trkpt lat="53.554915962740779" lon="-6.790587035939097">
        <ele>62.619999999999997</ele>
        <time>2026-07-08T13:11:54Z</time>
      </trkpt>
      <trkpt lat="53.554918980225921" lon="-6.790588963776827">
        <ele>62.619999999999997</ele>
        <time>2026-07-08T13:12:40Z</time>
      </trkpt>
      <trkpt lat="53.554915962740779" lon="-6.790588963776827">
        <ele>62.140000000000001</ele>
        <time>2026-07-08T13:13:29Z</time>
      </trkpt>
      <trkpt lat="53.554915962740779" lon="-6.790588963776827">
        <ele>62.140000000000001</ele>
        <time>2026-07-08T13:13:48Z</time>
      </trkpt>
      <trkpt lat="53.555033979937434" lon="-6.790707986801863">
        <ele>61.18</ele>
        <time>2026-07-08T13:13:51Z</time>
      </trkpt>
      <trkpt lat="53.555028028786182" lon="-6.790733970701695">
        <ele>61.18</ele>
        <time>2026-07-08T13:13:52Z</time>
      </trkpt>
      <trkpt lat="53.555019982159138" lon="-6.790772024542093">
        <ele>61.18</ele>
        <time>2026-07-08T13:13:53Z</time>
      </trkpt>
      <trkpt lat="53.555006990209222" lon="-6.790831033140421">
        <ele>61.18</ele>
        <time>2026-07-08T13:13:54Z</time>
      </trkpt>
      <trkpt lat="53.554988969117403" lon="-6.790913008153439">
        <ele>61.18</ele>
        <time>2026-07-08T13:13:55Z</time>
      </trkpt>
      <trkpt lat="53.554972959682345" lon="-6.79098199121654">
        <ele>60.700000000000003</ele>
        <time>2026-07-08T13:13:56Z</time>
      </trkpt>
      <trkpt lat="53.554964996874332" lon="-6.791019039228559">
        <ele>61.18</ele>
        <time>2026-07-08T13:13:57Z</time>
      </trkpt>
      <trkpt lat="53.554958961904049" lon="-6.791046028956771">
        <ele>61.18</ele>
        <time>2026-07-08T13:13:58Z</time>
      </trkpt>
      <trkpt lat="53.554953010752797" lon="-6.791075030341744">
        <ele>61.18</ele>
        <time>2026-07-08T13:13:59Z</time>
      </trkpt>
      <trkpt lat="53.554926021024585" lon="-6.791135966777802">
        <ele>61.18</ele>
        <time>2026-07-08T13:14:00Z</time>
      </trkpt>
      <trkpt lat="53.554868018254638" lon="-6.791123980656266">
        <ele>61.18</ele>
        <time>2026-07-08T13:14:01Z</time>
      </trkpt>
      <trkpt lat="53.554790988564491" lon="-6.791106965392828">
        <ele>60.700000000000003</ele>
        <time>2026-07-08T13:14:02Z</time>
      </trkpt>
      <trkpt lat="53.554709013551474" lon="-6.791090033948422">
        <ele>60.219999999999999</ele>
        <time>2026-07-08T13:14:03Z</time>
      </trkpt>
      <trkpt lat="53.554437020793557" lon="-6.790970005095005">
        <ele>59.740000000000002</ele>
        <time>2026-07-08T13:14:07Z</time>
      </trkpt>
      <trkpt lat="53.553976016119123" lon="-6.790670016780496">
        <ele>59.259999999999998</ele>
        <time>2026-07-08T13:14:13Z</time>
      </trkpt>
      <trkpt lat="53.553899992257357" lon="-6.79059399291873">
        <ele>58.780000000000001</ele>
        <time>2026-07-08T13:14:14Z</time>
      </trkpt>
      <trkpt lat="53.553824974223971" lon="-6.790518974885345">
        <ele>58.780000000000001</ele>
        <time>2026-07-08T13:14:15Z</time>
      </trkpt>
      <trkpt lat="53.553763031959534" lon="-6.790409004315734">
        <ele>58.299999999999997</ele>
        <time>2026-07-08T13:14:16Z</time>
      </trkpt>
      <trkpt lat="53.553715003654361" lon="-6.790301967412233">
        <ele>57.82</ele>
        <time>2026-07-08T13:14:17Z</time>
      </trkpt>
      <trkpt lat="53.553274031728506" lon="-6.789105031639338">
        <ele>57.82</ele>
        <time>2026-07-08T13:14:26Z</time>
      </trkpt>
      <trkpt lat="53.553227009251714" lon="-6.788977039977908">
        <ele>58.299999999999997</ele>
        <time>2026-07-08T13:14:27Z</time>
      </trkpt>
      <trkpt lat="53.552749995142221" lon="-6.787681030109525">
        <ele>58.780000000000001</ele>
        <time>2026-07-08T13:14:36Z</time>
      </trkpt>
      <trkpt lat="53.552700038999319" lon="-6.787547003477812">
        <ele>58.780000000000001</ele>
        <time>2026-07-08T13:14:37Z</time>
      </trkpt>
      <trkpt lat="53.552651004865766" lon="-6.787408031523228">
        <ele>58.299999999999997</ele>
        <time>2026-07-08T13:14:38Z</time>
      </trkpt>
      <trkpt lat="53.552475990727544" lon="-6.786845019087195">
        <ele>58.299999999999997</ele>
        <time>2026-07-08T13:14:45Z</time>
      </trkpt>
      <trkpt lat="53.552475990727544" lon="-6.786845019087195">
        <ele>58.780000000000001</ele>
        <time>2026-07-08T13:14:46Z</time>
      </trkpt>
      <trkpt lat="53.552459981292486" lon="-6.786793973296881">
        <ele>58.780000000000001</ele>
        <time>2026-07-08T13:14:52Z</time>
      </trkpt>
      <trkpt lat="53.552321009337902" lon="-6.786503959447146">
        <ele>58.299999999999997</ele>
        <time>2026-07-08T13:14:56Z</time>
      </trkpt>
      <trkpt lat="53.552314974367619" lon="-6.786493984982371">
        <ele>58.780000000000001</ele>
        <time>2026-07-08T13:14:57Z</time>
      </trkpt>
      <trkpt lat="53.551776017993689" lon="-6.785556972026825">
        <ele>57.82</ele>
        <time>2026-07-08T13:15:07Z</time>
      </trkpt>
      <trkpt lat="53.551711980253458" lon="-6.785450018942356">
        <ele>57.82</ele>
        <time>2026-07-08T13:15:08Z</time>
      </trkpt>
      <trkpt lat="53.551577031612396" lon="-6.78522203117609">
        <ele>57.340000000000003</ele>
        <time>2026-07-08T13:15:10Z</time>
      </trkpt>
      <trkpt lat="53.55145700275898" lon="-6.785002006217837">
        <ele>56.859999999999999</ele>
        <time>2026-07-08T13:15:12Z</time>
      </trkpt>
      <trkpt lat="53.551345020532608" lon="-6.784737976267934">
        <ele>55.890000000000001</ele>
        <time>2026-07-08T13:15:15Z</time>
      </trkpt>
      <trkpt lat="53.551313001662493" lon="-6.784661030396819">
        <ele>55.409999999999997</ele>
        <time>2026-07-08T13:15:16Z</time>
      </trkpt>
      <trkpt lat="53.551302021369338" lon="-6.784572014585137">
        <ele>54.93</ele>
        <time>2026-07-08T13:15:17Z</time>
      </trkpt>
      <trkpt lat="53.551289029419422" lon="-6.784462966024876">
        <ele>54.450000000000003</ele>
        <time>2026-07-08T13:15:18Z</time>
      </trkpt>
      <trkpt lat="53.551274025812745" lon="-6.784334974363446">
        <ele>53.969999999999999</ele>
        <time>2026-07-08T13:15:19Z</time>
      </trkpt>
      <trkpt lat="53.5512659791857" lon="-6.784187033772469">
        <ele>53.969999999999999</ele>
        <time>2026-07-08T13:15:20Z</time>
      </trkpt>
      <trkpt lat="53.551260028034449" lon="-6.784022999927402">
        <ele>53.969999999999999</ele>
        <time>2026-07-08T13:15:21Z</time>
      </trkpt>
      <trkpt lat="53.551254998892546" lon="-6.783861983567476">
        <ele>53.969999999999999</ele>
        <time>2026-07-08T13:15:22Z</time>
      </trkpt>
      <trkpt lat="53.55124200694263" lon="-6.782652977854013">
        <ele>53.969999999999999</ele>
        <time>2026-07-08T13:15:31Z</time>
      </trkpt>
      <trkpt lat="53.551291041076183" lon="-6.781622003763914">
        <ele>55.409999999999997</ele>
        <time>2026-07-08T13:15:40Z</time>
      </trkpt>
      <trkpt lat="53.55130797252059" lon="-6.780962012708187">
        <ele>57.340000000000003</ele>
        <time>2026-07-08T13:15:45Z</time>
      </trkpt>
      <trkpt lat="53.551375027745962" lon="-6.780361030250788">
        <ele>57.82</ele>
        <time>2026-07-08T13:15:50Z</time>
      </trkpt>
      <trkpt lat="53.551441999152303" lon="-6.780012007802725">
        <ele>60.219999999999999</ele>
        <time>2026-07-08T13:15:57Z</time>
      </trkpt>
      <trkpt lat="53.551597986370325" lon="-6.779244979843497">
        <ele>61.18</ele>
        <time>2026-07-08T13:16:04Z</time>
      </trkpt>
      <trkpt lat="53.552104001864791" lon="-6.777831958606839">
        <ele>62.140000000000001</ele>
        <time>2026-07-08T13:16:15Z</time>
      </trkpt>
      <trkpt lat="53.552758963778615" lon="-6.776139987632632">
        <ele>63.579999999999998</ele>
        <time>2026-07-08T13:16:27Z</time>
      </trkpt>
      <trkpt lat="53.553144028410316" lon="-6.774567039683461">
        <ele>62.140000000000001</ele>
        <time>2026-07-08T13:16:37Z</time>
      </trkpt>
      <trkpt lat="53.55334896594286" lon="-6.773877963423729">
        <ele>60.700000000000003</ele>
        <time>2026-07-08T13:16:42Z</time>
      </trkpt>
      <trkpt lat="53.553384002298117" lon="-6.773734968155623">
        <ele>60.700000000000003</ele>
        <time>2026-07-08T13:16:43Z</time>
      </trkpt>
      <trkpt lat="53.553717015311122" lon="-6.771908970549703">
        <ele>58.780000000000001</ele>
        <time>2026-07-08T13:16:55Z</time>
      </trkpt>
      <trkpt lat="53.553952965885401" lon="-6.770051959902048">
        <ele>59.740000000000002</ele>
        <time>2026-07-08T13:17:06Z</time>
      </trkpt>
      <trkpt lat="53.553972998633981" lon="-6.768929958343506">
        <ele>60.700000000000003</ele>
        <time>2026-07-08T13:17:15Z</time>
      </trkpt>
      <trkpt lat="53.554026978090405" lon="-6.767992023378611">
        <ele>60.700000000000003</ele>
        <time>2026-07-08T13:17:23Z</time>
      </trkpt>
      <trkpt lat="53.554037036374211" lon="-6.767813991755247">
        <ele>60.219999999999999</ele>
        <time>2026-07-08T13:17:24Z</time>
      </trkpt>
      <trkpt lat="53.554097972810268" lon="-6.7659099586308">
        <ele>60.700000000000003</ele>
        <time>2026-07-08T13:17:33Z</time>
      </trkpt>
      <trkpt lat="53.55407701805234" lon="-6.765680965036154">
        <ele>61.18</ele>
        <time>2026-07-08T13:17:34Z</time>
      </trkpt>
      <trkpt lat="53.55405698530376" lon="-6.765459012240171">
        <ele>61.659999999999997</ele>
        <time>2026-07-08T13:17:35Z</time>
      </trkpt>
      <trkpt lat="53.55403795838356" lon="-6.765244016423821">
        <ele>61.659999999999997</ele>
        <time>2026-07-08T13:17:36Z</time>
      </trkpt>
      <trkpt lat="53.553781975060701" lon="-6.764279007911682">
        <ele>61.659999999999997</ele>
        <time>2026-07-08T13:17:43Z</time>
      </trkpt>
      <trkpt lat="53.5536939650774" lon="-6.76395202986896">
        <ele>61.18</ele>
        <time>2026-07-08T13:17:45Z</time>
      </trkpt>
      <trkpt lat="53.553659012541175" lon="-6.763671990483999">
        <ele>61.18</ele>
        <time>2026-07-08T13:17:47Z</time>
      </trkpt>
      <trkpt lat="53.553381990641356" lon="-6.761835012584925">
        <ele>59.259999999999998</ele>
        <time>2026-07-08T13:17:55Z</time>
      </trkpt>
      <trkpt lat="53.552774973213673" lon="-6.758923977613449">
        <ele>57.82</ele>
        <time>2026-07-08T13:18:06Z</time>
      </trkpt>
      <trkpt lat="53.551895041018724" lon="-6.755397040396929">
        <ele>57.82</ele>
        <time>2026-07-08T13:18:20Z</time>
      </trkpt>
      <trkpt lat="53.551367986947298" lon="-6.753286980092526">
        <ele>56.859999999999999</ele>
        <time>2026-07-08T13:18:27Z</time>
      </trkpt>
      <trkpt lat="53.550874041393399" lon="-6.751304995268583">
        <ele>55.890000000000001</ele>
        <time>2026-07-08T13:18:34Z</time>
      </trkpt>
      <trkpt lat="53.550332989543676" lon="-6.749136010184884">
        <ele>55.409999999999997</ele>
        <time>2026-07-08T13:18:43Z</time>
      </trkpt>
      <trkpt lat="53.549878019839525" lon="-6.747434986755252">
        <ele>55.409999999999997</ele>
        <time>2026-07-08T13:18:52Z</time>
      </trkpt>
      <trkpt lat="53.549237977713346" lon="-6.74539097584784">
        <ele>56.859999999999999</ele>
        <time>2026-07-08T13:19:00Z</time>
      </trkpt>
      <trkpt lat="53.548252014443278" lon="-6.742225969210267">
        <ele>58.780000000000001</ele>
        <time>2026-07-08T13:19:10Z</time>
      </trkpt>
      <trkpt lat="53.547583976760507" lon="-6.738830041140318">
        <ele>59.259999999999998</ele>
        <time>2026-07-08T13:19:20Z</time>
      </trkpt>
      <trkpt lat="53.54690101929009" lon="-6.734267016872764">
        <ele>62.619999999999997</ele>
        <time>2026-07-08T13:19:32Z</time>
      </trkpt>
      <trkpt lat="53.546167016029358" lon="-6.731775999069214">
        <ele>63.100000000000001</ele>
        <time>2026-07-08T13:19:39Z</time>
      </trkpt>
      <trkpt lat="53.544633965939283" lon="-6.727824015542865">
        <ele>62.140000000000001</ele>
        <time>2026-07-08T13:19:51Z</time>
      </trkpt>
      <trkpt lat="53.543689996004105" lon="-6.725241970270872">
        <ele>62.140000000000001</ele>
        <time>2026-07-08T13:19:59Z</time>
      </trkpt>
      <trkpt lat="53.542800005525351" lon="-6.722092973068357">
        <ele>66.469999999999999</ele>
        <time>2026-07-08T13:20:08Z</time>
      </trkpt>
      <trkpt lat="53.541941028088331" lon="-6.719744028523564">
        <ele>65.989999999999995</ele>
        <time>2026-07-08T13:20:15Z</time>
      </trkpt>
      <trkpt lat="53.540085023269057" lon="-6.71571996062994">
        <ele>67.430000000000007</ele>
        <time>2026-07-08T13:20:28Z</time>
      </trkpt>
      <trkpt lat="53.538571000099182" lon="-6.712627960368991">
        <ele>71.760000000000005</ele>
        <time>2026-07-08T13:20:38Z</time>
      </trkpt>
      <trkpt lat="53.537114979699254" lon="-6.70978800393641">
        <ele>72.719999999999999</ele>
        <time>2026-07-08T13:20:47Z</time>
      </trkpt>
      <trkpt lat="53.534965021535754" lon="-6.705380966886878">
        <ele>75.120000000000005</ele>
        <time>2026-07-08T13:21:01Z</time>
      </trkpt>
      <trkpt lat="53.533822987228632" lon="-6.701801978051662">
        <ele>78</ele>
        <time>2026-07-08T13:21:11Z</time>
      </trkpt>
      <trkpt lat="53.532197987660766" lon="-6.696372013539076">
        <ele>78.969999999999999</ele>
        <time>2026-07-08T13:21:26Z</time>
      </trkpt>
      <trkpt lat="53.530512973666191" lon="-6.690557990223169">
        <ele>75.599999999999994</ele>
        <time>2026-07-08T13:21:42Z</time>
      </trkpt>
      <trkpt lat="53.529674028977752" lon="-6.68632797896862">
        <ele>73.680000000000007</ele>
        <time>2026-07-08T13:21:53Z</time>
      </trkpt>
      <trkpt lat="53.528875987976789" lon="-6.681667976081371">
        <ele>74.159999999999997</ele>
        <time>2026-07-08T13:22:05Z</time>
      </trkpt>
      <trkpt lat="53.528195964172482" lon="-6.67930101044476">
        <ele>76.079999999999998</ele>
        <time>2026-07-08T13:22:12Z</time>
      </trkpt>
      <trkpt lat="53.527432037517428" lon="-6.677519017830491">
        <ele>78.969999999999999</ele>
        <time>2026-07-08T13:22:20Z</time>
      </trkpt>
      <trkpt lat="53.526753019541502" lon="-6.675555976107717">
        <ele>82.329999999999998</ele>
        <time>2026-07-08T13:22:29Z</time>
      </trkpt>
      <trkpt lat="53.526101997122169" lon="-6.67248903773725">
        <ele>77.519999999999996</ele>
        <time>2026-07-08T13:22:42Z</time>
      </trkpt>
      <trkpt lat="53.525390960276127" lon="-6.669109035283327">
        <ele>81.849999999999994</ele>
        <time>2026-07-08T13:22:56Z</time>
      </trkpt>
      <trkpt lat="53.524530977010727" lon="-6.664986982941628">
        <ele>85.209999999999994</ele>
        <time>2026-07-08T13:23:13Z</time>
      </trkpt>
      <trkpt lat="53.524083970114589" lon="-6.662023980170488">
        <ele>87.620000000000005</ele>
        <time>2026-07-08T13:23:25Z</time>
      </trkpt>
      <trkpt lat="53.523541996255517" lon="-6.658951006829739">
        <ele>90.980000000000004</ele>
        <time>2026-07-08T13:23:37Z</time>
      </trkpt>
      <trkpt lat="53.522719983011484" lon="-6.655471008270979">
        <ele>91.939999999999998</ele>
        <time>2026-07-08T13:23:48Z</time>
      </trkpt>
      <trkpt lat="53.521771989762783" lon="-6.651474013924599">
        <ele>88.579999999999998</ele>
        <time>2026-07-08T13:24:01Z</time>
      </trkpt>
      <trkpt lat="53.520523002371192" lon="-6.647007968276739">
        <ele>87.620000000000005</ele>
        <time>2026-07-08T13:24:16Z</time>
      </trkpt>
      <trkpt lat="53.519740970805287" lon="-6.644662963226438">
        <ele>90.5</ele>
        <time>2026-07-08T13:24:23Z</time>
      </trkpt>
      <trkpt lat="53.518669009208679" lon="-6.641041981056333">
        <ele>92.900000000000006</ele>
        <time>2026-07-08T13:24:33Z</time>
      </trkpt>
      <trkpt lat="53.518057968467474" lon="-6.637316979467869">
        <ele>95.790000000000006</ele>
        <time>2026-07-08T13:24:43Z</time>
      </trkpt>
      <trkpt lat="53.517287001013756" lon="-6.633563982322812">
        <ele>105.40000000000001</ele>
        <time>2026-07-08T13:24:54Z</time>
      </trkpt>
      <trkpt lat="53.516109008342028" lon="-6.629921961575747">
        <ele>111.17</ele>
        <time>2026-07-08T13:25:06Z</time>
      </trkpt>
      <trkpt lat="53.51506101898849" lon="-6.626931969076395">
        <ele>113.09</ele>
        <time>2026-07-08T13:25:17Z</time>
      </trkpt>
      <trkpt lat="53.513975981622934" lon="-6.624020012095571">
        <ele>111.17</ele>
        <time>2026-07-08T13:25:28Z</time>
      </trkpt>
      <trkpt lat="53.513140976428986" lon="-6.621879022568464">
        <ele>114.05</ele>
        <time>2026-07-08T13:25:36Z</time>
      </trkpt>
      <trkpt lat="53.511916967108846" lon="-6.618738994002342">
        <ele>120.3</ele>
        <time>2026-07-08T13:25:47Z</time>
      </trkpt>
      <trkpt lat="53.510813992470503" lon="-6.615928038954735">
        <ele>122.70999999999999</ele>
        <time>2026-07-08T13:25:57Z</time>
      </trkpt>
      <trkpt lat="53.509708000347018" lon="-6.613480020314455">
        <ele>117.42</ele>
        <time>2026-07-08T13:26:06Z</time>
      </trkpt>
      <trkpt lat="53.508303025737405" lon="-6.610856987535954">
        <ele>110.69</ele>
        <time>2026-07-08T13:26:16Z</time>
      </trkpt>
      <trkpt lat="53.506884975358844" lon="-6.608095988631249">
        <ele>110.69</ele>
        <time>2026-07-08T13:26:26Z</time>
      </trkpt>
      <trkpt lat="53.505742019042373" lon="-6.605882998555899">
        <ele>111.65000000000001</ele>
        <time>2026-07-08T13:26:35Z</time>
      </trkpt>
      <trkpt lat="53.505356032401323" lon="-6.604706011712551">
        <ele>113.09</ele>
        <time>2026-07-08T13:26:39Z</time>
      </trkpt>
      <trkpt lat="53.505256958305836" lon="-6.604404011741281">
        <ele>113.56999999999999</ele>
        <time>2026-07-08T13:26:40Z</time>
      </trkpt>
      <trkpt lat="53.504237970337272" lon="-6.601558020338416">
        <ele>117.90000000000001</ele>
        <time>2026-07-08T13:26:50Z</time>
      </trkpt>
      <trkpt lat="53.503470020368695" lon="-6.599450977519155">
        <ele>119.34</ele>
        <time>2026-07-08T13:26:58Z</time>
      </trkpt>
      <trkpt lat="53.502152971923351" lon="-6.597051993012428">
        <ele>119.34</ele>
        <time>2026-07-08T13:27:09Z</time>
      </trkpt>
      <trkpt lat="53.501035999506712" lon="-6.595144020393491">
        <ele>115.98</ele>
        <time>2026-07-08T13:27:19Z</time>
      </trkpt>
      <trkpt lat="53.500568037852645" lon="-6.594186974689364">
        <ele>113.56999999999999</ele>
        <time>2026-07-08T13:27:26Z</time>
      </trkpt>
      <trkpt lat="53.500396963208914" lon="-6.593800988048315">
        <ele>113.09</ele>
        <time>2026-07-08T13:27:29Z</time>
      </trkpt>
      <trkpt lat="53.500350024551153" lon="-6.593695962801576">
        <ele>112.61</ele>
        <time>2026-07-08T13:27:30Z</time>
      </trkpt>
      <trkpt lat="53.500337032601237" lon="-6.593539975583553">
        <ele>112.61</ele>
        <time>2026-07-08T13:27:31Z</time>
      </trkpt>
      <trkpt lat="53.500370979309082" lon="-6.593471998348832">
        <ele>112.61</ele>
        <time>2026-07-08T13:27:32Z</time>
      </trkpt>
      <trkpt lat="53.500410038977861" lon="-6.593393962830305">
        <ele>112.61</ele>
        <time>2026-07-08T13:27:33Z</time>
      </trkpt>
      <trkpt lat="53.500426970422268" lon="-6.593245016410947">
        <ele>112.61</ele>
        <time>2026-07-08T13:27:34Z</time>
      </trkpt>
      <trkpt lat="53.500414984300733" lon="-6.593111995607615">
        <ele>112.61</ele>
        <time>2026-07-08T13:27:35Z</time>
      </trkpt>
      <trkpt lat="53.500372990965843" lon="-6.592755010351539">
        <ele>112.13</ele>
        <time>2026-07-08T13:27:37Z</time>
      </trkpt>
      <trkpt lat="53.500422025099397" lon="-6.592579996213317">
        <ele>111.65000000000001</ele>
        <time>2026-07-08T13:27:38Z</time>
      </trkpt>
      <trkpt lat="53.500478016212583" lon="-6.592381009832025">
        <ele>111.65000000000001</ele>
        <time>2026-07-08T13:27:39Z</time>
      </trkpt>
      <trkpt lat="53.500721007585526" lon="-6.590430960059166">
        <ele>112.13</ele>
        <time>2026-07-08T13:27:46Z</time>
      </trkpt>
      <trkpt lat="53.500793008133769" lon="-6.587131004780531">
        <ele>110.20999999999999</ele>
        <time>2026-07-08T13:27:55Z</time>
      </trkpt>
      <trkpt lat="53.501115962862968" lon="-6.581791983917356">
        <ele>102.52</ele>
        <time>2026-07-08T13:28:09Z</time>
      </trkpt>
      <trkpt lat="53.501792969182134" lon="-6.576974987983704">
        <ele>99.150000000000006</ele>
        <time>2026-07-08T13:28:22Z</time>
      </trkpt>
      <trkpt lat="53.502680025994778" lon="-6.574237961322069">
        <ele>103.48</ele>
        <time>2026-07-08T13:28:30Z</time>
      </trkpt>
      <trkpt lat="53.504328997805715" lon="-6.571202035993338">
        <ele>102.04000000000001</ele>
        <time>2026-07-08T13:28:40Z</time>
      </trkpt>
      <trkpt lat="53.506152983754873" lon="-6.56732096336782">
        <ele>100.59999999999999</ele>
        <time>2026-07-08T13:28:52Z</time>
      </trkpt>
      <trkpt lat="53.507338017225266" lon="-6.564135001972318">
        <ele>106.36</ele>
        <time>2026-07-08T13:29:02Z</time>
      </trkpt>
      <trkpt lat="53.507747976109385" lon="-6.562502039596438">
        <ele>108.29000000000001</ele>
        <time>2026-07-08T13:29:09Z</time>
      </trkpt>
      <trkpt lat="53.507812013849616" lon="-6.562222000211477">
        <ele>108.77</ele>
        <time>2026-07-08T13:29:11Z</time>
      </trkpt>
      <trkpt lat="53.507836991921067" lon="-6.562114041298628">
        <ele>109.25</ele>
        <time>2026-07-08T13:29:12Z</time>
      </trkpt>
      <trkpt lat="53.507989039644599" lon="-6.56205696053803">
        <ele>109.25</ele>
        <time>2026-07-08T13:29:13Z</time>
      </trkpt>
      <trkpt lat="53.508075037971139" lon="-6.561970040202141">
        <ele>109.25</ele>
        <time>2026-07-08T13:29:15Z</time>
      </trkpt>
      <trkpt lat="53.508133962750435" lon="-6.561847999691963">
        <ele>109.25</ele>
        <time>2026-07-08T13:29:16Z</time>
      </trkpt>
      <trkpt lat="53.508159024640918" lon="-6.561724031344056">
        <ele>109.73</ele>
        <time>2026-07-08T13:29:17Z</time>
      </trkpt>
      <trkpt lat="53.508174028247595" lon="-6.561566032469273">
        <ele>109.73</ele>
        <time>2026-07-08T13:29:18Z</time>
      </trkpt>
      <trkpt lat="53.508145026862621" lon="-6.561422031372786">
        <ele>109.25</ele>
        <time>2026-07-08T13:29:19Z</time>
      </trkpt>
      <trkpt lat="53.508138991892338" lon="-6.561391018331051">
        <ele>109.25</ele>
        <time>2026-07-08T13:29:20Z</time>
      </trkpt>
      <trkpt lat="53.508102027699351" lon="-6.561058005318046">
        <ele>109.25</ele>
        <time>2026-07-08T13:29:21Z</time>
      </trkpt>
      <trkpt lat="53.50814200937748" lon="-6.560871005058289">
        <ele>108.77</ele>
        <time>2026-07-08T13:29:22Z</time>
      </trkpt>
      <trkpt lat="53.50818500854075" lon="-6.560671012848616">
        <ele>108.77</ele>
        <time>2026-07-08T13:29:23Z</time>
      </trkpt>
      <trkpt lat="53.508231025189161" lon="-6.560482000932097">
        <ele>108.77</ele>
        <time>2026-07-08T13:29:24Z</time>
      </trkpt>
      <trkpt lat="53.508329009637237" lon="-6.560025019571185">
        <ele>108.29000000000001</ele>
        <time>2026-07-08T13:29:27Z</time>
      </trkpt>
      <trkpt lat="53.508426994085312" lon="-6.559911025688052">
        <ele>108.29000000000001</ele>
        <time>2026-07-08T13:29:28Z</time>
      </trkpt>
      <trkpt lat="53.50857200101018" lon="-6.559838019311428">
        <ele>107.81</ele>
        <time>2026-07-08T13:29:30Z</time>
      </trkpt>
      <trkpt lat="53.508626986294985" lon="-6.559751015156508">
        <ele>108.29000000000001</ele>
        <time>2026-07-08T13:29:31Z</time>
      </trkpt>
      <trkpt lat="53.508676020428538" lon="-6.559620006009936">
        <ele>108.29000000000001</ele>
        <time>2026-07-08T13:29:32Z</time>
      </trkpt>
      <trkpt lat="53.508676020428538" lon="-6.559495031833649">
        <ele>108.29000000000001</ele>
        <time>2026-07-08T13:29:33Z</time>
      </trkpt>
      <trkpt lat="53.508635032922029" lon="-6.559361005201936">
        <ele>108.77</ele>
        <time>2026-07-08T13:29:34Z</time>
      </trkpt>
      <trkpt lat="53.508610976859927" lon="-6.559289004653692">
        <ele>108.77</ele>
        <time>2026-07-08T13:29:35Z</time>
      </trkpt>
      <trkpt lat="53.508503017947078" lon="-6.559207029640675">
        <ele>108.77</ele>
        <time>2026-07-08T13:29:36Z</time>
      </trkpt>
      <trkpt lat="53.508439986035228" lon="-6.559160007163882">
        <ele>109.25</ele>
        <time>2026-07-08T13:29:37Z</time>
      </trkpt>
      <trkpt lat="53.508374020457268" lon="-6.559217004105449">
        <ele>109.25</ele>
        <time>2026-07-08T13:29:38Z</time>
      </trkpt>
      <trkpt lat="53.508291961625218" lon="-6.559289004653692">
        <ele>109.25</ele>
        <time>2026-07-08T13:29:39Z</time>
      </trkpt>
      <trkpt lat="53.508189031854272" lon="-6.559350024908781">
        <ele>109.25</ele>
        <time>2026-07-08T13:29:40Z</time>
      </trkpt>
      <trkpt lat="53.50807998329401" lon="-6.559404004365206">
        <ele>109.25</ele>
        <time>2026-07-08T13:29:41Z</time>
      </trkpt>
      <trkpt lat="53.50794997997582" lon="-6.559439040720463">
        <ele>108.77</ele>
        <time>2026-07-08T13:29:42Z</time>
      </trkpt>
      <trkpt lat="53.507814025506377" lon="-6.559439040720463">
        <ele>108.77</ele>
        <time>2026-07-08T13:29:43Z</time>
      </trkpt>
      <trkpt lat="53.507667006924748" lon="-6.559439040720463">
        <ele>108.29000000000001</ele>
        <time>2026-07-08T13:29:44Z</time>
      </trkpt>
      <trkpt lat="53.507511019706726" lon="-6.559419007971883">
        <ele>107.81</ele>
        <time>2026-07-08T13:29:45Z</time>
      </trkpt>
      <trkpt lat="53.507346985861659" lon="-6.559383971616626">
        <ele>107.31999999999999</ele>
        <time>2026-07-08T13:29:46Z</time>
      </trkpt>
      <trkpt lat="53.506066985428333" lon="-6.558668995276094">
        <ele>101.56</ele>
        <time>2026-07-08T13:29:53Z</time>
      </trkpt>
      <trkpt lat="53.50414602085948" lon="-6.55670503154397">
        <ele>103</ele>
        <time>2026-07-08T13:30:03Z</time>
      </trkpt>
      <trkpt lat="53.502529989928007" lon="-6.554340999573469">
        <ele>104.44</ele>
        <time>2026-07-08T13:30:11Z</time>
      </trkpt>
      <trkpt lat="53.501123003661633" lon="-6.551817962899804">
        <ele>103</ele>
        <time>2026-07-08T13:30:18Z</time>
      </trkpt>
      <trkpt lat="53.499059965834022" lon="-6.547142034396529">
        <ele>101.56</ele>
        <time>2026-07-08T13:30:30Z</time>
      </trkpt>
      <trkpt lat="53.496181033551693" lon="-6.540552014485002">
        <ele>107.31999999999999</ele>
        <time>2026-07-08T13:30:47Z</time>
      </trkpt>
      <trkpt lat="53.49348901771009" lon="-6.534935971722007">
        <ele>103</ele>
        <time>2026-07-08T13:31:02Z</time>
      </trkpt>
      <trkpt lat="53.491048039868474" lon="-6.531026987358928">
        <ele>99.629999999999995</ele>
        <time>2026-07-08T13:31:14Z</time>
      </trkpt>
      <trkpt lat="53.488858016207814" lon="-6.528299013152719">
        <ele>97.230000000000004</ele>
        <time>2026-07-08T13:31:24Z</time>
      </trkpt>
      <trkpt lat="53.485998027026653" lon="-6.525542037561536">
        <ele>95.310000000000002</ele>
        <time>2026-07-08T13:31:36Z</time>
      </trkpt>
      <trkpt lat="53.483040975406766" lon="-6.523410016670823">
        <ele>95.310000000000002</ele>
        <time>2026-07-08T13:31:48Z</time>
      </trkpt>
      <trkpt lat="53.480468988418579" lon="-6.521314037963748">
        <ele>97.230000000000004</ele>
        <time>2026-07-08T13:31:58Z</time>
      </trkpt>
      <trkpt lat="53.478306038305163" lon="-6.519072968512774">
        <ele>97.230000000000004</ele>
        <time>2026-07-08T13:32:07Z</time>
      </trkpt>
      <trkpt lat="53.476316006854177" lon="-6.516591003164649">
        <ele>98.670000000000002</ele>
        <time>2026-07-08T13:32:16Z</time>
      </trkpt>
      <trkpt lat="53.473834963515401" lon="-6.513400012627244">
        <ele>98.670000000000002</ele>
        <time>2026-07-08T13:32:27Z</time>
      </trkpt>
      <trkpt lat="53.470772970467806" lon="-6.509704012423754">
        <ele>96.269999999999996</ele>
        <time>2026-07-08T13:32:40Z</time>
      </trkpt>
      <trkpt lat="53.468409022316337" lon="-6.506977966055274">
        <ele>92.900000000000006</ele>
        <time>2026-07-08T13:32:50Z</time>
      </trkpt>
      <trkpt lat="53.46601297147572" lon="-6.50438703596592">
        <ele>90.019999999999996</ele>
        <time>2026-07-08T13:33:00Z</time>
      </trkpt>
      <trkpt lat="53.463297989219427" lon="-6.501138964667916">
        <ele>90.019999999999996</ele>
        <time>2026-07-08T13:33:12Z</time>
      </trkpt>
      <trkpt lat="53.461287003010511" lon="-6.497764997184277">
        <ele>88.579999999999998</ele>
        <time>2026-07-08T13:33:22Z</time>
      </trkpt>
      <trkpt lat="53.459809022024274" lon="-6.494423970580101">
        <ele>86.180000000000007</ele>
        <time>2026-07-08T13:33:31Z</time>
      </trkpt>
      <trkpt lat="53.458195002749562" lon="-6.490476010367274">
        <ele>83.290000000000006</ele>
        <time>2026-07-08T13:33:42Z</time>
      </trkpt>
      <trkpt lat="53.457206021994352" lon="-6.488379025831819">
        <ele>82.329999999999998</ele>
        <time>2026-07-08T13:33:50Z</time>
      </trkpt>
      <trkpt lat="53.455480020493269" lon="-6.485197003930807">
        <ele>83.290000000000006</ele>
        <time>2026-07-08T13:34:05Z</time>
      </trkpt>
      <trkpt lat="53.45460201613605" lon="-6.483749030157924">
        <ele>83.769999999999996</ele>
        <time>2026-07-08T13:34:14Z</time>
      </trkpt>
      <trkpt lat="53.454031962901354" lon="-6.482783015817404">
        <ele>83.769999999999996</ele>
        <time>2026-07-08T13:34:24Z</time>
      </trkpt>
      <trkpt lat="53.453907994553447" lon="-6.48258101195097">
        <ele>83.769999999999996</ele>
        <time>2026-07-08T13:34:28Z</time>
      </trkpt>
      <trkpt lat="53.45382995903492" lon="-6.482454026117921">
        <ele>83.769999999999996</ele>
        <time>2026-07-08T13:34:36Z</time>
      </trkpt>
      <trkpt lat="53.453824007883668" lon="-6.482444973662496">
        <ele>83.769999999999996</ele>
        <time>2026-07-08T13:34:53Z</time>
      </trkpt>
      <trkpt lat="53.45378695987165" lon="-6.482384037226439">
        <ele>83.769999999999996</ele>
        <time>2026-07-08T13:34:54Z</time>
      </trkpt>
      <trkpt lat="53.45378695987165" lon="-6.482384037226439">
        <ele>83.290000000000006</ele>
        <time>2026-07-08T13:35:12Z</time>
      </trkpt>
      <trkpt lat="53.45361496321857" lon="-6.482148002833128">
        <ele>83.290000000000006</ele>
        <time>2026-07-08T13:35:34Z</time>
      </trkpt>
      <trkpt lat="53.453412037342787" lon="-6.481864023953676">
        <ele>83.290000000000006</ele>
        <time>2026-07-08T13:35:39Z</time>
      </trkpt>
      <trkpt lat="53.453382030129433" lon="-6.481822030618787">
        <ele>82.810000000000002</ele>
        <time>2026-07-08T13:35:45Z</time>
      </trkpt>
      <trkpt lat="53.453297959640622" lon="-6.481704013422132">
        <ele>82.810000000000002</ele>
        <time>2026-07-08T13:36:21Z</time>
      </trkpt>
      <trkpt lat="53.452699994668365" lon="-6.480897003784776">
        <ele>82.810000000000002</ele>
        <time>2026-07-08T13:36:28Z</time>
      </trkpt>
      <trkpt lat="53.451641025021672" lon="-6.479431008920074">
        <ele>84.730000000000004</ele>
        <time>2026-07-08T13:36:37Z</time>
      </trkpt>
      <trkpt lat="53.450023988261819" lon="-6.477342993021011">
        <ele>83.769999999999996</ele>
        <time>2026-07-08T13:36:47Z</time>
      </trkpt>
      <trkpt lat="53.448432013392448" lon="-6.475451029837132">
        <ele>82.329999999999998</ele>
        <time>2026-07-08T13:36:54Z</time>
      </trkpt>
      <trkpt lat="53.446120033040643" lon="-6.473291013389826">
        <ele>80.890000000000001</ele>
        <time>2026-07-08T13:37:03Z</time>
      </trkpt>
      <trkpt lat="53.443421982228756" lon="-6.471396032720804">
        <ele>79.930000000000007</ele>
        <time>2026-07-08T13:37:13Z</time>
      </trkpt>
      <trkpt lat="53.440032005310059" lon="-6.469658967107534">
        <ele>78.480000000000004</ele>
        <time>2026-07-08T13:37:25Z</time>
      </trkpt>
      <trkpt lat="53.436643034219742" lon="-6.468129018321633">
        <ele>76.560000000000002</ele>
        <time>2026-07-08T13:37:37Z</time>
      </trkpt>
      <trkpt lat="53.434271961450577" lon="-6.467059990391135">
        <ele>76.560000000000002</ele>
        <time>2026-07-08T13:37:46Z</time>
      </trkpt>
      <trkpt lat="53.431361010298133" lon="-6.465720981359482">
        <ele>76.560000000000002</ele>
        <time>2026-07-08T13:37:57Z</time>
      </trkpt>
      <trkpt lat="53.4285600297153" lon="-6.46401803009212">
        <ele>76.079999999999998</ele>
        <time>2026-07-08T13:38:07Z</time>
      </trkpt>
      <trkpt lat="53.426301022991538" lon="-6.461950968950987">
        <ele>75.120000000000005</ele>
        <time>2026-07-08T13:38:16Z</time>
      </trkpt>
      <trkpt lat="53.423989964649081" lon="-6.459093997254968">
        <ele>75.120000000000005</ele>
        <time>2026-07-08T13:38:26Z</time>
      </trkpt>
      <trkpt lat="53.421518979594111" lon="-6.455965032801032">
        <ele>72.239999999999995</ele>
        <time>2026-07-08T13:38:37Z</time>
      </trkpt>
      <trkpt lat="53.418386997655034" lon="-6.451970972120762">
        <ele>71.269999999999996</ele>
        <time>2026-07-08T13:38:51Z</time>
      </trkpt>
      <trkpt lat="53.415547963231802" lon="-6.44831201992929">
        <ele>70.310000000000002</ele>
        <time>2026-07-08T13:39:04Z</time>
      </trkpt>
      <trkpt lat="53.413524990901351" lon="-6.445137960836291">
        <ele>68.870000000000005</ele>
        <time>2026-07-08T13:39:14Z</time>
      </trkpt>
      <trkpt lat="53.412445988506079" lon="-6.442329017445445">
        <ele>70.310000000000002</ele>
        <time>2026-07-08T13:39:21Z</time>
      </trkpt>
      <trkpt lat="53.411458013579249" lon="-6.438372004777193">
        <ele>71.269999999999996</ele>
        <time>2026-07-08T13:39:30Z</time>
      </trkpt>
      <trkpt lat="53.410114981234074" lon="-6.43260701559484">
        <ele>67.909999999999997</ele>
        <time>2026-07-08T13:39:43Z</time>
      </trkpt>
      <trkpt lat="53.408824000507593" lon="-6.427071020007134">
        <ele>64.549999999999997</ele>
        <time>2026-07-08T13:39:56Z</time>
      </trkpt>
      <trkpt lat="53.407557997852564" lon="-6.421624962240458">
        <ele>60.700000000000003</ele>
        <time>2026-07-08T13:40:10Z</time>
      </trkpt>
      <trkpt lat="53.406624002382159" lon="-6.417104015126824">
        <ele>60.700000000000003</ele>
        <time>2026-07-08T13:40:22Z</time>
      </trkpt>
      <trkpt lat="53.406082028523088" lon="-6.413373984396458">
        <ele>61.18</ele>
        <time>2026-07-08T13:40:32Z</time>
      </trkpt>
      <trkpt lat="53.405328998342156" lon="-6.408827975392342">
        <ele>59.740000000000002</ele>
        <time>2026-07-08T13:40:44Z</time>
      </trkpt>
      <trkpt lat="53.404296012595296" lon="-6.405163994058967">
        <ele>58.780000000000001</ele>
        <time>2026-07-08T13:40:54Z</time>
      </trkpt>
      <trkpt lat="53.402918027713895" lon="-6.401968980208039">
        <ele>58.780000000000001</ele>
        <time>2026-07-08T13:41:04Z</time>
      </trkpt>
      <trkpt lat="53.401406016200781" lon="-6.399093987420201">
        <ele>59.740000000000002</ele>
        <time>2026-07-08T13:41:14Z</time>
      </trkpt>
      <trkpt lat="53.3995780069381" lon="-6.395669979974628">
        <ele>60.219999999999999</ele>
        <time>2026-07-08T13:41:26Z</time>
      </trkpt>
      <trkpt lat="53.397909002378583" lon="-6.392545038834214">
        <ele>56.859999999999999</ele>
        <time>2026-07-08T13:41:37Z</time>
      </trkpt>
      <trkpt lat="53.396833017468452" lon="-6.390532962977886">
        <ele>52.049999999999997</ele>
        <time>2026-07-08T13:41:45Z</time>
      </trkpt>
      <trkpt lat="53.395381020382047" lon="-6.387789985165">
        <ele>51.090000000000003</ele>
        <time>2026-07-08T13:41:56Z</time>
      </trkpt>
      <trkpt lat="53.393817963078618" lon="-6.384841986000538">
        <ele>49.159999999999997</ele>
        <time>2026-07-08T13:42:08Z</time>
      </trkpt>
      <trkpt lat="53.392701996490359" lon="-6.382753970101476">
        <ele>47.719999999999999</ele>
        <time>2026-07-08T13:42:17Z</time>
      </trkpt>
      <trkpt lat="53.391737993806601" lon="-6.380923027172685">
        <ele>49.649999999999999</ele>
        <time>2026-07-08T13:42:25Z</time>
      </trkpt>
      <trkpt lat="53.391616037115455" lon="-6.380695039406419">
        <ele>49.649999999999999</ele>
        <time>2026-07-08T13:42:26Z</time>
      </trkpt>
      <trkpt lat="53.38937102816999" lon="-6.376496041193605">
        <ele>56.369999999999997</ele>
        <time>2026-07-08T13:42:44Z</time>
      </trkpt>
      <trkpt lat="53.38804199360311" lon="-6.373922964558005">
        <ele>57.82</ele>
        <time>2026-07-08T13:42:55Z</time>
      </trkpt>
      <trkpt lat="53.38670801371336" lon="-6.371328011155129">
        <ele>54.93</ele>
        <time>2026-07-08T13:43:06Z</time>
      </trkpt>
      <trkpt lat="53.385648960247636" lon="-6.368830036371946">
        <ele>53.490000000000002</ele>
        <time>2026-07-08T13:43:15Z</time>
      </trkpt>
      <trkpt lat="53.385233972221613" lon="-6.366431973874569">
        <ele>50.609999999999999</ele>
        <time>2026-07-08T13:43:23Z</time>
      </trkpt>
      <trkpt lat="53.385174041613936" lon="-6.36585202999413">
        <ele>51.090000000000003</ele>
        <time>2026-07-08T13:43:25Z</time>
      </trkpt>
      <trkpt lat="53.384726028889418" lon="-6.363563016057015">
        <ele>51.57</ele>
        <time>2026-07-08T13:43:33Z</time>
      </trkpt>
      <trkpt lat="53.384070983156562" lon="-6.361985038965941">
        <ele>52.530000000000001</ele>
        <time>2026-07-08T13:43:41Z</time>
      </trkpt>
      <trkpt lat="53.383041014894843" lon="-6.360069019719958">
        <ele>58.299999999999997</ele>
        <time>2026-07-08T13:43:50Z</time>
      </trkpt>
      <trkpt lat="53.38290598243475" lon="-6.359927030280232">
        <ele>59.740000000000002</ele>
        <time>2026-07-08T13:43:51Z</time>
      </trkpt>
      <trkpt lat="53.382761981338263" lon="-6.359774982556701">
        <ele>61.18</ele>
        <time>2026-07-08T13:43:52Z</time>
      </trkpt>
      <trkpt lat="53.382624015212059" lon="-6.359700970351696">
        <ele>63.100000000000001</ele>
        <time>2026-07-08T13:43:53Z</time>
      </trkpt>
      <trkpt lat="53.38247599080205" lon="-6.35962201282382">
        <ele>64.069999999999993</ele>
        <time>2026-07-08T13:43:54Z</time>
      </trkpt>
      <trkpt lat="53.38232503272593" lon="-6.359571972861886">
        <ele>65.030000000000001</ele>
        <time>2026-07-08T13:43:55Z</time>
      </trkpt>
      <trkpt lat="53.381921024993062" lon="-6.359308026731014">
        <ele>66.469999999999999</ele>
        <time>2026-07-08T13:43:58Z</time>
      </trkpt>
      <trkpt lat="53.381818011403084" lon="-6.359194032847881">
        <ele>66.469999999999999</ele>
        <time>2026-07-08T13:43:59Z</time>
      </trkpt>
      <trkpt lat="53.381726983934641" lon="-6.359092025086284">
        <ele>65.510000000000005</ele>
        <time>2026-07-08T13:44:00Z</time>
      </trkpt>
      <trkpt lat="53.38146798312664" lon="-6.358755994588137">
        <ele>62.619999999999997</ele>
        <time>2026-07-08T13:44:04Z</time>
      </trkpt>
      <trkpt lat="53.381207976490259" lon="-6.358392974361777">
        <ele>58.299999999999997</ele>
        <time>2026-07-08T13:44:12Z</time>
      </trkpt>
      <trkpt lat="53.381152991205454" lon="-6.358316028490663">
        <ele>57.340000000000003</ele>
        <time>2026-07-08T13:44:24Z</time>
      </trkpt>
      <trkpt lat="53.380962973460555" lon="-6.35798703879118">
        <ele>56.369999999999997</ele>
        <time>2026-07-08T13:44:28Z</time>
      </trkpt>
      <trkpt lat="53.380361991003156" lon="-6.356544010341167">
        <ele>55.890000000000001</ele>
        <time>2026-07-08T13:44:38Z</time>
      </trkpt>
      <trkpt lat="53.379605021327734" lon="-6.354582980275154">
        <ele>53.969999999999999</ele>
        <time>2026-07-08T13:44:48Z</time>
      </trkpt>
      <trkpt lat="53.378751995041966" lon="-6.352103026583791">
        <ele>53.969999999999999</ele>
        <time>2026-07-08T13:44:59Z</time>
      </trkpt>
      <trkpt lat="53.377662012353539" lon="-6.348751019686461">
        <ele>52.530000000000001</ele>
        <time>2026-07-08T13:45:14Z</time>
      </trkpt>
      <trkpt lat="53.376594996079803" lon="-6.345332963392139">
        <ele>52.049999999999997</ele>
        <time>2026-07-08T13:45:29Z</time>
      </trkpt>
      <trkpt lat="53.376527018845081" lon="-6.345090977847576">
        <ele>52.049999999999997</ele>
        <time>2026-07-08T13:45:30Z</time>
      </trkpt>
      <trkpt lat="53.376464992761612" lon="-6.344853015616536">
        <ele>52.530000000000001</ele>
        <time>2026-07-08T13:45:31Z</time>
      </trkpt>
      <trkpt lat="53.375333016738296" lon="-6.341420961543918">
        <ele>52.530000000000001</ele>
        <time>2026-07-08T13:45:47Z</time>
      </trkpt>
      <trkpt lat="53.37452600710094" lon="-6.338949976488948">
        <ele>53.490000000000002</ele>
        <time>2026-07-08T13:46:01Z</time>
      </trkpt>
      <trkpt lat="53.373953020200133" lon="-6.337296981364489">
        <ele>53.490000000000002</ele>
        <time>2026-07-08T13:46:10Z</time>
      </trkpt>
      <trkpt lat="53.373348014429212" lon="-6.335433013737202">
        <ele>55.409999999999997</ele>
        <time>2026-07-08T13:46:19Z</time>
      </trkpt>
      <trkpt lat="53.372943000867963" lon="-6.334157958626747">
        <ele>55.890000000000001</ele>
        <time>2026-07-08T13:46:27Z</time>
      </trkpt>
      <trkpt lat="53.372449977323413" lon="-6.332646030932665">
        <ele>57.340000000000003</ele>
        <time>2026-07-08T13:46:37Z</time>
      </trkpt>
      <trkpt lat="53.372332965955138" lon="-6.332279993221164">
        <ele>57.340000000000003</ele>
        <time>2026-07-08T13:46:40Z</time>
      </trkpt>
      <trkpt lat="53.372296001762152" lon="-6.33216398768127">
        <ele>57.340000000000003</ele>
        <time>2026-07-08T13:46:41Z</time>
      </trkpt>
      <trkpt lat="53.372259959578514" lon="-6.332050999626517">
        <ele>56.859999999999999</ele>
        <time>2026-07-08T13:46:42Z</time>
      </trkpt>
      <trkpt lat="53.372231964021921" lon="-6.331794010475278">
        <ele>56.859999999999999</ele>
        <time>2026-07-08T13:46:44Z</time>
      </trkpt>
      <trkpt lat="53.372201034799218" lon="-6.331697031855583">
        <ele>56.859999999999999</ele>
        <time>2026-07-08T13:46:45Z</time>
      </trkpt>
      <trkpt lat="53.372162980958819" lon="-6.331643974408507">
        <ele>56.859999999999999</ele>
        <time>2026-07-08T13:46:46Z</time>
      </trkpt>
      <trkpt lat="53.372092992067337" lon="-6.331643974408507">
        <ele>56.859999999999999</ele>
        <time>2026-07-08T13:46:47Z</time>
      </trkpt>
      <trkpt lat="53.372031971812248" lon="-6.331697031855583">
        <ele>56.859999999999999</ele>
        <time>2026-07-08T13:46:48Z</time>
      </trkpt>
      <trkpt lat="53.371982015669346" lon="-6.331811025738716">
        <ele>56.859999999999999</ele>
        <time>2026-07-08T13:46:49Z</time>
      </trkpt>
      <trkpt lat="53.371927030384541" lon="-6.331920996308327">
        <ele>56.859999999999999</ele>
        <time>2026-07-08T13:46:50Z</time>
      </trkpt>
      <trkpt lat="53.371861986815929" lon="-6.332052005454898">
        <ele>56.369999999999997</ele>
        <time>2026-07-08T13:46:51Z</time>
      </trkpt>
      <trkpt lat="53.371785962954164" lon="-6.332310000434518">
        <ele>55.409999999999997</ele>
        <time>2026-07-08T13:46:53Z</time>
      </trkpt>
      <trkpt lat="53.371725026518106" lon="-6.33242298848927">
        <ele>54.93</ele>
        <time>2026-07-08T13:46:54Z</time>
      </trkpt>
      <trkpt lat="53.371665012091398" lon="-6.332536982372403">
        <ele>54.93</ele>
        <time>2026-07-08T13:46:55Z</time>
      </trkpt>
      <trkpt lat="53.371600974351168" lon="-6.33265701122582">
        <ele>54.93</ele>
        <time>2026-07-08T13:46:56Z</time>
      </trkpt>
      <trkpt lat="53.371527967974544" lon="-6.332759018987417">
        <ele>54.93</ele>
        <time>2026-07-08T13:46:57Z</time>
      </trkpt>
      <trkpt lat="53.37145303376019" lon="-6.332864966243506">
        <ele>55.409999999999997</ele>
        <time>2026-07-08T13:46:58Z</time>
      </trkpt>
      <trkpt lat="53.371374998241663" lon="-6.332973008975387">
        <ele>55.409999999999997</ele>
        <time>2026-07-08T13:46:59Z</time>
      </trkpt>
      <trkpt lat="53.371223034337163" lon="-6.333185993134975">
        <ele>55.409999999999997</ele>
        <time>2026-07-08T13:47:01Z</time>
      </trkpt>
      <trkpt lat="53.371156984940171" lon="-6.333278026431799">
        <ele>55.409999999999997</ele>
        <time>2026-07-08T13:47:02Z</time>
      </trkpt>
      <trkpt lat="53.37098297663033" lon="-6.333522023633122">
        <ele>55.409999999999997</ele>
        <time>2026-07-08T13:47:07Z</time>
      </trkpt>
      <trkpt lat="53.370956992730498" lon="-6.33358296006918">
        <ele>55.409999999999997</ele>
        <time>2026-07-08T13:47:08Z</time>
      </trkpt>
      <trkpt lat="53.370942994952202" lon="-6.333699971437454">
        <ele>55.890000000000001</ele>
        <time>2026-07-08T13:47:09Z</time>
      </trkpt>
      <trkpt lat="53.370927991345525" lon="-6.333827963098884">
        <ele>55.409999999999997</ele>
        <time>2026-07-08T13:47:10Z</time>
      </trkpt>
      <trkpt lat="53.370921034365892" lon="-6.333961989730597">
        <ele>54.93</ele>
        <time>2026-07-08T13:47:11Z</time>
      </trkpt>
      <trkpt lat="53.370931008830667" lon="-6.334083024412394">
        <ele>54.450000000000003</ele>
        <time>2026-07-08T13:47:12Z</time>
      </trkpt>
      <trkpt lat="53.370941989123821" lon="-6.334201963618398">
        <ele>53.969999999999999</ele>
        <time>2026-07-08T13:47:13Z</time>
      </trkpt>
      <trkpt lat="53.371014995500445" lon="-6.3348079752177">
        <ele>51.57</ele>
        <time>2026-07-08T13:47:18Z</time>
      </trkpt>
      <trkpt lat="53.371033016592264" lon="-6.334950970485807">
        <ele>51.090000000000003</ele>
        <time>2026-07-08T13:47:19Z</time>
      </trkpt>
      <trkpt lat="53.37111197412014" lon="-6.335635017603636">
        <ele>50.609999999999999</ele>
        <time>2026-07-08T13:47:23Z</time>
      </trkpt>
      <trkpt lat="53.371161008253694" lon="-6.335974987596273">
        <ele>51.090000000000003</ele>
        <time>2026-07-08T13:47:25Z</time>
      </trkpt>
      <trkpt lat="53.37132403627038" lon="-6.336733968928456">
        <ele>50.609999999999999</ele>
        <time>2026-07-08T13:47:30Z</time>
      </trkpt>
      <trkpt lat="53.371358988806605" lon="-6.33684997446835">
        <ele>50.609999999999999</ele>
        <time>2026-07-08T13:47:31Z</time>
      </trkpt>
      <trkpt lat="53.3713040035218" lon="-6.337050972506404">
        <ele>50.609999999999999</ele>
        <time>2026-07-08T13:47:32Z</time>
      </trkpt>
      <trkpt lat="53.371328981593251" lon="-6.337129008024931">
        <ele>50.609999999999999</ele>
        <time>2026-07-08T13:47:33Z</time>
      </trkpt>
      <trkpt lat="53.371354965493083" lon="-6.337206037715077">
        <ele>50.609999999999999</ele>
        <time>2026-07-08T13:47:34Z</time>
      </trkpt>
      <trkpt lat="53.371421014890075" lon="-6.337215006351471">
        <ele>51.090000000000003</ele>
        <time>2026-07-08T13:47:35Z</time>
      </trkpt>
      <trkpt lat="53.371471976861358" lon="-6.337184999138117">
        <ele>51.57</ele>
        <time>2026-07-08T13:47:36Z</time>
      </trkpt>
      <trkpt lat="53.371517993509769" lon="-6.337159015238285">
        <ele>52.049999999999997</ele>
        <time>2026-07-08T13:47:37Z</time>
      </trkpt>
      <trkpt lat="53.371517993509769" lon="-6.337095983326435">
        <ele>52.049999999999997</ele>
        <time>2026-07-08T13:47:38Z</time>
      </trkpt>
      <trkpt lat="53.371517993509769" lon="-6.337002022191882">
        <ele>52.049999999999997</ele>
        <time>2026-07-08T13:47:39Z</time>
      </trkpt>
      <trkpt lat="53.371493015438318" lon="-6.336919041350484">
        <ele>52.049999999999997</ele>
        <time>2026-07-08T13:47:40Z</time>
      </trkpt>
      <trkpt lat="53.371454039588571" lon="-6.336879981681705">
        <ele>52.049999999999997</ele>
        <time>2026-07-08T13:47:41Z</time>
      </trkpt>
      <trkpt lat="53.371279025450349" lon="-6.336574964225292">
        <ele>52.049999999999997</ele>
        <time>2026-07-08T13:47:43Z</time>
      </trkpt>
      <trkpt lat="53.371233008801937" lon="-6.336392993107438">
        <ele>52.049999999999997</ele>
        <time>2026-07-08T13:47:44Z</time>
      </trkpt>
      <trkpt lat="53.371201995760202" lon="-6.336210016161203">
        <ele>52.049999999999997</ele>
        <time>2026-07-08T13:47:45Z</time>
      </trkpt>
      <trkpt lat="53.371169976890087" lon="-6.336029972881079">
        <ele>52.049999999999997</ele>
        <time>2026-07-08T13:47:46Z</time>
      </trkpt>
      <trkpt lat="53.371138041839004" lon="-6.335840038955212">
        <ele>52.049999999999997</ele>
        <time>2026-07-08T13:47:47Z</time>
      </trkpt>
      <trkpt lat="53.371112979948521" lon="-6.335641974583268">
        <ele>52.530000000000001</ele>
        <time>2026-07-08T13:47:48Z</time>
      </trkpt>
      <trkpt lat="53.371093031018972" lon="-6.335474001243711">
        <ele>52.530000000000001</ele>
        <time>2026-07-08T13:47:49Z</time>
      </trkpt>
      <trkpt lat="53.371074004098773" lon="-6.335311979055405">
        <ele>53.009999999999998</ele>
        <time>2026-07-08T13:47:50Z</time>
      </trkpt>
      <trkpt lat="53.37091701105237" lon="-6.333918990567327">
        <ele>51.57</ele>
        <time>2026-07-08T13:47:59Z</time>
      </trkpt>
      <trkpt lat="53.370945006608963" lon="-6.333681028336287">
        <ele>51.57</ele>
        <time>2026-07-08T13:48:02Z</time>
      </trkpt>
      <trkpt lat="53.370954981073737" lon="-6.333597041666508">
        <ele>51.57</ele>
        <time>2026-07-08T13:48:03Z</time>
      </trkpt>
      <trkpt lat="53.370920028537512" lon="-6.333456980064511">
        <ele>51.57</ele>
        <time>2026-07-08T13:48:04Z</time>
      </trkpt>
      <trkpt lat="53.370881974697113" lon="-6.3333660364151">
        <ele>51.57</ele>
        <time>2026-07-08T13:48:05Z</time>
      </trkpt>
      <trkpt lat="53.370841993018985" lon="-6.333270985633135">
        <ele>52.049999999999997</ele>
        <time>2026-07-08T13:48:06Z</time>
      </trkpt>
      <trkpt lat="53.370746020227671" lon="-6.333038974553347">
        <ele>52.049999999999997</ele>
        <time>2026-07-08T13:48:08Z</time>
      </trkpt>
      <trkpt lat="53.370661027729511" lon="-6.332691963762045">
        <ele>52.049999999999997</ele>
        <time>2026-07-08T13:48:12Z</time>
      </trkpt>
      <trkpt lat="53.370605958625674" lon="-6.332475040107966">
        <ele>52.530000000000001</ele>
        <time>2026-07-08T13:48:14Z</time>
      </trkpt>
      <trkpt lat="53.37040001526475" lon="-6.33175402879715">
        <ele>53.490000000000002</ele>
        <time>2026-07-08T13:48:20Z</time>
      </trkpt>
      <trkpt lat="53.370375037193298" lon="-6.331667024642229">
        <ele>53.490000000000002</ele>
        <time>2026-07-08T13:48:21Z</time>
      </trkpt>
      <trkpt lat="53.370169010013342" lon="-6.330947019159794">
        <ele>53.490000000000002</ele>
        <time>2026-07-08T13:48:27Z</time>
      </trkpt>
      <trkpt lat="53.370002964511514" lon="-6.330333966761828">
        <ele>51.090000000000003</ele>
        <time>2026-07-08T13:48:33Z</time>
      </trkpt>
      <trkpt lat="53.369944039732218" lon="-6.330112013965845">
        <ele>50.609999999999999</ele>
        <time>2026-07-08T13:48:35Z</time>
      </trkpt>
      <trkpt lat="53.369913026690483" lon="-6.32999399676919">
        <ele>50.609999999999999</ele>
        <time>2026-07-08T13:48:36Z</time>
      </trkpt>
      <trkpt lat="53.369776988402009" lon="-6.32954397238791">
        <ele>50.609999999999999</ele>
        <time>2026-07-08T13:48:40Z</time>
      </trkpt>
      <trkpt lat="53.369742035865784" lon="-6.32943500764668">
        <ele>50.609999999999999</ele>
        <time>2026-07-08T13:48:41Z</time>
      </trkpt>
      <trkpt lat="53.369400976225734" lon="-6.328456001356244">
        <ele>50.609999999999999</ele>
        <time>2026-07-08T13:48:51Z</time>
      </trkpt>
      <trkpt lat="53.368896972388029" lon="-6.327543966472149">
        <ele>50.609999999999999</ele>
        <time>2026-07-08T13:49:01Z</time>
      </trkpt>
      <trkpt lat="53.368733022361994" lon="-6.327302986755967">
        <ele>50.609999999999999</ele>
        <time>2026-07-08T13:49:04Z</time>
      </trkpt>
      <trkpt lat="53.368678959086537" lon="-6.327227968722582">
        <ele>50.130000000000003</ele>
        <time>2026-07-08T13:49:05Z</time>
      </trkpt>
      <trkpt lat="53.368319040164351" lon="-6.326722959056497">
        <ele>50.130000000000003</ele>
        <time>2026-07-08T13:49:11Z</time>
      </trkpt>
      <trkpt lat="53.368266988545656" lon="-6.326650958508253">
        <ele>50.130000000000003</ele>
        <time>2026-07-08T13:49:12Z</time>
      </trkpt>
      <trkpt lat="53.368217032402754" lon="-6.32657996378839">
        <ele>50.130000000000003</ele>
        <time>2026-07-08T13:49:13Z</time>
      </trkpt>
      <trkpt lat="53.368164980784059" lon="-6.326507963240147">
        <ele>50.130000000000003</ele>
        <time>2026-07-08T13:49:14Z</time>
      </trkpt>
      <trkpt lat="53.368107983842492" lon="-6.326423976570368">
        <ele>50.130000000000003</ele>
        <time>2026-07-08T13:49:15Z</time>
      </trkpt>
      <trkpt lat="53.368047969415784" lon="-6.326336972415447">
        <ele>50.130000000000003</ele>
        <time>2026-07-08T13:49:16Z</time>
      </trkpt>
      <trkpt lat="53.367988038808107" lon="-6.326250974088907">
        <ele>50.130000000000003</ele>
        <time>2026-07-08T13:49:17Z</time>
      </trkpt>
      <trkpt lat="53.367928024381399" lon="-6.326161036267877">
        <ele>50.130000000000003</ele>
        <time>2026-07-08T13:49:18Z</time>
      </trkpt>
      <trkpt lat="53.36786700412631" lon="-6.326066991314292">
        <ele>50.130000000000003</ele>
        <time>2026-07-08T13:49:19Z</time>
      </trkpt>
      <trkpt lat="53.367445981130004" lon="-6.325409011915326">
        <ele>47.240000000000002</ele>
        <time>2026-07-08T13:49:26Z</time>
      </trkpt>
      <trkpt lat="53.367283958941698" lon="-6.325142970308662">
        <ele>46.759999999999998</ele>
        <time>2026-07-08T13:49:29Z</time>
      </trkpt>
      <trkpt lat="53.367084972560406" lon="-6.324807023629546">
        <ele>48.200000000000003</ele>
        <time>2026-07-08T13:49:33Z</time>
      </trkpt>
      <trkpt lat="53.367040967568755" lon="-6.324733011424542">
        <ele>48.68</ele>
        <time>2026-07-08T13:49:34Z</time>
      </trkpt>
      <trkpt lat="53.366991011425853" lon="-6.324649024754763">
        <ele>49.159999999999997</ele>
        <time>2026-07-08T13:49:35Z</time>
      </trkpt>
      <trkpt lat="53.366689011454582" lon="-6.324188020080328">
        <ele>51.090000000000003</ele>
        <time>2026-07-08T13:49:41Z</time>
      </trkpt>
      <trkpt lat="53.366625979542732" lon="-6.324091041460633">
        <ele>51.57</ele>
        <time>2026-07-08T13:49:42Z</time>
      </trkpt>
      <trkpt lat="53.366377037018538" lon="-6.323708994314075">
        <ele>52.049999999999997</ele>
        <time>2026-07-08T13:49:47Z</time>
      </trkpt>
      <trkpt lat="53.36614703759551" lon="-6.323356032371521">
        <ele>51.57</ele>
        <time>2026-07-08T13:49:52Z</time>
      </trkpt>
      <trkpt lat="53.366094985976815" lon="-6.323275985196233">
        <ele>51.57</ele>
        <time>2026-07-08T13:49:53Z</time>
      </trkpt>
      <trkpt lat="53.365960959345102" lon="-6.32303299382329">
        <ele>51.57</ele>
        <time>2026-07-08T13:49:56Z</time>
      </trkpt>
      <trkpt lat="53.365922989323735" lon="-6.322952024638653">
        <ele>51.57</ele>
        <time>2026-07-08T13:49:57Z</time>
      </trkpt>
      <trkpt lat="53.365887030959129" lon="-6.322874994948506">
        <ele>51.090000000000003</ele>
        <time>2026-07-08T13:49:58Z</time>
      </trkpt>
      <trkpt lat="53.365791980177164" lon="-6.322394041344523">
        <ele>51.090000000000003</ele>
        <time>2026-07-08T13:50:03Z</time>
      </trkpt>
      <trkpt lat="53.365728026255965" lon="-6.321967989206314">
        <ele>50.130000000000003</ele>
        <time>2026-07-08T13:50:07Z</time>
      </trkpt>
      <trkpt lat="53.365711010992527" lon="-6.321856006979942">
        <ele>50.609999999999999</ele>
        <time>2026-07-08T13:50:08Z</time>
      </trkpt>
      <trkpt lat="53.365693995729089" lon="-6.321740001440048">
        <ele>50.609999999999999</ele>
        <time>2026-07-08T13:50:09Z</time>
      </trkpt>
      <trkpt lat="53.36567597463727" lon="-6.321621984243393">
        <ele>50.130000000000003</ele>
        <time>2026-07-08T13:50:10Z</time>
      </trkpt>
      <trkpt lat="53.365659965202212" lon="-6.321516036987305">
        <ele>50.130000000000003</ele>
        <time>2026-07-08T13:50:11Z</time>
      </trkpt>
      <trkpt lat="53.365618977695704" lon="-6.321416962891817">
        <ele>50.130000000000003</ele>
        <time>2026-07-08T13:50:12Z</time>
      </trkpt>
      <trkpt lat="53.365577990189195" lon="-6.321318978443742">
        <ele>49.649999999999999</ele>
        <time>2026-07-08T13:50:13Z</time>
      </trkpt>
      <trkpt lat="53.365534991025925" lon="-6.321218982338905">
        <ele>49.649999999999999</ele>
        <time>2026-07-08T13:50:14Z</time>
      </trkpt>
      <trkpt lat="53.365488974377513" lon="-6.321122003719211">
        <ele>49.649999999999999</ele>
        <time>2026-07-08T13:50:15Z</time>
      </trkpt>
      <trkpt lat="53.365443963557482" lon="-6.321025025099516">
        <ele>49.159999999999997</ele>
        <time>2026-07-08T13:50:16Z</time>
      </trkpt>
      <trkpt lat="53.365184962749481" lon="-6.320462012663484">
        <ele>47.719999999999999</ele>
        <time>2026-07-08T13:50:22Z</time>
      </trkpt>
      <trkpt lat="53.365155039355159" lon="-6.320226984098554">
        <ele>47.240000000000002</ele>
        <time>2026-07-08T13:50:24Z</time>
      </trkpt>
      <trkpt lat="53.365139029920101" lon="-6.320107961073518">
        <ele>46.759999999999998</ele>
        <time>2026-07-08T13:50:25Z</time>
      </trkpt>
      <trkpt lat="53.365041967481375" lon="-6.319367000833154">
        <ele>46.280000000000001</ele>
        <time>2026-07-08T13:50:31Z</time>
      </trkpt>
      <trkpt lat="53.364994022995234" lon="-6.319126021116972">
        <ele>45.799999999999997</ele>
        <time>2026-07-08T13:50:33Z</time>
      </trkpt>
      <trkpt lat="53.364921016618609" lon="-6.31888504140079">
        <ele>45.799999999999997</ele>
        <time>2026-07-08T13:50:35Z</time>
      </trkpt>
      <trkpt lat="53.364653969183564" lon="-6.318150032311678">
        <ele>44.840000000000003</ele>
        <time>2026-07-08T13:50:42Z</time>
      </trkpt>
      <trkpt lat="53.364635026082397" lon="-6.318098986521363">
        <ele>44.840000000000003</ele>
        <time>2026-07-08T13:50:43Z</time>
      </trkpt>
      <trkpt lat="53.3646210283041" lon="-6.318063028156757">
        <ele>44.359999999999999</ele>
        <time>2026-07-08T13:50:52Z</time>
      </trkpt>
      <trkpt lat="53.364479038864374" lon="-6.317693972960115">
        <ele>43.880000000000003</ele>
        <time>2026-07-08T13:51:12Z</time>
      </trkpt>
      <trkpt lat="53.363970005884767" lon="-6.316371979191899">
        <ele>42.439999999999998</ele>
        <time>2026-07-08T13:51:21Z</time>
      </trkpt>
      <trkpt lat="53.363515036180615" lon="-6.315201027318835">
        <ele>38.590000000000003</ele>
        <time>2026-07-08T13:51:30Z</time>
      </trkpt>
      <trkpt lat="53.363154027611017" lon="-6.314273988828063">
        <ele>37.149999999999999</ele>
        <time>2026-07-08T13:51:36Z</time>
      </trkpt>
      <trkpt lat="53.363116979598999" lon="-6.314100986346602">
        <ele>37.149999999999999</ele>
        <time>2026-07-08T13:51:37Z</time>
      </trkpt>
      <trkpt lat="53.362913969904184" lon="-6.312835989519954">
        <ele>35.229999999999997</ele>
        <time>2026-07-08T13:51:46Z</time>
      </trkpt>
      <trkpt lat="53.362768962979317" lon="-6.312047000974417">
        <ele>35.229999999999997</ele>
        <time>2026-07-08T13:51:52Z</time>
      </trkpt>
      <trkpt lat="53.362745996564627" lon="-6.311919009312987">
        <ele>35.710000000000001</ele>
        <time>2026-07-08T13:51:53Z</time>
      </trkpt>
      <trkpt lat="53.362524965777993" lon="-6.310951989144087">
        <ele>37.149999999999999</ele>
        <time>2026-07-08T13:52:00Z</time>
      </trkpt>
      <trkpt lat="53.362478027120233" lon="-6.310811005532742">
        <ele>37.149999999999999</ele>
        <time>2026-07-08T13:52:01Z</time>
      </trkpt>
      <trkpt lat="53.362421030178666" lon="-6.310682008042932">
        <ele>37.630000000000003</ele>
        <time>2026-07-08T13:52:02Z</time>
      </trkpt>
      <trkpt lat="53.362362021580338" lon="-6.310562985017896">
        <ele>37.630000000000003</ele>
        <time>2026-07-08T13:52:03Z</time>
      </trkpt>
      <trkpt lat="53.362292032688856" lon="-6.310469023883343">
        <ele>37.630000000000003</ele>
        <time>2026-07-08T13:52:04Z</time>
      </trkpt>
      <trkpt lat="53.362222965806723" lon="-6.310381013900042">
        <ele>37.630000000000003</ele>
        <time>2026-07-08T13:52:05Z</time>
      </trkpt>
      <trkpt lat="53.362154988572001" lon="-6.310307001695037">
        <ele>37.630000000000003</ele>
        <time>2026-07-08T13:52:06Z</time>
      </trkpt>
      <trkpt lat="53.3620860055089" lon="-6.310239024460316">
        <ele>37.630000000000003</ele>
        <time>2026-07-08T13:52:07Z</time>
      </trkpt>
      <trkpt lat="53.361253011971712" lon="-6.309449030086398">
        <ele>37.630000000000003</ele>
        <time>2026-07-08T13:52:18Z</time>
      </trkpt>
      <trkpt lat="53.361198026686907" lon="-6.309347022324801">
        <ele>37.630000000000003</ele>
        <time>2026-07-08T13:52:19Z</time>
      </trkpt>
      <trkpt lat="53.360514985397458" lon="-6.308145979419351">
        <ele>38.109999999999999</ele>
        <time>2026-07-08T13:52:30Z</time>
      </trkpt>
      <trkpt lat="53.359993966296315" lon="-6.307235034182668">
        <ele>35.710000000000001</ele>
        <time>2026-07-08T13:52:39Z</time>
      </trkpt>
      <trkpt lat="53.359531033784151" lon="-6.306413020938635">
        <ele>34.740000000000002</ele>
        <time>2026-07-08T13:52:47Z</time>
      </trkpt>
      <trkpt lat="53.359475964680314" lon="-6.306307995691896">
        <ele>34.259999999999998</ele>
        <time>2026-07-08T13:52:48Z</time>
      </trkpt>
      <trkpt lat="53.359416034072638" lon="-6.306195007637143">
        <ele>33.780000000000001</ele>
        <time>2026-07-08T13:52:49Z</time>
      </trkpt>
      <trkpt lat="53.35935995914042" lon="-6.306065004318953">
        <ele>33.299999999999997</ele>
        <time>2026-07-08T13:52:50Z</time>
      </trkpt>
      <trkpt lat="53.359316037967801" lon="-6.305905999615789">
        <ele>33.299999999999997</ele>
        <time>2026-07-08T13:52:51Z</time>
      </trkpt>
      <trkpt lat="53.35927396081388" lon="-6.305744983255863">
        <ele>32.82</ele>
        <time>2026-07-08T13:52:52Z</time>
      </trkpt>
      <trkpt lat="53.359014960005879" lon="-6.304699005559087">
        <ele>33.780000000000001</ele>
        <time>2026-07-08T13:53:00Z</time>
      </trkpt>
      <trkpt lat="53.358630985021591" lon="-6.303574992343783">
        <ele>35.229999999999997</ele>
        <time>2026-07-08T13:53:09Z</time>
      </trkpt>
      <trkpt lat="53.358341977000237" lon="-6.302469000220299">
        <ele>34.259999999999998</ele>
        <time>2026-07-08T13:53:17Z</time>
      </trkpt>
      <trkpt lat="53.35802698507905" lon="-6.301298970356584">
        <ele>34.259999999999998</ele>
        <time>2026-07-08T13:53:26Z</time>
      </trkpt>
      <trkpt lat="53.357909973710775" lon="-6.300880964845419">
        <ele>35.229999999999997</ele>
        <time>2026-07-08T13:53:30Z</time>
      </trkpt>
      <trkpt lat="53.357876027002931" lon="-6.300764037296176">
        <ele>35.229999999999997</ele>
        <time>2026-07-08T13:53:31Z</time>
      </trkpt>
      <trkpt lat="53.357500014826655" lon="-6.29944103769958">
        <ele>35.710000000000001</ele>
        <time>2026-07-08T13:53:40Z</time>
      </trkpt>
      <trkpt lat="53.357142023742199" lon="-6.298148967325687">
        <ele>33.780000000000001</ele>
        <time>2026-07-08T13:53:50Z</time>
      </trkpt>
      <trkpt lat="53.356855027377605" lon="-6.297184964641929">
        <ele>31.379999999999999</ele>
        <time>2026-07-08T13:53:57Z</time>
      </trkpt>
      <trkpt lat="53.356756959110498" lon="-6.296897968277335">
        <ele>30.899999999999999</ele>
        <time>2026-07-08T13:54:00Z</time>
      </trkpt>
      <trkpt lat="53.356647994369268" lon="-6.296581970527768">
        <ele>29.940000000000001</ele>
        <time>2026-07-08T13:54:07Z</time>
      </trkpt>
      <trkpt lat="53.356610024347901" lon="-6.296488009393215">
        <ele>29.940000000000001</ele>
        <time>2026-07-08T13:54:13Z</time>
      </trkpt>
      <trkpt lat="53.356573982164264" lon="-6.296397987753153">
        <ele>29.940000000000001</ele>
        <time>2026-07-08T13:54:14Z</time>
      </trkpt>
      <trkpt lat="53.356348006054759" lon="-6.295693991705775">
        <ele>29.940000000000001</ele>
        <time>2026-07-08T13:54:19Z</time>
      </trkpt>
      <trkpt lat="53.356167962774634" lon="-6.294234031811357">
        <ele>31.379999999999999</ele>
        <time>2026-07-08T13:54:28Z</time>
      </trkpt>
      <trkpt lat="53.356146002188325" lon="-6.294086007401347">
        <ele>31.379999999999999</ele>
        <time>2026-07-08T13:54:29Z</time>
      </trkpt>
      <trkpt lat="53.355948021635413" lon="-6.293002981692553">
        <ele>28.98</ele>
        <time>2026-07-08T13:54:38Z</time>
      </trkpt>
      <trkpt lat="53.355937041342258" lon="-6.292956965044141">
        <ele>28.02</ele>
        <time>2026-07-08T13:54:46Z</time>
      </trkpt>
      <trkpt lat="53.35585699416697" lon="-6.292645996436477">
        <ele>27.050000000000001</ele>
        <time>2026-07-08T13:54:56Z</time>
      </trkpt>
      <trkpt lat="53.355841990560293" lon="-6.29258899949491">
        <ele>27.050000000000001</ele>
        <time>2026-07-08T13:55:05Z</time>
      </trkpt>
      <trkpt lat="53.355750041082501" lon="-6.292457990348339">
        <ele>27.050000000000001</ele>
        <time>2026-07-08T13:55:08Z</time>
      </trkpt>
      <trkpt lat="53.355724979192019" lon="-6.292495960369706">
        <ele>27.050000000000001</ele>
        <time>2026-07-08T13:55:09Z</time>
      </trkpt>
      <trkpt lat="53.355692038312554" lon="-6.292543988674879">
        <ele>27.050000000000001</ele>
        <time>2026-07-08T13:55:10Z</time>
      </trkpt>
      <trkpt lat="53.355615008622408" lon="-6.292659994214773">
        <ele>26.57</ele>
        <time>2026-07-08T13:55:12Z</time>
      </trkpt>
      <trkpt lat="53.355567986145616" lon="-6.292730988934636">
        <ele>26.09</ele>
        <time>2026-07-08T13:55:13Z</time>
      </trkpt>
      <trkpt lat="53.35551199503243" lon="-6.292815981432796">
        <ele>26.09</ele>
        <time>2026-07-08T13:55:14Z</time>
      </trkpt>
      <trkpt lat="53.355448041111231" lon="-6.292917989194393">
        <ele>25.609999999999999</ele>
        <time>2026-07-08T13:55:15Z</time>
      </trkpt>
      <trkpt lat="53.355373023077846" lon="-6.293037012219429">
        <ele>25.609999999999999</ele>
        <time>2026-07-08T13:55:16Z</time>
      </trkpt>
      <trkpt lat="53.355294987559319" lon="-6.293161986395717">
        <ele>25.129999999999999</ele>
        <time>2026-07-08T13:55:17Z</time>
      </trkpt>
      <trkpt lat="53.354422012344003" lon="-6.294557992368937">
        <ele>24.649999999999999</ele>
        <time>2026-07-08T13:55:28Z</time>
      </trkpt>
      <trkpt lat="53.354271976277232" lon="-6.294794026762247">
        <ele>25.609999999999999</ele>
        <time>2026-07-08T13:55:30Z</time>
      </trkpt>
      <trkpt lat="53.353501008823514" lon="-6.296010995283723">
        <ele>27.530000000000001</ele>
        <time>2026-07-08T13:55:40Z</time>
      </trkpt>
      <trkpt lat="53.353344015777111" lon="-6.296260021626949">
        <ele>27.530000000000001</ele>
        <time>2026-07-08T13:55:42Z</time>
      </trkpt>
      <trkpt lat="53.35327603854239" lon="-6.296370998024941">
        <ele>27.050000000000001</ele>
        <time>2026-07-08T13:55:43Z</time>
      </trkpt>
      <trkpt lat="53.352500963956118" lon="-6.297642029821873">
        <ele>25.129999999999999</ele>
        <time>2026-07-08T13:55:53Z</time>
      </trkpt>
      <trkpt lat="53.352381018921733" lon="-6.297821989282966">
        <ele>24.170000000000002</ele>
        <time>2026-07-08T13:55:58Z</time>
      </trkpt>
      <trkpt lat="53.352381018921733" lon="-6.297821989282966">
        <ele>24.170000000000002</ele>
        <time>2026-07-08T13:56:28Z</time>
      </trkpt>
      <trkpt lat="53.352355035021901" lon="-6.297861970961094">
        <ele>23.690000000000001</ele>
        <time>2026-07-08T13:56:59Z</time>
      </trkpt>
      <trkpt lat="53.352220002561808" lon="-6.298026004806161">
        <ele>27.050000000000001</ele>
        <time>2026-07-08T13:57:07Z</time>
      </trkpt>
      <trkpt lat="53.352113971486688" lon="-6.298019969835877">
        <ele>27.050000000000001</ele>
        <time>2026-07-08T13:57:12Z</time>
      </trkpt>
      <trkpt lat="53.351942980661988" lon="-6.297883009538055">
        <ele>25.609999999999999</ele>
        <time>2026-07-08T13:57:20Z</time>
      </trkpt>
      <trkpt lat="53.351864023134112" lon="-6.297797011211515">
        <ele>23.690000000000001</ele>
        <time>2026-07-08T13:57:49Z</time>
      </trkpt>
      <trkpt lat="53.35153603926301" lon="-6.297448994591832">
        <ele>20.809999999999999</ele>
        <time>2026-07-08T13:57:58Z</time>
      </trkpt>
      <trkpt lat="53.351492034271359" lon="-6.297408007085323">
        <ele>20.809999999999999</ele>
        <time>2026-07-08T13:57:59Z</time>
      </trkpt>
      <trkpt lat="53.351443000137806" lon="-6.297364002093673">
        <ele>20.32</ele>
        <time>2026-07-08T13:58:00Z</time>
      </trkpt>
      <trkpt lat="53.351390026509762" lon="-6.2973159737885">
        <ele>20.32</ele>
        <time>2026-07-08T13:58:01Z</time>
      </trkpt>
      <trkpt lat="53.351332023739815" lon="-6.297264005988836">
        <ele>19.84</ele>
        <time>2026-07-08T13:58:02Z</time>
      </trkpt>
      <trkpt lat="53.350808992981911" lon="-6.296795038506389">
        <ele>20.32</ele>
        <time>2026-07-08T13:58:09Z</time>
      </trkpt>
      <trkpt lat="53.35063498467207" lon="-6.296626981347799">
        <ele>21.289999999999999</ele>
        <time>2026-07-08T13:58:11Z</time>
      </trkpt>
      <trkpt lat="53.350544041022658" lon="-6.296538971364498">
        <ele>21.289999999999999</ele>
        <time>2026-07-08T13:58:12Z</time>
      </trkpt>
      <trkpt lat="53.34979503415525" lon="-6.295826006680727">
        <ele>20.32</ele>
        <time>2026-07-08T13:58:20Z</time>
      </trkpt>
      <trkpt lat="53.349286001175642" lon="-6.295357039198279">
        <ele>18.879999999999999</ele>
        <time>2026-07-08T13:58:26Z</time>
      </trkpt>
      <trkpt lat="53.348988024517894" lon="-6.29508001729846">
        <ele>16.48</ele>
        <time>2026-07-08T13:58:30Z</time>
      </trkpt>
      <trkpt lat="53.348965980112553" lon="-6.294909026473761">
        <ele>16</ele>
        <time>2026-07-08T13:58:31Z</time>
      </trkpt>
      <trkpt lat="53.348965980112553" lon="-6.294909026473761">
        <ele>15.039999999999999</ele>
        <time>2026-07-08T13:58:33Z</time>
      </trkpt>
      <trkpt lat="53.348965980112553" lon="-6.294909026473761">
        <ele>14.56</ele>
        <time>2026-07-08T13:58:34Z</time>
      </trkpt>
      <trkpt lat="53.348965980112553" lon="-6.294909026473761">
        <ele>14.08</ele>
        <time>2026-07-08T13:58:40Z</time>
      </trkpt>
      <trkpt lat="53.348965980112553" lon="-6.294909026473761">
        <ele>13.6</ele>
        <time>2026-07-08T13:58:41Z</time>
      </trkpt>
      <trkpt lat="53.348999004811049" lon="-6.295090997591615">
        <ele>13.6</ele>
        <time>2026-07-08T13:58:42Z</time>
      </trkpt>
      <trkpt lat="53.348949970677495" lon="-6.295051015913487">
        <ele>13.119999999999999</ele>
        <time>2026-07-08T13:58:43Z</time>
      </trkpt>
      <trkpt lat="53.348888028413057" lon="-6.295002987608314">
        <ele>12.630000000000001</ele>
        <time>2026-07-08T13:58:44Z</time>
      </trkpt>
      <trkpt lat="53.348824996501207" lon="-6.294954037293792">
        <ele>12.15</ele>
        <time>2026-07-08T13:58:45Z</time>
      </trkpt>
      <trkpt lat="53.34876699373126" lon="-6.294927969574928">
        <ele>11.67</ele>
        <time>2026-07-08T13:58:46Z</time>
      </trkpt>
      <trkpt lat="53.348695999011397" lon="-6.294922018423677">
        <ele>11.19</ele>
        <time>2026-07-08T13:58:47Z</time>
      </trkpt>
      <trkpt lat="53.348536994308233" lon="-6.294909026473761">
        <ele>10.710000000000001</ele>
        <time>2026-07-08T13:58:48Z</time>
      </trkpt>
      <trkpt lat="53.348536994308233" lon="-6.294909026473761">
        <ele>10.23</ele>
        <time>2026-07-08T13:58:49Z</time>
      </trkpt>
      <trkpt lat="53.348505981266499" lon="-6.294911960139871">
        <ele>10.23</ele>
        <time>2026-07-08T13:58:50Z</time>
      </trkpt>
      <trkpt lat="53.348323004320264" lon="-6.29492998123169">
        <ele>9.75</ele>
        <time>2026-07-08T13:58:51Z</time>
      </trkpt>
      <trkpt lat="53.3484230004251" lon="-6.294920006766915">
        <ele>9.27</ele>
        <time>2026-07-08T13:58:52Z</time>
      </trkpt>
      <trkpt lat="53.348323004320264" lon="-6.29492998123169">
        <ele>9.27</ele>
        <time>2026-07-08T13:58:53Z</time>
      </trkpt>
      <trkpt lat="53.348323004320264" lon="-6.29492998123169">
        <ele>8.789999999999999</ele>
        <time>2026-07-08T13:58:54Z</time>
      </trkpt>
      <trkpt lat="53.34827003069222" lon="-6.294942973181605">
        <ele>8.789999999999999</ele>
        <time>2026-07-08T13:58:55Z</time>
      </trkpt>
      <trkpt lat="53.348219990730286" lon="-6.294955965131521">
        <ele>8.789999999999999</ele>
        <time>2026-07-08T13:58:56Z</time>
      </trkpt>
      <trkpt lat="53.34814396686852" lon="-6.294897040352225">
        <ele>8.789999999999999</ele>
        <time>2026-07-08T13:58:57Z</time>
      </trkpt>
      <trkpt lat="53.348136004060507" lon="-6.294796038419008">
        <ele>8.789999999999999</ele>
        <time>2026-07-08T13:58:58Z</time>
      </trkpt>
      <trkpt lat="53.348124017938972" lon="-6.294667040929198">
        <ele>8.789999999999999</ele>
        <time>2026-07-08T13:58:59Z</time>
      </trkpt>
      <trkpt lat="53.348108008503914" lon="-6.294479034841061">
        <ele>8.310000000000001</ele>
        <time>2026-07-08T13:59:00Z</time>
      </trkpt>
      <trkpt lat="53.348102979362011" lon="-6.294364035129547">
        <ele>7.83</ele>
        <time>2026-07-08T13:59:01Z</time>
      </trkpt>
      <trkpt lat="53.348091999068856" lon="-6.294080978259444">
        <ele>7.83</ele>
        <time>2026-07-08T13:59:03Z</time>
      </trkpt>
      <trkpt lat="53.347846996039152" lon="-6.292227990925312">
        <ele>6.87</ele>
        <time>2026-07-08T13:59:14Z</time>
      </trkpt>
      <trkpt lat="53.347810031846166" lon="-6.292064962908626">
        <ele>7.35</ele>
        <time>2026-07-08T13:59:15Z</time>
      </trkpt>
      <trkpt lat="53.347681034356356" lon="-6.29144998267293">
        <ele>7.83</ele>
        <time>2026-07-08T13:59:19Z</time>
      </trkpt>
      <trkpt lat="53.347637029364705" lon="-6.291302964091301">
        <ele>7.83</ele>
        <time>2026-07-08T13:59:20Z</time>
      </trkpt>
      <trkpt lat="53.347399989143014" lon="-6.290274001657963">
        <ele>7.35</ele>
        <time>2026-07-08T13:59:27Z</time>
      </trkpt>
      <trkpt lat="53.347141994163394" lon="-6.288550011813641">
        <ele>5.91</ele>
        <time>2026-07-08T13:59:36Z</time>
      </trkpt>
      <trkpt lat="53.34706898778677" lon="-6.286490997299552">
        <ele>7.35</ele>
        <time>2026-07-08T13:59:45Z</time>
      </trkpt>
      <trkpt lat="53.347028000280261" lon="-6.285186018794775">
        <ele>7.35</ele>
        <time>2026-07-08T13:59:51Z</time>
      </trkpt>
      <trkpt lat="53.346994975581765" lon="-6.284245988354087">
        <ele>8.310000000000001</ele>
        <time>2026-07-08T13:59:59Z</time>
      </trkpt>
      <trkpt lat="53.346959017217159" lon="-6.283283997327089">
        <ele>8.789999999999999</ele>
        <time>2026-07-08T14:00:07Z</time>
      </trkpt>
      <trkpt lat="53.346828008070588" lon="-6.282112961634994">
        <ele>8.310000000000001</ele>
        <time>2026-07-08T14:00:17Z</time>
      </trkpt>
      <trkpt lat="53.346809986978769" lon="-6.281799981370568">
        <ele>8.310000000000001</ele>
        <time>2026-07-08T14:00:24Z</time>
      </trkpt>
      <trkpt lat="53.34679196588695" lon="-6.281632008031011">
        <ele>7.83</ele>
        <time>2026-07-08T14:00:33Z</time>
      </trkpt>
      <trkpt lat="53.346780985593796" lon="-6.281522959470749">
        <ele>7.83</ele>
        <time>2026-07-08T14:00:34Z</time>
      </trkpt>
      <trkpt lat="53.34664000198245" lon="-6.28030096180737">
        <ele>8.789999999999999</ele>
        <time>2026-07-08T14:00:42Z</time>
      </trkpt>
      <trkpt lat="53.346353005617857" lon="-6.278942003846169">
        <ele>9.75</ele>
        <time>2026-07-08T14:00:51Z</time>
      </trkpt>
      <trkpt lat="53.346100961789489" lon="-6.277659991756082">
        <ele>7.35</ele>
        <time>2026-07-08T14:01:00Z</time>
      </trkpt>
      <trkpt lat="53.345855036750436" lon="-6.276261974126101">
        <ele>7.35</ele>
        <time>2026-07-08T14:01:08Z</time>
      </trkpt>
      <trkpt lat="53.345836009830236" lon="-6.275973971933126">
        <ele>8.789999999999999</ele>
        <time>2026-07-08T14:01:14Z</time>
      </trkpt>
      <trkpt lat="53.345836009830236" lon="-6.275973971933126">
        <ele>8.789999999999999</ele>
        <time>2026-07-08T14:01:46Z</time>
      </trkpt>
      <trkpt lat="53.345833998173475" lon="-6.275944970548153">
        <ele>9.27</ele>
        <time>2026-07-08T14:02:37Z</time>
      </trkpt>
      <trkpt lat="53.345705000683665" lon="-6.275683036074042">
        <ele>6.87</ele>
        <time>2026-07-08T14:02:44Z</time>
      </trkpt>
      <trkpt lat="53.345657978206873" lon="-6.275698961690068">
        <ele>5.42</ele>
        <time>2026-07-08T14:02:52Z</time>
      </trkpt>
      <trkpt lat="53.345463015139103" lon="-6.275768028572202">
        <ele>1.58</ele>
        <time>2026-07-08T14:03:17Z</time>
      </trkpt>
      <trkpt lat="53.344659022986889" lon="-6.276184022426605">
        <ele>-4.67</ele>
        <time>2026-07-08T14:03:29Z</time>
      </trkpt>
      <trkpt lat="53.344400022178888" lon="-6.276302039623261">
        <ele>-5.15</ele>
        <time>2026-07-08T14:03:32Z</time>
      </trkpt>
      <trkpt lat="53.344326009973884" lon="-6.276290975511074">
        <ele>-4.67</ele>
        <time>2026-07-08T14:03:33Z</time>
      </trkpt>
      <trkpt lat="53.344247974455357" lon="-6.276278989389539">
        <ele>-4.19</ele>
        <time>2026-07-08T14:03:34Z</time>
      </trkpt>
      <trkpt lat="53.344138003885746" lon="-6.27626096829772">
        <ele>-3.71</ele>
        <time>2026-07-08T14:03:35Z</time>
      </trkpt>
      <trkpt lat="53.344059968367219" lon="-6.276183016598225">
        <ele>-3.23</ele>
        <time>2026-07-08T14:03:36Z</time>
      </trkpt>
      <trkpt lat="53.34397598169744" lon="-6.276085032150149">
        <ele>-2.27</ele>
        <time>2026-07-08T14:03:37Z</time>
      </trkpt>
      <trkpt lat="53.343908004462719" lon="-6.275989981368184">
        <ele>-1.79</ele>
        <time>2026-07-08T14:03:38Z</time>
      </trkpt>
      <trkpt lat="53.34384597837925" lon="-6.275901971384883">
        <ele>-1.3</ele>
        <time>2026-07-08T14:03:39Z</time>
      </trkpt>
      <trkpt lat="53.343787975609303" lon="-6.275819996371865">
        <ele>-0.82</ele>
        <time>2026-07-08T14:03:40Z</time>
      </trkpt>
      <trkpt lat="53.343659983947873" lon="-6.275573987513781">
        <ele>0.14</ele>
        <time>2026-07-08T14:03:42Z</time>
      </trkpt>
      <trkpt lat="53.343593012541533" lon="-6.275312975049019">
        <ele>1.58</ele>
        <time>2026-07-08T14:03:44Z</time>
      </trkpt>
      <trkpt lat="53.343561999499798" lon="-6.275191018357873">
        <ele>2.54</ele>
        <time>2026-07-08T14:03:45Z</time>
      </trkpt>
      <trkpt lat="53.343527968972921" lon="-6.275060009211302">
        <ele>3.98</ele>
        <time>2026-07-08T14:03:46Z</time>
      </trkpt>
      <trkpt lat="53.343211971223354" lon="-6.273575993254781">
        <ele>11.67</ele>
        <time>2026-07-08T14:03:58Z</time>
      </trkpt>
      <trkpt lat="53.343211971223354" lon="-6.273575993254781">
        <ele>12.15</ele>
        <time>2026-07-08T14:03:59Z</time>
      </trkpt>
      <trkpt lat="53.343204008415341" lon="-6.27353098243475">
        <ele>12.630000000000001</ele>
        <time>2026-07-08T14:04:05Z</time>
      </trkpt>
      <trkpt lat="53.343198979273438" lon="-6.273498963564634">
        <ele>13.119999999999999</ele>
        <time>2026-07-08T14:04:06Z</time>
      </trkpt>
      <trkpt lat="53.343198979273438" lon="-6.273498963564634">
        <ele>14.56</ele>
        <time>2026-07-08T14:04:18Z</time>
      </trkpt>
      <trkpt lat="53.34317903034389" lon="-6.273381030187011">
        <ele>15.039999999999999</ele>
        <time>2026-07-08T14:04:58Z</time>
      </trkpt>
      <trkpt lat="53.343079034239054" lon="-6.272788010537624">
        <ele>15.039999999999999</ele>
        <time>2026-07-08T14:05:06Z</time>
      </trkpt>
      <trkpt lat="53.34300896152854" lon="-6.272398000583053">
        <ele>14.08</ele>
        <time>2026-07-08T14:05:15Z</time>
      </trkpt>
      <trkpt lat="53.342983983457088" lon="-6.272206977009773">
        <ele>14.08</ele>
        <time>2026-07-08T14:05:21Z</time>
      </trkpt>
      <trkpt lat="53.342983983457088" lon="-6.272206977009773">
        <ele>13.6</ele>
        <time>2026-07-08T14:06:11Z</time>
      </trkpt>
      <trkpt lat="53.342969985678792" lon="-6.272088037803769">
        <ele>13.6</ele>
        <time>2026-07-08T14:06:53Z</time>
      </trkpt>
      <trkpt lat="53.342959005385637" lon="-6.271991981193423">
        <ele>13.119999999999999</ele>
        <time>2026-07-08T14:06:54Z</time>
      </trkpt>
      <trkpt lat="53.342948025092483" lon="-6.27189802005887">
        <ele>13.119999999999999</ele>
        <time>2026-07-08T14:06:55Z</time>
      </trkpt>
      <trkpt lat="53.34287703037262" lon="-6.271778997033835">
        <ele>13.6</ele>
        <time>2026-07-08T14:06:56Z</time>
      </trkpt>
      <trkpt lat="53.342830007895827" lon="-6.271762987598777">
        <ele>14.08</ele>
        <time>2026-07-08T14:06:57Z</time>
      </trkpt>
      <trkpt lat="53.342776028439403" lon="-6.271772040054202">
        <ele>14.08</ele>
        <time>2026-07-08T14:06:58Z</time>
      </trkpt>
      <trkpt lat="53.342717019841075" lon="-6.271801041439176">
        <ele>14.56</ele>
        <time>2026-07-08T14:06:59Z</time>
      </trkpt>
      <trkpt lat="53.342635966837406" lon="-6.271842028945684">
        <ele>14.56</ele>
        <time>2026-07-08T14:07:00Z</time>
      </trkpt>
      <trkpt lat="53.342571007087827" lon="-6.271890979260206">
        <ele>14.56</ele>
        <time>2026-07-08T14:07:01Z</time>
      </trkpt>
      <trkpt lat="53.342154007405043" lon="-6.272115027531982">
        <ele>14.08</ele>
        <time>2026-07-08T14:07:07Z</time>
      </trkpt>
      <trkpt lat="53.342085024341941" lon="-6.272122990339994">
        <ele>14.08</ele>
        <time>2026-07-08T14:07:08Z</time>
      </trkpt>
      <trkpt lat="53.341776989400387" lon="-6.272154003381729">
        <ele>13.6</ele>
        <time>2026-07-08T14:07:12Z</time>
      </trkpt>
      <trkpt lat="53.341670958325267" lon="-6.272162972018123">
        <ele>13.119999999999999</ele>
        <time>2026-07-08T14:07:13Z</time>
      </trkpt>
      <trkpt lat="53.340791026130319" lon="-6.272228015586734">
        <ele>13.119999999999999</ele>
        <time>2026-07-08T14:07:22Z</time>
      </trkpt>
      <trkpt lat="53.34077401086688" lon="-6.272224998101592">
        <ele>12.630000000000001</ele>
        <time>2026-07-08T14:07:23Z</time>
      </trkpt>
      <trkpt lat="53.340640990063548" lon="-6.272205971181393">
        <ele>12.15</ele>
        <time>2026-07-08T14:07:24Z</time>
      </trkpt>
      <trkpt lat="53.340575024485588" lon="-6.272205971181393">
        <ele>10.710000000000001</ele>
        <time>2026-07-08T14:07:26Z</time>
      </trkpt>
      <trkpt lat="53.340508975088596" lon="-6.272204965353012">
        <ele>10.23</ele>
        <time>2026-07-08T14:07:27Z</time>
      </trkpt>
      <trkpt lat="53.340261960402131" lon="-6.272191973403096">
        <ele>8.310000000000001</ele>
        <time>2026-07-08T14:07:31Z</time>
      </trkpt>
      <trkpt lat="53.340207980945706" lon="-6.272189039736986">
        <ele>7.35</ele>
        <time>2026-07-08T14:07:32Z</time>
      </trkpt>
      <trkpt lat="53.340069008991122" lon="-6.272207982838154">
        <ele>5.91</ele>
        <time>2026-07-08T14:07:35Z</time>
      </trkpt>
      <trkpt lat="53.340035984292626" lon="-6.27222097478807">
        <ele>5.42</ele>
        <time>2026-07-08T14:07:36Z</time>
      </trkpt>
      <trkpt lat="53.340010000392795" lon="-6.272231033071876">
        <ele>4.94</ele>
        <time>2026-07-08T14:07:37Z</time>
      </trkpt>
      <trkpt lat="53.340010000392795" lon="-6.272231033071876">
        <ele>4.46</ele>
        <time>2026-07-08T14:07:38Z</time>
      </trkpt>
      <trkpt lat="53.339980999007821" lon="-6.272243019193411">
        <ele>3.98</ele>
        <time>2026-07-08T14:07:39Z</time>
      </trkpt>
      <trkpt lat="53.339958032593131" lon="-6.272251987829804">
        <ele>3.98</ele>
        <time>2026-07-08T14:07:40Z</time>
      </trkpt>
      <trkpt lat="53.33993598818779" lon="-6.27226104028523">
        <ele>4.46</ele>
        <time>2026-07-08T14:07:41Z</time>
      </trkpt>
      <trkpt lat="53.339810008183122" lon="-6.27232700586319">
        <ele>6.87</ele>
        <time>2026-07-08T14:07:51Z</time>
      </trkpt>
      <trkpt lat="53.339848984032869" lon="-6.27241401001811">
        <ele>-7.55</ele>
        <time>2026-07-08T14:38:46Z</time>
      </trkpt>
      <trkpt lat="53.339773965999484" lon="-6.272347960621119">
        <ele>8.789999999999999</ele>
        <time>2026-07-08T14:39:03Z</time>
      </trkpt>
      <trkpt lat="53.339517982676625" lon="-6.272473018616438">
        <ele>12.15</ele>
        <time>2026-07-08T14:39:10Z</time>
      </trkpt>
      <trkpt lat="53.339424021542072" lon="-6.272490033879876">
        <ele>15.039999999999999</ele>
        <time>2026-07-08T14:39:20Z</time>
      </trkpt>
      <trkpt lat="53.339312961325049" lon="-6.272333962842822">
        <ele>16</ele>
        <time>2026-07-08T14:39:23Z</time>
      </trkpt>
      <trkpt lat="53.339306004345417" lon="-6.272275038063526">
        <ele>16.48</ele>
        <time>2026-07-08T14:39:24Z</time>
      </trkpt>
      <trkpt lat="53.339297035709023" lon="-6.272197002544999">
        <ele>16.48</ele>
        <time>2026-07-08T14:39:25Z</time>
      </trkpt>
      <trkpt lat="53.339194022119045" lon="-6.271557966247201">
        <ele>16.48</ele>
        <time>2026-07-08T14:39:31Z</time>
      </trkpt>
      <trkpt lat="53.339172983542085" lon="-6.271454030647874">
        <ele>16.48</ele>
        <time>2026-07-08T14:39:32Z</time>
      </trkpt>
      <trkpt lat="53.339129984378815" lon="-6.271242974326015">
        <ele>16.960000000000001</ele>
        <time>2026-07-08T14:39:34Z</time>
      </trkpt>
      <trkpt lat="53.339111041277647" lon="-6.271144989877939">
        <ele>16.960000000000001</ele>
        <time>2026-07-08T14:39:35Z</time>
      </trkpt>
      <trkpt lat="53.339090002700686" lon="-6.271053040400147">
        <ele>16.960000000000001</ele>
        <time>2026-07-08T14:39:36Z</time>
      </trkpt>
      <trkpt lat="53.339051026850939" lon="-6.270952960476279">
        <ele>16.48</ele>
        <time>2026-07-08T14:39:37Z</time>
      </trkpt>
      <trkpt lat="53.338987994939089" lon="-6.270790016278625">
        <ele>16.48</ele>
        <time>2026-07-08T14:39:38Z</time>
      </trkpt>
      <trkpt lat="53.338932003825903" lon="-6.270762020722032">
        <ele>16</ele>
        <time>2026-07-08T14:39:39Z</time>
      </trkpt>
      <trkpt lat="53.338852040469646" lon="-6.270722039043903">
        <ele>16</ele>
        <time>2026-07-08T14:39:40Z</time>
      </trkpt>
      <trkpt lat="53.338771993294358" lon="-6.270697982981801">
        <ele>15.52</ele>
        <time>2026-07-08T14:39:41Z</time>
      </trkpt>
      <trkpt lat="53.338705021888018" lon="-6.270689014345408">
        <ele>15.52</ele>
        <time>2026-07-08T14:39:42Z</time>
      </trkpt>
      <trkpt lat="53.338466975837946" lon="-6.270656995475292">
        <ele>16.960000000000001</ele>
        <time>2026-07-08T14:39:50Z</time>
      </trkpt>
      <trkpt lat="53.338417019695044" lon="-6.27065003849566">
        <ele>21.77</ele>
        <time>2026-07-08T14:40:15Z</time>
      </trkpt>
      <trkpt lat="53.338365973904729" lon="-6.270768977701664">
        <ele>21.77</ele>
        <time>2026-07-08T14:40:16Z</time>
      </trkpt>
      <trkpt lat="53.338365973904729" lon="-6.270768977701664">
        <ele>21.77</ele>
        <time>2026-07-08T14:40:17Z</time>
      </trkpt>
      <trkpt lat="53.338365973904729" lon="-6.270768977701664">
        <ele>21.77</ele>
        <time>2026-07-08T14:40:18Z</time>
      </trkpt>
      <trkpt lat="53.338408973067999" lon="-6.270919013768435">
        <ele>21.77</ele>
        <time>2026-07-08T14:40:19Z</time>
      </trkpt>
      <trkpt lat="53.338429005816579" lon="-6.270999982953072">
        <ele>22.25</ele>
        <time>2026-07-08T14:40:20Z</time>
      </trkpt>
      <trkpt lat="53.338444009423256" lon="-6.271064020693302">
        <ele>21.77</ele>
        <time>2026-07-08T14:40:21Z</time>
      </trkpt>
      <trkpt lat="53.338466975837946" lon="-6.271162005141377">
        <ele>23.210000000000001</ele>
        <time>2026-07-08T14:40:29Z</time>
      </trkpt>
      <trkpt lat="53.338568983599544" lon="-6.271587973460555">
        <ele>25.129999999999999</ele>
        <time>2026-07-08T14:40:47Z</time>
      </trkpt>
      <trkpt lat="53.338671997189522" lon="-6.271979995071888">
        <ele>25.129999999999999</ele>
        <time>2026-07-08T14:40:51Z</time>
      </trkpt>
      <trkpt lat="53.338700998574495" lon="-6.272059036418796">
        <ele>25.129999999999999</ele>
        <time>2026-07-08T14:40:52Z</time>
      </trkpt>
      <trkpt lat="53.338728994131088" lon="-6.27213497646153">
        <ele>25.129999999999999</ele>
        <time>2026-07-08T14:40:53Z</time>
      </trkpt>
      <trkpt lat="53.338756989687681" lon="-6.272212006151676">
        <ele>25.609999999999999</ele>
        <time>2026-07-08T14:40:54Z</time>
      </trkpt>
      <trkpt lat="53.338783979415894" lon="-6.272286018356681">
        <ele>25.609999999999999</ele>
        <time>2026-07-08T14:40:55Z</time>
      </trkpt>
      <trkpt lat="53.338811974972486" lon="-6.272360030561686">
        <ele>25.609999999999999</ele>
        <time>2026-07-08T14:40:56Z</time>
      </trkpt>
      <trkpt lat="53.33884097635746" lon="-6.272439993917942">
        <ele>25.609999999999999</ele>
        <time>2026-07-08T14:40:57Z</time>
      </trkpt>
      <trkpt lat="53.338984977453947" lon="-6.272865040227771">
        <ele>24.170000000000002</ele>
        <time>2026-07-08T14:41:05Z</time>
      </trkpt>
      <trkpt lat="53.338996963575482" lon="-6.272917008027434">
        <ele>24.170000000000002</ele>
        <time>2026-07-08T14:41:06Z</time>
      </trkpt>
      <trkpt lat="53.339004004374146" lon="-6.272947015240789">
        <ele>23.690000000000001</ele>
        <time>2026-07-08T14:41:15Z</time>
      </trkpt>
      <trkpt lat="53.339024959132075" lon="-6.27303603105247">
        <ele>23.210000000000001</ele>
        <time>2026-07-08T14:41:59Z</time>
      </trkpt>
      <trkpt lat="53.339177006855607" lon="-6.273710019886494">
        <ele>23.210000000000001</ele>
        <time>2026-07-08T14:42:10Z</time>
      </trkpt>
      <trkpt lat="53.339277002960443" lon="-6.274172030389309">
        <ele>22.25</ele>
        <time>2026-07-08T14:42:16Z</time>
      </trkpt>
      <trkpt lat="53.339454028755426" lon="-6.27501399256289">
        <ele>22.25</ele>
        <time>2026-07-08T14:42:25Z</time>
      </trkpt>
      <trkpt lat="53.339515971019864" lon="-6.275258995592594">
        <ele>22.25</ele>
        <time>2026-07-08T14:42:27Z</time>
      </trkpt>
      <trkpt lat="53.33954899571836" lon="-6.275392016395927">
        <ele>22.25</ele>
        <time>2026-07-08T14:42:28Z</time>
      </trkpt>
      <trkpt lat="53.339699031785131" lon="-6.276142029091716">
        <ele>22.73</ele>
        <time>2026-07-08T14:42:34Z</time>
      </trkpt>
      <trkpt lat="53.339712023735046" lon="-6.276241019368172">
        <ele>22.73</ele>
        <time>2026-07-08T14:42:35Z</time>
      </trkpt>
      <trkpt lat="53.339825011789799" lon="-6.277586985379458">
        <ele>26.09</ele>
        <time>2026-07-08T14:42:47Z</time>
      </trkpt>
      <trkpt lat="53.339825011789799" lon="-6.277882028371096">
        <ele>26.57</ele>
        <time>2026-07-08T14:42:50Z</time>
      </trkpt>
      <trkpt lat="53.339825011789799" lon="-6.277941958978772">
        <ele>26.57</ele>
        <time>2026-07-08T14:42:51Z</time>
      </trkpt>
      <trkpt lat="53.339825011789799" lon="-6.277999961748719">
        <ele>26.57</ele>
        <time>2026-07-08T14:42:52Z</time>
      </trkpt>
      <trkpt lat="53.339916961267591" lon="-6.27806399948895">
        <ele>26.57</ele>
        <time>2026-07-08T14:42:53Z</time>
      </trkpt>
      <trkpt lat="53.339955015107989" lon="-6.27806399948895">
        <ele>27.050000000000001</ele>
        <time>2026-07-08T14:42:54Z</time>
      </trkpt>
      <trkpt lat="53.340003965422511" lon="-6.27806399948895">
        <ele>27.050000000000001</ele>
        <time>2026-07-08T14:42:55Z</time>
      </trkpt>
      <trkpt lat="53.340057022869587" lon="-6.27806399948895">
        <ele>27.050000000000001</ele>
        <time>2026-07-08T14:42:56Z</time>
      </trkpt>
      <trkpt lat="53.34010899066925" lon="-6.27806399948895">
        <ele>27.050000000000001</ele>
        <time>2026-07-08T14:42:57Z</time>
      </trkpt>
      <trkpt lat="53.340160958468914" lon="-6.27806399948895">
        <ele>27.530000000000001</ele>
        <time>2026-07-08T14:42:58Z</time>
      </trkpt>
      <trkpt lat="53.34025802090764" lon="-6.278089983388782">
        <ele>28.98</ele>
        <time>2026-07-08T14:43:00Z</time>
      </trkpt>
      <trkpt lat="53.340312000364065" lon="-6.278110016137362">
        <ele>28.98</ele>
        <time>2026-07-08T14:43:01Z</time>
      </trkpt>
      <trkpt lat="53.340447032824159" lon="-6.278175981715322">
        <ele>28.98</ele>
        <time>2026-07-08T14:43:04Z</time>
      </trkpt>
      <trkpt lat="53.340493971481919" lon="-6.278201965615153">
        <ele>28.98</ele>
        <time>2026-07-08T14:43:05Z</time>
      </trkpt>
      <trkpt lat="53.340764958411455" lon="-6.278341021388769">
        <ele>32.340000000000003</ele>
        <time>2026-07-08T14:43:12Z</time>
      </trkpt>
      <trkpt lat="53.340812986716628" lon="-6.27836499363184">
        <ele>32.82</ele>
        <time>2026-07-08T14:43:13Z</time>
      </trkpt>
      <trkpt lat="53.34103100001812" lon="-6.278478987514973">
        <ele>34.259999999999998</ele>
        <time>2026-07-08T14:43:22Z</time>
      </trkpt>
      <trkpt lat="53.341050026938319" lon="-6.278488961979747">
        <ele>34.259999999999998</ele>
        <time>2026-07-08T14:43:42Z</time>
      </trkpt>
      <trkpt lat="53.34107399918139" lon="-6.278502037748694">
        <ele>34.259999999999998</ele>
        <time>2026-07-08T14:43:43Z</time>
      </trkpt>
      <trkpt lat="53.341103000566363" lon="-6.278517041355372">
        <ele>34.259999999999998</ele>
        <time>2026-07-08T14:43:44Z</time>
      </trkpt>
      <trkpt lat="53.341124961152673" lon="-6.278529027476907">
        <ele>34.259999999999998</ele>
        <time>2026-07-08T14:43:45Z</time>
      </trkpt>
      <trkpt lat="53.341145999729633" lon="-6.278540007770062">
        <ele>34.259999999999998</ele>
        <time>2026-07-08T14:43:46Z</time>
      </trkpt>
      <trkpt lat="53.341467026621103" lon="-6.278707981109619">
        <ele>32.82</ele>
        <time>2026-07-08T14:43:58Z</time>
      </trkpt>
      <trkpt lat="53.34158998914063" lon="-6.278779981657863">
        <ele>31.859999999999999</ele>
        <time>2026-07-08T14:44:11Z</time>
      </trkpt>
      <trkpt lat="53.341694008558989" lon="-6.278830021619797">
        <ele>32.82</ele>
        <time>2026-07-08T14:44:21Z</time>
      </trkpt>
      <trkpt lat="53.341903975233436" lon="-6.278920965269208">
        <ele>30.899999999999999</ele>
        <time>2026-07-08T14:44:33Z</time>
      </trkpt>
      <trkpt lat="53.342079995200038" lon="-6.279037976637483">
        <ele>30.420000000000002</ele>
        <time>2026-07-08T14:44:45Z</time>
      </trkpt>
      <trkpt lat="53.342327009886503" lon="-6.279151970520616">
        <ele>31.859999999999999</ele>
        <time>2026-07-08T14:44:57Z</time>
      </trkpt>
      <trkpt lat="53.342346036806703" lon="-6.279154988005757">
        <ele>33.299999999999997</ele>
        <time>2026-07-08T14:45:09Z</time>
      </trkpt>
      <trkpt lat="53.34238400682807" lon="-6.279161022976041">
        <ele>35.229999999999997</ele>
        <time>2026-07-08T14:45:52Z</time>
      </trkpt>
      <trkpt lat="53.342749960720539" lon="-6.279163034632802">
        <ele>34.259999999999998</ele>
        <time>2026-07-08T14:46:00Z</time>
      </trkpt>
      <trkpt lat="53.342782985419035" lon="-6.279161022976041">
        <ele>32.82</ele>
        <time>2026-07-08T14:46:01Z</time>
      </trkpt>
      <trkpt lat="53.342807963490486" lon="-6.279001012444496">
        <ele>32.82</ele>
        <time>2026-07-08T14:46:02Z</time>
      </trkpt>
      <trkpt lat="53.342807963490486" lon="-6.278919959440827">
        <ele>32.340000000000003</ele>
        <time>2026-07-08T14:46:03Z</time>
      </trkpt>
      <trkpt lat="53.342807963490486" lon="-6.27883798442781">
        <ele>32.340000000000003</ele>
        <time>2026-07-08T14:46:04Z</time>
      </trkpt>
      <trkpt lat="53.342807963490486" lon="-6.278758021071553">
        <ele>32.340000000000003</ele>
        <time>2026-07-08T14:46:05Z</time>
      </trkpt>
      <trkpt lat="53.342807963490486" lon="-6.278677973896265">
        <ele>31.859999999999999</ele>
        <time>2026-07-08T14:46:06Z</time>
      </trkpt>
      <trkpt lat="53.342807963490486" lon="-6.278591975569725">
        <ele>31.859999999999999</ele>
        <time>2026-07-08T14:46:07Z</time>
      </trkpt>
      <trkpt lat="53.342807963490486" lon="-6.27849399112165">
        <ele>31.859999999999999</ele>
        <time>2026-07-08T14:46:08Z</time>
      </trkpt>
      <trkpt lat="53.342807963490486" lon="-6.278395000845194">
        <ele>31.379999999999999</ele>
        <time>2026-07-08T14:46:09Z</time>
      </trkpt>
      <trkpt lat="53.342829002067447" lon="-6.277605006471276">
        <ele>30.899999999999999</ele>
        <time>2026-07-08T14:46:16Z</time>
      </trkpt>
      <trkpt lat="53.342876024544239" lon="-6.277251038700342">
        <ele>29.460000000000001</ele>
        <time>2026-07-08T14:46:23Z</time>
      </trkpt>
      <trkpt lat="53.342911982908845" lon="-6.277035037055612">
        <ele>28.5</ele>
        <time>2026-07-08T14:46:35Z</time>
      </trkpt>
      <trkpt lat="53.342988006770611" lon="-6.276629017665982">
        <ele>28.02</ele>
        <time>2026-07-08T14:46:53Z</time>
      </trkpt>
      <trkpt lat="53.343167966231704" lon="-6.275711031630635">
        <ele>25.609999999999999</ele>
        <time>2026-07-08T14:47:01Z</time>
      </trkpt>
      <trkpt lat="53.343210965394974" lon="-6.275505004450679">
        <ele>26.57</ele>
        <time>2026-07-08T14:47:09Z</time>
      </trkpt>
      <trkpt lat="53.343210965394974" lon="-6.275505004450679">
        <ele>27.050000000000001</ele>
        <time>2026-07-08T14:47:54Z</time>
      </trkpt>
      <trkpt lat="53.343219012022018" lon="-6.275468040257692">
        <ele>27.050000000000001</ele>
        <time>2026-07-08T14:48:43Z</time>
      </trkpt>
      <trkpt lat="53.343324959278107" lon="-6.27492698840797">
        <ele>26.57</ele>
        <time>2026-07-08T14:48:49Z</time>
      </trkpt>
      <trkpt lat="53.343339962884784" lon="-6.274589030072093">
        <ele>25.609999999999999</ele>
        <time>2026-07-08T14:48:52Z</time>
      </trkpt>
      <trkpt lat="53.343343986198306" lon="-6.274480987340212">
        <ele>25.129999999999999</ele>
        <time>2026-07-08T14:48:53Z</time>
      </trkpt>
      <trkpt lat="53.343332000076771" lon="-6.274374034255743">
        <ele>25.129999999999999</ele>
        <time>2026-07-08T14:48:54Z</time>
      </trkpt>
      <trkpt lat="53.343320013955235" lon="-6.274257022887468">
        <ele>25.129999999999999</ele>
        <time>2026-07-08T14:48:55Z</time>
      </trkpt>
      <trkpt lat="53.343306016176939" lon="-6.274137999862433">
        <ele>24.649999999999999</ele>
        <time>2026-07-08T14:48:56Z</time>
      </trkpt>
      <trkpt lat="53.343048021197319" lon="-6.272616013884544">
        <ele>24.649999999999999</ele>
        <time>2026-07-08T14:49:09Z</time>
      </trkpt>
      <trkpt lat="53.342965040355921" lon="-6.272040009498596">
        <ele>25.129999999999999</ele>
        <time>2026-07-08T14:49:15Z</time>
      </trkpt>
      <trkpt lat="53.342950958758593" lon="-6.271922998130322">
        <ele>25.129999999999999</ele>
        <time>2026-07-08T14:49:16Z</time>
      </trkpt>
      <trkpt lat="53.342936960980296" lon="-6.271799029782414">
        <ele>25.129999999999999</ele>
        <time>2026-07-08T14:49:17Z</time>
      </trkpt>
      <trkpt lat="53.342954982072115" lon="-6.27166198566556">
        <ele>25.129999999999999</ele>
        <time>2026-07-08T14:49:18Z</time>
      </trkpt>
      <trkpt lat="53.342971997335553" lon="-6.271529970690608">
        <ele>25.129999999999999</ele>
        <time>2026-07-08T14:49:19Z</time>
      </trkpt>
      <trkpt lat="53.342989012598991" lon="-6.271399967372417">
        <ele>25.129999999999999</ele>
        <time>2026-07-08T14:49:20Z</time>
      </trkpt>
      <trkpt lat="53.343031005933881" lon="-6.271078018471599">
        <ele>24.649999999999999</ele>
        <time>2026-07-08T14:49:23Z</time>
      </trkpt>
      <trkpt lat="53.343043997883797" lon="-6.270982967689633">
        <ele>24.649999999999999</ele>
        <time>2026-07-08T14:49:24Z</time>
      </trkpt>
      <trkpt lat="53.343062018975616" lon="-6.27091096714139">
        <ele>24.649999999999999</ele>
        <time>2026-07-08T14:49:25Z</time>
      </trkpt>
      <trkpt lat="53.343080962076783" lon="-6.270836032927036">
        <ele>24.649999999999999</ele>
        <time>2026-07-08T14:49:26Z</time>
      </trkpt>
      <trkpt lat="53.343099988996983" lon="-6.27075900323689">
        <ele>24.649999999999999</ele>
        <time>2026-07-08T14:49:27Z</time>
      </trkpt>
      <trkpt lat="53.343119015917182" lon="-6.270682979375124">
        <ele>24.649999999999999</ele>
        <time>2026-07-08T14:49:28Z</time>
      </trkpt>
      <trkpt lat="53.343196967616677" lon="-6.270463038235903">
        <ele>24.170000000000002</ele>
        <time>2026-07-08T14:49:31Z</time>
      </trkpt>
      <trkpt lat="53.343229992315173" lon="-6.270395983010531">
        <ele>24.170000000000002</ele>
        <time>2026-07-08T14:49:32Z</time>
      </trkpt>
      <trkpt lat="53.343256982043386" lon="-6.270342003554106">
        <ele>23.690000000000001</ele>
        <time>2026-07-08T14:49:33Z</time>
      </trkpt>
      <trkpt lat="53.343280032277107" lon="-6.270296992734075">
        <ele>23.690000000000001</ele>
        <time>2026-07-08T14:49:34Z</time>
      </trkpt>
      <trkpt lat="53.34330702200532" lon="-6.270276037976146">
        <ele>23.210000000000001</ele>
        <time>2026-07-08T14:49:43Z</time>
      </trkpt>
      <trkpt lat="53.343413975089788" lon="-6.270193979144096">
        <ele>21.289999999999999</ele>
        <time>2026-07-08T14:49:55Z</time>
      </trkpt>
      <trkpt lat="53.343558982014656" lon="-6.270081996917725">
        <ele>19.84</ele>
        <time>2026-07-08T14:49:59Z</time>
      </trkpt>
      <trkpt lat="53.343607010319829" lon="-6.269960962235928">
        <ele>19.84</ele>
        <time>2026-07-08T14:50:00Z</time>
      </trkpt>
      <trkpt lat="53.343641962856054" lon="-6.269874963909388">
        <ele>19.84</ele>
        <time>2026-07-08T14:50:01Z</time>
      </trkpt>
      <trkpt lat="53.343660989776254" lon="-6.269787037745118">
        <ele>20.32</ele>
        <time>2026-07-08T14:50:02Z</time>
      </trkpt>
      <trkpt lat="53.343678005039692" lon="-6.269699027761817">
        <ele>20.32</ele>
        <time>2026-07-08T14:50:03Z</time>
      </trkpt>
      <trkpt lat="53.34369401447475" lon="-6.269618980586529">
        <ele>19.84</ele>
        <time>2026-07-08T14:50:04Z</time>
      </trkpt>
      <trkpt lat="53.343783030286431" lon="-6.269185971468687">
        <ele>18.879999999999999</ele>
        <time>2026-07-08T14:50:10Z</time>
      </trkpt>
      <trkpt lat="53.343919990584254" lon="-6.268456997349858">
        <ele>18.399999999999999</ele>
        <time>2026-07-08T14:50:21Z</time>
      </trkpt>
      <trkpt lat="53.344054017215967" lon="-6.26781502738595">
        <ele>17.920000000000002</ele>
        <time>2026-07-08T14:50:30Z</time>
      </trkpt>
      <trkpt lat="53.344073966145515" lon="-6.267678989097476">
        <ele>17.920000000000002</ele>
        <time>2026-07-08T14:50:31Z</time>
      </trkpt>
      <trkpt lat="53.344077989459038" lon="-6.267634984105825">
        <ele>17.920000000000002</ele>
        <time>2026-07-08T14:50:32Z</time>
      </trkpt>
      <trkpt lat="53.344177985563874" lon="-6.266369987279177">
        <ele>15.039999999999999</ele>
        <time>2026-07-08T14:50:42Z</time>
      </trkpt>
      <trkpt lat="53.344181003049016" lon="-6.265953993424773">
        <ele>14.08</ele>
        <time>2026-07-08T14:50:45Z</time>
      </trkpt>
      <trkpt lat="53.344181003049016" lon="-6.265830025076866">
        <ele>14.08</ele>
        <time>2026-07-08T14:50:46Z</time>
      </trkpt>
      <trkpt lat="53.344181003049016" lon="-6.264953026548028">
        <ele>15.039999999999999</ele>
        <time>2026-07-08T14:50:56Z</time>
      </trkpt>
      <trkpt lat="53.344181003049016" lon="-6.264953026548028">
        <ele>15.039999999999999</ele>
        <time>2026-07-08T14:51:04Z</time>
      </trkpt>
      <trkpt lat="53.344181003049016" lon="-6.264953026548028">
        <ele>15.039999999999999</ele>
        <time>2026-07-08T14:51:37Z</time>
      </trkpt>
      <trkpt lat="53.344181003049016" lon="-6.264607021585107">
        <ele>16.48</ele>
        <time>2026-07-08T14:52:04Z</time>
      </trkpt>
      <trkpt lat="53.344181003049016" lon="-6.264541978016496">
        <ele>16.48</ele>
        <time>2026-07-08T14:52:05Z</time>
      </trkpt>
      <trkpt lat="53.344181003049016" lon="-6.264494033530355">
        <ele>16</ele>
        <time>2026-07-08T14:52:06Z</time>
      </trkpt>
      <trkpt lat="53.344181003049016" lon="-6.264417003840208">
        <ele>15.52</ele>
        <time>2026-07-08T14:52:07Z</time>
      </trkpt>
      <trkpt lat="53.344181003049016" lon="-6.264417003840208">
        <ele>14.56</ele>
        <time>2026-07-08T14:52:08Z</time>
      </trkpt>
      <trkpt lat="53.344181003049016" lon="-6.264417003840208">
        <ele>14.08</ele>
        <time>2026-07-08T14:52:09Z</time>
      </trkpt>
      <trkpt lat="53.344181003049016" lon="-6.264409963041544">
        <ele>13.119999999999999</ele>
        <time>2026-07-08T14:52:10Z</time>
      </trkpt>
      <trkpt lat="53.343948991969228" lon="-6.264402000233531">
        <ele>10.710000000000001</ele>
        <time>2026-07-08T14:52:12Z</time>
      </trkpt>
      <trkpt lat="53.3439090102911" lon="-6.264398982748389">
        <ele>9.75</ele>
        <time>2026-07-08T14:52:13Z</time>
      </trkpt>
      <trkpt lat="53.343858970329165" lon="-6.264395965263248">
        <ele>8.310000000000001</ele>
        <time>2026-07-08T14:52:14Z</time>
      </trkpt>
      <trkpt lat="53.343842038884759" lon="-6.264395965263248">
        <ele>7.35</ele>
        <time>2026-07-08T14:52:15Z</time>
      </trkpt>
      <trkpt lat="53.343784958124161" lon="-6.264395965263248">
        <ele>4.94</ele>
        <time>2026-07-08T14:52:17Z</time>
      </trkpt>
      <trkpt lat="53.343745982274413" lon="-6.264395965263248">
        <ele>3.5</ele>
        <time>2026-07-08T14:52:18Z</time>
      </trkpt>
      <trkpt lat="53.343702983111143" lon="-6.264395965263248">
        <ele>2.54</ele>
        <time>2026-07-08T14:52:19Z</time>
      </trkpt>
      <trkpt lat="53.343438031151891" lon="-6.26439998857677">
        <ele>-3.23</ele>
        <time>2026-07-08T14:52:24Z</time>
      </trkpt>
      <trkpt lat="53.343151034787297" lon="-6.264417003840208">
        <ele>-10.92</ele>
        <time>2026-07-08T14:52:33Z</time>
      </trkpt>
      <trkpt lat="53.343151034787297" lon="-6.264417003840208">
        <ele>-10.92</ele>
        <time>2026-07-08T14:52:57Z</time>
      </trkpt>
      <trkpt lat="53.34292103536427" lon="-6.264433013275266">
        <ele>-17.170000000000002</ele>
        <time>2026-07-08T14:53:03Z</time>
      </trkpt>
      <trkpt lat="53.342769993469119" lon="-6.264455979689956">
        <ele>-20.530000000000001</ele>
        <time>2026-07-08T14:53:06Z</time>
      </trkpt>
      <trkpt lat="53.342424994334579" lon="-6.264538960531354">
        <ele>-28.699999999999999</ele>
        <time>2026-07-08T14:53:16Z</time>
      </trkpt>
      <trkpt lat="53.342413008213043" lon="-6.264546001330018">
        <ele>-28.699999999999999</ele>
        <time>2026-07-08T14:53:50Z</time>
      </trkpt>
      <trkpt lat="53.342390041798353" lon="-6.264558993279934">
        <ele>-29.66</ele>
        <time>2026-07-08T14:53:51Z</time>
      </trkpt>
      <trkpt lat="53.342030961066484" lon="-6.264811959117651">
        <ele>-31.109999999999999</ele>
        <time>2026-07-08T14:53:57Z</time>
      </trkpt>
      <trkpt lat="53.341552019119263" lon="-6.265304982662201">
        <ele>-31.109999999999999</ele>
        <time>2026-07-08T14:54:04Z</time>
      </trkpt>
      <trkpt lat="53.341478006914258" lon="-6.265383018180728">
        <ele>-31.109999999999999</ele>
        <time>2026-07-08T14:54:05Z</time>
      </trkpt>
      <trkpt lat="53.341412963345647" lon="-6.265407996252179">
        <ele>-30.620000000000001</ele>
        <time>2026-07-08T14:54:06Z</time>
      </trkpt>
      <trkpt lat="53.340705027803779" lon="-6.265618968755007">
        <ele>-26.300000000000001</ele>
        <time>2026-07-08T14:54:15Z</time>
      </trkpt>
      <trkpt lat="53.340662028640509" lon="-6.265631038695574">
        <ele>-25.82</ele>
        <time>2026-07-08T14:54:16Z</time>
      </trkpt>
      <trkpt lat="53.340590028092265" lon="-6.265649981796742">
        <ele>-25.34</ele>
        <time>2026-07-08T14:54:17Z</time>
      </trkpt>
      <trkpt lat="53.339758962392807" lon="-6.26583899371326">
        <ele>-19.57</ele>
        <time>2026-07-08T14:54:28Z</time>
      </trkpt>
      <trkpt lat="53.339063012972474" lon="-6.26598802395165">
        <ele>-14.76</ele>
        <time>2026-07-08T14:54:36Z</time>
      </trkpt>
      <trkpt lat="53.338725976645947" lon="-6.266061030328274">
        <ele>-10.92</ele>
        <time>2026-07-08T14:54:44Z</time>
      </trkpt>
      <trkpt lat="53.33866897970438" lon="-6.26607502810657">
        <ele>-8.51</ele>
        <time>2026-07-08T14:54:57Z</time>
      </trkpt>
      <trkpt lat="53.338641989976168" lon="-6.266082990914583">
        <ele>-7.55</ele>
        <time>2026-07-08T14:54:58Z</time>
      </trkpt>
      <trkpt lat="53.33860301412642" lon="-6.266093971207738">
        <ele>-6.59</ele>
        <time>2026-07-08T14:54:59Z</time>
      </trkpt>
      <trkpt lat="53.338085012510419" lon="-6.265979977324605">
        <ele>-2.75</ele>
        <time>2026-07-08T14:55:08Z</time>
      </trkpt>
      <trkpt lat="53.337973030284047" lon="-6.265938989818096">
        <ele>-1.79</ele>
        <time>2026-07-08T14:55:10Z</time>
      </trkpt>
      <trkpt lat="53.337830035015941" lon="-6.265898002311587">
        <ele>-0.34</ele>
        <time>2026-07-08T14:55:14Z</time>
      </trkpt>
      <trkpt lat="53.337784018367529" lon="-6.265888027846813">
        <ele>0.14</ele>
        <time>2026-07-08T14:55:15Z</time>
      </trkpt>
      <trkpt lat="53.3376369997859" lon="-6.265767998993397">
        <ele>0.62</ele>
        <time>2026-07-08T14:55:16Z</time>
      </trkpt>
      <trkpt lat="53.3376369997859" lon="-6.265697004273534">
        <ele>0.62</ele>
        <time>2026-07-08T14:55:17Z</time>
      </trkpt>
      <trkpt lat="53.3376369997859" lon="-6.265611005946994">
        <ele>1.1</ele>
        <time>2026-07-08T14:55:18Z</time>
      </trkpt>
      <trkpt lat="53.3376369997859" lon="-6.265500029549003">
        <ele>1.58</ele>
        <time>2026-07-08T14:55:19Z</time>
      </trkpt>
      <trkpt lat="53.3376369997859" lon="-6.265382012352347">
        <ele>2.54</ele>
        <time>2026-07-08T14:55:20Z</time>
      </trkpt>
      <trkpt lat="53.3376369997859" lon="-6.26523801125586">
        <ele>3.02</ele>
        <time>2026-07-08T14:55:21Z</time>
      </trkpt>
      <trkpt lat="53.3376369997859" lon="-6.264925030991435">
        <ele>4.46</ele>
        <time>2026-07-08T14:55:23Z</time>
      </trkpt>
      <trkpt lat="53.3376369997859" lon="-6.264778012409806">
        <ele>4.94</ele>
        <time>2026-07-08T14:55:24Z</time>
      </trkpt>
      <trkpt lat="53.337646974250674" lon="-6.263257032260299">
        <ele>9.27</ele>
        <time>2026-07-08T14:55:33Z</time>
      </trkpt>
      <trkpt lat="53.337658038362861" lon="-6.262888982892036">
        <ele>9.27</ele>
        <time>2026-07-08T14:55:35Z</time>
      </trkpt>
      <trkpt lat="53.337653009220958" lon="-6.262550018727779">
        <ele>9.27</ele>
        <time>2026-07-08T14:55:37Z</time>
      </trkpt>
      <trkpt lat="53.337581008672714" lon="-6.262233015149832">
        <ele>11.19</ele>
        <time>2026-07-08T14:55:39Z</time>
      </trkpt>
      <trkpt lat="53.336952030658722" lon="-6.260024970397353">
        <ele>18.879999999999999</ele>
        <time>2026-07-08T14:55:53Z</time>
      </trkpt>
      <trkpt lat="53.336591022089124" lon="-6.258832979947329">
        <ele>20.809999999999999</ele>
        <time>2026-07-08T14:56:01Z</time>
      </trkpt>
      <trkpt lat="53.336548022925854" lon="-6.258670035749674">
        <ele>20.809999999999999</ele>
        <time>2026-07-08T14:56:02Z</time>
      </trkpt>
      <trkpt lat="53.336320035159588" lon="-6.257816003635526">
        <ele>23.690000000000001</ele>
        <time>2026-07-08T14:56:07Z</time>
      </trkpt>
      <trkpt lat="53.336306037381291" lon="-6.257765041664243">
        <ele>25.129999999999999</ele>
        <time>2026-07-08T14:56:08Z</time>
      </trkpt>
      <trkpt lat="53.336343001574278" lon="-6.25754501670599">
        <ele>25.609999999999999</ele>
        <time>2026-07-08T14:56:09Z</time>
      </trkpt>
      <trkpt lat="53.336365967988968" lon="-6.257409984245896">
        <ele>26.57</ele>
        <time>2026-07-08T14:56:10Z</time>
      </trkpt>
      <trkpt lat="53.336403016000986" lon="-6.257332032546401">
        <ele>27.050000000000001</ele>
        <time>2026-07-08T14:56:11Z</time>
      </trkpt>
      <trkpt lat="53.336468981578946" lon="-6.257234970107675">
        <ele>27.530000000000001</ele>
        <time>2026-07-08T14:56:12Z</time>
      </trkpt>
      <trkpt lat="53.336531007662416" lon="-6.257144026458263">
        <ele>27.530000000000001</ele>
        <time>2026-07-08T14:56:13Z</time>
      </trkpt>
      <trkpt lat="53.33658398129046" lon="-6.257066996768117">
        <ele>27.050000000000001</ele>
        <time>2026-07-08T14:56:14Z</time>
      </trkpt>
      <trkpt lat="53.336625974625349" lon="-6.257004970684648">
        <ele>26.57</ele>
        <time>2026-07-08T14:56:15Z</time>
      </trkpt>
      <trkpt lat="53.336779028177261" lon="-6.256834985688329">
        <ele>25.129999999999999</ele>
        <time>2026-07-08T14:56:19Z</time>
      </trkpt>
      <trkpt lat="53.336825966835022" lon="-6.256796009838581">
        <ele>25.129999999999999</ele>
        <time>2026-07-08T14:56:20Z</time>
      </trkpt>
      <trkpt lat="53.337276997044683" lon="-6.256427960470319">
        <ele>21.77</ele>
        <time>2026-07-08T14:56:28Z</time>
      </trkpt>
      <trkpt lat="53.337539015337825" lon="-6.256211958825588">
        <ele>18.879999999999999</ele>
        <time>2026-07-08T14:56:37Z</time>
      </trkpt>
      <trkpt lat="53.338028015568852" lon="-6.255820021033287">
        <ele>19.359999999999999</ele>
        <time>2026-07-08T14:56:46Z</time>
      </trkpt>
      <trkpt lat="53.338142009451985" lon="-6.255737040191889">
        <ele>19.359999999999999</ele>
        <time>2026-07-08T14:56:48Z</time>
      </trkpt>
      <trkpt lat="53.338196994736791" lon="-6.255695968866348">
        <ele>19.84</ele>
        <time>2026-07-08T14:56:49Z</time>
      </trkpt>
      <trkpt lat="53.338254997506738" lon="-6.255653975531459">
        <ele>19.84</ele>
        <time>2026-07-08T14:56:50Z</time>
      </trkpt>
      <trkpt lat="53.338365973904729" lon="-6.255620028823614">
        <ele>20.32</ele>
        <time>2026-07-08T14:56:52Z</time>
      </trkpt>
      <trkpt lat="53.338425988331437" lon="-6.255635032430291">
        <ele>20.32</ele>
        <time>2026-07-08T14:56:53Z</time>
      </trkpt>
      <trkpt lat="53.338493965566158" lon="-6.255651041865349">
        <ele>20.809999999999999</ele>
        <time>2026-07-08T14:56:54Z</time>
      </trkpt>
      <trkpt lat="53.338550962507725" lon="-6.255683982744813">
        <ele>20.809999999999999</ele>
        <time>2026-07-08T14:56:55Z</time>
      </trkpt>
      <trkpt lat="53.338597984984517" lon="-6.255757994949818">
        <ele>20.809999999999999</ele>
        <time>2026-07-08T14:56:56Z</time>
      </trkpt>
      <trkpt lat="53.338644001632929" lon="-6.255828989669681">
        <ele>21.289999999999999</ele>
        <time>2026-07-08T14:56:57Z</time>
      </trkpt>
      <trkpt lat="53.338731005787849" lon="-6.255963016301394">
        <ele>21.289999999999999</ele>
        <time>2026-07-08T14:56:58Z</time>
      </trkpt>
      <trkpt lat="53.338738968595862" lon="-6.256022024899721">
        <ele>21.289999999999999</ele>
        <time>2026-07-08T14:56:59Z</time>
      </trkpt>
      <trkpt lat="53.338753972202539" lon="-6.256126966327429">
        <ele>21.77</ele>
        <time>2026-07-08T14:57:00Z</time>
      </trkpt>
      <trkpt lat="53.338804012164474" lon="-6.2563840392977">
        <ele>22.25</ele>
        <time>2026-07-08T14:57:07Z</time>
      </trkpt>
      <trkpt lat="53.338839970529079" lon="-6.256528962403536">
        <ele>23.210000000000001</ele>
        <time>2026-07-08T14:57:29Z</time>
      </trkpt>
      <trkpt lat="53.338950024917722" lon="-6.256528040394187">
        <ele>23.210000000000001</ele>
        <time>2026-07-08T14:57:30Z</time>
      </trkpt>
      <trkpt lat="53.338996041566133" lon="-6.256488980725408">
        <ele>23.690000000000001</ele>
        <time>2026-07-08T14:57:31Z</time>
      </trkpt>
      <trkpt lat="53.339051026850939" lon="-6.256441036239266">
        <ele>24.170000000000002</ele>
        <time>2026-07-08T14:57:32Z</time>
      </trkpt>
      <trkpt lat="53.339112969115376" lon="-6.25638697296381">
        <ele>24.649999999999999</ele>
        <time>2026-07-08T14:57:33Z</time>
      </trkpt>
      <trkpt lat="53.339813025668263" lon="-6.255895961076021">
        <ele>26.09</ele>
        <time>2026-07-08T14:57:42Z</time>
      </trkpt>
      <trkpt lat="53.339890977367759" lon="-6.255834018811584">
        <ele>26.09</ele>
        <time>2026-07-08T14:57:43Z</time>
      </trkpt>
      <trkpt lat="53.340055011212826" lon="-6.255733016878367">
        <ele>26.09</ele>
        <time>2026-07-08T14:57:45Z</time>
      </trkpt>
      <trkpt lat="53.340134974569082" lon="-6.255682976916432">
        <ele>26.09</ele>
        <time>2026-07-08T14:57:46Z</time>
      </trkpt>
      <trkpt lat="53.340287022292614" lon="-6.255595972761512">
        <ele>25.609999999999999</ele>
        <time>2026-07-08T14:57:48Z</time>
      </trkpt>
      <trkpt lat="53.340603020042181" lon="-6.255419030785561">
        <ele>23.690000000000001</ele>
        <time>2026-07-08T14:57:56Z</time>
      </trkpt>
      <trkpt lat="53.340603020042181" lon="-6.255419030785561">
        <ele>23.690000000000001</ele>
        <time>2026-07-08T14:58:21Z</time>
      </trkpt>
      <trkpt lat="53.340736962854862" lon="-6.255346024408937">
        <ele>22.25</ele>
        <time>2026-07-08T14:58:51Z</time>
      </trkpt>
      <trkpt lat="53.340776022523642" lon="-6.255326997488737">
        <ele>22.25</ele>
        <time>2026-07-08T14:58:52Z</time>
      </trkpt>
      <trkpt lat="53.340804018080235" lon="-6.255374019965529">
        <ele>21.77</ele>
        <time>2026-07-08T14:58:53Z</time>
      </trkpt>
      <trkpt lat="53.340822961181402" lon="-6.255452977493405">
        <ele>21.77</ele>
        <time>2026-07-08T14:58:54Z</time>
      </trkpt>
      <trkpt lat="53.340847017243505" lon="-6.255554985255003">
        <ele>21.289999999999999</ele>
        <time>2026-07-08T14:58:55Z</time>
      </trkpt>
      <trkpt lat="53.341084979474545" lon="-6.256784023717046">
        <ele>19.359999999999999</ele>
        <time>2026-07-08T14:59:05Z</time>
      </trkpt>
      <trkpt lat="53.341220011934638" lon="-6.257013017311692">
        <ele>17.440000000000001</ele>
        <time>2026-07-08T14:59:10Z</time>
      </trkpt>
      <trkpt lat="53.341253036633134" lon="-6.256996002048254">
        <ele>17.440000000000001</ele>
        <time>2026-07-08T14:59:11Z</time>
      </trkpt>
      <trkpt lat="53.341295029968023" lon="-6.256973035633564">
        <ele>16.960000000000001</ele>
        <time>2026-07-08T14:59:12Z</time>
      </trkpt>
      <trkpt lat="53.341354038566351" lon="-6.25694302842021">
        <ele>16.960000000000001</ele>
        <time>2026-07-08T14:59:13Z</time>
      </trkpt>
      <trkpt lat="53.341421009972692" lon="-6.256906986236572">
        <ele>16.48</ele>
        <time>2026-07-08T14:59:14Z</time>
      </trkpt>
      <trkpt lat="53.341495022177696" lon="-6.256869016215205">
        <ele>16</ele>
        <time>2026-07-08T14:59:15Z</time>
      </trkpt>
      <trkpt lat="53.341714041307569" lon="-6.256757033988833">
        <ele>15.039999999999999</ele>
        <time>2026-07-08T14:59:18Z</time>
      </trkpt>
      <trkpt lat="53.341842032968998" lon="-6.256691990420222">
        <ele>14.56</ele>
        <time>2026-07-08T14:59:19Z</time>
      </trkpt>
      <trkpt lat="53.341939011588693" lon="-6.256643040105701">
        <ele>14.56</ele>
        <time>2026-07-08T14:59:21Z</time>
      </trkpt>
      <trkpt lat="53.342014029622078" lon="-6.256603980436921">
        <ele>14.56</ele>
        <time>2026-07-08T14:59:22Z</time>
      </trkpt>
      <trkpt lat="53.342085024341941" lon="-6.256568022072315">
        <ele>14.08</ele>
        <time>2026-07-08T14:59:23Z</time>
      </trkpt>
      <trkpt lat="53.342301025986671" lon="-6.256456961855292">
        <ele>12.630000000000001</ele>
        <time>2026-07-08T14:59:30Z</time>
      </trkpt>
      <trkpt lat="53.342359028756618" lon="-6.25642703846097">
        <ele>11.67</ele>
        <time>2026-07-08T14:59:42Z</time>
      </trkpt>
      <trkpt lat="53.342461958527565" lon="-6.256373981013894">
        <ele>10.710000000000001</ele>
        <time>2026-07-08T14:59:56Z</time>
      </trkpt>
      <trkpt lat="53.342495989054441" lon="-6.256356965750456">
        <ele>11.19</ele>
        <time>2026-07-08T14:59:58Z</time>
      </trkpt>
      <trkpt lat="53.342571007087827" lon="-6.256222017109394">
        <ele>11.19</ele>
        <time>2026-07-08T14:59:59Z</time>
      </trkpt>
      <trkpt lat="53.342553991824389" lon="-6.256158985197544">
        <ele>11.19</ele>
        <time>2026-07-08T15:00:00Z</time>
      </trkpt>
      <trkpt lat="53.342531025409698" lon="-6.256074998527765">
        <ele>11.19</ele>
        <time>2026-07-08T15:00:01Z</time>
      </trkpt>
      <trkpt lat="53.342505041509867" lon="-6.255978019908071">
        <ele>11.19</ele>
        <time>2026-07-08T15:00:02Z</time>
      </trkpt>
      <trkpt lat="53.342476040124893" lon="-6.255871988832951">
        <ele>11.67</ele>
        <time>2026-07-08T15:00:03Z</time>
      </trkpt>
      <trkpt lat="53.342346036806703" lon="-6.255302019417286">
        <ele>12.630000000000001</ele>
        <time>2026-07-08T15:00:09Z</time>
      </trkpt>
      <trkpt lat="53.342266995459795" lon="-6.254961965605617">
        <ele>12.15</ele>
        <time>2026-07-08T15:00:15Z</time>
      </trkpt>
      <trkpt lat="53.34212601184845" lon="-6.254367018118501">
        <ele>12.15</ele>
        <time>2026-07-08T15:00:24Z</time>
      </trkpt>
      <trkpt lat="53.34197698161006" lon="-6.253589009866118">
        <ele>10.710000000000001</ele>
        <time>2026-07-08T15:00:34Z</time>
      </trkpt>
      <trkpt lat="53.341923002153635" lon="-6.253321040421724">
        <ele>12.630000000000001</ele>
        <time>2026-07-08T15:00:44Z</time>
      </trkpt>
      <trkpt lat="53.341923002153635" lon="-6.253321040421724">
        <ele>15.039999999999999</ele>
        <time>2026-07-08T15:00:56Z</time>
      </trkpt>
      <trkpt lat="53.341923002153635" lon="-6.253321040421724">
        <ele>15.039999999999999</ele>
        <time>2026-07-08T15:01:22Z</time>
      </trkpt>
      <trkpt lat="53.341875979676843" lon="-6.252904962748289">
        <ele>18.879999999999999</ele>
        <time>2026-07-08T15:01:54Z</time>
      </trkpt>
      <trkpt lat="53.341864999383688" lon="-6.252587037160993">
        <ele>17.440000000000001</ele>
        <time>2026-07-08T15:01:58Z</time>
      </trkpt>
      <trkpt lat="53.341887965798378" lon="-6.252486035227776">
        <ele>16.48</ele>
        <time>2026-07-08T15:01:59Z</time>
      </trkpt>
      <trkpt lat="53.3419110160321" lon="-6.252383021637797">
        <ele>16</ele>
        <time>2026-07-08T15:02:00Z</time>
      </trkpt>
      <trkpt lat="53.341992991045117" lon="-6.252014972269535">
        <ele>13.6</ele>
        <time>2026-07-08T15:02:03Z</time>
      </trkpt>
      <trkpt lat="53.342143027111888" lon="-6.251607025042176">
        <ele>8.310000000000001</ele>
        <time>2026-07-08T15:02:09Z</time>
      </trkpt>
      <trkpt lat="53.34212601184845" lon="-6.251472998410463">
        <ele>7.35</ele>
        <time>2026-07-08T15:02:10Z</time>
      </trkpt>
      <trkpt lat="53.342116037383676" lon="-6.251392029225826">
        <ele>6.39</ele>
        <time>2026-07-08T15:02:11Z</time>
      </trkpt>
      <trkpt lat="53.342104973271489" lon="-6.251307036727667">
        <ele>5.42</ele>
        <time>2026-07-08T15:02:12Z</time>
      </trkpt>
      <trkpt lat="53.342094998806715" lon="-6.251226989552379">
        <ele>4.46</ele>
        <time>2026-07-08T15:02:13Z</time>
      </trkpt>
      <trkpt lat="53.342077983543277" lon="-6.251092040911317">
        <ele>3.02</ele>
        <time>2026-07-08T15:02:14Z</time>
      </trkpt>
      <trkpt lat="53.342077983543277" lon="-6.251092040911317">
        <ele>2.06</ele>
        <time>2026-07-08T15:02:15Z</time>
      </trkpt>
      <trkpt lat="53.3420629799366" lon="-6.251033032312989">
        <ele>1.1</ele>
        <time>2026-07-08T15:02:16Z</time>
      </trkpt>
      <trkpt lat="53.342044958844781" lon="-6.250965977087617">
        <ele>0.14</ele>
        <time>2026-07-08T15:02:17Z</time>
      </trkpt>
      <trkpt lat="53.342030961066484" lon="-6.250916020944715">
        <ele>-0.82</ele>
        <time>2026-07-08T15:02:18Z</time>
      </trkpt>
      <trkpt lat="53.342005982995033" lon="-6.250819964334369">
        <ele>-2.27</ele>
        <time>2026-07-08T15:02:21Z</time>
      </trkpt>
      <trkpt lat="53.342005982995033" lon="-6.250819964334369">
        <ele>-2.75</ele>
        <time>2026-07-08T15:02:35Z</time>
      </trkpt>
      <trkpt lat="53.34199701435864" lon="-6.250788029283285">
        <ele>-3.71</ele>
        <time>2026-07-08T15:02:55Z</time>
      </trkpt>
      <trkpt lat="53.341979999095201" lon="-6.250681998208165">
        <ele>-3.71</ele>
        <time>2026-07-08T15:02:57Z</time>
      </trkpt>
      <trkpt lat="53.341940017417073" lon="-6.250510001555085">
        <ele>-3.71</ele>
        <time>2026-07-08T15:02:59Z</time>
      </trkpt>
      <trkpt lat="53.341885032132268" lon="-6.250361977145076">
        <ele>-3.71</ele>
        <time>2026-07-08T15:03:00Z</time>
      </trkpt>
      <trkpt lat="53.341863993555307" lon="-6.250167014077306">
        <ele>-3.71</ele>
        <time>2026-07-08T15:03:02Z</time>
      </trkpt>
      <trkpt lat="53.34184898994863" lon="-6.250033993273974">
        <ele>-3.71</ele>
        <time>2026-07-08T15:03:03Z</time>
      </trkpt>
      <trkpt lat="53.341842032968998" lon="-6.249975990504026">
        <ele>-3.71</ele>
        <time>2026-07-08T15:03:04Z</time>
      </trkpt>
      <trkpt lat="53.341767014935613" lon="-6.249631997197866">
        <ele>-3.71</ele>
        <time>2026-07-08T15:03:06Z</time>
      </trkpt>
      <trkpt lat="53.341583032160997" lon="-6.24867101199925">
        <ele>-1.79</ele>
        <time>2026-07-08T15:03:13Z</time>
      </trkpt>
      <trkpt lat="53.341559981927276" lon="-6.248383009806275">
        <ele>-1.3</ele>
        <time>2026-07-08T15:03:15Z</time>
      </trkpt>
      <trkpt lat="53.341549001634121" lon="-6.24824202619493">
        <ele>-1.3</ele>
        <time>2026-07-08T15:03:16Z</time>
      </trkpt>
      <trkpt lat="53.341436013579369" lon="-6.246977029368281">
        <ele>0.14</ele>
        <time>2026-07-08T15:03:26Z</time>
      </trkpt>
      <trkpt lat="53.341367030516267" lon="-6.246347967535257">
        <ele>3.98</ele>
        <time>2026-07-08T15:03:34Z</time>
      </trkpt>
      <trkpt lat="53.341443976387382" lon="-6.246183011680841">
        <ele>7.35</ele>
        <time>2026-07-08T15:03:40Z</time>
      </trkpt>
      <trkpt lat="53.341475995257497" lon="-6.246185023337603">
        <ele>8.310000000000001</ele>
        <time>2026-07-08T15:03:41Z</time>
      </trkpt>
      <trkpt lat="53.341509019955993" lon="-6.246186029165983">
        <ele>8.789999999999999</ele>
        <time>2026-07-08T15:03:42Z</time>
      </trkpt>
      <trkpt lat="53.341541038826108" lon="-6.246188040822744">
        <ele>9.75</ele>
        <time>2026-07-08T15:03:43Z</time>
      </trkpt>
      <trkpt lat="53.341571968048811" lon="-6.246188962832093">
        <ele>10.23</ele>
        <time>2026-07-08T15:03:44Z</time>
      </trkpt>
      <trkpt lat="53.341673975810409" lon="-6.246193991973996">
        <ele>12.630000000000001</ele>
        <time>2026-07-08T15:03:57Z</time>
      </trkpt>
      <trkpt lat="53.341777995228767" lon="-6.24620002694428">
        <ele>13.6</ele>
        <time>2026-07-08T15:04:10Z</time>
      </trkpt>
      <trkpt lat="53.341872040182352" lon="-6.246206983923912">
        <ele>16</ele>
        <time>2026-07-08T15:04:58Z</time>
      </trkpt>
      <trkpt lat="53.342057028785348" lon="-6.246220981702209">
        <ele>19.359999999999999</ele>
        <time>2026-07-08T15:05:10Z</time>
      </trkpt>
      <trkpt lat="53.342227013781667" lon="-6.246248977258802">
        <ele>20.809999999999999</ele>
        <time>2026-07-08T15:05:14Z</time>
      </trkpt>
      <trkpt lat="53.342438992112875" lon="-6.246276972815394">
        <ele>23.210000000000001</ele>
        <time>2026-07-08T15:05:26Z</time>
      </trkpt>
      <trkpt lat="53.342438992112875" lon="-6.246276972815394">
        <ele>23.690000000000001</ele>
        <time>2026-07-08T15:05:45Z</time>
      </trkpt>
      <trkpt lat="53.34262004122138" lon="-6.246295999735594">
        <ele>25.129999999999999</ele>
        <time>2026-07-08T15:06:21Z</time>
      </trkpt>
      <trkpt lat="53.342892033979297" lon="-6.246334975585342">
        <ele>26.09</ele>
        <time>2026-07-08T15:06:30Z</time>
      </trkpt>
      <trkpt lat="53.342973003163934" lon="-6.246348973363638">
        <ele>26.09</ele>
        <time>2026-07-08T15:06:33Z</time>
      </trkpt>
      <trkpt lat="53.343016002327204" lon="-6.246349979192019">
        <ele>26.09</ele>
        <time>2026-07-08T15:06:34Z</time>
      </trkpt>
      <trkpt lat="53.343056989833713" lon="-6.246349979192019">
        <ele>26.09</ele>
        <time>2026-07-08T15:06:35Z</time>
      </trkpt>
      <trkpt lat="53.343085991218686" lon="-6.246349979192019">
        <ele>25.609999999999999</ele>
        <time>2026-07-08T15:06:36Z</time>
      </trkpt>
      <trkpt lat="53.343085991218686" lon="-6.246349979192019">
        <ele>24.649999999999999</ele>
        <time>2026-07-08T15:06:47Z</time>
      </trkpt>
      <trkpt lat="53.343085991218686" lon="-6.246349979192019">
        <ele>24.170000000000002</ele>
        <time>2026-07-08T15:07:36Z</time>
      </trkpt>
      <trkpt lat="53.343085991218686" lon="-6.246349979192019">
        <ele>23.210000000000001</ele>
        <time>2026-07-08T15:08:15Z</time>
      </trkpt>
      <trkpt lat="53.343132007867098" lon="-6.246349979192019">
        <ele>22.25</ele>
        <time>2026-07-08T15:08:16Z</time>
      </trkpt>
      <trkpt lat="53.343361001461744" lon="-6.246371017768979">
        <ele>20.32</ele>
        <time>2026-07-08T15:08:21Z</time>
      </trkpt>
      <trkpt lat="53.343452028930187" lon="-6.246379986405373">
        <ele>19.84</ele>
        <time>2026-07-08T15:08:23Z</time>
      </trkpt>
      <trkpt lat="53.343506008386612" lon="-6.246385015547276">
        <ele>19.359999999999999</ele>
        <time>2026-07-08T15:08:24Z</time>
      </trkpt>
      <trkpt lat="53.343592006713152" lon="-6.246473025530577">
        <ele>19.359999999999999</ele>
        <time>2026-07-08T15:08:25Z</time>
      </trkpt>
      <trkpt lat="53.34360801614821" lon="-6.24658701941371">
        <ele>18.879999999999999</ele>
        <time>2026-07-08T15:08:26Z</time>
      </trkpt>
      <trkpt lat="53.343626959249377" lon="-6.246711993589997">
        <ele>18.879999999999999</ele>
        <time>2026-07-08T15:08:27Z</time>
      </trkpt>
      <trkpt lat="53.34365202113986" lon="-6.246831016615033">
        <ele>18.879999999999999</ele>
        <time>2026-07-08T15:08:28Z</time>
      </trkpt>
      <trkpt lat="53.343870034441352" lon="-6.247887974604964">
        <ele>18.879999999999999</ele>
        <time>2026-07-08T15:08:36Z</time>
      </trkpt>
      <trkpt lat="53.34397497586906" lon="-6.2484560161829">
        <ele>18.399999999999999</ele>
        <time>2026-07-08T15:08:42Z</time>
      </trkpt>
      <trkpt lat="53.34403901360929" lon="-6.248805960640311">
        <ele>17.440000000000001</ele>
        <time>2026-07-08T15:08:48Z</time>
      </trkpt>
      <trkpt lat="53.344057034701109" lon="-6.248898999765515">
        <ele>17.440000000000001</ele>
        <time>2026-07-08T15:08:49Z</time>
      </trkpt>
      <trkpt lat="53.34431704133749" lon="-6.250269021838903">
        <ele>12.630000000000001</ele>
        <time>2026-07-08T15:09:00Z</time>
      </trkpt>
      <trkpt lat="53.344560032710433" lon="-6.251463023945689">
        <ele>12.630000000000001</ele>
        <time>2026-07-08T15:09:10Z</time>
      </trkpt>
      <trkpt lat="53.344566989690065" lon="-6.251499988138676">
        <ele>12.630000000000001</ele>
        <time>2026-07-08T15:09:11Z</time>
      </trkpt>
      <trkpt lat="53.344590039923787" lon="-6.251581963151693">
        <ele>12.15</ele>
        <time>2026-07-08T15:09:12Z</time>
      </trkpt>
      <trkpt lat="53.344600014388561" lon="-6.251619011163712">
        <ele>11.19</ele>
        <time>2026-07-08T15:09:13Z</time>
      </trkpt>
      <trkpt lat="53.344615017995238" lon="-6.251675002276897">
        <ele>11.19</ele>
        <time>2026-07-08T15:09:14Z</time>
      </trkpt>
      <trkpt lat="53.344634966924787" lon="-6.251750020310283">
        <ele>10.710000000000001</ele>
        <time>2026-07-08T15:09:15Z</time>
      </trkpt>
      <trkpt lat="53.344649970531464" lon="-6.251824032515287">
        <ele>10.23</ele>
        <time>2026-07-08T15:09:16Z</time>
      </trkpt>
      <trkpt lat="53.34466296248138" lon="-6.251885974779725">
        <ele>10.23</ele>
        <time>2026-07-08T15:09:17Z</time>
      </trkpt>
      <trkpt lat="53.344675032421947" lon="-6.25194096006453">
        <ele>9.75</ele>
        <time>2026-07-08T15:09:18Z</time>
      </trkpt>
      <trkpt lat="53.344685006886721" lon="-6.251991000026465">
        <ele>9.75</ele>
        <time>2026-07-08T15:09:19Z</time>
      </trkpt>
      <trkpt lat="53.344695987179875" lon="-6.252042967826128">
        <ele>9.27</ele>
        <time>2026-07-08T15:09:20Z</time>
      </trkpt>
      <trkpt lat="53.344708979129791" lon="-6.252104993909597">
        <ele>9.27</ele>
        <time>2026-07-08T15:09:21Z</time>
      </trkpt>
      <trkpt lat="53.344719037413597" lon="-6.25215302221477">
        <ele>9.27</ele>
        <time>2026-07-08T15:09:29Z</time>
      </trkpt>
      <trkpt lat="53.344778968021274" lon="-6.252435995265842">
        <ele>10.23</ele>
        <time>2026-07-08T15:09:52Z</time>
      </trkpt>
      <trkpt lat="53.344906037673354" lon="-6.253043012693524">
        <ele>17.440000000000001</ele>
        <time>2026-07-08T15:10:01Z</time>
      </trkpt>
      <trkpt lat="53.344958005473018" lon="-6.253311987966299">
        <ele>23.210000000000001</ele>
        <time>2026-07-08T15:10:09Z</time>
      </trkpt>
      <trkpt lat="53.344958005473018" lon="-6.253311987966299">
        <ele>23.690000000000001</ele>
        <time>2026-07-08T15:10:25Z</time>
      </trkpt>
      <trkpt lat="53.344967979937792" lon="-6.253368984907866">
        <ele>28.5</ele>
        <time>2026-07-08T15:10:44Z</time>
      </trkpt>
      <trkpt lat="53.34498499520123" lon="-6.253461018204689">
        <ele>34.740000000000002</ele>
        <time>2026-07-08T15:10:54Z</time>
      </trkpt>
      <trkpt lat="53.345036040991545" lon="-6.253735022619367">
        <ele>45.799999999999997</ele>
        <time>2026-07-08T15:11:14Z</time>
      </trkpt>
      <trkpt lat="53.345058001577854" lon="-6.253848010674119">
        <ele>56.859999999999999</ele>
        <time>2026-07-08T15:11:27Z</time>
      </trkpt>
      <trkpt lat="53.345058001577854" lon="-6.253848010674119">
        <ele>56.859999999999999</ele>
        <time>2026-07-08T15:11:54Z</time>
      </trkpt>
      <trkpt lat="53.345092032104731" lon="-6.25402201898396">
        <ele>67.909999999999997</ele>
        <time>2026-07-08T15:12:17Z</time>
      </trkpt>
      <trkpt lat="53.345092032104731" lon="-6.25402201898396">
        <ele>69.829999999999998</ele>
        <time>2026-07-08T15:12:32Z</time>
      </trkpt>
      <trkpt lat="53.345157997682691" lon="-6.254362994804978">
        <ele>74.159999999999997</ele>
        <time>2026-07-08T15:12:48Z</time>
      </trkpt>
      <trkpt lat="53.345254976302385" lon="-6.254971018061042">
        <ele>79.930000000000007</ele>
        <time>2026-07-08T15:12:57Z</time>
      </trkpt>
      <trkpt lat="53.345296969637275" lon="-6.255147960036993">
        <ele>79.930000000000007</ele>
        <time>2026-07-08T15:12:58Z</time>
      </trkpt>
      <trkpt lat="53.345321025699377" lon="-6.255148965865374">
        <ele>79.930000000000007</ele>
        <time>2026-07-08T15:12:59Z</time>
      </trkpt>
      <trkpt lat="53.345369976013899" lon="-6.255151983350515">
        <ele>79.930000000000007</ele>
        <time>2026-07-08T15:13:00Z</time>
      </trkpt>
      <trkpt lat="53.345410041511059" lon="-6.255155000835657">
        <ele>79.930000000000007</ele>
        <time>2026-07-08T15:13:01Z</time>
      </trkpt>
      <trkpt lat="53.345445999875665" lon="-6.255157012492418">
        <ele>79.450000000000003</ele>
        <time>2026-07-08T15:13:02Z</time>
      </trkpt>
      <trkpt lat="53.345470977947116" lon="-6.25515902414918">
        <ele>79.450000000000003</ele>
        <time>2026-07-08T15:13:03Z</time>
      </trkpt>
      <trkpt lat="53.345493022352457" lon="-6.255161035805941">
        <ele>79.450000000000003</ele>
        <time>2026-07-08T15:13:04Z</time>
      </trkpt>
      <trkpt lat="53.345515988767147" lon="-6.255162041634321">
        <ele>79.450000000000003</ele>
        <time>2026-07-08T15:13:05Z</time>
      </trkpt>
      <trkpt lat="53.345660995692015" lon="-6.255168998613954">
        <ele>76.079999999999998</ele>
        <time>2026-07-08T15:13:15Z</time>
      </trkpt>
      <trkpt lat="53.345772977918386" lon="-6.255168998613954">
        <ele>75.599999999999994</ele>
        <time>2026-07-08T15:13:18Z</time>
      </trkpt>
      <trkpt lat="53.345828969031572" lon="-6.255168998613954">
        <ele>73.200000000000003</ele>
        <time>2026-07-08T15:13:19Z</time>
      </trkpt>
      <trkpt lat="53.346076989546418" lon="-6.255168998613954">
        <ele>67.909999999999997</ele>
        <time>2026-07-08T15:13:23Z</time>
      </trkpt>
      <trkpt lat="53.346130969002843" lon="-6.255168998613954">
        <ele>66.469999999999999</ele>
        <time>2026-07-08T15:13:24Z</time>
      </trkpt>
      <trkpt lat="53.346187965944409" lon="-6.255168998613954">
        <ele>65.989999999999995</ele>
        <time>2026-07-08T15:13:25Z</time>
      </trkpt>
      <trkpt lat="53.346241023391485" lon="-6.255168998613954">
        <ele>64.069999999999993</ele>
        <time>2026-07-08T15:13:26Z</time>
      </trkpt>
      <trkpt lat="53.346287962049246" lon="-6.255168998613954">
        <ele>62.619999999999997</ele>
        <time>2026-07-08T15:13:27Z</time>
      </trkpt>
      <trkpt lat="53.346336996182799" lon="-6.255168998613954">
        <ele>61.659999999999997</ele>
        <time>2026-07-08T15:13:28Z</time>
      </trkpt>
      <trkpt lat="53.34640203975141" lon="-6.255168998613954">
        <ele>59.740000000000002</ele>
        <time>2026-07-08T15:13:29Z</time>
      </trkpt>
      <trkpt lat="53.346465993672609" lon="-6.255166986957192">
        <ele>58.780000000000001</ele>
        <time>2026-07-08T15:13:30Z</time>
      </trkpt>
      <trkpt lat="53.34696002304554" lon="-6.255130022764206">
        <ele>55.409999999999997</ele>
        <time>2026-07-08T15:13:36Z</time>
      </trkpt>
      <trkpt lat="53.347032023593783" lon="-6.25511895865202">
        <ele>53.490000000000002</ele>
        <time>2026-07-08T15:13:37Z</time>
      </trkpt>
      <trkpt lat="53.34726202301681" lon="-6.255077971145511">
        <ele>46.759999999999998</ele>
        <time>2026-07-08T15:13:45Z</time>
      </trkpt>
      <trkpt lat="53.34726202301681" lon="-6.255077971145511">
        <ele>43.399999999999999</ele>
        <time>2026-07-08T15:14:26Z</time>
      </trkpt>
      <trkpt lat="53.347546001896262" lon="-6.255019968375564">
        <ele>35.229999999999997</ele>
        <time>2026-07-08T15:14:37Z</time>
      </trkpt>
      <trkpt lat="53.347871974110603" lon="-6.254969006404281">
        <ele>28.98</ele>
        <time>2026-07-08T15:14:44Z</time>
      </trkpt>
      <trkpt lat="53.347892006859183" lon="-6.254965988919139">
        <ele>28.5</ele>
        <time>2026-07-08T15:14:45Z</time>
      </trkpt>
      <trkpt lat="53.347913967445493" lon="-6.254962971433997">
        <ele>28.02</ele>
        <time>2026-07-08T15:14:46Z</time>
      </trkpt>
      <trkpt lat="53.347938023507595" lon="-6.254959031939507">
        <ele>27.530000000000001</ele>
        <time>2026-07-08T15:14:47Z</time>
      </trkpt>
      <trkpt lat="53.347960989922285" lon="-6.254956014454365">
        <ele>27.050000000000001</ele>
        <time>2026-07-08T15:14:48Z</time>
      </trkpt>
      <trkpt lat="53.348108008503914" lon="-6.254932964220643">
        <ele>27.050000000000001</ele>
        <time>2026-07-08T15:14:49Z</time>
      </trkpt>
      <trkpt lat="53.348108008503914" lon="-6.254932964220643">
        <ele>27.050000000000001</ele>
        <time>2026-07-08T15:14:50Z</time>
      </trkpt>
      <trkpt lat="53.348280005156994" lon="-6.254911003634334">
        <ele>25.129999999999999</ele>
        <time>2026-07-08T15:14:56Z</time>
      </trkpt>
      <trkpt lat="53.34829400293529" lon="-6.254909997805953">
        <ele>24.649999999999999</ele>
        <time>2026-07-08T15:14:57Z</time>
      </trkpt>
      <trkpt lat="53.348323004320264" lon="-6.254905974492431">
        <ele>24.649999999999999</ele>
        <time>2026-07-08T15:14:58Z</time>
      </trkpt>
      <trkpt lat="53.348280005156994" lon="-6.254649991169572">
        <ele>24.170000000000002</ele>
        <time>2026-07-08T15:15:00Z</time>
      </trkpt>
      <trkpt lat="53.348280005156994" lon="-6.254520993679762">
        <ele>24.170000000000002</ele>
        <time>2026-07-08T15:15:01Z</time>
      </trkpt>
      <trkpt lat="53.348280005156994" lon="-6.253002025187016">
        <ele>22.25</ele>
        <time>2026-07-08T15:15:11Z</time>
      </trkpt>
      <trkpt lat="53.348286040127277" lon="-6.251174015924335">
        <ele>19.84</ele>
        <time>2026-07-08T15:15:25Z</time>
      </trkpt>
      <trkpt lat="53.348248992115259" lon="-6.250209007412195">
        <ele>18.879999999999999</ele>
        <time>2026-07-08T15:15:32Z</time>
      </trkpt>
      <trkpt lat="53.348194006830454" lon="-6.249161018058658">
        <ele>18.879999999999999</ele>
        <time>2026-07-08T15:15:39Z</time>
      </trkpt>
      <trkpt lat="53.348170034587383" lon="-6.249020034447312">
        <ele>18.399999999999999</ele>
        <time>2026-07-08T15:15:40Z</time>
      </trkpt>
      <trkpt lat="53.348114965483546" lon="-6.248581996187568">
        <ele>18.399999999999999</ele>
        <time>2026-07-08T15:15:47Z</time>
      </trkpt>
      <trkpt lat="53.348111025989056" lon="-6.248563975095749">
        <ele>17.920000000000002</ele>
        <time>2026-07-08T15:15:48Z</time>
      </trkpt>
      <trkpt lat="53.348086969926953" lon="-6.248452998697758">
        <ele>18.879999999999999</ele>
        <time>2026-07-08T15:15:58Z</time>
      </trkpt>
      <trkpt lat="53.348083030432463" lon="-6.248391978442669">
        <ele>17.920000000000002</ele>
        <time>2026-07-08T15:16:04Z</time>
      </trkpt>
      <trkpt lat="53.348083030432463" lon="-6.248391978442669">
        <ele>17.920000000000002</ele>
        <time>2026-07-08T15:16:05Z</time>
      </trkpt>
      <trkpt lat="53.348083030432463" lon="-6.248391978442669">
        <ele>17.440000000000001</ele>
        <time>2026-07-08T15:16:21Z</time>
      </trkpt>
      <trkpt lat="53.348083030432463" lon="-6.248391978442669">
        <ele>16.960000000000001</ele>
        <time>2026-07-08T15:16:55Z</time>
      </trkpt>
      <trkpt lat="53.348152013495564" lon="-6.248312015086412">
        <ele>15.039999999999999</ele>
        <time>2026-07-08T15:21:22Z</time>
      </trkpt>
      <trkpt lat="53.348202975466847" lon="-6.24828401952982">
        <ele>7.83</ele>
        <time>2026-07-08T15:21:51Z</time>
      </trkpt>
      <trkpt lat="53.348203981295228" lon="-6.248314026743174">
        <ele>4.94</ele>
        <time>2026-07-08T15:22:33Z</time>
      </trkpt>
      <trkpt lat="53.348172968253493" lon="-6.248331964015961">
        <ele>9.75</ele>
        <time>2026-07-08T15:23:14Z</time>
      </trkpt>
      <trkpt lat="53.348172968253493" lon="-6.248331964015961">
        <ele>9.75</ele>
        <time>2026-07-08T15:23:27Z</time>
      </trkpt>
      <trkpt lat="53.34807800129056" lon="-6.248300028964877">
        <ele>9.27</ele>
        <time>2026-07-08T15:23:30Z</time>
      </trkpt>
      <trkpt lat="53.348072972148657" lon="-6.24822199344635">
        <ele>9.27</ele>
        <time>2026-07-08T15:23:31Z</time>
      </trkpt>
      <trkpt lat="53.348065009340644" lon="-6.248085033148527">
        <ele>8.789999999999999</ele>
        <time>2026-07-08T15:23:32Z</time>
      </trkpt>
      <trkpt lat="53.348047994077206" lon="-6.247922005131841">
        <ele>8.789999999999999</ele>
        <time>2026-07-08T15:23:33Z</time>
      </trkpt>
      <trkpt lat="53.348037013784051" lon="-6.24777196906507">
        <ele>8.310000000000001</ele>
        <time>2026-07-08T15:23:34Z</time>
      </trkpt>
      <trkpt lat="53.348028967157006" lon="-6.247644983232021">
        <ele>8.310000000000001</ele>
        <time>2026-07-08T15:23:35Z</time>
      </trkpt>
      <trkpt lat="53.348021004348993" lon="-6.247521014884114">
        <ele>8.789999999999999</ele>
        <time>2026-07-08T15:23:36Z</time>
      </trkpt>
      <trkpt lat="53.34797297604382" lon="-6.246605040505529">
        <ele>9.75</ele>
        <time>2026-07-08T15:23:42Z</time>
      </trkpt>
      <trkpt lat="53.347880020737648" lon="-6.245313975960016">
        <ele>12.15</ele>
        <time>2026-07-08T15:23:51Z</time>
      </trkpt>
      <trkpt lat="53.347832998260856" lon="-6.24454703181982">
        <ele>12.15</ele>
        <time>2026-07-08T15:23:57Z</time>
      </trkpt>
      <trkpt lat="53.347814977169037" lon="-6.244252994656563">
        <ele>11.67</ele>
        <time>2026-07-08T15:24:05Z</time>
      </trkpt>
      <trkpt lat="53.347785975784063" lon="-6.24377497471869">
        <ele>11.19</ele>
        <time>2026-07-08T15:24:26Z</time>
      </trkpt>
      <trkpt lat="53.347754962742329" lon="-6.243158988654614">
        <ele>9.75</ele>
        <time>2026-07-08T15:24:33Z</time>
      </trkpt>
      <trkpt lat="53.347736019641161" lon="-6.242792028933764">
        <ele>9.75</ele>
        <time>2026-07-08T15:24:38Z</time>
      </trkpt>
      <trkpt lat="53.347731996327639" lon="-6.242717010900378">
        <ele>9.27</ele>
        <time>2026-07-08T15:24:39Z</time>
      </trkpt>
      <trkpt lat="53.347722021862864" lon="-6.242530010640621">
        <ele>8.789999999999999</ele>
        <time>2026-07-08T15:24:42Z</time>
      </trkpt>
      <trkpt lat="53.347722021862864" lon="-6.242530010640621">
        <ele>8.789999999999999</ele>
        <time>2026-07-08T15:24:43Z</time>
      </trkpt>
      <trkpt lat="53.347722021862864" lon="-6.242530010640621">
        <ele>8.310000000000001</ele>
        <time>2026-07-08T15:24:54Z</time>
      </trkpt>
      <trkpt lat="53.347717998549342" lon="-6.242460021749139">
        <ele>8.310000000000001</ele>
        <time>2026-07-08T15:25:18Z</time>
      </trkpt>
      <trkpt lat="53.347685979679227" lon="-6.241934979334474">
        <ele>10.23</ele>
        <time>2026-07-08T15:25:27Z</time>
      </trkpt>
      <trkpt lat="53.347607022151351" lon="-6.241056974977255">
        <ele>6.87</ele>
        <time>2026-07-08T15:25:39Z</time>
      </trkpt>
      <trkpt lat="53.347593024373055" lon="-6.240631006658077">
        <ele>5.91</ele>
        <time>2026-07-08T15:25:44Z</time>
      </trkpt>
      <trkpt lat="53.347587995231152" lon="-6.240449035540223">
        <ele>4.94</ele>
        <time>2026-07-08T15:25:46Z</time>
      </trkpt>
      <trkpt lat="53.347579026594758" lon="-6.240363959223032">
        <ele>4.94</ele>
        <time>2026-07-08T15:25:47Z</time>
      </trkpt>
      <trkpt lat="53.347571985796094" lon="-6.240274021402001">
        <ele>4.46</ele>
        <time>2026-07-08T15:25:48Z</time>
      </trkpt>
      <trkpt lat="53.347571985796094" lon="-6.240196991711855">
        <ele>4.46</ele>
        <time>2026-07-08T15:25:49Z</time>
      </trkpt>
      <trkpt lat="53.347571985796094" lon="-6.240133037790656">
        <ele>4.46</ele>
        <time>2026-07-08T15:25:50Z</time>
      </trkpt>
      <trkpt lat="53.347571985796094" lon="-6.240085009485483">
        <ele>4.94</ele>
        <time>2026-07-08T15:25:51Z</time>
      </trkpt>
      <trkpt lat="53.347571985796094" lon="-6.240051984786987">
        <ele>4.94</ele>
        <time>2026-07-08T15:25:52Z</time>
      </trkpt>
      <trkpt lat="53.347571985796094" lon="-6.240051984786987">
        <ele>4.94</ele>
        <time>2026-07-08T15:26:05Z</time>
      </trkpt>
      <trkpt lat="53.347571985796094" lon="-6.240051984786987">
        <ele>7.35</ele>
        <time>2026-07-08T15:26:49Z</time>
      </trkpt>
      <trkpt lat="53.347558993846178" lon="-6.239847969263792">
        <ele>9.27</ele>
        <time>2026-07-08T15:27:26Z</time>
      </trkpt>
      <trkpt lat="53.347553964704275" lon="-6.239764988422394">
        <ele>9.27</ele>
        <time>2026-07-08T15:27:27Z</time>
      </trkpt>
      <trkpt lat="53.347466038540006" lon="-6.238580960780382">
        <ele>8.789999999999999</ele>
        <time>2026-07-08T15:27:37Z</time>
      </trkpt>
      <trkpt lat="53.347422033548355" lon="-6.237683007493615">
        <ele>8.310000000000001</ele>
        <time>2026-07-08T15:27:43Z</time>
      </trkpt>
      <trkpt lat="53.34741298109293" lon="-6.237528026103973">
        <ele>8.310000000000001</ele>
        <time>2026-07-08T15:27:44Z</time>
      </trkpt>
      <trkpt lat="53.347322037443519" lon="-6.236153980717063">
        <ele>9.27</ele>
        <time>2026-07-08T15:27:54Z</time>
      </trkpt>
      <trkpt lat="53.347217012196779" lon="-6.234573991969228">
        <ele>10.23</ele>
        <time>2026-07-08T15:28:03Z</time>
      </trkpt>
      <trkpt lat="53.347083991393447" lon="-6.232670964673162">
        <ele>10.710000000000001</ele>
        <time>2026-07-08T15:28:14Z</time>
      </trkpt>
      <trkpt lat="53.34691802971065" lon="-6.230303999036551">
        <ele>13.119999999999999</ele>
        <time>2026-07-08T15:28:27Z</time>
      </trkpt>
      <trkpt lat="53.346827002242208" lon="-6.229298003017902">
        <ele>15.039999999999999</ele>
        <time>2026-07-08T15:28:35Z</time>
      </trkpt>
      <trkpt lat="53.346794983372092" lon="-6.228887038305402">
        <ele>14.08</ele>
        <time>2026-07-08T15:28:49Z</time>
      </trkpt>
      <trkpt lat="53.346778973937035" lon="-6.22869098559022">
        <ele>15.039999999999999</ele>
        <time>2026-07-08T15:29:01Z</time>
      </trkpt>
      <trkpt lat="53.346778973937035" lon="-6.22869098559022">
        <ele>15.52</ele>
        <time>2026-07-08T15:29:12Z</time>
      </trkpt>
      <trkpt lat="53.346787020564079" lon="-6.228365013375878">
        <ele>15.039999999999999</ele>
        <time>2026-07-08T15:29:24Z</time>
      </trkpt>
      <trkpt lat="53.346790038049221" lon="-6.228283038362861">
        <ele>15.039999999999999</ele>
        <time>2026-07-08T15:29:25Z</time>
      </trkpt>
      <trkpt lat="53.346792971715331" lon="-6.228188993409276">
        <ele>14.08</ele>
        <time>2026-07-08T15:29:34Z</time>
      </trkpt>
      <trkpt lat="53.346803029999137" lon="-6.22796100564301">
        <ele>13.6</ele>
        <time>2026-07-08T15:29:43Z</time>
      </trkpt>
      <trkpt lat="53.346803029999137" lon="-6.22796100564301">
        <ele>13.119999999999999</ele>
        <time>2026-07-08T15:29:58Z</time>
      </trkpt>
      <trkpt lat="53.34681199863553" lon="-6.227907026186585">
        <ele>13.119999999999999</ele>
        <time>2026-07-08T15:30:09Z</time>
      </trkpt>
      <trkpt lat="53.34681199863553" lon="-6.227907026186585">
        <ele>13.119999999999999</ele>
        <time>2026-07-08T15:30:14Z</time>
      </trkpt>
      <trkpt lat="53.346856003627181" lon="-6.227657999843359">
        <ele>10.23</ele>
        <time>2026-07-08T15:30:23Z</time>
      </trkpt>
      <trkpt lat="53.346856003627181" lon="-6.227657999843359">
        <ele>10.23</ele>
        <time>2026-07-08T15:30:57Z</time>
      </trkpt>
      <trkpt lat="53.346856003627181" lon="-6.227657999843359">
        <ele>10.23</ele>
        <time>2026-07-08T15:31:37Z</time>
      </trkpt>
      <trkpt lat="53.34698298946023" lon="-6.227452978491783">
        <ele>9.27</ele>
        <time>2026-07-08T15:31:48Z</time>
      </trkpt>
      <trkpt lat="53.347063036635518" lon="-6.227394975721836">
        <ele>9.27</ele>
        <time>2026-07-08T15:31:57Z</time>
      </trkpt>
      <trkpt lat="53.347237966954708" lon="-6.227264972403646">
        <ele>4.94</ele>
        <time>2026-07-08T15:32:06Z</time>
      </trkpt>
      <trkpt lat="53.347641974687576" lon="-6.227156007662416">
        <ele>0.14</ele>
        <time>2026-07-08T15:32:16Z</time>
      </trkpt>
      <trkpt lat="53.34807900711894" lon="-6.227089036256075">
        <ele>-2.27</ele>
        <time>2026-07-08T15:32:22Z</time>
      </trkpt>
      <trkpt lat="53.348798006772995" lon="-6.22701401822269">
        <ele>-3.23</ele>
        <time>2026-07-08T15:32:31Z</time>
      </trkpt>
      <trkpt lat="53.348898002877831" lon="-6.227004965767264">
        <ele>-3.71</ele>
        <time>2026-07-08T15:32:32Z</time>
      </trkpt>
      <trkpt lat="53.349095983430743" lon="-6.227011000737548">
        <ele>-4.19</ele>
        <time>2026-07-08T15:32:34Z</time>
      </trkpt>
      <trkpt lat="53.349450035020709" lon="-6.227006977424026">
        <ele>-3.23</ele>
        <time>2026-07-08T15:32:40Z</time>
      </trkpt>
      <trkpt lat="53.349450035020709" lon="-6.227006977424026">
        <ele>-3.71</ele>
        <time>2026-07-08T15:32:54Z</time>
      </trkpt>
      <trkpt lat="53.349699983373284" lon="-6.226961966603994">
        <ele>-1.3</ele>
        <time>2026-07-08T15:33:18Z</time>
      </trkpt>
      <trkpt lat="53.350418983027339" lon="-6.226551001891494">
        <ele>0.62</ele>
        <time>2026-07-08T15:33:27Z</time>
      </trkpt>
      <trkpt lat="53.351441994309425" lon="-6.225827978923917">
        <ele>6.87</ele>
        <time>2026-07-08T15:33:39Z</time>
      </trkpt>
      <trkpt lat="53.352085975930095" lon="-6.225378038361669">
        <ele>9.27</ele>
        <time>2026-07-08T15:33:48Z</time>
      </trkpt>
      <trkpt lat="53.352281022816896" lon="-6.225172011181712">
        <ele>8.789999999999999</ele>
        <time>2026-07-08T15:33:51Z</time>
      </trkpt>
      <trkpt lat="53.35233299061656" lon="-6.225118031725287">
        <ele>7.83</ele>
        <time>2026-07-08T15:33:52Z</time>
      </trkpt>
      <trkpt lat="53.352382024750113" lon="-6.225065980106592">
        <ele>6.87</ele>
        <time>2026-07-08T15:33:53Z</time>
      </trkpt>
      <trkpt lat="53.352429969236255" lon="-6.22501602396369">
        <ele>5.91</ele>
        <time>2026-07-08T15:33:54Z</time>
      </trkpt>
      <trkpt lat="53.352558966726065" lon="-6.225031027570367">
        <ele>4.94</ele>
        <time>2026-07-08T15:33:55Z</time>
      </trkpt>
      <trkpt lat="53.352606995031238" lon="-6.225119037553668">
        <ele>4.46</ele>
        <time>2026-07-08T15:33:56Z</time>
      </trkpt>
      <trkpt lat="53.352662986144423" lon="-6.225220961496234">
        <ele>3.98</ele>
        <time>2026-07-08T15:33:57Z</time>
      </trkpt>
      <trkpt lat="53.352723000571132" lon="-6.225332021713257">
        <ele>3.5</ele>
        <time>2026-07-08T15:33:58Z</time>
      </trkpt>
      <trkpt lat="53.352786032482982" lon="-6.225444003939629">
        <ele>3.5</ele>
        <time>2026-07-08T15:33:59Z</time>
      </trkpt>
      <trkpt lat="53.353303028270602" lon="-6.226342963054776">
        <ele>3.02</ele>
        <time>2026-07-08T15:34:05Z</time>
      </trkpt>
      <trkpt lat="53.353740982711315" lon="-6.22710001654923">
        <ele>3.5</ele>
        <time>2026-07-08T15:34:11Z</time>
      </trkpt>
      <trkpt lat="53.354369960725307" lon="-6.228141970932484">
        <ele>3.5</ele>
        <time>2026-07-08T15:34:21Z</time>
      </trkpt>
      <trkpt lat="53.355085020884871" lon="-6.229382995516062">
        <ele>4.94</ele>
        <time>2026-07-08T15:34:32Z</time>
      </trkpt>
      <trkpt lat="53.355927988886833" lon="-6.230829963460565">
        <ele>4.46</ele>
        <time>2026-07-08T15:34:44Z</time>
      </trkpt>
      <trkpt lat="53.35658404044807" lon="-6.231942996382713">
        <ele>2.54</ele>
        <time>2026-07-08T15:34:55Z</time>
      </trkpt>
      <trkpt lat="53.356635002419353" lon="-6.232032012194395">
        <ele>2.06</ele>
        <time>2026-07-08T15:34:56Z</time>
      </trkpt>
      <trkpt lat="53.356690993532538" lon="-6.232134019955993">
        <ele>1.58</ele>
        <time>2026-07-08T15:34:57Z</time>
      </trkpt>
      <trkpt lat="53.357388032600284" lon="-6.233368003740907">
        <ele>0.14</ele>
        <time>2026-07-08T15:35:08Z</time>
      </trkpt>
      <trkpt lat="53.3575339615345" lon="-6.233592974022031">
        <ele>0.14</ele>
        <time>2026-07-08T15:35:10Z</time>
      </trkpt>
      <trkpt lat="53.357599005103111" lon="-6.233714008703828">
        <ele>0.62</ele>
        <time>2026-07-08T15:35:11Z</time>
      </trkpt>
      <trkpt lat="53.357664970681071" lon="-6.233837977051735">
        <ele>0.62</ele>
        <time>2026-07-08T15:35:12Z</time>
      </trkpt>
      <trkpt lat="53.358496958389878" lon="-6.23530900105834">
        <ele>3.98</ele>
        <time>2026-07-08T15:35:24Z</time>
      </trkpt>
      <trkpt lat="53.358720000833273" lon="-6.235687024891377">
        <ele>4.94</ele>
        <time>2026-07-08T15:35:28Z</time>
      </trkpt>
      <trkpt lat="53.358771968632936" lon="-6.235771011561155">
        <ele>4.94</ele>
        <time>2026-07-08T15:35:29Z</time>
      </trkpt>
      <trkpt lat="53.358819996938109" lon="-6.235849969089031">
        <ele>5.42</ele>
        <time>2026-07-08T15:35:30Z</time>
      </trkpt>
      <trkpt lat="53.358867019414902" lon="-6.235929010435939">
        <ele>5.91</ele>
        <time>2026-07-08T15:35:31Z</time>
      </trkpt>
      <trkpt lat="53.358913036063313" lon="-6.236005034297705">
        <ele>6.39</ele>
        <time>2026-07-08T15:35:32Z</time>
      </trkpt>
      <trkpt lat="53.359100958332419" lon="-6.236307034268975">
        <ele>7.83</ele>
        <time>2026-07-08T15:35:36Z</time>
      </trkpt>
      <trkpt lat="53.359652990475297" lon="-6.237232983112335">
        <ele>7.83</ele>
        <time>2026-07-08T15:35:47Z</time>
      </trkpt>
      <trkpt lat="53.35970202460885" lon="-6.237320993095636">
        <ele>7.35</ele>
        <time>2026-07-08T15:35:48Z</time>
      </trkpt>
      <trkpt lat="53.360078036785126" lon="-6.237987019121647">
        <ele>6.39</ele>
        <time>2026-07-08T15:35:58Z</time>
      </trkpt>
      <trkpt lat="53.360212985426188" lon="-6.238225987181068">
        <ele>7.35</ele>
        <time>2026-07-08T15:36:08Z</time>
      </trkpt>
      <trkpt lat="53.360379030928016" lon="-6.238534022122622">
        <ele>6.87</ele>
        <time>2026-07-08T15:36:35Z</time>
      </trkpt>
      <trkpt lat="53.360489001497626" lon="-6.238753963261843">
        <ele>7.35</ele>
        <time>2026-07-08T15:36:37Z</time>
      </trkpt>
      <trkpt lat="53.36053904145956" lon="-6.238853959366679">
        <ele>7.35</ele>
        <time>2026-07-08T15:36:38Z</time>
      </trkpt>
      <trkpt lat="53.360628979280591" lon="-6.239043977111578">
        <ele>7.35</ele>
        <time>2026-07-08T15:36:40Z</time>
      </trkpt>
      <trkpt lat="53.361004991456866" lon="-6.240138988941908">
        <ele>6.39</ele>
        <time>2026-07-08T15:36:49Z</time>
      </trkpt>
      <trkpt lat="53.361298022791743" lon="-6.241557039320469">
        <ele>10.710000000000001</ele>
        <time>2026-07-08T15:36:59Z</time>
      </trkpt>
      <trkpt lat="53.361306991428137" lon="-6.241652006283402">
        <ele>11.19</ele>
        <time>2026-07-08T15:37:00Z</time>
      </trkpt>
      <trkpt lat="53.36131202057004" lon="-6.241748984903097">
        <ele>11.19</ele>
        <time>2026-07-08T15:37:01Z</time>
      </trkpt>
      <trkpt lat="53.361316965892911" lon="-6.241834983229637">
        <ele>11.67</ele>
        <time>2026-07-08T15:37:02Z</time>
      </trkpt>
      <trkpt lat="53.361320989206433" lon="-6.241906983777881">
        <ele>12.15</ele>
        <time>2026-07-08T15:37:03Z</time>
      </trkpt>
      <trkpt lat="53.361324006691575" lon="-6.241964986547828">
        <ele>12.15</ele>
        <time>2026-07-08T15:37:04Z</time>
      </trkpt>
      <trkpt lat="53.361326018348336" lon="-6.242005974054337">
        <ele>12.630000000000001</ele>
        <time>2026-07-08T15:37:05Z</time>
      </trkpt>
      <trkpt lat="53.361327024176717" lon="-6.242041010409594">
        <ele>13.119999999999999</ele>
        <time>2026-07-08T15:37:06Z</time>
      </trkpt>
      <trkpt lat="53.361328030005097" lon="-6.242072023451328">
        <ele>13.6</ele>
        <time>2026-07-08T15:37:07Z</time>
      </trkpt>
      <trkpt lat="53.361341021955013" lon="-6.242537973448634">
        <ele>16.48</ele>
        <time>2026-07-08T15:37:14Z</time>
      </trkpt>
      <trkpt lat="53.361459961161017" lon="-6.243660980835557">
        <ele>15.52</ele>
        <time>2026-07-08T15:37:21Z</time>
      </trkpt>
      <trkpt lat="53.361730026081204" lon="-6.24566501006484">
        <ele>14.08</ele>
        <time>2026-07-08T15:37:33Z</time>
      </trkpt>
      <trkpt lat="53.361874027177691" lon="-6.246752981096506">
        <ele>9.75</ele>
        <time>2026-07-08T15:37:42Z</time>
      </trkpt>
      <trkpt lat="53.361886013299227" lon="-6.246869992464781">
        <ele>9.27</ele>
        <time>2026-07-08T15:37:43Z</time>
      </trkpt>
      <trkpt lat="53.361897999420762" lon="-6.246983986347914">
        <ele>8.789999999999999</ele>
        <time>2026-07-08T15:37:44Z</time>
      </trkpt>
      <trkpt lat="53.362054992467165" lon="-6.248144963756204">
        <ele>6.87</ele>
        <time>2026-07-08T15:37:54Z</time>
      </trkpt>
      <trkpt lat="53.362117018550634" lon="-6.248551988974214">
        <ele>6.87</ele>
        <time>2026-07-08T15:38:02Z</time>
      </trkpt>
      <trkpt lat="53.36225900799036" lon="-6.249593021348119">
        <ele>8.310000000000001</ele>
        <time>2026-07-08T15:38:11Z</time>
      </trkpt>
      <trkpt lat="53.362277029082179" lon="-6.249729981645942">
        <ele>8.310000000000001</ele>
        <time>2026-07-08T15:38:12Z</time>
      </trkpt>
      <trkpt lat="53.362464029341936" lon="-6.251140991225839">
        <ele>10.23</ele>
        <time>2026-07-08T15:38:22Z</time>
      </trkpt>
      <trkpt lat="53.362543992698193" lon="-6.251739040017128">
        <ele>11.67</ele>
        <time>2026-07-08T15:38:27Z</time>
      </trkpt>
      <trkpt lat="53.362552961334586" lon="-6.251805005595088">
        <ele>11.67</ele>
        <time>2026-07-08T15:38:28Z</time>
      </trkpt>
      <trkpt lat="53.36256000213325" lon="-6.251853033900261">
        <ele>12.15</ele>
        <time>2026-07-08T15:38:29Z</time>
      </trkpt>
      <trkpt lat="53.362566037103534" lon="-6.251887986436486">
        <ele>12.630000000000001</ele>
        <time>2026-07-08T15:38:39Z</time>
      </trkpt>
      <trkpt lat="53.362586991861463" lon="-6.252027964219451">
        <ele>13.6</ele>
        <time>2026-07-08T15:39:28Z</time>
      </trkpt>
      <trkpt lat="53.362654969096184" lon="-6.252534985542297">
        <ele>14.56</ele>
        <time>2026-07-08T15:39:32Z</time>
      </trkpt>
      <trkpt lat="53.362849010154605" lon="-6.253924034535885">
        <ele>17.920000000000002</ele>
        <time>2026-07-08T15:39:43Z</time>
      </trkpt>
      <trkpt lat="53.362957974895835" lon="-6.254831962287426">
        <ele>17.440000000000001</ele>
        <time>2026-07-08T15:39:52Z</time>
      </trkpt>
      <trkpt lat="53.362978007644415" lon="-6.254975963383913">
        <ele>17.440000000000001</ele>
        <time>2026-07-08T15:40:01Z</time>
      </trkpt>
      <trkpt lat="53.363011032342911" lon="-6.255193976685405">
        <ele>16.960000000000001</ele>
        <time>2026-07-08T15:40:40Z</time>
      </trkpt>
      <trkpt lat="53.363045984879136" lon="-6.255423976108432">
        <ele>17.920000000000002</ele>
        <time>2026-07-08T15:40:50Z</time>
      </trkpt>
      <trkpt lat="53.363094013184309" lon="-6.255746008828282">
        <ele>18.879999999999999</ele>
        <time>2026-07-08T15:41:09Z</time>
      </trkpt>
      <trkpt lat="53.363177999854088" lon="-6.256317989900708">
        <ele>17.920000000000002</ele>
        <time>2026-07-08T15:41:18Z</time>
      </trkpt>
      <trkpt lat="53.363228039816022" lon="-6.256677992641926">
        <ele>18.879999999999999</ele>
        <time>2026-07-08T15:41:27Z</time>
      </trkpt>
      <trkpt lat="53.363228039816022" lon="-6.256677992641926">
        <ele>18.879999999999999</ele>
        <time>2026-07-08T15:42:04Z</time>
      </trkpt>
      <trkpt lat="53.363259974867105" lon="-6.256937999278307">
        <ele>18.399999999999999</ele>
        <time>2026-07-08T15:42:27Z</time>
      </trkpt>
      <trkpt lat="53.363300040364265" lon="-6.257273023948073">
        <ele>18.879999999999999</ele>
        <time>2026-07-08T15:42:30Z</time>
      </trkpt>
      <trkpt lat="53.363314038142562" lon="-6.257381988689303">
        <ele>18.399999999999999</ele>
        <time>2026-07-08T15:42:31Z</time>
      </trkpt>
      <trkpt lat="53.363349996507168" lon="-6.257660016417503">
        <ele>18.879999999999999</ele>
        <time>2026-07-08T15:42:34Z</time>
      </trkpt>
      <trkpt lat="53.363358965143561" lon="-6.257732016965747">
        <ele>18.399999999999999</ele>
        <time>2026-07-08T15:42:35Z</time>
      </trkpt>
      <trkpt lat="53.363366005942225" lon="-6.257787002250552">
        <ele>18.399999999999999</ele>
        <time>2026-07-08T15:42:36Z</time>
      </trkpt>
      <trkpt lat="53.363372040912509" lon="-6.25782698392868">
        <ele>18.399999999999999</ele>
        <time>2026-07-08T15:42:37Z</time>
      </trkpt>
      <trkpt lat="53.363474970683455" lon="-6.257852967828512">
        <ele>18.399999999999999</ele>
        <time>2026-07-08T15:42:38Z</time>
      </trkpt>
      <trkpt lat="53.363502966240048" lon="-6.25782698392868">
        <ele>18.399999999999999</ele>
        <time>2026-07-08T15:42:39Z</time>
      </trkpt>
      <trkpt lat="53.363546971231699" lon="-6.257784990593791">
        <ele>18.399999999999999</ele>
        <time>2026-07-08T15:42:40Z</time>
      </trkpt>
      <trkpt lat="53.363605979830027" lon="-6.257730005308986">
        <ele>18.399999999999999</ele>
        <time>2026-07-08T15:42:41Z</time>
      </trkpt>
      <trkpt lat="53.363673035055399" lon="-6.257665967568755">
        <ele>18.399999999999999</ele>
        <time>2026-07-08T15:42:42Z</time>
      </trkpt>
      <trkpt lat="53.364118030294776" lon="-6.257269000634551">
        <ele>17.440000000000001</ele>
        <time>2026-07-08T15:42:51Z</time>
      </trkpt>
      <trkpt lat="53.364219032227993" lon="-6.257252991199493">
        <ele>16.960000000000001</ele>
        <time>2026-07-08T15:42:53Z</time>
      </trkpt>
      <trkpt lat="53.364232024177909" lon="-6.257299007847905">
        <ele>16.960000000000001</ele>
        <time>2026-07-08T15:42:54Z</time>
      </trkpt>
      <trkpt lat="53.364251973107457" lon="-6.25737402588129">
        <ele>16.960000000000001</ele>
        <time>2026-07-08T15:42:55Z</time>
      </trkpt>
      <trkpt lat="53.364275023341179" lon="-6.257461030036211">
        <ele>16.960000000000001</ele>
        <time>2026-07-08T15:42:56Z</time>
      </trkpt>
      <trkpt lat="53.364294972270727" lon="-6.25754602253437">
        <ele>16.48</ele>
        <time>2026-07-08T15:42:57Z</time>
      </trkpt>
      <trkpt lat="53.364315005019307" lon="-6.25763101503253">
        <ele>16.48</ele>
        <time>2026-07-08T15:42:58Z</time>
      </trkpt>
      <trkpt lat="53.364376025274396" lon="-6.257884986698628">
        <ele>16.960000000000001</ele>
        <time>2026-07-08T15:43:01Z</time>
      </trkpt>
      <trkpt lat="53.364395974203944" lon="-6.257968973368406">
        <ele>16.960000000000001</ele>
        <time>2026-07-08T15:43:02Z</time>
      </trkpt>
      <trkpt lat="53.364417012780905" lon="-6.258055977523327">
        <ele>17.440000000000001</ele>
        <time>2026-07-08T15:43:03Z</time>
      </trkpt>
      <trkpt lat="53.364661009982228" lon="-6.259082006290555">
        <ele>19.84</ele>
        <time>2026-07-08T15:43:13Z</time>
      </trkpt>
      <trkpt lat="53.364849016070366" lon="-6.259805029258132">
        <ele>21.289999999999999</ele>
        <time>2026-07-08T15:43:20Z</time>
      </trkpt>
      <trkpt lat="53.36487902328372" lon="-6.259934026747942">
        <ele>21.77</ele>
        <time>2026-07-08T15:43:21Z</time>
      </trkpt>
      <trkpt lat="53.365038027986884" lon="-6.260570967569947">
        <ele>23.690000000000001</ele>
        <time>2026-07-08T15:43:27Z</time>
      </trkpt>
      <trkpt lat="53.365063006058335" lon="-6.260653026401997">
        <ele>23.690000000000001</ele>
        <time>2026-07-08T15:43:28Z</time>
      </trkpt>
      <trkpt lat="53.365083038806915" lon="-6.260719997808337">
        <ele>23.690000000000001</ele>
        <time>2026-07-08T15:43:29Z</time>
      </trkpt>
      <trkpt lat="53.365097036585212" lon="-6.260766014456749">
        <ele>23.690000000000001</ele>
        <time>2026-07-08T15:43:30Z</time>
      </trkpt>
      <trkpt lat="53.365111034363508" lon="-6.260813036933541">
        <ele>23.690000000000001</ele>
        <time>2026-07-08T15:43:31Z</time>
      </trkpt>
      <trkpt lat="53.365124026313424" lon="-6.260855030268431">
        <ele>23.690000000000001</ele>
        <time>2026-07-08T15:43:32Z</time>
      </trkpt>
      <trkpt lat="53.365144981071353" lon="-6.26100498251617">
        <ele>23.690000000000001</ele>
        <time>2026-07-08T15:43:33Z</time>
      </trkpt>
      <trkpt lat="53.365210024639964" lon="-6.26128301024437">
        <ele>24.170000000000002</ele>
        <time>2026-07-08T15:43:36Z</time>
      </trkpt>
      <trkpt lat="53.365228967741132" lon="-6.261364985257387">
        <ele>24.170000000000002</ele>
        <time>2026-07-08T15:43:37Z</time>
      </trkpt>
      <trkpt lat="53.365247994661331" lon="-6.261445032432675">
        <ele>24.170000000000002</ele>
        <time>2026-07-08T15:43:38Z</time>
      </trkpt>
      <trkpt lat="53.365465002134442" lon="-6.262323036789894">
        <ele>22.25</ele>
        <time>2026-07-08T15:43:48Z</time>
      </trkpt>
      <trkpt lat="53.365763984620571" lon="-6.263560960069299">
        <ele>24.649999999999999</ele>
        <time>2026-07-08T15:43:57Z</time>
      </trkpt>
      <trkpt lat="53.365864986553788" lon="-6.264084996655583">
        <ele>25.609999999999999</ele>
        <time>2026-07-08T15:44:01Z</time>
      </trkpt>
      <trkpt lat="53.365885019302368" lon="-6.264190021902323">
        <ele>25.609999999999999</ele>
        <time>2026-07-08T15:44:02Z</time>
      </trkpt>
      <trkpt lat="53.366061961278319" lon="-6.265286039561033">
        <ele>26.57</ele>
        <time>2026-07-08T15:44:12Z</time>
      </trkpt>
      <trkpt lat="53.366089034825563" lon="-6.265532970428467">
        <ele>26.57</ele>
        <time>2026-07-08T15:44:14Z</time>
      </trkpt>
      <trkpt lat="53.366098003461957" lon="-6.265846034511924">
        <ele>26.57</ele>
        <time>2026-07-08T15:44:18Z</time>
      </trkpt>
      <trkpt lat="53.36610596626997" lon="-6.266099000349641">
        <ele>26.57</ele>
        <time>2026-07-08T15:44:21Z</time>
      </trkpt>
      <trkpt lat="53.366143014281988" lon="-6.267132991924882">
        <ele>23.210000000000001</ele>
        <time>2026-07-08T15:44:29Z</time>
      </trkpt>
      <trkpt lat="53.36614896543324" lon="-6.267259977757931">
        <ele>22.25</ele>
        <time>2026-07-08T15:44:30Z</time>
      </trkpt>
      <trkpt lat="53.366153994575143" lon="-6.267370032146573">
        <ele>21.77</ele>
        <time>2026-07-08T15:44:31Z</time>
      </trkpt>
      <trkpt lat="53.366159023717046" lon="-6.2674739677459">
        <ele>21.77</ele>
        <time>2026-07-08T15:44:32Z</time>
      </trkpt>
      <trkpt lat="53.366163969039917" lon="-6.267573963850737">
        <ele>21.289999999999999</ele>
        <time>2026-07-08T15:44:33Z</time>
      </trkpt>
      <trkpt lat="53.366167992353439" lon="-6.267673037946224">
        <ele>20.809999999999999</ele>
        <time>2026-07-08T15:44:34Z</time>
      </trkpt>
      <trkpt lat="53.366173021495342" lon="-6.26777202822268">
        <ele>20.32</ele>
        <time>2026-07-08T15:44:35Z</time>
      </trkpt>
      <trkpt lat="53.366181990131736" lon="-6.267868001013994">
        <ele>20.32</ele>
        <time>2026-07-08T15:44:36Z</time>
      </trkpt>
      <trkpt lat="53.366239992901683" lon="-6.268220962956548">
        <ele>19.359999999999999</ele>
        <time>2026-07-08T15:44:40Z</time>
      </trkpt>
      <trkpt lat="53.366251979023218" lon="-6.268296986818314">
        <ele>18.879999999999999</ele>
        <time>2026-07-08T15:44:41Z</time>
      </trkpt>
      <trkpt lat="53.366262959316373" lon="-6.268363036215305">
        <ele>18.879999999999999</ele>
        <time>2026-07-08T15:44:42Z</time>
      </trkpt>
      <trkpt lat="53.366274023428559" lon="-6.268430007621646">
        <ele>18.399999999999999</ele>
        <time>2026-07-08T15:44:43Z</time>
      </trkpt>
      <trkpt lat="53.366285003721714" lon="-6.268496979027987">
        <ele>18.399999999999999</ele>
        <time>2026-07-08T15:44:44Z</time>
      </trkpt>
      <trkpt lat="53.366308975964785" lon="-6.268645003437996">
        <ele>17.440000000000001</ele>
        <time>2026-07-08T15:44:48Z</time>
      </trkpt>
      <trkpt lat="53.366308975964785" lon="-6.268645003437996">
        <ele>17.440000000000001</ele>
        <time>2026-07-08T15:44:59Z</time>
      </trkpt>
      <trkpt lat="53.36631802842021" lon="-6.268699988722801">
        <ele>16.960000000000001</ele>
        <time>2026-07-08T15:45:00Z</time>
      </trkpt>
      <trkpt lat="53.366328002884984" lon="-6.268763020634651">
        <ele>16.960000000000001</ele>
        <time>2026-07-08T15:45:01Z</time>
      </trkpt>
      <trkpt lat="53.36634200066328" lon="-6.268848013132811">
        <ele>16.960000000000001</ele>
        <time>2026-07-08T15:45:02Z</time>
      </trkpt>
      <trkpt lat="53.366357004269958" lon="-6.268940968438983">
        <ele>17.440000000000001</ele>
        <time>2026-07-08T15:45:03Z</time>
      </trkpt>
      <trkpt lat="53.366408972069621" lon="-6.269197035580874">
        <ele>17.440000000000001</ele>
        <time>2026-07-08T15:45:07Z</time>
      </trkpt>
      <trkpt lat="53.366417018696666" lon="-6.269230982288718">
        <ele>16.960000000000001</ele>
        <time>2026-07-08T15:45:08Z</time>
      </trkpt>
      <trkpt lat="53.366423975676298" lon="-6.269261995330453">
        <ele>16.960000000000001</ele>
        <time>2026-07-08T15:45:09Z</time>
      </trkpt>
      <trkpt lat="53.366423975676298" lon="-6.269261995330453">
        <ele>16.960000000000001</ele>
        <time>2026-07-08T15:45:10Z</time>
      </trkpt>
      <trkpt lat="53.366423975676298" lon="-6.269261995330453">
        <ele>16.960000000000001</ele>
        <time>2026-07-08T15:45:28Z</time>
      </trkpt>
      <trkpt lat="53.366480972617865" lon="-6.269527031108737">
        <ele>24.170000000000002</ele>
        <time>2026-07-08T15:45:48Z</time>
      </trkpt>
      <trkpt lat="53.366480972617865" lon="-6.269527031108737">
        <ele>24.649999999999999</ele>
        <time>2026-07-08T15:46:06Z</time>
      </trkpt>
      <trkpt lat="53.366510979831219" lon="-6.269660973921418">
        <ele>25.609999999999999</ele>
        <time>2026-07-08T15:46:23Z</time>
      </trkpt>
      <trkpt lat="53.366510979831219" lon="-6.269660973921418">
        <ele>25.609999999999999</ele>
        <time>2026-07-08T15:46:39Z</time>
      </trkpt>
      <trkpt lat="53.366541992872953" lon="-6.269803969189525">
        <ele>26.09</ele>
        <time>2026-07-08T15:46:55Z</time>
      </trkpt>
      <trkpt lat="53.366626985371113" lon="-6.270192973315716">
        <ele>26.09</ele>
        <time>2026-07-08T15:47:06Z</time>
      </trkpt>
      <trkpt lat="53.366734022274613" lon="-6.270615002140403">
        <ele>26.57</ele>
        <time>2026-07-08T15:47:17Z</time>
      </trkpt>
      <trkpt lat="53.366774003952742" lon="-6.270807031542063">
        <ele>26.57</ele>
        <time>2026-07-08T15:47:24Z</time>
      </trkpt>
      <trkpt lat="53.366736033931375" lon="-6.27095103263855">
        <ele>26.57</ele>
        <time>2026-07-08T15:47:25Z</time>
      </trkpt>
      <trkpt lat="53.366676019504666" lon="-6.270981961861253">
        <ele>26.09</ele>
        <time>2026-07-08T15:47:26Z</time>
      </trkpt>
      <trkpt lat="53.366499999538064" lon="-6.271072989329696">
        <ele>26.09</ele>
        <time>2026-07-08T15:47:29Z</time>
      </trkpt>
      <trkpt lat="53.36640696041286" lon="-6.271121017634869">
        <ele>26.09</ele>
        <time>2026-07-08T15:47:31Z</time>
      </trkpt>
      <trkpt lat="53.366359015926719" lon="-6.27114599570632">
        <ele>26.09</ele>
        <time>2026-07-08T15:47:32Z</time>
      </trkpt>
      <trkpt lat="53.366207974031568" lon="-6.271224031224847">
        <ele>25.129999999999999</ele>
        <time>2026-07-08T15:47:35Z</time>
      </trkpt>
      <trkpt lat="53.365981997922063" lon="-6.271347999572754">
        <ele>24.170000000000002</ele>
        <time>2026-07-08T15:47:40Z</time>
      </trkpt>
      <trkpt lat="53.365981997922063" lon="-6.271430980414152">
        <ele>23.690000000000001</ele>
        <time>2026-07-08T15:47:41Z</time>
      </trkpt>
      <trkpt lat="53.365981997922063" lon="-6.271524019539356">
        <ele>24.649999999999999</ele>
        <time>2026-07-08T15:47:44Z</time>
      </trkpt>
      <trkpt lat="53.365981997922063" lon="-6.271584033966065">
        <ele>25.129999999999999</ele>
        <time>2026-07-08T15:47:49Z</time>
      </trkpt>
      <trkpt lat="53.366024997085333" lon="-6.271799029782414">
        <ele>26.09</ele>
        <time>2026-07-08T15:47:59Z</time>
      </trkpt>
      <trkpt lat="53.36606003344059" lon="-6.271815961226821">
        <ele>26.09</ele>
        <time>2026-07-08T15:48:00Z</time>
      </trkpt>
      <trkpt lat="53.366118958219886" lon="-6.271845968440175">
        <ele>26.09</ele>
        <time>2026-07-08T15:48:01Z</time>
      </trkpt>
      <trkpt lat="53.366819014772773" lon="-6.27230797894299">
        <ele>26.09</ele>
        <time>2026-07-08T15:48:10Z</time>
      </trkpt>
      <trkpt lat="53.367656031623483" lon="-6.273024966940284">
        <ele>26.09</ele>
        <time>2026-07-08T15:48:22Z</time>
      </trkpt>
      <trkpt lat="53.367730965837836" lon="-6.273099984973669">
        <ele>26.09</ele>
        <time>2026-07-08T15:48:23Z</time>
      </trkpt>
      <trkpt lat="53.367881001904607" lon="-6.273259995505214">
        <ele>27.530000000000001</ele>
        <time>2026-07-08T15:48:25Z</time>
      </trkpt>
      <trkpt lat="53.36795199662447" lon="-6.27333601936698">
        <ele>28.02</ele>
        <time>2026-07-08T15:48:26Z</time>
      </trkpt>
      <trkpt lat="53.368107983842492" lon="-6.273641958832741">
        <ele>30.420000000000002</ele>
        <time>2026-07-08T15:48:32Z</time>
      </trkpt>
      <trkpt lat="53.368363967165351" lon="-6.274245036765933">
        <ele>29.940000000000001</ele>
        <time>2026-07-08T15:48:39Z</time>
      </trkpt>
      <trkpt lat="53.368385005742311" lon="-6.274308990687132">
        <ele>29.940000000000001</ele>
        <time>2026-07-08T15:48:45Z</time>
      </trkpt>
      <trkpt lat="53.368426999077201" lon="-6.274397000670433">
        <ele>30.420000000000002</ele>
        <time>2026-07-08T15:48:47Z</time>
      </trkpt>
      <trkpt lat="53.36844895966351" lon="-6.274471012875438">
        <ele>29.940000000000001</ele>
        <time>2026-07-08T15:48:48Z</time>
      </trkpt>
      <trkpt lat="53.368637971580029" lon="-6.274973005056381">
        <ele>29.940000000000001</ele>
        <time>2026-07-08T15:48:54Z</time>
      </trkpt>
      <trkpt lat="53.368831006810069" lon="-6.275469968095422">
        <ele>29.940000000000001</ele>
        <time>2026-07-08T15:48:59Z</time>
      </trkpt>
      <trkpt lat="53.369072992354631" lon="-6.276070028543472">
        <ele>29.940000000000001</ele>
        <time>2026-07-08T15:49:05Z</time>
      </trkpt>
      <trkpt lat="53.369108028709888" lon="-6.276157032698393">
        <ele>29.940000000000001</ele>
        <time>2026-07-08T15:49:06Z</time>
      </trkpt>
      <trkpt lat="53.369323024526238" lon="-6.276687020435929">
        <ele>28.98</ele>
        <time>2026-07-08T15:49:11Z</time>
      </trkpt>
      <trkpt lat="53.369357977062464" lon="-6.276775030419231">
        <ele>28.98</ele>
        <time>2026-07-08T15:49:12Z</time>
      </trkpt>
      <trkpt lat="53.369576996192336" lon="-6.277347011491656">
        <ele>30.420000000000002</ele>
        <time>2026-07-08T15:49:22Z</time>
      </trkpt>
      <trkpt lat="53.369584959000349" lon="-6.277369977906346">
        <ele>30.420000000000002</ele>
        <time>2026-07-08T15:49:33Z</time>
      </trkpt>
      <trkpt lat="53.369676992297173" lon="-6.27761104144156">
        <ele>30.899999999999999</ele>
        <time>2026-07-08T15:49:49Z</time>
      </trkpt>
      <trkpt lat="53.370217038318515" lon="-6.278968993574381">
        <ele>30.899999999999999</ele>
        <time>2026-07-08T15:50:00Z</time>
      </trkpt>
      <trkpt lat="53.37042398750782" lon="-6.279544997960329">
        <ele>30.899999999999999</ele>
        <time>2026-07-08T15:50:06Z</time>
      </trkpt>
      <trkpt lat="53.370429016649723" lon="-6.279560001567006">
        <ele>31.379999999999999</ele>
        <time>2026-07-08T15:50:07Z</time>
      </trkpt>
      <trkpt lat="53.370464975014329" lon="-6.279668966308236">
        <ele>32.340000000000003</ele>
        <time>2026-07-08T15:50:16Z</time>
      </trkpt>
      <trkpt lat="53.370635965839028" lon="-6.280011031776667">
        <ele>32.82</ele>
        <time>2026-07-08T15:50:39Z</time>
      </trkpt>
      <trkpt lat="53.370844004675746" lon="-6.280346978455782">
        <ele>32.82</ele>
        <time>2026-07-08T15:50:43Z</time>
      </trkpt>
      <trkpt lat="53.371017007157207" lon="-6.280659036710858">
        <ele>33.780000000000001</ele>
        <time>2026-07-08T15:50:52Z</time>
      </trkpt>
      <trkpt lat="53.371057994663715" lon="-6.280612014234066">
        <ele>33.780000000000001</ele>
        <time>2026-07-08T15:50:57Z</time>
      </trkpt>
      <trkpt lat="53.371057994663715" lon="-6.280612014234066">
        <ele>33.780000000000001</ele>
        <time>2026-07-08T15:50:58Z</time>
      </trkpt>
      <trkpt lat="53.371057994663715" lon="-6.280612014234066">
        <ele>33.299999999999997</ele>
        <time>2026-07-08T15:51:12Z</time>
      </trkpt>
      <trkpt lat="53.37098297663033" lon="-6.280729025602341">
        <ele>32.82</ele>
        <time>2026-07-08T15:51:13Z</time>
      </trkpt>
      <trkpt lat="53.370974007993937" lon="-6.280746962875128">
        <ele>32.340000000000003</ele>
        <time>2026-07-08T15:51:14Z</time>
      </trkpt>
      <trkpt lat="53.371118009090424" lon="-6.280689965933561">
        <ele>31.379999999999999</ele>
        <time>2026-07-08T15:51:16Z</time>
      </trkpt>
      <trkpt lat="53.371137036010623" lon="-6.280715027824044">
        <ele>30.899999999999999</ele>
        <time>2026-07-08T15:51:17Z</time>
      </trkpt>
      <trkpt lat="53.371157990768552" lon="-6.280742017552257">
        <ele>30.899999999999999</ele>
        <time>2026-07-08T15:51:18Z</time>
      </trkpt>
      <trkpt lat="53.371184980496764" lon="-6.280777975916863">
        <ele>30.420000000000002</ele>
        <time>2026-07-08T15:51:19Z</time>
      </trkpt>
      <trkpt lat="53.371216999366879" lon="-6.280818963423371">
        <ele>30.420000000000002</ele>
        <time>2026-07-08T15:51:20Z</time>
      </trkpt>
      <trkpt lat="53.37124097160995" lon="-6.280850982293487">
        <ele>30.899999999999999</ele>
        <time>2026-07-08T15:51:21Z</time>
      </trkpt>
      <trkpt lat="53.37124097160995" lon="-6.280850982293487">
        <ele>30.899999999999999</ele>
        <time>2026-07-08T15:51:22Z</time>
      </trkpt>
      <trkpt lat="53.371276007965207" lon="-6.280896998941898">
        <ele>30.420000000000002</ele>
        <time>2026-07-08T15:51:25Z</time>
      </trkpt>
      <trkpt lat="53.371322024613619" lon="-6.280957013368607">
        <ele>30.420000000000002</ele>
        <time>2026-07-08T15:51:26Z</time>
      </trkpt>
      <trkpt lat="53.371382039040327" lon="-6.281048962846398">
        <ele>30.420000000000002</ele>
        <time>2026-07-08T15:51:27Z</time>
      </trkpt>
      <trkpt lat="53.37145303376019" lon="-6.28115801140666">
        <ele>30.420000000000002</ele>
        <time>2026-07-08T15:51:28Z</time>
      </trkpt>
      <trkpt lat="53.371528973802924" lon="-6.281275022774935">
        <ele>30.420000000000002</ele>
        <time>2026-07-08T15:51:29Z</time>
      </trkpt>
      <trkpt lat="53.371610026806593" lon="-6.281399996951222">
        <ele>30.420000000000002</ele>
        <time>2026-07-08T15:51:30Z</time>
      </trkpt>
      <trkpt lat="53.372325003147125" lon="-6.282876972109079">
        <ele>31.859999999999999</ele>
        <time>2026-07-08T15:51:39Z</time>
      </trkpt>
      <trkpt lat="53.372472021728754" lon="-6.283205039799213">
        <ele>33.299999999999997</ele>
        <time>2026-07-08T15:51:44Z</time>
      </trkpt>
      <trkpt lat="53.372472021728754" lon="-6.283205039799213">
        <ele>33.780000000000001</ele>
        <time>2026-07-08T15:51:58Z</time>
      </trkpt>
      <trkpt lat="53.372632032260299" lon="-6.283548027276993">
        <ele>33.780000000000001</ele>
        <time>2026-07-08T15:52:22Z</time>
      </trkpt>
      <trkpt lat="53.37336896918714" lon="-6.284669023007155">
        <ele>34.740000000000002</ele>
        <time>2026-07-08T15:52:30Z</time>
      </trkpt>
      <trkpt lat="53.374447971582413" lon="-6.285876017063856">
        <ele>30.899999999999999</ele>
        <time>2026-07-08T15:52:39Z</time>
      </trkpt>
      <trkpt lat="53.375534014776349" lon="-6.286377003416419">
        <ele>24.170000000000002</ele>
        <time>2026-07-08T15:52:48Z</time>
      </trkpt>
      <trkpt lat="53.376734973862767" lon="-6.28708996810019">
        <ele>22.25</ele>
        <time>2026-07-08T15:52:58Z</time>
      </trkpt>
      <trkpt lat="53.377619013190269" lon="-6.287630014121532">
        <ele>23.210000000000001</ele>
        <time>2026-07-08T15:53:06Z</time>
      </trkpt>
      <trkpt lat="53.378590978682041" lon="-6.287745013833046">
        <ele>26.09</ele>
        <time>2026-07-08T15:53:15Z</time>
      </trkpt>
      <trkpt lat="53.378819972276688" lon="-6.287783989682794">
        <ele>26.57</ele>
        <time>2026-07-08T15:53:17Z</time>
      </trkpt>
      <trkpt lat="53.379051983356476" lon="-6.28788297995925">
        <ele>26.57</ele>
        <time>2026-07-08T15:53:19Z</time>
      </trkpt>
      <trkpt lat="53.379441993311048" lon="-6.288107028231025">
        <ele>25.609999999999999</ele>
        <time>2026-07-08T15:53:25Z</time>
      </trkpt>
      <trkpt lat="53.379461020231247" lon="-6.288122031837702">
        <ele>25.609999999999999</ele>
        <time>2026-07-08T15:53:26Z</time>
      </trkpt>
      <trkpt lat="53.379461020231247" lon="-6.288122031837702">
        <ele>25.609999999999999</ele>
        <time>2026-07-08T15:53:37Z</time>
      </trkpt>
      <trkpt lat="53.379593035206199" lon="-6.28822797909379">
        <ele>26.57</ele>
        <time>2026-07-08T15:53:40Z</time>
      </trkpt>
      <trkpt lat="53.379659000784159" lon="-6.288281036540866">
        <ele>26.57</ele>
        <time>2026-07-08T15:53:41Z</time>
      </trkpt>
      <trkpt lat="53.379740975797176" lon="-6.288464013487101">
        <ele>27.050000000000001</ele>
        <time>2026-07-08T15:53:42Z</time>
      </trkpt>
      <trkpt lat="53.379746004939079" lon="-6.288609020411968">
        <ele>27.530000000000001</ele>
        <time>2026-07-08T15:53:43Z</time>
      </trkpt>
      <trkpt lat="53.379752039909363" lon="-6.288751009851694">
        <ele>27.530000000000001</ele>
        <time>2026-07-08T15:53:44Z</time>
      </trkpt>
      <trkpt lat="53.379756985232234" lon="-6.288888975977898">
        <ele>28.02</ele>
        <time>2026-07-08T15:53:45Z</time>
      </trkpt>
      <trkpt lat="53.379761008545756" lon="-6.289023002609611">
        <ele>28.02</ele>
        <time>2026-07-08T15:53:46Z</time>
      </trkpt>
      <trkpt lat="53.379765031859279" lon="-6.289159040898085">
        <ele>28.5</ele>
        <time>2026-07-08T15:53:47Z</time>
      </trkpt>
      <trkpt lat="53.379768971353769" lon="-6.289299018681049">
        <ele>28.98</ele>
        <time>2026-07-08T15:53:48Z</time>
      </trkpt>
      <trkpt lat="53.379774000495672" lon="-6.289437990635634">
        <ele>28.98</ele>
        <time>2026-07-08T15:53:49Z</time>
      </trkpt>
      <trkpt lat="53.379775006324053" lon="-6.290269978344441">
        <ele>30.899999999999999</ele>
        <time>2026-07-08T15:53:54Z</time>
      </trkpt>
      <trkpt lat="53.379534026607871" lon="-6.291828006505966">
        <ele>36.670000000000002</ele>
        <time>2026-07-08T15:54:04Z</time>
      </trkpt>
      <trkpt lat="53.379222974181175" lon="-6.293230969458818">
        <ele>39.549999999999997</ele>
        <time>2026-07-08T15:54:12Z</time>
      </trkpt>
      <trkpt lat="53.379153991118073" lon="-6.293563982471824">
        <ele>40.030000000000001</ele>
        <time>2026-07-08T15:54:14Z</time>
      </trkpt>
      <trkpt lat="53.379120966419578" lon="-6.293721981346607">
        <ele>40.509999999999998</ele>
        <time>2026-07-08T15:54:15Z</time>
      </trkpt>
      <trkpt lat="53.378899013623595" lon="-6.295250002294779">
        <ele>39.549999999999997</ele>
        <time>2026-07-08T15:54:24Z</time>
      </trkpt>
      <trkpt lat="53.378649987280369" lon="-6.297074994072318">
        <ele>35.710000000000001</ele>
        <time>2026-07-08T15:54:35Z</time>
      </trkpt>
      <trkpt lat="53.378431973978877" lon="-6.299014985561371">
        <ele>34.740000000000002</ele>
        <time>2026-07-08T15:54:46Z</time>
      </trkpt>
      <trkpt lat="53.378397021442652" lon="-6.299684029072523">
        <ele>33.780000000000001</ele>
        <time>2026-07-08T15:54:50Z</time>
      </trkpt>
      <trkpt lat="53.378390986472368" lon="-6.29984999075532">
        <ele>33.780000000000001</ele>
        <time>2026-07-08T15:54:51Z</time>
      </trkpt>
      <trkpt lat="53.378329966217279" lon="-6.301516983658075">
        <ele>33.299999999999997</ele>
        <time>2026-07-08T15:55:01Z</time>
      </trkpt>
      <trkpt lat="53.378340024501085" lon="-6.303380029276013">
        <ele>38.109999999999999</ele>
        <time>2026-07-08T15:55:13Z</time>
      </trkpt>
      <trkpt lat="53.378446977585554" lon="-6.305096978321672">
        <ele>39.07</ele>
        <time>2026-07-08T15:55:24Z</time>
      </trkpt>
      <trkpt lat="53.378635989502072" lon="-6.306785009801388">
        <ele>39.549999999999997</ele>
        <time>2026-07-08T15:55:33Z</time>
      </trkpt>
      <trkpt lat="53.378864983096719" lon="-6.308191996067762">
        <ele>39.07</ele>
        <time>2026-07-08T15:55:42Z</time>
      </trkpt>
      <trkpt lat="53.379144016653299" lon="-6.309911962598562">
        <ele>40.030000000000001</ele>
        <time>2026-07-08T15:55:52Z</time>
      </trkpt>
      <trkpt lat="53.379509970545769" lon="-6.312090000137687">
        <ele>39.549999999999997</ele>
        <time>2026-07-08T15:56:04Z</time>
      </trkpt>
      <trkpt lat="53.379820017144084" lon="-6.313917003571987">
        <ele>36.670000000000002</ele>
        <time>2026-07-08T15:56:15Z</time>
      </trkpt>
      <trkpt lat="53.379951026290655" lon="-6.314885029569268">
        <ele>36.189999999999998</ele>
        <time>2026-07-08T15:56:23Z</time>
      </trkpt>
      <trkpt lat="53.379951026290655" lon="-6.314952000975609">
        <ele>36.189999999999998</ele>
        <time>2026-07-08T15:56:24Z</time>
      </trkpt>
      <trkpt lat="53.379951026290655" lon="-6.315012015402317">
        <ele>36.189999999999998</ele>
        <time>2026-07-08T15:56:25Z</time>
      </trkpt>
      <trkpt lat="53.379951026290655" lon="-6.315061971545219">
        <ele>36.189999999999998</ele>
        <time>2026-07-08T15:56:26Z</time>
      </trkpt>
      <trkpt lat="53.379826974123716" lon="-6.315201027318835">
        <ele>36.189999999999998</ele>
        <time>2026-07-08T15:56:27Z</time>
      </trkpt>
      <trkpt lat="53.37977098301053" lon="-6.315163979306817">
        <ele>36.189999999999998</ele>
        <time>2026-07-08T15:56:28Z</time>
      </trkpt>
      <trkpt lat="53.379710968583822" lon="-6.315117962658405">
        <ele>35.710000000000001</ele>
        <time>2026-07-08T15:56:29Z</time>
      </trkpt>
      <trkpt lat="53.379638968035579" lon="-6.315064989030361">
        <ele>35.229999999999997</ele>
        <time>2026-07-08T15:56:30Z</time>
      </trkpt>
      <trkpt lat="53.379297992214561" lon="-6.314714038744569">
        <ele>34.740000000000002</ele>
        <time>2026-07-08T15:56:34Z</time>
      </trkpt>
      <trkpt lat="53.379207970574498" lon="-6.314604990184307">
        <ele>34.259999999999998</ele>
        <time>2026-07-08T15:56:35Z</time>
      </trkpt>
      <trkpt lat="53.3791249897331" lon="-6.314464006572962">
        <ele>33.780000000000001</ele>
        <time>2026-07-08T15:56:36Z</time>
      </trkpt>
      <trkpt lat="53.379036979749799" lon="-6.314314976334572">
        <ele>33.299999999999997</ele>
        <time>2026-07-08T15:56:37Z</time>
      </trkpt>
      <trkpt lat="53.378957016393542" lon="-6.314143985509872">
        <ele>32.82</ele>
        <time>2026-07-08T15:56:38Z</time>
      </trkpt>
      <trkpt lat="53.378477990627289" lon="-6.312687965109944">
        <ele>30.899999999999999</ele>
        <time>2026-07-08T15:56:45Z</time>
      </trkpt>
      <trkpt lat="53.378045987337828" lon="-6.311159022152424">
        <ele>32.340000000000003</ele>
        <time>2026-07-08T15:56:54Z</time>
      </trkpt>
      <trkpt lat="53.378025032579899" lon="-6.311104036867619">
        <ele>32.340000000000003</ele>
        <time>2026-07-08T15:57:03Z</time>
      </trkpt>
      <trkpt lat="53.377977004274726" lon="-6.31097998470068">
        <ele>32.82</ele>
        <time>2026-07-08T15:57:13Z</time>
      </trkpt>
      <trkpt lat="53.377944985404611" lon="-6.311029018834233">
        <ele>32.82</ele>
        <time>2026-07-08T15:57:14Z</time>
      </trkpt>
      <trkpt lat="53.377913972362876" lon="-6.311075035482645">
        <ele>33.299999999999997</ele>
        <time>2026-07-08T15:57:15Z</time>
      </trkpt>
      <trkpt lat="53.377891005948186" lon="-6.31110898219049">
        <ele>33.299999999999997</ele>
        <time>2026-07-08T15:57:16Z</time>
      </trkpt>
      <trkpt lat="53.377864016219974" lon="-6.311203027144074">
        <ele>32.82</ele>
        <time>2026-07-08T15:57:17Z</time>
      </trkpt>
      <trkpt lat="53.377849012613297" lon="-6.311293970793486">
        <ele>32.82</ele>
        <time>2026-07-08T15:57:18Z</time>
      </trkpt>
      <trkpt lat="53.377854041755199" lon="-6.311438977718353">
        <ele>32.82</ele>
        <time>2026-07-08T15:57:19Z</time>
      </trkpt>
      <trkpt lat="53.37785798124969" lon="-6.311591025441885">
        <ele>32.82</ele>
        <time>2026-07-08T15:57:20Z</time>
      </trkpt>
      <trkpt lat="53.377863010391593" lon="-6.311748018488288">
        <ele>32.340000000000003</ele>
        <time>2026-07-08T15:57:21Z</time>
      </trkpt>
      <trkpt lat="53.377868039533496" lon="-6.311921020969749">
        <ele>32.340000000000003</ele>
        <time>2026-07-08T15:57:22Z</time>
      </trkpt>
      <trkpt lat="53.377866027876735" lon="-6.312111960723996">
        <ele>32.82</ele>
        <time>2026-07-08T15:57:23Z</time>
      </trkpt>
      <trkpt lat="53.377807019278407" lon="-6.314026974141598">
        <ele>38.590000000000003</ele>
        <time>2026-07-08T15:57:32Z</time>
      </trkpt>
      <trkpt lat="53.377810958772898" lon="-6.314229983836412">
        <ele>39.07</ele>
        <time>2026-07-08T15:57:33Z</time>
      </trkpt>
      <trkpt lat="53.377822022885084" lon="-6.314834989607334">
        <ele>39.549999999999997</ele>
        <time>2026-07-08T15:57:36Z</time>
      </trkpt>
      <trkpt lat="53.377911038696766" lon="-6.31684597581625">
        <ele>37.149999999999999</ele>
        <time>2026-07-08T15:57:45Z</time>
      </trkpt>
      <trkpt lat="53.377958983182907" lon="-6.317072035744786">
        <ele>37.149999999999999</ele>
        <time>2026-07-08T15:57:46Z</time>
      </trkpt>
      <trkpt lat="53.378267018124461" lon="-6.318451026454568">
        <ele>35.710000000000001</ele>
        <time>2026-07-08T15:57:52Z</time>
      </trkpt>
      <trkpt lat="53.378349998965859" lon="-6.318640960380435">
        <ele>35.710000000000001</ele>
        <time>2026-07-08T15:57:53Z</time>
      </trkpt>
      <trkpt lat="53.378435997292399" lon="-6.318838018923998">
        <ele>35.229999999999997</ele>
        <time>2026-07-08T15:57:54Z</time>
      </trkpt>
      <trkpt lat="53.378933966159821" lon="-6.32000301964581">
        <ele>34.740000000000002</ele>
        <time>2026-07-08T15:58:00Z</time>
      </trkpt>
      <trkpt lat="53.378985011950135" lon="-6.320216003805399">
        <ele>35.229999999999997</ele>
        <time>2026-07-08T15:58:01Z</time>
      </trkpt>
      <trkpt lat="53.379035973921418" lon="-6.320425970479846">
        <ele>35.229999999999997</ele>
        <time>2026-07-08T15:58:02Z</time>
      </trkpt>
      <trkpt lat="53.379057012498379" lon="-6.320655969902873">
        <ele>35.229999999999997</ele>
        <time>2026-07-08T15:58:03Z</time>
      </trkpt>
      <trkpt lat="53.379066986963153" lon="-6.32088202983141">
        <ele>35.229999999999997</ele>
        <time>2026-07-08T15:58:04Z</time>
      </trkpt>
      <trkpt lat="53.379060029983521" lon="-6.321101970970631">
        <ele>35.229999999999997</ele>
        <time>2026-07-08T15:58:05Z</time>
      </trkpt>
      <trkpt lat="53.379039997234941" lon="-6.321327025070787">
        <ele>34.740000000000002</ele>
        <time>2026-07-08T15:58:06Z</time>
      </trkpt>
      <trkpt lat="53.378923991695046" lon="-6.321962038055062">
        <ele>34.740000000000002</ele>
        <time>2026-07-08T15:58:09Z</time>
      </trkpt>
      <trkpt lat="53.378840005025268" lon="-6.322325980290771">
        <ele>33.780000000000001</ele>
        <time>2026-07-08T15:58:11Z</time>
      </trkpt>
      <trkpt lat="53.378769010305405" lon="-6.322478028014302">
        <ele>33.780000000000001</ele>
        <time>2026-07-08T15:58:12Z</time>
      </trkpt>
      <trkpt lat="53.378688963130116" lon="-6.322638038545847">
        <ele>33.780000000000001</ele>
        <time>2026-07-08T15:58:13Z</time>
      </trkpt>
      <trkpt lat="53.378170039504766" lon="-6.323446976020932">
        <ele>33.780000000000001</ele>
        <time>2026-07-08T15:58:19Z</time>
      </trkpt>
      <trkpt lat="53.378146989271045" lon="-6.323597012087703">
        <ele>34.259999999999998</ele>
        <time>2026-07-08T15:58:20Z</time>
      </trkpt>
      <trkpt lat="53.378127040341496" lon="-6.323726009577513">
        <ele>34.740000000000002</ele>
        <time>2026-07-08T15:58:21Z</time>
      </trkpt>
      <trkpt lat="53.378142965957522" lon="-6.323822988197208">
        <ele>35.229999999999997</ele>
        <time>2026-07-08T15:58:22Z</time>
      </trkpt>
      <trkpt lat="53.378166016191244" lon="-6.32395701482892">
        <ele>35.229999999999997</ele>
        <time>2026-07-08T15:58:23Z</time>
      </trkpt>
      <trkpt lat="53.378192000091076" lon="-6.324111996218562">
        <ele>35.229999999999997</ele>
        <time>2026-07-08T15:58:24Z</time>
      </trkpt>
      <trkpt lat="53.378256959840655" lon="-6.324383988976479">
        <ele>35.229999999999997</ele>
        <time>2026-07-08T15:58:26Z</time>
      </trkpt>
      <trkpt lat="53.378464998677373" lon="-6.325388979166746">
        <ele>35.229999999999997</ele>
        <time>2026-07-08T15:58:36Z</time>
      </trkpt>
      <trkpt lat="53.378635989502072" lon="-6.326550040394068">
        <ele>37.630000000000003</ele>
        <time>2026-07-08T15:58:46Z</time>
      </trkpt>
      <trkpt lat="53.37865199893713" lon="-6.326654981821775">
        <ele>38.590000000000003</ele>
        <time>2026-07-08T15:58:47Z</time>
      </trkpt>
      <trkpt lat="53.378688041120768" lon="-6.326889004558325">
        <ele>40.509999999999998</ele>
        <time>2026-07-08T15:58:49Z</time>
      </trkpt>
      <trkpt lat="53.378706984221935" lon="-6.327009033411741">
        <ele>40.990000000000002</ele>
        <time>2026-07-08T15:58:50Z</time>
      </trkpt>
      <trkpt lat="53.378683011978865" lon="-6.327129984274507">
        <ele>40.990000000000002</ele>
        <time>2026-07-08T15:58:51Z</time>
      </trkpt>
      <trkpt lat="53.378653004765511" lon="-6.327277002856135">
        <ele>40.509999999999998</ele>
        <time>2026-07-08T15:58:52Z</time>
      </trkpt>
      <trkpt lat="53.378620985895395" lon="-6.327410023659468">
        <ele>40.509999999999998</ele>
        <time>2026-07-08T15:58:53Z</time>
      </trkpt>
      <trkpt lat="53.37858896702528" lon="-6.327526029199362">
        <ele>40.030000000000001</ele>
        <time>2026-07-08T15:58:54Z</time>
      </trkpt>
      <trkpt lat="53.378558959811926" lon="-6.327633988112211">
        <ele>40.030000000000001</ele>
        <time>2026-07-08T15:58:55Z</time>
      </trkpt>
      <trkpt lat="53.378430968150496" lon="-6.32810203358531">
        <ele>40.030000000000001</ele>
        <time>2026-07-08T15:59:00Z</time>
      </trkpt>
      <trkpt lat="53.378408001735806" lon="-6.328186020255089">
        <ele>39.549999999999997</ele>
        <time>2026-07-08T15:59:01Z</time>
      </trkpt>
      <trkpt lat="53.378386041149497" lon="-6.328264977782965">
        <ele>39.549999999999997</ele>
        <time>2026-07-08T15:59:02Z</time>
      </trkpt>
      <trkpt lat="53.378363996744156" lon="-6.328345024958253">
        <ele>40.030000000000001</ele>
        <time>2026-07-08T15:59:03Z</time>
      </trkpt>
      <trkpt lat="53.378342036157846" lon="-6.328424988314509">
        <ele>40.030000000000001</ele>
        <time>2026-07-08T15:59:04Z</time>
      </trkpt>
      <trkpt lat="53.378311023116112" lon="-6.328508974984288">
        <ele>40.030000000000001</ele>
        <time>2026-07-08T15:59:05Z</time>
      </trkpt>
      <trkpt lat="53.37828503921628" lon="-6.328581981360912">
        <ele>40.030000000000001</ele>
        <time>2026-07-08T15:59:06Z</time>
      </trkpt>
      <trkpt lat="53.378164004534483" lon="-6.328970985487104">
        <ele>38.590000000000003</ele>
        <time>2026-07-08T15:59:11Z</time>
      </trkpt>
      <trkpt lat="53.378026038408279" lon="-6.32943500764668">
        <ele>36.670000000000002</ele>
        <time>2026-07-08T15:59:16Z</time>
      </trkpt>
      <trkpt lat="53.378004999831319" lon="-6.329514971002936">
        <ele>36.670000000000002</ele>
        <time>2026-07-08T15:59:17Z</time>
      </trkpt>
      <trkpt lat="53.377967029809952" lon="-6.329669030383229">
        <ele>36.189999999999998</ele>
        <time>2026-07-08T15:59:19Z</time>
      </trkpt>
      <trkpt lat="53.377835014835" lon="-6.330131040886045">
        <ele>35.710000000000001</ele>
        <time>2026-07-08T15:59:24Z</time>
      </trkpt>
      <trkpt lat="53.377716997638345" lon="-6.330536976456642">
        <ele>35.710000000000001</ele>
        <time>2026-07-08T15:59:28Z</time>
      </trkpt>
      <trkpt lat="53.377692019566894" lon="-6.330624986439943">
        <ele>35.710000000000001</ele>
        <time>2026-07-08T15:59:29Z</time>
      </trkpt>
      <trkpt lat="53.377586994320154" lon="-6.330912988632917">
        <ele>34.259999999999998</ele>
        <time>2026-07-08T15:59:33Z</time>
      </trkpt>
      <trkpt lat="53.377535026520491" lon="-6.331181963905692">
        <ele>33.299999999999997</ele>
        <time>2026-07-08T15:59:36Z</time>
      </trkpt>
      <trkpt lat="53.377518011257052" lon="-6.331273997202516">
        <ele>32.82</ele>
        <time>2026-07-08T15:59:37Z</time>
      </trkpt>
      <trkpt lat="53.377502001821995" lon="-6.331355972215533">
        <ele>31.859999999999999</ele>
        <time>2026-07-08T15:59:38Z</time>
      </trkpt>
      <trkpt lat="53.377479035407305" lon="-6.331522017717362">
        <ele>31.379999999999999</ele>
        <time>2026-07-08T15:59:40Z</time>
      </trkpt>
      <trkpt lat="53.377473000437021" lon="-6.331601981073618">
        <ele>30.899999999999999</ele>
        <time>2026-07-08T15:59:41Z</time>
      </trkpt>
      <trkpt lat="53.377467971295118" lon="-6.331678004935384">
        <ele>30.899999999999999</ele>
        <time>2026-07-08T15:59:42Z</time>
      </trkpt>
      <trkpt lat="53.377462020143867" lon="-6.331765009090304">
        <ele>30.899999999999999</ele>
        <time>2026-07-08T15:59:43Z</time>
      </trkpt>
      <trkpt lat="53.377455985173583" lon="-6.331854024901986">
        <ele>30.899999999999999</ele>
        <time>2026-07-08T15:59:44Z</time>
      </trkpt>
      <trkpt lat="53.377450034022331" lon="-6.331931976601481">
        <ele>31.379999999999999</ele>
        <time>2026-07-08T15:59:45Z</time>
      </trkpt>
      <trkpt lat="53.377440981566906" lon="-6.332126017659903">
        <ele>32.82</ele>
        <time>2026-07-08T15:59:48Z</time>
      </trkpt>
      <trkpt lat="53.377440981566906" lon="-6.33218402042985">
        <ele>33.299999999999997</ele>
        <time>2026-07-08T15:59:49Z</time>
      </trkpt>
      <trkpt lat="53.377436958253384" lon="-6.332484008744359">
        <ele>36.189999999999998</ele>
        <time>2026-07-08T15:59:58Z</time>
      </trkpt>
      <trkpt lat="53.377423966303468" lon="-6.332886004820466">
        <ele>37.630000000000003</ele>
        <time>2026-07-08T16:00:11Z</time>
      </trkpt>
      <trkpt lat="53.377410974353552" lon="-6.333091026172042">
        <ele>38.109999999999999</ele>
        <time>2026-07-08T16:00:14Z</time>
      </trkpt>
      <trkpt lat="53.377399994060397" lon="-6.333164032548666">
        <ele>38.109999999999999</ele>
        <time>2026-07-08T16:00:15Z</time>
      </trkpt>
      <trkpt lat="53.377368981018662" lon="-6.333318008109927">
        <ele>38.109999999999999</ele>
        <time>2026-07-08T16:00:16Z</time>
      </trkpt>
      <trkpt lat="53.37732195854187" lon="-6.333314990624785">
        <ele>38.109999999999999</ele>
        <time>2026-07-08T16:00:17Z</time>
      </trkpt>
      <trkpt lat="53.377267979085445" lon="-6.333312978968024">
        <ele>38.109999999999999</ele>
        <time>2026-07-08T16:00:18Z</time>
      </trkpt>
      <trkpt lat="53.377208970487118" lon="-6.333309961482883">
        <ele>38.109999999999999</ele>
        <time>2026-07-08T16:00:19Z</time>
      </trkpt>
      <trkpt lat="53.377155996859074" lon="-6.333307027816773">
        <ele>38.109999999999999</ele>
        <time>2026-07-08T16:00:20Z</time>
      </trkpt>
      <trkpt lat="53.377114003524184" lon="-6.333305016160011">
        <ele>38.109999999999999</ele>
        <time>2026-07-08T16:00:21Z</time>
      </trkpt>
      <trkpt lat="53.377068992704153" lon="-6.33330300450325">
        <ele>38.109999999999999</ele>
        <time>2026-07-08T16:00:22Z</time>
      </trkpt>
      <trkpt lat="53.377021970227361" lon="-6.333299987018108">
        <ele>38.109999999999999</ele>
        <time>2026-07-08T16:00:23Z</time>
      </trkpt>
      <trkpt lat="53.376947036013007" lon="-6.333295963704586">
        <ele>38.109999999999999</ele>
        <time>2026-07-08T16:00:24Z</time>
      </trkpt>
      <trkpt lat="53.376909988000989" lon="-6.33328297175467">
        <ele>38.109999999999999</ele>
        <time>2026-07-08T16:00:25Z</time>
      </trkpt>
      <trkpt lat="53.376856008544564" lon="-6.333262016996741">
        <ele>38.109999999999999</ele>
        <time>2026-07-08T16:00:26Z</time>
      </trkpt>
      <trkpt lat="53.376775039359927" lon="-6.333232009783387">
        <ele>38.590000000000003</ele>
        <time>2026-07-08T16:00:27Z</time>
      </trkpt>
      <trkpt lat="53.37674000300467" lon="-6.333204014226794">
        <ele>38.590000000000003</ele>
        <time>2026-07-08T16:00:28Z</time>
      </trkpt>
      <trkpt lat="53.376689041033387" lon="-6.333163026720285">
        <ele>39.07</ele>
        <time>2026-07-08T16:00:29Z</time>
      </trkpt>
      <trkpt lat="53.376668002456427" lon="-6.333146011456847">
        <ele>39.549999999999997</ele>
        <time>2026-07-08T16:00:30Z</time>
      </trkpt>
      <trkpt lat="53.376447977498174" lon="-6.333030005916953">
        <ele>40.990000000000002</ele>
        <time>2026-07-08T16:00:33Z</time>
      </trkpt>
      <trkpt lat="53.376384023576975" lon="-6.333008967339993">
        <ele>41.469999999999999</ele>
        <time>2026-07-08T16:00:34Z</time>
      </trkpt>
      <trkpt lat="53.376325014978647" lon="-6.332989018410444">
        <ele>41.950000000000003</ele>
        <time>2026-07-08T16:00:35Z</time>
      </trkpt>
      <trkpt lat="53.375695031136274" lon="-6.332848034799099">
        <ele>44.359999999999999</ele>
        <time>2026-07-08T16:00:44Z</time>
      </trkpt>
      <trkpt lat="53.375481041148305" lon="-6.332789026200771">
        <ele>46.280000000000001</ele>
        <time>2026-07-08T16:00:47Z</time>
      </trkpt>
      <trkpt lat="53.375038979575038" lon="-6.33263798430562">
        <ele>46.759999999999998</ele>
        <time>2026-07-08T16:00:53Z</time>
      </trkpt>
      <trkpt lat="53.374951975420117" lon="-6.332602025941014">
        <ele>46.759999999999998</ele>
        <time>2026-07-08T16:00:54Z</time>
      </trkpt>
      <trkpt lat="53.374040024355054" lon="-6.332260966300964">
        <ele>49.159999999999997</ele>
        <time>2026-07-08T16:01:05Z</time>
      </trkpt>
      <trkpt lat="53.373856041580439" lon="-6.332193994894624">
        <ele>49.159999999999997</ele>
        <time>2026-07-08T16:01:12Z</time>
      </trkpt>
      <trkpt lat="53.373856041580439" lon="-6.332193994894624">
        <ele>49.159999999999997</ele>
        <time>2026-07-08T16:01:23Z</time>
      </trkpt>
      <trkpt lat="53.373792003840208" lon="-6.332172034308314">
        <ele>50.130000000000003</ele>
        <time>2026-07-08T16:02:15Z</time>
      </trkpt>
      <trkpt lat="53.373662000522017" lon="-6.332126017659903">
        <ele>49.159999999999997</ele>
        <time>2026-07-08T16:02:26Z</time>
      </trkpt>
      <trkpt lat="53.373439041897655" lon="-6.332045970484614">
        <ele>45.32</ele>
        <time>2026-07-08T16:02:34Z</time>
      </trkpt>
      <trkpt lat="53.373294034972787" lon="-6.331995008513331">
        <ele>44.359999999999999</ele>
        <time>2026-07-08T16:02:44Z</time>
      </trkpt>
      <trkpt lat="53.373212981969118" lon="-6.331966007128358">
        <ele>46.759999999999998</ele>
        <time>2026-07-08T16:02:58Z</time>
      </trkpt>
      <trkpt lat="53.373212981969118" lon="-6.331966007128358">
        <ele>46.759999999999998</ele>
        <time>2026-07-08T16:03:56Z</time>
      </trkpt>
      <trkpt lat="53.373006032779813" lon="-6.331900963559747">
        <ele>47.719999999999999</ele>
        <time>2026-07-08T16:04:04Z</time>
      </trkpt>
      <trkpt lat="53.372905030846596" lon="-6.331870034337044">
        <ele>48.68</ele>
        <time>2026-07-08T16:04:14Z</time>
      </trkpt>
      <trkpt lat="53.372752983123064" lon="-6.331829968839884">
        <ele>51.57</ele>
        <time>2026-07-08T16:04:43Z</time>
      </trkpt>
      <trkpt lat="53.372429022565484" lon="-6.331722009927034">
        <ele>52.530000000000001</ele>
        <time>2026-07-08T16:04:52Z</time>
      </trkpt>
      <trkpt lat="53.372183013707399" lon="-6.331643974408507">
        <ele>53.009999999999998</ele>
        <time>2026-07-08T16:04:56Z</time>
      </trkpt>
      <trkpt lat="53.372128028422594" lon="-6.331643974408507">
        <ele>53.490000000000002</ele>
        <time>2026-07-08T16:04:57Z</time>
      </trkpt>
      <trkpt lat="53.372072959318757" lon="-6.331643974408507">
        <ele>53.490000000000002</ele>
        <time>2026-07-08T16:04:58Z</time>
      </trkpt>
      <trkpt lat="53.372029038146138" lon="-6.331702983006835">
        <ele>53.009999999999998</ele>
        <time>2026-07-08T16:04:59Z</time>
      </trkpt>
      <trkpt lat="53.372001964598894" lon="-6.331768026575446">
        <ele>53.009999999999998</ele>
        <time>2026-07-08T16:05:00Z</time>
      </trkpt>
      <trkpt lat="53.371997019276023" lon="-6.331852013245225">
        <ele>53.490000000000002</ele>
        <time>2026-07-08T16:05:01Z</time>
      </trkpt>
      <trkpt lat="53.372011017054319" lon="-6.331957038491964">
        <ele>53.969999999999999</ele>
        <time>2026-07-08T16:05:02Z</time>
      </trkpt>
      <trkpt lat="53.372052004560828" lon="-6.332044964656234">
        <ele>53.969999999999999</ele>
        <time>2026-07-08T16:05:03Z</time>
      </trkpt>
      <trkpt lat="53.372136997058988" lon="-6.332120988518">
        <ele>53.969999999999999</ele>
        <time>2026-07-08T16:05:04Z</time>
      </trkpt>
      <trkpt lat="53.372179996222258" lon="-6.332240011543036">
        <ele>53.969999999999999</ele>
        <time>2026-07-08T16:05:05Z</time>
      </trkpt>
      <trkpt lat="53.372654998674989" lon="-6.333596035838127">
        <ele>53.009999999999998</ele>
        <time>2026-07-08T16:05:14Z</time>
      </trkpt>
      <trkpt lat="53.373214993625879" lon="-6.335275014862418">
        <ele>53.490000000000002</ele>
        <time>2026-07-08T16:05:24Z</time>
      </trkpt>
      <trkpt lat="53.373845983296633" lon="-6.337166978046298">
        <ele>53.490000000000002</ele>
        <time>2026-07-08T16:05:33Z</time>
      </trkpt>
      <trkpt lat="53.37437798269093" lon="-6.338917035609484">
        <ele>53.009999999999998</ele>
        <time>2026-07-08T16:05:40Z</time>
      </trkpt>
      <trkpt lat="53.37525799870491" lon="-6.341747017577291">
        <ele>53.490000000000002</ele>
        <time>2026-07-08T16:05:51Z</time>
      </trkpt>
      <trkpt lat="53.376443032175303" lon="-6.345478976145387">
        <ele>50.130000000000003</ele>
        <time>2026-07-08T16:06:05Z</time>
      </trkpt>
      <trkpt lat="53.377483980730176" lon="-6.348791001364589">
        <ele>51.57</ele>
        <time>2026-07-08T16:06:16Z</time>
      </trkpt>
      <trkpt lat="53.377940962091088" lon="-6.350221959874034">
        <ele>52.530000000000001</ele>
        <time>2026-07-08T16:06:23Z</time>
      </trkpt>
      <trkpt lat="53.378058979287744" lon="-6.350605012848973">
        <ele>53.009999999999998</ele>
        <time>2026-07-08T16:06:28Z</time>
      </trkpt>
      <trkpt lat="53.378068031743169" lon="-6.350639965385199">
        <ele>53.009999999999998</ele>
        <time>2026-07-08T16:06:29Z</time>
      </trkpt>
      <trkpt lat="53.378009023144841" lon="-6.350758988410235">
        <ele>53.490000000000002</ele>
        <time>2026-07-08T16:06:30Z</time>
      </trkpt>
      <trkpt lat="53.377985972911119" lon="-6.350778015330434">
        <ele>53.969999999999999</ele>
        <time>2026-07-08T16:06:31Z</time>
      </trkpt>
      <trkpt lat="53.377969041466713" lon="-6.35079100728035">
        <ele>53.969999999999999</ele>
        <time>2026-07-08T16:06:32Z</time>
      </trkpt>
      <trkpt lat="53.377873990684748" lon="-6.350867031142116">
        <ele>53.969999999999999</ele>
        <time>2026-07-08T16:06:42Z</time>
      </trkpt>
      <trkpt lat="53.377786986529827" lon="-6.351055037230253">
        <ele>53.009999999999998</ele>
        <time>2026-07-08T16:06:52Z</time>
      </trkpt>
      <trkpt lat="53.37792101316154" lon="-6.35081497952342">
        <ele>46.280000000000001</ele>
        <time>2026-07-08T16:13:01Z</time>
      </trkpt>
      <trkpt lat="53.377969963476062" lon="-6.350910030305386">
        <ele>66.469999999999999</ele>
        <time>2026-07-08T16:13:22Z</time>
      </trkpt>
      <trkpt lat="53.377973986789584" lon="-6.35098303668201">
        <ele>62.619999999999997</ele>
        <time>2026-07-08T16:14:02Z</time>
      </trkpt>
      <trkpt lat="53.378142965957522" lon="-6.350862002000213">
        <ele>63.100000000000001</ele>
        <time>2026-07-08T16:14:03Z</time>
      </trkpt>
      <trkpt lat="53.378054033964872" lon="-6.351118991151452">
        <ele>63.100000000000001</ele>
        <time>2026-07-08T16:14:04Z</time>
      </trkpt>
      <trkpt lat="53.378071971237659" lon="-6.351103987544775">
        <ele>63.579999999999998</ele>
        <time>2026-07-08T16:14:05Z</time>
      </trkpt>
      <trkpt lat="53.378208009526134" lon="-6.35105000808835">
        <ele>64.069999999999993</ele>
        <time>2026-07-08T16:14:12Z</time>
      </trkpt>
      <trkpt lat="53.37824204005301" lon="-6.351153021678329">
        <ele>64.549999999999997</ele>
        <time>2026-07-08T16:14:13Z</time>
      </trkpt>
      <trkpt lat="53.378281015902758" lon="-6.351272966712713">
        <ele>64.549999999999997</ele>
        <time>2026-07-08T16:14:14Z</time>
      </trkpt>
      <trkpt lat="53.378744032233953" lon="-6.352654974907637">
        <ele>62.140000000000001</ele>
        <time>2026-07-08T16:14:23Z</time>
      </trkpt>
      <trkpt lat="53.378989035263658" lon="-6.353366011753678">
        <ele>61.659999999999997</ele>
        <time>2026-07-08T16:14:27Z</time>
      </trkpt>
      <trkpt lat="53.379589011892676" lon="-6.354993022978306">
        <ele>62.140000000000001</ele>
        <time>2026-07-08T16:14:36Z</time>
      </trkpt>
      <trkpt lat="53.380351010710001" lon="-6.357035022228956">
        <ele>62.140000000000001</ele>
        <time>2026-07-08T16:14:48Z</time>
      </trkpt>
      <trkpt lat="53.38045603595674" lon="-6.357331993058324">
        <ele>62.140000000000001</ele>
        <time>2026-07-08T16:14:50Z</time>
      </trkpt>
      <trkpt lat="53.380551002919674" lon="-6.357539026066661">
        <ele>62.140000000000001</ele>
        <time>2026-07-08T16:14:52Z</time>
      </trkpt>
      <trkpt lat="53.380589978769422" lon="-6.35762301273644">
        <ele>62.619999999999997</ele>
        <time>2026-07-08T16:14:53Z</time>
      </trkpt>
      <trkpt lat="53.380623003467917" lon="-6.357695013284683">
        <ele>62.619999999999997</ele>
        <time>2026-07-08T16:14:54Z</time>
      </trkpt>
      <trkpt lat="53.380602970719337" lon="-6.357963988557458">
        <ele>62.619999999999997</ele>
        <time>2026-07-08T16:14:55Z</time>
      </trkpt>
      <trkpt lat="53.380555026233196" lon="-6.358013022691011">
        <ele>62.619999999999997</ele>
        <time>2026-07-08T16:14:56Z</time>
      </trkpt>
      <trkpt lat="53.380489982664585" lon="-6.35807697661221">
        <ele>62.619999999999997</ele>
        <time>2026-07-08T16:14:57Z</time>
      </trkpt>
      <trkpt lat="53.380419993773103" lon="-6.358136991038919">
        <ele>62.140000000000001</ele>
        <time>2026-07-08T16:14:58Z</time>
      </trkpt>
      <trkpt lat="53.380359979346395" lon="-6.35818300768733">
        <ele>62.140000000000001</ele>
        <time>2026-07-08T16:14:59Z</time>
      </trkpt>
      <trkpt lat="53.38030700571835" lon="-6.358223995193839">
        <ele>61.659999999999997</ele>
        <time>2026-07-08T16:15:00Z</time>
      </trkpt>
      <trkpt lat="53.380256965756416" lon="-6.358261965215206">
        <ele>61.659999999999997</ele>
        <time>2026-07-08T16:15:01Z</time>
      </trkpt>
      <trkpt lat="53.380209021270275" lon="-6.358299013227224">
        <ele>61.18</ele>
        <time>2026-07-08T16:15:02Z</time>
      </trkpt>
      <trkpt lat="53.380100978538394" lon="-6.358273029327393">
        <ele>61.18</ele>
        <time>2026-07-08T16:15:03Z</time>
      </trkpt>
      <trkpt lat="53.380092009902" lon="-6.358283003792167">
        <ele>60.700000000000003</ele>
        <time>2026-07-08T16:15:04Z</time>
      </trkpt>
      <trkpt lat="53.380080023780465" lon="-6.358359027653933">
        <ele>60.700000000000003</ele>
        <time>2026-07-08T16:15:05Z</time>
      </trkpt>
      <trkpt lat="53.380143977701664" lon="-6.358445025980473">
        <ele>60.700000000000003</ele>
        <time>2026-07-08T16:15:06Z</time>
      </trkpt>
      <trkpt lat="53.380158981308341" lon="-6.358521971851587">
        <ele>60.700000000000003</ele>
        <time>2026-07-08T16:15:07Z</time>
      </trkpt>
      <trkpt lat="53.380180019885302" lon="-6.358626997098327">
        <ele>60.700000000000003</ele>
        <time>2026-07-08T16:15:08Z</time>
      </trkpt>
      <trkpt lat="53.380203992128372" lon="-6.358751971274614">
        <ele>60.700000000000003</ele>
        <time>2026-07-08T16:15:09Z</time>
      </trkpt>
      <trkpt lat="53.380229976028204" lon="-6.35889002121985">
        <ele>60.700000000000003</ele>
        <time>2026-07-08T16:15:10Z</time>
      </trkpt>
      <trkpt lat="53.38028697296977" lon="-6.359181962907314">
        <ele>60.700000000000003</ele>
        <time>2026-07-08T16:15:12Z</time>
      </trkpt>
      <trkpt lat="53.380345981568098" lon="-6.359487986192107">
        <ele>60.700000000000003</ele>
        <time>2026-07-08T16:15:14Z</time>
      </trkpt>
      <trkpt lat="53.380375988781452" lon="-6.35964397341013">
        <ele>60.700000000000003</ele>
        <time>2026-07-08T16:15:15Z</time>
      </trkpt>
      <trkpt lat="53.380405995994806" lon="-6.359801972284913">
        <ele>61.18</ele>
        <time>2026-07-08T16:15:16Z</time>
      </trkpt>
      <trkpt lat="53.380441032350063" lon="-6.359989978373051">
        <ele>61.659999999999997</ele>
        <time>2026-07-08T16:15:17Z</time>
      </trkpt>
      <trkpt lat="53.380485959351063" lon="-6.360155018046498">
        <ele>61.659999999999997</ele>
        <time>2026-07-08T16:15:18Z</time>
      </trkpt>
      <trkpt lat="53.380819978192449" lon="-6.361463014036417">
        <ele>64.549999999999997</ele>
        <time>2026-07-08T16:15:27Z</time>
      </trkpt>
      <trkpt lat="53.380830958485603" lon="-6.361535014584661">
        <ele>64.549999999999997</ele>
        <time>2026-07-08T16:15:28Z</time>
      </trkpt>
      <trkpt lat="53.380830958485603" lon="-6.361625036224723">
        <ele>64.549999999999997</ele>
        <time>2026-07-08T16:15:29Z</time>
      </trkpt>
      <trkpt lat="53.380816960707307" lon="-6.36166300624609">
        <ele>64.549999999999997</ele>
        <time>2026-07-08T16:15:30Z</time>
      </trkpt>
      <trkpt lat="53.380744960159063" lon="-6.361770965158939">
        <ele>64.069999999999993</ele>
        <time>2026-07-08T16:15:31Z</time>
      </trkpt>
      <trkpt lat="53.380705984309316" lon="-6.36176903732121">
        <ele>63.579999999999998</ele>
        <time>2026-07-08T16:15:32Z</time>
      </trkpt>
      <trkpt lat="53.380637001246214" lon="-6.361765014007688">
        <ele>63.579999999999998</ele>
        <time>2026-07-08T16:15:33Z</time>
      </trkpt>
      <trkpt lat="53.380485037341714" lon="-6.361757973209024">
        <ele>62.619999999999997</ele>
        <time>2026-07-08T16:15:35Z</time>
      </trkpt>
      <trkpt lat="53.380054039880633" lon="-6.361726960167289">
        <ele>61.18</ele>
        <time>2026-07-08T16:15:40Z</time>
      </trkpt>
      <trkpt lat="53.379307966679335" lon="-6.361654037609696">
        <ele>59.740000000000002</ele>
        <time>2026-07-08T16:15:51Z</time>
      </trkpt>
      <trkpt lat="53.378581004217267" lon="-6.361539959907532">
        <ele>60.700000000000003</ele>
        <time>2026-07-08T16:16:01Z</time>
      </trkpt>
      <trkpt lat="53.378513026982546" lon="-6.361522022634745">
        <ele>60.700000000000003</ele>
        <time>2026-07-08T16:16:02Z</time>
      </trkpt>
      <trkpt lat="53.378445971757174" lon="-6.361504001542926">
        <ele>60.700000000000003</ele>
        <time>2026-07-08T16:16:03Z</time>
      </trkpt>
      <trkpt lat="53.378375982865691" lon="-6.361484974622726">
        <ele>60.700000000000003</ele>
        <time>2026-07-08T16:16:04Z</time>
      </trkpt>
      <trkpt lat="53.378299036994576" lon="-6.361468965187669">
        <ele>60.700000000000003</ele>
        <time>2026-07-08T16:16:05Z</time>
      </trkpt>
      <trkpt lat="53.378215972334146" lon="-6.361461002379656">
        <ele>60.700000000000003</ele>
        <time>2026-07-08T16:16:06Z</time>
      </trkpt>
      <trkpt lat="53.378131985664368" lon="-6.361453039571643">
        <ele>61.18</ele>
        <time>2026-07-08T16:16:07Z</time>
      </trkpt>
      <trkpt lat="53.378084041178226" lon="-6.361449016258121">
        <ele>60.700000000000003</ele>
        <time>2026-07-08T16:16:08Z</time>
      </trkpt>
      <trkpt lat="53.377984967082739" lon="-6.361497966572642">
        <ele>60.700000000000003</ele>
        <time>2026-07-08T16:16:09Z</time>
      </trkpt>
      <trkpt lat="53.377915984019637" lon="-6.361533002927899">
        <ele>60.219999999999999</ele>
        <time>2026-07-08T16:16:10Z</time>
      </trkpt>
      <trkpt lat="53.377852030098438" lon="-6.361565021798015">
        <ele>60.219999999999999</ele>
        <time>2026-07-08T16:16:11Z</time>
      </trkpt>
      <trkpt lat="53.377783969044685" lon="-6.361598968505859">
        <ele>59.740000000000002</ele>
        <time>2026-07-08T16:16:12Z</time>
      </trkpt>
      <trkpt lat="53.377713980153203" lon="-6.361641967669129">
        <ele>59.740000000000002</ele>
        <time>2026-07-08T16:16:13Z</time>
      </trkpt>
      <trkpt lat="53.377101011574268" lon="-6.362129040062428">
        <ele>58.299999999999997</ele>
        <time>2026-07-08T16:16:22Z</time>
      </trkpt>
      <trkpt lat="53.376678982749581" lon="-6.362488036975265">
        <ele>58.780000000000001</ele>
        <time>2026-07-08T16:16:28Z</time>
      </trkpt>
      <trkpt lat="53.376602958887815" lon="-6.362550985068083">
        <ele>59.259999999999998</ele>
        <time>2026-07-08T16:16:29Z</time>
      </trkpt>
      <trkpt lat="53.3759889844805" lon="-6.363048031926155">
        <ele>60.700000000000003</ele>
        <time>2026-07-08T16:16:38Z</time>
      </trkpt>
      <trkpt lat="53.375926958397031" lon="-6.36310201138258">
        <ele>60.219999999999999</ele>
        <time>2026-07-08T16:16:39Z</time>
      </trkpt>
      <trkpt lat="53.375870967283845" lon="-6.363150039687753">
        <ele>59.740000000000002</ele>
        <time>2026-07-08T16:16:40Z</time>
      </trkpt>
      <trkpt lat="53.375768959522247" lon="-6.363236960023642">
        <ele>58.780000000000001</ele>
        <time>2026-07-08T16:16:42Z</time>
      </trkpt>
      <trkpt lat="53.375605009496212" lon="-6.363379033282399">
        <ele>57.340000000000003</ele>
        <time>2026-07-08T16:16:46Z</time>
      </trkpt>
      <trkpt lat="53.375238971784711" lon="-6.36372503824532">
        <ele>55.409999999999997</ele>
        <time>2026-07-08T16:16:53Z</time>
      </trkpt>
      <trkpt lat="53.375182980671525" lon="-6.363696036860347">
        <ele>55.409999999999997</ele>
        <time>2026-07-08T16:16:54Z</time>
      </trkpt>
      <trkpt lat="53.375112991780043" lon="-6.363658988848329">
        <ele>55.409999999999997</ele>
        <time>2026-07-08T16:16:55Z</time>
      </trkpt>
      <trkpt lat="53.374864971265197" lon="-6.363561004400253">
        <ele>55.890000000000001</ele>
        <time>2026-07-08T16:16:58Z</time>
      </trkpt>
      <trkpt lat="53.374776961281896" lon="-6.363546000793576">
        <ele>55.409999999999997</ele>
        <time>2026-07-08T16:16:59Z</time>
      </trkpt>
      <trkpt lat="53.374241022393107" lon="-6.363409962505102">
        <ele>53.490000000000002</ele>
        <time>2026-07-08T16:17:05Z</time>
      </trkpt>
      <trkpt lat="53.374155024066567" lon="-6.363385990262032">
        <ele>52.530000000000001</ele>
        <time>2026-07-08T16:17:06Z</time>
      </trkpt>
      <trkpt lat="53.373979004099965" lon="-6.363286999985576">
        <ele>50.609999999999999</ele>
        <time>2026-07-08T16:17:08Z</time>
      </trkpt>
      <trkpt lat="53.373895017430186" lon="-6.363237965852022">
        <ele>50.130000000000003</ele>
        <time>2026-07-08T16:17:09Z</time>
      </trkpt>
      <trkpt lat="53.373415991663933" lon="-6.362894978374243">
        <ele>49.159999999999997</ele>
        <time>2026-07-08T16:17:16Z</time>
      </trkpt>
      <trkpt lat="53.373376009985805" lon="-6.362862037494779">
        <ele>49.649999999999999</ele>
        <time>2026-07-08T16:17:17Z</time>
      </trkpt>
      <trkpt lat="53.37332597002387" lon="-6.362821971997619">
        <ele>51.090000000000003</ele>
        <time>2026-07-08T16:17:25Z</time>
      </trkpt>
      <trkpt lat="53.3732829708606" lon="-6.362782996147871">
        <ele>52.530000000000001</ele>
        <time>2026-07-08T16:18:16Z</time>
      </trkpt>
      <trkpt lat="53.373100999742746" lon="-6.362585015594959">
        <ele>61.659999999999997</ele>
        <time>2026-07-08T16:18:25Z</time>
      </trkpt>
      <trkpt lat="53.373082978650928" lon="-6.362564982846379">
        <ele>61.659999999999997</ele>
        <time>2026-07-08T16:18:41Z</time>
      </trkpt>
      <trkpt lat="53.373027993366122" lon="-6.362560959532857">
        <ele>61.18</ele>
        <time>2026-07-08T16:18:42Z</time>
      </trkpt>
      <trkpt lat="53.372967978939414" lon="-6.362590966746211">
        <ele>61.18</ele>
        <time>2026-07-08T16:18:43Z</time>
      </trkpt>
      <trkpt lat="53.372898995876312" lon="-6.362624997273088">
        <ele>61.659999999999997</ele>
        <time>2026-07-08T16:18:44Z</time>
      </trkpt>
      <trkpt lat="53.372821966186166" lon="-6.362663973122835">
        <ele>61.659999999999997</ele>
        <time>2026-07-08T16:18:45Z</time>
      </trkpt>
      <trkpt lat="53.371973969042301" lon="-6.362979970872402">
        <ele>62.140000000000001</ele>
        <time>2026-07-08T16:18:54Z</time>
      </trkpt>
      <trkpt lat="53.370913993567228" lon="-6.36346897110343">
        <ele>64.549999999999997</ele>
        <time>2026-07-08T16:19:04Z</time>
      </trkpt>
      <trkpt lat="53.370705032721162" lon="-6.363514987751842">
        <ele>64.549999999999997</ele>
        <time>2026-07-08T16:19:06Z</time>
      </trkpt>
      <trkpt lat="53.370371013879776" lon="-6.363577013835311">
        <ele>64.069999999999993</ele>
        <time>2026-07-08T16:19:09Z</time>
      </trkpt>
      <trkpt lat="53.370261965319514" lon="-6.36359604075551">
        <ele>64.069999999999993</ele>
        <time>2026-07-08T16:19:10Z</time>
      </trkpt>
      <trkpt lat="53.370051998645067" lon="-6.363625964149833">
        <ele>63.579999999999998</ele>
        <time>2026-07-08T16:19:12Z</time>
      </trkpt>
      <trkpt lat="53.369847983121872" lon="-6.363653959706426">
        <ele>63.579999999999998</ele>
        <time>2026-07-08T16:19:14Z</time>
      </trkpt>
      <trkpt lat="53.369446992874146" lon="-6.363717997446656">
        <ele>64.069999999999993</ele>
        <time>2026-07-08T16:19:18Z</time>
      </trkpt>
      <trkpt lat="53.369351020082831" lon="-6.363766025751829">
        <ele>63.579999999999998</ele>
        <time>2026-07-08T16:19:19Z</time>
      </trkpt>
      <trkpt lat="53.369243983179331" lon="-6.363829979673028">
        <ele>63.579999999999998</ele>
        <time>2026-07-08T16:19:20Z</time>
      </trkpt>
      <trkpt lat="53.369140969589353" lon="-6.363890999928117">
        <ele>63.579999999999998</ele>
        <time>2026-07-08T16:19:21Z</time>
      </trkpt>
      <trkpt lat="53.369033010676503" lon="-6.363955037668347">
        <ele>63.579999999999998</ele>
        <time>2026-07-08T16:19:22Z</time>
      </trkpt>
      <trkpt lat="53.368922034278512" lon="-6.364019997417927">
        <ele>63.100000000000001</ele>
        <time>2026-07-08T16:19:23Z</time>
      </trkpt>
      <trkpt lat="53.368813991546631" lon="-6.364084035158157">
        <ele>62.619999999999997</ele>
        <time>2026-07-08T16:19:24Z</time>
      </trkpt>
      <trkpt lat="53.368709972128272" lon="-6.364173972979188">
        <ele>62.140000000000001</ele>
        <time>2026-07-08T16:19:25Z</time>
      </trkpt>
      <trkpt lat="53.368594972416759" lon="-6.364233987405896">
        <ele>62.140000000000001</ele>
        <time>2026-07-08T16:19:26Z</time>
      </trkpt>
      <trkpt lat="53.368473015725613" lon="-6.364299030974507">
        <ele>62.140000000000001</ele>
        <time>2026-07-08T16:19:27Z</time>
      </trkpt>
      <trkpt lat="53.368344018235803" lon="-6.364366002380848">
        <ele>61.659999999999997</ele>
        <time>2026-07-08T16:19:28Z</time>
      </trkpt>
      <trkpt lat="53.36821099743247" lon="-6.364374971017242">
        <ele>61.659999999999997</ele>
        <time>2026-07-08T16:19:29Z</time>
      </trkpt>
      <trkpt lat="53.36808199994266" lon="-6.364384023472667">
        <ele>61.18</ele>
        <time>2026-07-08T16:19:30Z</time>
      </trkpt>
      <trkpt lat="53.367962976917624" lon="-6.364390980452299">
        <ele>61.18</ele>
        <time>2026-07-08T16:19:31Z</time>
      </trkpt>
      <trkpt lat="53.367853006348014" lon="-6.364399027079344">
        <ele>60.700000000000003</ele>
        <time>2026-07-08T16:19:32Z</time>
      </trkpt>
      <trkpt lat="53.367753010243177" lon="-6.364404978230596">
        <ele>60.219999999999999</ele>
        <time>2026-07-08T16:19:33Z</time>
      </trkpt>
      <trkpt lat="53.367218999192119" lon="-6.364410007372499">
        <ele>58.780000000000001</ele>
        <time>2026-07-08T16:19:41Z</time>
      </trkpt>
      <trkpt lat="53.367192009463906" lon="-6.364410007372499">
        <ele>58.780000000000001</ele>
        <time>2026-07-08T16:19:51Z</time>
      </trkpt>
      <trkpt lat="53.367192009463906" lon="-6.364410007372499">
        <ele>59.259999999999998</ele>
        <time>2026-07-08T16:20:31Z</time>
      </trkpt>
      <trkpt lat="53.367121014744043" lon="-6.364410007372499">
        <ele>59.740000000000002</ele>
        <time>2026-07-08T16:20:36Z</time>
      </trkpt>
      <trkpt lat="53.367077009752393" lon="-6.364534981548786">
        <ele>60.219999999999999</ele>
        <time>2026-07-08T16:20:37Z</time>
      </trkpt>
      <trkpt lat="53.367077009752393" lon="-6.364622991532087">
        <ele>60.219999999999999</ele>
        <time>2026-07-08T16:20:38Z</time>
      </trkpt>
      <trkpt lat="53.367077009752393" lon="-6.364719970151782">
        <ele>60.219999999999999</ele>
        <time>2026-07-08T16:20:39Z</time>
      </trkpt>
      <trkpt lat="53.367077009752393" lon="-6.364826001226902">
        <ele>60.219999999999999</ele>
        <time>2026-07-08T16:20:40Z</time>
      </trkpt>
      <trkpt lat="53.367077009752393" lon="-6.364938989281654">
        <ele>60.219999999999999</ele>
        <time>2026-07-08T16:20:41Z</time>
      </trkpt>
      <trkpt lat="53.367077009752393" lon="-6.365063041448593">
        <ele>60.219999999999999</ele>
        <time>2026-07-08T16:20:42Z</time>
      </trkpt>
      <trkpt lat="53.367077009752393" lon="-6.365198995918036">
        <ele>60.219999999999999</ele>
        <time>2026-07-08T16:20:43Z</time>
      </trkpt>
      <trkpt lat="53.36705002002418" lon="-6.366529958322644">
        <ele>59.259999999999998</ele>
        <time>2026-07-08T16:20:51Z</time>
      </trkpt>
      <trkpt lat="53.367027975618839" lon="-6.366994986310601">
        <ele>59.259999999999998</ele>
        <time>2026-07-08T16:20:54Z</time>
      </trkpt>
      <trkpt lat="53.366838963702321" lon="-6.368486965075135">
        <ele>63.100000000000001</ele>
        <time>2026-07-08T16:21:02Z</time>
      </trkpt>
      <trkpt lat="53.366811973974109" lon="-6.368641024455428">
        <ele>63.579999999999998</ele>
        <time>2026-07-08T16:21:03Z</time>
      </trkpt>
      <trkpt lat="53.366784984245896" lon="-6.368787037208676">
        <ele>63.579999999999998</ele>
        <time>2026-07-08T16:21:04Z</time>
      </trkpt>
      <trkpt lat="53.366760006174445" lon="-6.368926009163261">
        <ele>63.579999999999998</ele>
        <time>2026-07-08T16:21:05Z</time>
      </trkpt>
      <trkpt lat="53.366737039759755" lon="-6.369058024138212">
        <ele>63.100000000000001</ele>
        <time>2026-07-08T16:21:06Z</time>
      </trkpt>
      <trkpt lat="53.366711977869272" lon="-6.369194984436035">
        <ele>62.619999999999997</ele>
        <time>2026-07-08T16:21:07Z</time>
      </trkpt>
      <trkpt lat="53.366711977869272" lon="-6.369364969432354">
        <ele>62.619999999999997</ele>
        <time>2026-07-08T16:21:08Z</time>
      </trkpt>
      <trkpt lat="53.366711977869272" lon="-6.36952699162066">
        <ele>62.140000000000001</ele>
        <time>2026-07-08T16:21:09Z</time>
      </trkpt>
      <trkpt lat="53.366711977869272" lon="-6.369688007980585">
        <ele>62.140000000000001</ele>
        <time>2026-07-08T16:21:10Z</time>
      </trkpt>
      <trkpt lat="53.366712983697653" lon="-6.369853969663382">
        <ele>61.659999999999997</ele>
        <time>2026-07-08T16:21:11Z</time>
      </trkpt>
      <trkpt lat="53.366723963990808" lon="-6.370022026821971">
        <ele>61.659999999999997</ele>
        <time>2026-07-08T16:21:12Z</time>
      </trkpt>
      <trkpt lat="53.366862013936043" lon="-6.371683990582824">
        <ele>63.100000000000001</ele>
        <time>2026-07-08T16:21:21Z</time>
      </trkpt>
      <trkpt lat="53.366849021986127" lon="-6.371924970299006">
        <ele>63.100000000000001</ele>
        <time>2026-07-08T16:21:22Z</time>
      </trkpt>
      <trkpt lat="53.366838963702321" lon="-6.372121023014188">
        <ele>63.100000000000001</ele>
        <time>2026-07-08T16:21:23Z</time>
      </trkpt>
      <trkpt lat="53.366828989237547" lon="-6.372308023273945">
        <ele>63.100000000000001</ele>
        <time>2026-07-08T16:21:24Z</time>
      </trkpt>
      <trkpt lat="53.366820020601153" lon="-6.372483959421516">
        <ele>63.100000000000001</ele>
        <time>2026-07-08T16:21:25Z</time>
      </trkpt>
      <trkpt lat="53.366840975359082" lon="-6.372671965509653">
        <ele>63.100000000000001</ele>
        <time>2026-07-08T16:21:26Z</time>
      </trkpt>
      <trkpt lat="53.366861008107662" lon="-6.372825019061565">
        <ele>62.619999999999997</ele>
        <time>2026-07-08T16:21:27Z</time>
      </trkpt>
      <trkpt lat="53.366880035027862" lon="-6.372967008501291">
        <ele>63.100000000000001</ele>
        <time>2026-07-08T16:21:28Z</time>
      </trkpt>
      <trkpt lat="53.366925967857242" lon="-6.373100029304624">
        <ele>62.619999999999997</ele>
        <time>2026-07-08T16:21:29Z</time>
      </trkpt>
      <trkpt lat="53.366970978677273" lon="-6.373212011530995">
        <ele>62.619999999999997</ele>
        <time>2026-07-08T16:21:30Z</time>
      </trkpt>
      <trkpt lat="53.367419997230172" lon="-6.374195041134954">
        <ele>60.219999999999999</ele>
        <time>2026-07-08T16:21:38Z</time>
      </trkpt>
      <trkpt lat="53.368163974955678" lon="-6.374927032738924">
        <ele>60.700000000000003</ele>
        <time>2026-07-08T16:21:48Z</time>
      </trkpt>
      <trkpt lat="53.369178017601371" lon="-6.375950966030359">
        <ele>60.219999999999999</ele>
        <time>2026-07-08T16:21:58Z</time>
      </trkpt>
      <trkpt lat="53.369959965348244" lon="-6.376449018716812">
        <ele>60.219999999999999</ele>
        <time>2026-07-08T16:22:05Z</time>
      </trkpt>
      <trkpt lat="53.370347963646054" lon="-6.376590002328157">
        <ele>59.740000000000002</ele>
        <time>2026-07-08T16:22:08Z</time>
      </trkpt>
      <trkpt lat="53.370495988056064" lon="-6.376642975956202">
        <ele>59.740000000000002</ele>
        <time>2026-07-08T16:22:09Z</time>
      </trkpt>
      <trkpt lat="53.370803017169237" lon="-6.376743977889419">
        <ele>60.219999999999999</ele>
        <time>2026-07-08T16:22:11Z</time>
      </trkpt>
      <trkpt lat="53.37104600854218" lon="-6.376833999529481">
        <ele>59.740000000000002</ele>
        <time>2026-07-08T16:22:13Z</time>
      </trkpt>
      <trkpt lat="53.371629975736141" lon="-6.376907005906105">
        <ele>56.369999999999997</ele>
        <time>2026-07-08T16:22:20Z</time>
      </trkpt>
      <trkpt lat="53.371783029288054" lon="-6.376964002847672">
        <ele>54.93</ele>
        <time>2026-07-08T16:22:28Z</time>
      </trkpt>
      <trkpt lat="53.37184295989573" lon="-6.377016976475716">
        <ele>55.409999999999997</ele>
        <time>2026-07-08T16:22:52Z</time>
      </trkpt>
      <trkpt lat="53.371888976544142" lon="-6.377058969810605">
        <ele>55.409999999999997</ele>
        <time>2026-07-08T16:22:53Z</time>
      </trkpt>
      <trkpt lat="53.371930969879031" lon="-6.377104986459017">
        <ele>55.409999999999997</ele>
        <time>2026-07-08T16:22:54Z</time>
      </trkpt>
      <trkpt lat="53.371961982920766" lon="-6.377183021977544">
        <ele>55.409999999999997</ele>
        <time>2026-07-08T16:22:55Z</time>
      </trkpt>
      <trkpt lat="53.3720120228827" lon="-6.37730598449707">
        <ele>55.890000000000001</ele>
        <time>2026-07-08T16:22:56Z</time>
      </trkpt>
      <trkpt lat="53.372010011225939" lon="-6.377379996702075">
        <ele>56.369999999999997</ele>
        <time>2026-07-08T16:22:57Z</time>
      </trkpt>
      <trkpt lat="53.372005987912416" lon="-6.377494996413589">
        <ele>56.859999999999999</ele>
        <time>2026-07-08T16:22:58Z</time>
      </trkpt>
      <trkpt lat="53.372001964598894" lon="-6.377621982246637">
        <ele>56.859999999999999</ele>
        <time>2026-07-08T16:22:59Z</time>
      </trkpt>
      <trkpt lat="53.371997019276023" lon="-6.377766989171505">
        <ele>56.859999999999999</ele>
        <time>2026-07-08T16:23:00Z</time>
      </trkpt>
      <trkpt lat="53.371992995962501" lon="-6.377922976389527">
        <ele>56.859999999999999</ele>
        <time>2026-07-08T16:23:01Z</time>
      </trkpt>
      <trkpt lat="53.371983021497726" lon="-6.378089021891356">
        <ele>57.340000000000003</ele>
        <time>2026-07-08T16:23:02Z</time>
      </trkpt>
      <trkpt lat="53.37196902371943" lon="-6.378262024372816">
        <ele>57.340000000000003</ele>
        <time>2026-07-08T16:23:03Z</time>
      </trkpt>
      <trkpt lat="53.371954020112753" lon="-6.378441983833909">
        <ele>57.340000000000003</ele>
        <time>2026-07-08T16:23:04Z</time>
      </trkpt>
      <trkpt lat="53.371939016506076" lon="-6.378625966608524">
        <ele>57.82</ele>
        <time>2026-07-08T16:23:05Z</time>
      </trkpt>
      <trkpt lat="53.371914038434625" lon="-6.378967026248574">
        <ele>58.299999999999997</ele>
        <time>2026-07-08T16:23:07Z</time>
      </trkpt>
      <trkpt lat="53.371903980150819" lon="-6.379124019294977">
        <ele>59.259999999999998</ele>
        <time>2026-07-08T16:23:08Z</time>
      </trkpt>
      <trkpt lat="53.371894005686045" lon="-6.379273971542716">
        <ele>60.219999999999999</ele>
        <time>2026-07-08T16:23:09Z</time>
      </trkpt>
      <trkpt lat="53.371884031221271" lon="-6.379423001781106">
        <ele>60.700000000000003</ele>
        <time>2026-07-08T16:23:10Z</time>
      </trkpt>
      <trkpt lat="53.371874978765845" lon="-6.379569014534354">
        <ele>61.18</ele>
        <time>2026-07-08T16:23:11Z</time>
      </trkpt>
      <trkpt lat="53.371861986815929" lon="-6.379833966493607">
        <ele>62.140000000000001</ele>
        <time>2026-07-08T16:23:13Z</time>
      </trkpt>
      <trkpt lat="53.371860980987549" lon="-6.380162034183741">
        <ele>63.579999999999998</ele>
        <time>2026-07-08T16:23:16Z</time>
      </trkpt>
      <trkpt lat="53.371858969330788" lon="-6.380239985883236">
        <ele>64.069999999999993</ele>
        <time>2026-07-08T16:23:17Z</time>
      </trkpt>
      <trkpt lat="53.371856035664678" lon="-6.380307041108608">
        <ele>64.549999999999997</ele>
        <time>2026-07-08T16:23:18Z</time>
      </trkpt>
      <trkpt lat="53.371854024007916" lon="-6.380365965887904">
        <ele>65.030000000000001</ele>
        <time>2026-07-08T16:23:19Z</time>
      </trkpt>
      <trkpt lat="53.371853018179536" lon="-6.380409970879555">
        <ele>65.510000000000005</ele>
        <time>2026-07-08T16:23:20Z</time>
      </trkpt>
      <trkpt lat="53.371852012351155" lon="-6.380434026941657">
        <ele>65.989999999999995</ele>
        <time>2026-07-08T16:23:21Z</time>
      </trkpt>
      <trkpt lat="53.371709017083049" lon="-6.380452970042825">
        <ele>67.909999999999997</ele>
        <time>2026-07-08T16:23:24Z</time>
      </trkpt>
      <trkpt lat="53.371649002656341" lon="-6.380449030548334">
        <ele>68.870000000000005</ele>
        <time>2026-07-08T16:23:41Z</time>
      </trkpt>
      <trkpt lat="53.371626958250999" lon="-6.380453975871205">
        <ele>69.349999999999994</ele>
        <time>2026-07-08T16:24:05Z</time>
      </trkpt>
      <trkpt lat="53.371248012408614" lon="-6.380465961992741">
        <ele>69.829999999999998</ele>
        <time>2026-07-08T16:24:13Z</time>
      </trkpt>
      <trkpt lat="53.371234014630318" lon="-6.380453975871205">
        <ele>70.310000000000002</ele>
        <time>2026-07-08T16:24:14Z</time>
      </trkpt>
      <trkpt lat="53.371210964396596" lon="-6.380428997799754">
        <ele>70.790000000000006</ele>
        <time>2026-07-08T16:24:20Z</time>
      </trkpt>
      <trkpt lat="53.371246000751853" lon="-6.380528993904591">
        <ele>71.269999999999996</ele>
        <time>2026-07-08T16:24:28Z</time>
      </trkpt>
      <trkpt lat="53.371639028191566" lon="-6.380423968657851">
        <ele>67.430000000000007</ele>
        <time>2026-07-08T16:24:38Z</time>
      </trkpt>
      <trkpt lat="53.371851006522775" lon="-6.380476020276547">
        <ele>66.950000000000003</ele>
        <time>2026-07-08T16:24:40Z</time>
      </trkpt>
      <trkpt lat="53.371850000694394" lon="-6.380511978641152">
        <ele>66.950000000000003</ele>
        <time>2026-07-08T16:24:41Z</time>
      </trkpt>
      <trkpt lat="53.371847989037633" lon="-6.380562018603087">
        <ele>66.950000000000003</ele>
        <time>2026-07-08T16:24:42Z</time>
      </trkpt>
      <trkpt lat="53.371847989037633" lon="-6.381227038800716">
        <ele>66.469999999999999</ele>
        <time>2026-07-08T16:24:52Z</time>
      </trkpt>
      <trkpt lat="53.371857041493058" lon="-6.381703969091177">
        <ele>65.510000000000005</ele>
        <time>2026-07-08T16:25:01Z</time>
      </trkpt>
      <trkpt lat="53.371857963502407" lon="-6.381742022931576">
        <ele>65.510000000000005</ele>
        <time>2026-07-08T16:25:10Z</time>
      </trkpt>
      <trkpt lat="53.371865004301071" lon="-6.382019966840744">
        <ele>65.030000000000001</ele>
        <time>2026-07-08T16:25:17Z</time>
      </trkpt>
      <trkpt lat="53.371861986815929" lon="-6.381941009312868">
        <ele>65.030000000000001</ele>
        <time>2026-07-08T16:25:18Z</time>
      </trkpt>
      <trkpt lat="53.371861986815929" lon="-6.381941009312868">
        <ele>65.030000000000001</ele>
        <time>2026-07-08T16:25:19Z</time>
      </trkpt>
      <trkpt lat="53.371861986815929" lon="-6.381941009312868">
        <ele>64.549999999999997</ele>
        <time>2026-07-08T16:25:20Z</time>
      </trkpt>
      <trkpt lat="53.371861986815929" lon="-6.381941009312868">
        <ele>64.069999999999993</ele>
        <time>2026-07-08T16:25:21Z</time>
      </trkpt>
      <trkpt lat="53.371861986815929" lon="-6.381941009312868">
        <ele>63.579999999999998</ele>
        <time>2026-07-08T16:25:22Z</time>
      </trkpt>
      <trkpt lat="53.371861986815929" lon="-6.381941009312868">
        <ele>63.579999999999998</ele>
        <time>2026-07-08T16:25:23Z</time>
      </trkpt>
      <trkpt lat="53.371512964367867" lon="-6.382180983200669">
        <ele>63.100000000000001</ele>
        <time>2026-07-08T16:25:31Z</time>
      </trkpt>
      <trkpt lat="53.371526962146163" lon="-6.382157010957599">
        <ele>63.579999999999998</ele>
        <time>2026-07-08T16:25:48Z</time>
      </trkpt>
      <trkpt lat="53.371524028480053" lon="-6.382130021229386">
        <ele>64.069999999999993</ele>
        <time>2026-07-08T16:26:49Z</time>
      </trkpt>
      <trkpt lat="53.371530985459685" lon="-6.382072018459439">
        <ele>63.100000000000001</ele>
        <time>2026-07-08T16:27:43Z</time>
      </trkpt>
      <trkpt lat="53.371538026258349" lon="-6.382033964619041">
        <ele>63.100000000000001</ele>
        <time>2026-07-08T16:27:49Z</time>
      </trkpt>
      <trkpt lat="53.371537020429969" lon="-6.382084004580975">
        <ele>60.219999999999999</ele>
        <time>2026-07-08T16:28:02Z</time>
      </trkpt>
      <trkpt lat="53.371540037915111" lon="-6.382044022902846">
        <ele>58.780000000000001</ele>
        <time>2026-07-08T16:28:11Z</time>
      </trkpt>
      <trkpt lat="53.371861986815929" lon="-6.381941009312868">
        <ele>58.299999999999997</ele>
        <time>2026-07-08T16:28:18Z</time>
      </trkpt>
      <trkpt lat="53.371861986815929" lon="-6.381941009312868">
        <ele>58.299999999999997</ele>
        <time>2026-07-08T16:28:32Z</time>
      </trkpt>
      <trkpt lat="53.371861986815929" lon="-6.381941009312868">
        <ele>58.780000000000001</ele>
        <time>2026-07-08T16:28:37Z</time>
      </trkpt>
      <trkpt lat="53.371860980987549" lon="-6.381889041513205">
        <ele>58.780000000000001</ele>
        <time>2026-07-08T16:28:38Z</time>
      </trkpt>
      <trkpt lat="53.371857963502407" lon="-6.38177496381104">
        <ele>58.780000000000001</ele>
        <time>2026-07-08T16:28:39Z</time>
      </trkpt>
      <trkpt lat="53.371844971552491" lon="-6.381061999127269">
        <ele>58.780000000000001</ele>
        <time>2026-07-08T16:28:44Z</time>
      </trkpt>
      <trkpt lat="53.371851006522775" lon="-6.380491023883224">
        <ele>58.299999999999997</ele>
        <time>2026-07-08T16:28:49Z</time>
      </trkpt>
      <trkpt lat="53.371852012351155" lon="-6.380430003628135">
        <ele>58.299999999999997</ele>
        <time>2026-07-08T16:28:50Z</time>
      </trkpt>
      <trkpt lat="53.371854024007916" lon="-6.380395973101258">
        <ele>58.299999999999997</ele>
        <time>2026-07-08T16:28:51Z</time>
      </trkpt>
      <trkpt lat="53.371851006522775" lon="-6.380465961992741">
        <ele>58.299999999999997</ele>
        <time>2026-07-08T16:28:55Z</time>
      </trkpt>
      <trkpt lat="53.371850000694394" lon="-6.380520025268197">
        <ele>57.82</ele>
        <time>2026-07-08T16:28:56Z</time>
      </trkpt>
      <trkpt lat="53.371847989037633" lon="-6.380572998896241">
        <ele>58.299999999999997</ele>
        <time>2026-07-08T16:28:57Z</time>
      </trkpt>
      <trkpt lat="53.371846983209252" lon="-6.380617003887892">
        <ele>58.299999999999997</ele>
        <time>2026-07-08T16:28:58Z</time>
      </trkpt>
      <trkpt lat="53.371845977380872" lon="-6.380652040243149">
        <ele>58.299999999999997</ele>
        <time>2026-07-08T16:28:59Z</time>
      </trkpt>
      <trkpt lat="53.371844971552491" lon="-6.380681041628122">
        <ele>57.82</ele>
        <time>2026-07-08T16:29:00Z</time>
      </trkpt>
      <trkpt lat="53.371844971552491" lon="-6.380681041628122">
        <ele>58.299999999999997</ele>
        <time>2026-07-08T16:29:13Z</time>
      </trkpt>
      <trkpt lat="53.371844971552491" lon="-6.380681041628122">
        <ele>58.299999999999997</ele>
        <time>2026-07-08T16:29:37Z</time>
      </trkpt>
      <trkpt lat="53.371844971552491" lon="-6.380681041628122">
        <ele>58.299999999999997</ele>
        <time>2026-07-08T16:29:59Z</time>
      </trkpt>
      <trkpt lat="53.371844971552491" lon="-6.380681041628122">
        <ele>57.82</ele>
        <time>2026-07-08T16:30:25Z</time>
      </trkpt>
      <trkpt lat="53.371844971552491" lon="-6.380681041628122">
        <ele>57.82</ele>
        <time>2026-07-08T16:30:51Z</time>
      </trkpt>
    </trkseg>
  </trk>

</gpx>